﻿<?xml version="1.0" encoding="utf-8"?><gpx creator="Garmin Desktop App" version="1.1" xsi:schemaLocation="http://www.topografix.com/GPX/1/1 http://www.topografix.com/GPX/1/1/gpx.xsd http://www.garmin.com/xmlschemas/WaypointExtension/v1 http://www8.garmin.com/xmlschemas/WaypointExtensionv1.xsd http://www.garmin.com/xmlschemas/TrackPointExtension/v1 http://www.garmin.com/xmlschemas/TrackPointExtensionv1.xsd http://www.garmin.com/xmlschemas/GpxExtensions/v3 http://www8.garmin.com/xmlschemas/GpxExtensionsv3.xsd http://www.garmin.com/xmlschemas/ActivityExtension/v1 http://www8.garmin.com/xmlschemas/ActivityExtensionv1.xsd http://www.garmin.com/xmlschemas/AdventuresExtensions/v1 http://www8.garmin.com/xmlschemas/AdventuresExtensionv1.xsd http://www.garmin.com/xmlschemas/PressureExtension/v1 http://www.garmin.com/xmlschemas/PressureExtensionv1.xsd http://www.garmin.com/xmlschemas/TripExtensions/v1 http://www.garmin.com/xmlschemas/TripExtensionsv1.xsd http://www.garmin.com/xmlschemas/TripMetaDataExtensions/v1 http://www.garmin.com/xmlschemas/TripMetaDataExtensionsv1.xsd http://www.garmin.com/xmlschemas/ViaPointTransportationModeExtensions/v1 http://www.garmin.com/xmlschemas/ViaPointTransportationModeExtensionsv1.xsd http://www.garmin.com/xmlschemas/CreationTimeExtension/v1 http://www.garmin.com/xmlschemas/CreationTimeExtensionsv1.xsd http://www.garmin.com/xmlschemas/AccelerationExtension/v1 http://www.garmin.com/xmlschemas/AccelerationExtensionv1.xsd http://www.garmin.com/xmlschemas/PowerExtension/v1 http://www.garmin.com/xmlschemas/PowerExtensionv1.xsd http://www.garmin.com/xmlschemas/VideoExtension/v1 http://www.garmin.com/xmlschemas/VideoExtensionv1.xsd" xmlns="http://www.topografix.com/GPX/1/1" xmlns:xsi="http://www.w3.org/2001/XMLSchema-instance" xmlns:wptx1="http://www.garmin.com/xmlschemas/WaypointExtension/v1" xmlns:gpxtrx="http://www.garmin.com/xmlschemas/GpxExtensions/v3" xmlns:gpxtpx="http://www.garmin.com/xmlschemas/TrackPointExtension/v1" xmlns:gpxx="http://www.garmin.com/xmlschemas/GpxExtensions/v3" xmlns:trp="http://www.garmin.com/xmlschemas/TripExtensions/v1" xmlns:adv="http://www.garmin.com/xmlschemas/AdventuresExtensions/v1" xmlns:prs="http://www.garmin.com/xmlschemas/PressureExtension/v1" xmlns:tmd="http://www.garmin.com/xmlschemas/TripMetaDataExtensions/v1" xmlns:vptm="http://www.garmin.com/xmlschemas/ViaPointTransportationModeExtensions/v1" xmlns:ctx="http://www.garmin.com/xmlschemas/CreationTimeExtension/v1" xmlns:gpxacc="http://www.garmin.com/xmlschemas/AccelerationExtension/v1" xmlns:gpxpx="http://www.garmin.com/xmlschemas/PowerExtension/v1" xmlns:vidx1="http://www.garmin.com/xmlschemas/VideoExtension/v1">

  <metadata>
    <link href="http://www.garmin.com">
      <text>Garmin International</text>
    </link>
    <time>2017-03-15T16:54:14Z</time>
    <bounds maxlat="47.318050023168325" maxlon="7.26425601169467" minlat="47.070602998137474" minlon="6.867952002212405" />
  </metadata>

  <trk>
    <name>Jura-Ausflug_von_Biel</name>
    <extensions>
      <gpxx:TrackExtension>
        <gpxx:DisplayColor>Red</gpxx:DisplayColor>
      </gpxx:TrackExtension>
    </extensions>
    <trkseg>
      <trkpt lat="47.143140407279134" lon="7.24745255894959">
        <ele>441.86000000000001</ele>
        <time>2016-07-26T12:16:04Z</time>
      </trkpt>
      <trkpt lat="47.143741976469755" lon="7.248642034828663">
        <ele>441.86000000000001</ele>
        <time>2016-07-26T12:16:10Z</time>
      </trkpt>
      <trkpt lat="47.143806014209986" lon="7.248692996799946">
        <ele>442.33999999999997</ele>
        <time>2016-07-26T12:16:20Z</time>
      </trkpt>
      <trkpt lat="47.143991002812982" lon="7.248962977901101">
        <ele>442.33999999999997</ele>
        <time>2016-07-26T12:16:23Z</time>
      </trkpt>
      <trkpt lat="47.144617969170213" lon="7.250236021354795">
        <ele>444.26999999999998</ele>
        <time>2016-07-26T12:16:33Z</time>
      </trkpt>
      <trkpt lat="47.144817039370537" lon="7.250581020489335">
        <ele>447.14999999999998</ele>
        <time>2016-07-26T12:16:40Z</time>
      </trkpt>
      <trkpt lat="47.145206965506077" lon="7.251274958252907">
        <ele>449.55000000000001</ele>
        <time>2016-07-26T12:16:48Z</time>
      </trkpt>
      <trkpt lat="47.145267985761166" lon="7.251375038176775">
        <ele>449.55000000000001</ele>
        <time>2016-07-26T12:16:49Z</time>
      </trkpt>
      <trkpt lat="47.145346021279693" lon="7.25147302262485">
        <ele>449.55000000000001</ele>
        <time>2016-07-26T12:16:50Z</time>
      </trkpt>
      <trkpt lat="47.146001989021897" lon="7.252321019768715">
        <ele>448.11000000000001</ele>
        <time>2016-07-26T12:16:58Z</time>
      </trkpt>
      <trkpt lat="47.147051990032196" lon="7.253645025193691">
        <ele>451.48000000000002</ele>
        <time>2016-07-26T12:17:10Z</time>
      </trkpt>
      <trkpt lat="47.147463960573077" lon="7.25426696240902">
        <ele>453.88</ele>
        <time>2016-07-26T12:17:15Z</time>
      </trkpt>
      <trkpt lat="47.148425029590726" lon="7.25620100274682">
        <ele>459.17000000000002</ele>
        <time>2016-07-26T12:17:28Z</time>
      </trkpt>
      <trkpt lat="47.148855021223426" lon="7.256882032379508">
        <ele>463.00999999999999</ele>
        <time>2016-07-26T12:17:34Z</time>
      </trkpt>
      <trkpt lat="47.148953005671501" lon="7.256976999342442">
        <ele>463.49000000000001</ele>
        <time>2016-07-26T12:17:35Z</time>
      </trkpt>
      <trkpt lat="47.149063982069492" lon="7.257067020982504">
        <ele>463.97000000000003</ele>
        <time>2016-07-26T12:17:36Z</time>
      </trkpt>
      <trkpt lat="47.149183005094528" lon="7.257155030965805">
        <ele>464.44999999999999</ele>
        <time>2016-07-26T12:17:37Z</time>
      </trkpt>
      <trkpt lat="47.149318037554622" lon="7.257240023463965">
        <ele>465.89999999999998</ele>
        <time>2016-07-26T12:17:38Z</time>
      </trkpt>
      <trkpt lat="47.149845007807016" lon="7.257686024531722">
        <ele>466.38</ele>
        <time>2016-07-26T12:17:42Z</time>
      </trkpt>
      <trkpt lat="47.150388993322849" lon="7.258428996428847">
        <ele>469.25999999999999</ele>
        <time>2016-07-26T12:17:48Z</time>
      </trkpt>
      <trkpt lat="47.151072034612298" lon="7.259319992735982">
        <ele>474.55000000000001</ele>
        <time>2016-07-26T12:17:58Z</time>
      </trkpt>
      <trkpt lat="47.151235984638333" lon="7.259547980502248">
        <ele>475.99000000000001</ele>
        <time>2016-07-26T12:18:01Z</time>
      </trkpt>
      <trkpt lat="47.151341009885073" lon="7.259690975770354">
        <ele>477.43000000000001</ele>
        <time>2016-07-26T12:18:09Z</time>
      </trkpt>
      <trkpt lat="47.151347966864705" lon="7.259684018790722">
        <ele>477.43000000000001</ele>
        <time>2016-07-26T12:18:36Z</time>
      </trkpt>
      <trkpt lat="47.151367999613285" lon="7.25972299464047">
        <ele>477.43000000000001</ele>
        <time>2016-07-26T12:18:37Z</time>
      </trkpt>
      <trkpt lat="47.151697995141149" lon="7.260159021243453">
        <ele>479.35000000000002</ele>
        <time>2016-07-26T12:18:42Z</time>
      </trkpt>
      <trkpt lat="47.152852015569806" lon="7.261681007221341">
        <ele>484.63999999999999</ele>
        <time>2016-07-26T12:18:55Z</time>
      </trkpt>
      <trkpt lat="47.154098991304636" lon="7.263282034546137">
        <ele>496.66000000000003</ele>
        <time>2016-07-26T12:19:08Z</time>
      </trkpt>
      <trkpt lat="47.155045978724957" lon="7.263970021158457">
        <ele>503.38999999999999</ele>
        <time>2016-07-26T12:19:16Z</time>
      </trkpt>
      <trkpt lat="47.156293960288167" lon="7.264206977561116">
        <ele>510.60000000000002</ele>
        <time>2016-07-26T12:19:27Z</time>
      </trkpt>
      <trkpt lat="47.156377024948597" lon="7.264155009761453">
        <ele>511.07999999999998</ele>
        <time>2016-07-26T12:19:28Z</time>
      </trkpt>
      <trkpt lat="47.156453970819712" lon="7.264082003384829">
        <ele>511.56</ele>
        <time>2016-07-26T12:19:29Z</time>
      </trkpt>
      <trkpt lat="47.156636025756598" lon="7.263970021158457">
        <ele>513.48000000000002</ele>
        <time>2016-07-26T12:19:31Z</time>
      </trkpt>
      <trkpt lat="47.156745996326208" lon="7.263974966481328">
        <ele>513.48000000000002</ele>
        <time>2016-07-26T12:19:32Z</time>
      </trkpt>
      <trkpt lat="47.156854961067438" lon="7.264010002836585">
        <ele>513.96000000000004</ele>
        <time>2016-07-26T12:19:33Z</time>
      </trkpt>
      <trkpt lat="47.156956968829036" lon="7.264068005606532">
        <ele>514.44000000000005</ele>
        <time>2016-07-26T12:19:34Z</time>
      </trkpt>
      <trkpt lat="47.157062999904156" lon="7.264134977012873">
        <ele>514.91999999999996</ele>
        <time>2016-07-26T12:19:35Z</time>
      </trkpt>
      <trkpt lat="47.157197026535869" lon="7.264188034459949">
        <ele>515.39999999999998</ele>
        <time>2016-07-26T12:19:36Z</time>
      </trkpt>
      <trkpt lat="47.157332981005311" lon="7.264226004481316">
        <ele>515.88</ele>
        <time>2016-07-26T12:19:37Z</time>
      </trkpt>
      <trkpt lat="47.157620983198285" lon="7.26425601169467">
        <ele>517.33000000000004</ele>
        <time>2016-07-26T12:19:39Z</time>
      </trkpt>
      <trkpt lat="47.15776196680963" lon="7.264243019744754">
        <ele>518.28999999999996</ele>
        <time>2016-07-26T12:19:40Z</time>
      </trkpt>
      <trkpt lat="47.158874999731779" lon="7.263627033680677">
        <ele>524.05999999999995</ele>
        <time>2016-07-26T12:19:48Z</time>
      </trkpt>
      <trkpt lat="47.158943982794881" lon="7.263393010944128">
        <ele>523.58000000000004</ele>
        <time>2016-07-26T12:19:49Z</time>
      </trkpt>
      <trkpt lat="47.159002991393209" lon="7.263168040663004">
        <ele>523.58000000000004</ele>
        <time>2016-07-26T12:19:50Z</time>
      </trkpt>
      <trkpt lat="47.159046996384859" lon="7.262938041239977">
        <ele>523.58000000000004</ele>
        <time>2016-07-26T12:19:51Z</time>
      </trkpt>
      <trkpt lat="47.159098964184523" lon="7.262708963826299">
        <ele>523.58000000000004</ele>
        <time>2016-07-26T12:19:52Z</time>
      </trkpt>
      <trkpt lat="47.15915797278285" lon="7.262481981888413">
        <ele>523.58000000000004</ele>
        <time>2016-07-26T12:19:53Z</time>
      </trkpt>
      <trkpt lat="47.159230979159474" lon="7.262268997728825">
        <ele>524.05999999999995</ele>
        <time>2016-07-26T12:19:54Z</time>
      </trkpt>
      <trkpt lat="47.159321000799537" lon="7.262078979983926">
        <ele>524.53999999999996</ele>
        <time>2016-07-26T12:19:55Z</time>
      </trkpt>
      <trkpt lat="47.15941496193409" lon="7.261896003037691">
        <ele>525.5</ele>
        <time>2016-07-26T12:19:56Z</time>
      </trkpt>
      <trkpt lat="47.159525016322732" lon="7.261719983071089">
        <ele>525.5</ele>
        <time>2016-07-26T12:19:57Z</time>
      </trkpt>
      <trkpt lat="47.159654013812542" lon="7.261557960882783">
        <ele>525.98000000000002</ele>
        <time>2016-07-26T12:19:58Z</time>
      </trkpt>
      <trkpt lat="47.159782005473971" lon="7.261409014463425">
        <ele>525.98000000000002</ele>
        <time>2016-07-26T12:19:59Z</time>
      </trkpt>
      <trkpt lat="47.159933969378471" lon="7.261279011145234">
        <ele>526.46000000000004</ele>
        <time>2016-07-26T12:20:00Z</time>
      </trkpt>
      <trkpt lat="47.1601000148803" lon="7.261165017262101">
        <ele>526.94000000000005</ele>
        <time>2016-07-26T12:20:01Z</time>
      </trkpt>
      <trkpt lat="47.160291038453579" lon="7.261058986186981">
        <ele>527.41999999999996</ele>
        <time>2016-07-26T12:20:02Z</time>
      </trkpt>
      <trkpt lat="47.161886030808091" lon="7.260360019281507">
        <ele>534.14999999999998</ele>
        <time>2016-07-26T12:20:10Z</time>
      </trkpt>
      <trkpt lat="47.163278013467789" lon="7.2601099871099">
        <ele>537.99000000000001</ele>
        <time>2016-07-26T12:20:17Z</time>
      </trkpt>
      <trkpt lat="47.164427004754543" lon="7.259957017377019">
        <ele>540.88</ele>
        <time>2016-07-26T12:20:24Z</time>
      </trkpt>
      <trkpt lat="47.165889982134104" lon="7.259864984080195">
        <ele>542.32000000000005</ele>
        <time>2016-07-26T12:20:29Z</time>
      </trkpt>
      <trkpt lat="47.167539037764072" lon="7.260098000988364">
        <ele>542.79999999999995</ele>
        <time>2016-07-26T12:20:37Z</time>
      </trkpt>
      <trkpt lat="47.16871895827353" lon="7.2603880148381">
        <ele>543.75999999999999</ele>
        <time>2016-07-26T12:20:43Z</time>
      </trkpt>
      <trkpt lat="47.168899001553655" lon="7.260360019281507">
        <ele>544.72000000000003</ele>
        <time>2016-07-26T12:20:44Z</time>
      </trkpt>
      <trkpt lat="47.169076027348638" lon="7.260292964056134">
        <ele>545.69000000000005</ele>
        <time>2016-07-26T12:20:45Z</time>
      </trkpt>
      <trkpt lat="47.169244000688195" lon="7.260187016800046">
        <ele>546.64999999999998</ele>
        <time>2016-07-26T12:20:46Z</time>
      </trkpt>
      <trkpt lat="47.169403005391359" lon="7.260039998218417">
        <ele>547.61000000000001</ele>
        <time>2016-07-26T12:20:47Z</time>
      </trkpt>
      <trkpt lat="47.169547006487846" lon="7.259887028485537">
        <ele>548.09000000000003</ele>
        <time>2016-07-26T12:20:48Z</time>
      </trkpt>
      <trkpt lat="47.169669969007373" lon="7.259699022397399">
        <ele>549.52999999999997</ele>
        <time>2016-07-26T12:20:49Z</time>
      </trkpt>
      <trkpt lat="47.169779017567635" lon="7.259491989389062">
        <ele>550.00999999999999</ele>
        <time>2016-07-26T12:20:50Z</time>
      </trkpt>
      <trkpt lat="47.169871972873807" lon="7.259258972480893">
        <ele>550.97000000000003</ele>
        <time>2016-07-26T12:20:51Z</time>
      </trkpt>
      <trkpt lat="47.169941961765289" lon="7.258985973894596">
        <ele>552.89999999999998</ele>
        <time>2016-07-26T12:20:52Z</time>
      </trkpt>
      <trkpt lat="47.169992001727223" lon="7.258646003901959">
        <ele>556.74000000000001</ele>
        <time>2016-07-26T12:20:53Z</time>
      </trkpt>
      <trkpt lat="47.170017985627055" lon="7.258325982838869">
        <ele>559.13999999999999</ele>
        <time>2016-07-26T12:20:54Z</time>
      </trkpt>
      <trkpt lat="47.170025026425719" lon="7.258007973432541">
        <ele>561.07000000000005</ele>
        <time>2016-07-26T12:20:55Z</time>
      </trkpt>
      <trkpt lat="47.170021003112197" lon="7.257695998996496">
        <ele>562.02999999999997</ele>
        <time>2016-07-26T12:20:56Z</time>
      </trkpt>
      <trkpt lat="47.170014968141913" lon="7.25738201290369">
        <ele>562.50999999999999</ele>
        <time>2016-07-26T12:20:57Z</time>
      </trkpt>
      <trkpt lat="47.169972974807024" lon="7.255542017519474">
        <ele>568.27999999999997</ele>
        <time>2016-07-26T12:21:03Z</time>
      </trkpt>
      <trkpt lat="47.1700070053339" lon="7.255255021154881">
        <ele>569.24000000000001</ele>
        <time>2016-07-26T12:21:04Z</time>
      </trkpt>
      <trkpt lat="47.170490976423025" lon="7.25310598500073">
        <ele>576.45000000000005</ele>
        <time>2016-07-26T12:21:12Z</time>
      </trkpt>
      <trkpt lat="47.170641012489796" lon="7.252874979749322">
        <ele>577.88999999999999</ele>
        <time>2016-07-26T12:21:13Z</time>
      </trkpt>
      <trkpt lat="47.17086598277092" lon="7.252668030560017">
        <ele>578.37</ele>
        <time>2016-07-26T12:21:14Z</time>
      </trkpt>
      <trkpt lat="47.171013001352549" lon="7.2524409648031">
        <ele>579.33000000000004</ele>
        <time>2016-07-26T12:21:15Z</time>
      </trkpt>
      <trkpt lat="47.171075027436018" lon="7.25216000340879">
        <ele>580.28999999999996</ele>
        <time>2016-07-26T12:21:16Z</time>
      </trkpt>
      <trkpt lat="47.171562016010284" lon="7.25020601414144">
        <ele>586.05999999999995</ele>
        <time>2016-07-26T12:21:23Z</time>
      </trkpt>
      <trkpt lat="47.171743987128139" lon="7.250048015266657">
        <ele>587.01999999999998</ele>
        <time>2016-07-26T12:21:24Z</time>
      </trkpt>
      <trkpt lat="47.172108013182878" lon="7.25007601082325">
        <ele>587.5</ele>
        <time>2016-07-26T12:21:25Z</time>
      </trkpt>
      <trkpt lat="47.17241495847702" lon="7.250080034136772">
        <ele>587.98000000000002</ele>
        <time>2016-07-26T12:21:26Z</time>
      </trkpt>
      <trkpt lat="47.172659039497375" lon="7.250051032751799">
        <ele>588.46000000000004</ele>
        <time>2016-07-26T12:21:27Z</time>
      </trkpt>
      <trkpt lat="47.172901025041938" lon="7.249985989183188">
        <ele>588.46000000000004</ele>
        <time>2016-07-26T12:21:28Z</time>
      </trkpt>
      <trkpt lat="47.17311903834343" lon="7.249932009726763">
        <ele>589.42999999999995</ele>
        <time>2016-07-26T12:21:29Z</time>
      </trkpt>
      <trkpt lat="47.173316013067961" lon="7.249896973371506">
        <ele>589.90999999999997</ele>
        <time>2016-07-26T12:21:30Z</time>
      </trkpt>
      <trkpt lat="47.174059990793467" lon="7.249600002542138">
        <ele>592.30999999999995</ele>
        <time>2016-07-26T12:21:34Z</time>
      </trkpt>
      <trkpt lat="47.175056012347341" lon="7.249029027298093">
        <ele>597.12</ele>
        <time>2016-07-26T12:21:40Z</time>
      </trkpt>
      <trkpt lat="47.175205964595079" lon="7.248893994837999">
        <ele>598.08000000000004</ele>
        <time>2016-07-26T12:21:41Z</time>
      </trkpt>
      <trkpt lat="47.175339991226792" lon="7.248735995963216">
        <ele>599.03999999999996</ele>
        <time>2016-07-26T12:21:42Z</time>
      </trkpt>
      <trkpt lat="47.176141971722245" lon="7.247837958857417">
        <ele>604.80999999999995</ele>
        <time>2016-07-26T12:21:49Z</time>
      </trkpt>
      <trkpt lat="47.176277004182339" lon="7.247772999107838">
        <ele>605.76999999999998</ele>
        <time>2016-07-26T12:21:50Z</time>
      </trkpt>
      <trkpt lat="47.176419999450445" lon="7.247731005772948">
        <ele>606.25</ele>
        <time>2016-07-26T12:21:51Z</time>
      </trkpt>
      <trkpt lat="47.178384969010949" lon="7.246126960963011">
        <ele>597.60000000000002</ele>
        <time>2016-07-26T12:22:05Z</time>
      </trkpt>
      <trkpt lat="47.178506003692746" lon="7.246224023401737">
        <ele>596.14999999999998</ele>
        <time>2016-07-26T12:22:06Z</time>
      </trkpt>
      <trkpt lat="47.17866500839591" lon="7.246290994808078">
        <ele>597.12</ele>
        <time>2016-07-26T12:22:07Z</time>
      </trkpt>
      <trkpt lat="47.178798029199243" lon="7.246308010071516">
        <ele>597.60000000000002</ele>
        <time>2016-07-26T12:22:08Z</time>
      </trkpt>
      <trkpt lat="47.178960973396897" lon="7.246357966214418">
        <ele>596.14999999999998</ele>
        <time>2016-07-26T12:22:09Z</time>
      </trkpt>
      <trkpt lat="47.180180959403515" lon="7.247164975851774">
        <ele>597.60000000000002</ele>
        <time>2016-07-26T12:22:17Z</time>
      </trkpt>
      <trkpt lat="47.181562967598438" lon="7.24805798381567">
        <ele>602.88</ele>
        <time>2016-07-26T12:22:26Z</time>
      </trkpt>
      <trkpt lat="47.18300599604845" lon="7.248883014544845">
        <ele>610.09000000000003</ele>
        <time>2016-07-26T12:22:36Z</time>
      </trkpt>
      <trkpt lat="47.184373000636697" lon="7.249687006697059">
        <ele>620.66999999999996</ele>
        <time>2016-07-26T12:22:45Z</time>
      </trkpt>
      <trkpt lat="47.18584100715816" lon="7.250509019941092">
        <ele>634.61000000000001</ele>
        <time>2016-07-26T12:22:54Z</time>
      </trkpt>
      <trkpt lat="47.186361020430923" lon="7.250694008544087">
        <ele>640.86000000000001</ele>
        <time>2016-07-26T12:22:57Z</time>
      </trkpt>
      <trkpt lat="47.186553971841931" lon="7.2507019713521">
        <ele>641.34000000000003</ele>
        <time>2016-07-26T12:22:58Z</time>
      </trkpt>
      <trkpt lat="47.187114972621202" lon="7.250653021037579">
        <ele>643.25999999999999</ele>
        <time>2016-07-26T12:23:01Z</time>
      </trkpt>
      <trkpt lat="47.187291998416185" lon="7.25057297386229">
        <ele>643.25999999999999</ele>
        <time>2016-07-26T12:23:02Z</time>
      </trkpt>
      <trkpt lat="47.187459971755743" lon="7.250466020777822">
        <ele>643.25999999999999</ele>
        <time>2016-07-26T12:23:03Z</time>
      </trkpt>
      <trkpt lat="47.187614031136036" lon="7.250327970832586">
        <ele>643.25999999999999</ele>
        <time>2016-07-26T12:23:04Z</time>
      </trkpt>
      <trkpt lat="47.18775300309062" lon="7.25016301497817">
        <ele>643.25999999999999</ele>
        <time>2016-07-26T12:23:05Z</time>
      </trkpt>
      <trkpt lat="47.187888035550714" lon="7.249984983354807">
        <ele>643.25999999999999</ele>
        <time>2016-07-26T12:23:06Z</time>
      </trkpt>
      <trkpt lat="47.188017033040524" lon="7.249794965609908">
        <ele>643.25999999999999</ele>
        <time>2016-07-26T12:23:07Z</time>
      </trkpt>
      <trkpt lat="47.188850026577711" lon="7.248384961858392">
        <ele>641.34000000000003</ele>
        <time>2016-07-26T12:23:14Z</time>
      </trkpt>
      <trkpt lat="47.189021017402411" lon="7.247844999656081">
        <ele>639.88999999999999</ele>
        <time>2016-07-26T12:23:16Z</time>
      </trkpt>
      <trkpt lat="47.189367022365332" lon="7.244975036010146">
        <ele>629.79999999999995</ele>
        <time>2016-07-26T12:23:25Z</time>
      </trkpt>
      <trkpt lat="47.189123025164008" lon="7.242471026256681">
        <ele>621.14999999999998</ele>
        <time>2016-07-26T12:23:33Z</time>
      </trkpt>
      <trkpt lat="47.188262036070228" lon="7.238747030496597">
        <ele>618.75</ele>
        <time>2016-07-26T12:23:46Z</time>
      </trkpt>
      <trkpt lat="47.187718972563744" lon="7.235541036352515">
        <ele>617.77999999999997</ele>
        <time>2016-07-26T12:23:57Z</time>
      </trkpt>
      <trkpt lat="47.187395012006164" lon="7.232536962255836">
        <ele>614.89999999999998</ele>
        <time>2016-07-26T12:24:06Z</time>
      </trkpt>
      <trkpt lat="47.187265008687973" lon="7.229856010526419">
        <ele>617.29999999999995</ele>
        <time>2016-07-26T12:24:13Z</time>
      </trkpt>
      <trkpt lat="47.187486039474607" lon="7.226516995579004">
        <ele>620.19000000000005</ele>
        <time>2016-07-26T12:24:22Z</time>
      </trkpt>
      <trkpt lat="47.187610007822514" lon="7.219572002068162">
        <ele>617.29999999999995</ele>
        <time>2016-07-26T12:24:41Z</time>
      </trkpt>
      <trkpt lat="47.187572037801147" lon="7.216112958267331">
        <ele>619.71000000000004</ele>
        <time>2016-07-26T12:24:51Z</time>
      </trkpt>
      <trkpt lat="47.187698017805815" lon="7.210916010662913">
        <ele>626.91999999999996</ele>
        <time>2016-07-26T12:25:06Z</time>
      </trkpt>
      <trkpt lat="47.187740011140704" lon="7.199537996202707">
        <ele>639.88999999999999</ele>
        <time>2016-07-26T12:25:37Z</time>
      </trkpt>
      <trkpt lat="47.187765995040536" lon="7.197126019746065">
        <ele>637.00999999999999</ele>
        <time>2016-07-26T12:25:45Z</time>
      </trkpt>
      <trkpt lat="47.187907984480262" lon="7.194754024967551">
        <ele>626.44000000000005</ele>
        <time>2016-07-26T12:25:55Z</time>
      </trkpt>
      <trkpt lat="47.187960958108306" lon="7.194582028314471">
        <ele>625.96000000000004</ele>
        <time>2016-07-26T12:25:56Z</time>
      </trkpt>
      <trkpt lat="47.188035976141691" lon="7.194439033046365">
        <ele>625.96000000000004</ele>
        <time>2016-07-26T12:25:57Z</time>
      </trkpt>
      <trkpt lat="47.188130021095276" lon="7.194333001971245">
        <ele>626.91999999999996</ele>
        <time>2016-07-26T12:25:58Z</time>
      </trkpt>
      <trkpt lat="47.188244014978409" lon="7.194250021129847">
        <ele>627.88</ele>
        <time>2016-07-26T12:25:59Z</time>
      </trkpt>
      <trkpt lat="47.188365971669555" lon="7.194189000874758">
        <ele>630.27999999999997</ele>
        <time>2016-07-26T12:26:00Z</time>
      </trkpt>
      <trkpt lat="47.189109027385712" lon="7.193695977330208">
        <ele>634.61000000000001</ele>
        <time>2016-07-26T12:26:06Z</time>
      </trkpt>
      <trkpt lat="47.189207011833787" lon="7.193576032295823">
        <ele>635.57000000000005</ele>
        <time>2016-07-26T12:26:07Z</time>
      </trkpt>
      <trkpt lat="47.189286975190043" lon="7.19342096708715">
        <ele>636.52999999999997</ele>
        <time>2016-07-26T12:26:08Z</time>
      </trkpt>
      <trkpt lat="47.189339026808739" lon="7.193237990140915">
        <ele>635.57000000000005</ele>
        <time>2016-07-26T12:26:09Z</time>
      </trkpt>
      <trkpt lat="47.189360987395048" lon="7.193031962960959">
        <ele>634.61000000000001</ele>
        <time>2016-07-26T12:26:10Z</time>
      </trkpt>
      <trkpt lat="47.189355958253145" lon="7.192813027650118">
        <ele>632.67999999999995</ele>
        <time>2016-07-26T12:26:11Z</time>
      </trkpt>
      <trkpt lat="47.189327962696552" lon="7.192588979378343">
        <ele>632.20000000000005</ele>
        <time>2016-07-26T12:26:12Z</time>
      </trkpt>
      <trkpt lat="47.189296027645469" lon="7.192357974126935">
        <ele>631.72000000000003</ele>
        <time>2016-07-26T12:26:13Z</time>
      </trkpt>
      <trkpt lat="47.188903000205755" lon="7.189475018531084">
        <ele>633.64999999999998</ele>
        <time>2016-07-26T12:26:24Z</time>
      </trkpt>
      <trkpt lat="47.188907023519278" lon="7.189205959439278">
        <ele>633.64999999999998</ele>
        <time>2016-07-26T12:26:25Z</time>
      </trkpt>
      <trkpt lat="47.188928984105587" lon="7.188932960852981">
        <ele>633.64999999999998</ele>
        <time>2016-07-26T12:26:26Z</time>
      </trkpt>
      <trkpt lat="47.188970977440476" lon="7.188656022772193">
        <ele>633.64999999999998</ele>
        <time>2016-07-26T12:26:27Z</time>
      </trkpt>
      <trkpt lat="47.189030991867185" lon="7.188387969508767">
        <ele>634.13</ele>
        <time>2016-07-26T12:26:28Z</time>
      </trkpt>
      <trkpt lat="47.189110033214092" lon="7.188130980357528">
        <ele>634.61000000000001</ele>
        <time>2016-07-26T12:26:29Z</time>
      </trkpt>
      <trkpt lat="47.189197959378362" lon="7.187882959842682">
        <ele>635.09000000000003</ele>
        <time>2016-07-26T12:26:30Z</time>
      </trkpt>
      <trkpt lat="47.189598027616739" lon="7.186633972451091">
        <ele>640.38</ele>
        <time>2016-07-26T12:26:35Z</time>
      </trkpt>
      <trkpt lat="47.189640020951629" lon="7.186357034370303">
        <ele>642.29999999999995</ele>
        <time>2016-07-26T12:26:36Z</time>
      </trkpt>
      <trkpt lat="47.189974039793015" lon="7.183179035782814">
        <ele>656.24000000000001</ele>
        <time>2016-07-26T12:26:47Z</time>
      </trkpt>
      <trkpt lat="47.19011502340436" lon="7.182306982576847">
        <ele>657.67999999999995</ele>
        <time>2016-07-26T12:26:50Z</time>
      </trkpt>
      <trkpt lat="47.190405959263444" lon="7.181213982403278">
        <ele>662.97000000000003</ele>
        <time>2016-07-26T12:26:54Z</time>
      </trkpt>
      <trkpt lat="47.190713994204998" lon="7.180346958339214">
        <ele>664.40999999999997</ele>
        <time>2016-07-26T12:26:58Z</time>
      </trkpt>
      <trkpt lat="47.190711982548237" lon="7.180132968351245">
        <ele>665.37</ele>
        <time>2016-07-26T12:26:59Z</time>
      </trkpt>
      <trkpt lat="47.190690021961927" lon="7.179952003061771">
        <ele>663.92999999999995</ele>
        <time>2016-07-26T12:27:00Z</time>
      </trkpt>
      <trkpt lat="47.190656997263432" lon="7.179796015843749">
        <ele>664.40999999999997</ele>
        <time>2016-07-26T12:27:01Z</time>
      </trkpt>
      <trkpt lat="47.190581979230046" lon="7.179680010303855">
        <ele>661.03999999999996</ele>
        <time>2016-07-26T12:27:02Z</time>
      </trkpt>
      <trkpt lat="47.19050302170217" lon="7.179567022249103">
        <ele>661.51999999999998</ele>
        <time>2016-07-26T12:27:03Z</time>
      </trkpt>
      <trkpt lat="47.190418029204011" lon="7.179470965638757">
        <ele>662.00999999999999</ele>
        <time>2016-07-26T12:27:04Z</time>
      </trkpt>
      <trkpt lat="47.190280985087156" lon="7.179079027846456">
        <ele>662.00999999999999</ele>
        <time>2016-07-26T12:27:07Z</time>
      </trkpt>
      <trkpt lat="47.190282996743917" lon="7.178629003465176">
        <ele>662.49000000000001</ele>
        <time>2016-07-26T12:27:10Z</time>
      </trkpt>
      <trkpt lat="47.19030998647213" lon="7.178506962954998">
        <ele>662.97000000000003</ele>
        <time>2016-07-26T12:27:11Z</time>
      </trkpt>
      <trkpt lat="47.190347034484148" lon="7.178375031799078">
        <ele>663.45000000000005</ele>
        <time>2016-07-26T12:27:12Z</time>
      </trkpt>
      <trkpt lat="47.190454993396997" lon="7.178234970197082">
        <ele>663.92999999999995</ele>
        <time>2016-07-26T12:27:13Z</time>
      </trkpt>
      <trkpt lat="47.190620033070445" lon="7.178154001012445">
        <ele>665.37</ele>
        <time>2016-07-26T12:27:14Z</time>
      </trkpt>
      <trkpt lat="47.190833017230034" lon="7.178074037656188">
        <ele>665.85000000000002</ele>
        <time>2016-07-26T12:27:15Z</time>
      </trkpt>
      <trkpt lat="47.191036026924849" lon="7.178004970774055">
        <ele>666.80999999999995</ele>
        <time>2016-07-26T12:27:16Z</time>
      </trkpt>
      <trkpt lat="47.191480016335845" lon="7.177791986614466">
        <ele>669.22000000000003</ele>
        <time>2016-07-26T12:27:19Z</time>
      </trkpt>
      <trkpt lat="47.191617982462049" lon="7.177781006321311">
        <ele>669.70000000000005</ele>
        <time>2016-07-26T12:27:20Z</time>
      </trkpt>
      <trkpt lat="47.191737005487084" lon="7.177829034626484">
        <ele>670.65999999999997</ele>
        <time>2016-07-26T12:27:21Z</time>
      </trkpt>
      <trkpt lat="47.191862985491753" lon="7.177901035174727">
        <ele>671.62</ele>
        <time>2016-07-26T12:27:22Z</time>
      </trkpt>
      <trkpt lat="47.192002041265368" lon="7.177988961338997">
        <ele>672.10000000000002</ele>
        <time>2016-07-26T12:27:23Z</time>
      </trkpt>
      <trkpt lat="47.192753981798887" lon="7.178480979055166">
        <ele>677.87</ele>
        <time>2016-07-26T12:27:28Z</time>
      </trkpt>
      <trkpt lat="47.193671967834234" lon="7.179042985662818">
        <ele>683.63</ele>
        <time>2016-07-26T12:27:34Z</time>
      </trkpt>
      <trkpt lat="47.193831978365779" lon="7.179081039503217">
        <ele>684.12</ele>
        <time>2016-07-26T12:27:35Z</time>
      </trkpt>
      <trkpt lat="47.19473697245121" lon="7.179138958454132">
        <ele>686.51999999999998</ele>
        <time>2016-07-26T12:27:42Z</time>
      </trkpt>
      <trkpt lat="47.194864964112639" lon="7.179193021729589">
        <ele>684.12</ele>
        <time>2016-07-26T12:27:43Z</time>
      </trkpt>
      <trkpt lat="47.194979041814804" lon="7.17917600646615">
        <ele>683.14999999999998</ele>
        <time>2016-07-26T12:27:44Z</time>
      </trkpt>
      <trkpt lat="47.195079959928989" lon="7.179118003696203">
        <ele>683.63</ele>
        <time>2016-07-26T12:27:45Z</time>
      </trkpt>
      <trkpt lat="47.195180039852858" lon="7.179052960127592">
        <ele>684.12</ele>
        <time>2016-07-26T12:27:46Z</time>
      </trkpt>
      <trkpt lat="47.195271989330649" lon="7.178992023691535">
        <ele>684.60000000000002</ele>
        <time>2016-07-26T12:27:47Z</time>
      </trkpt>
      <trkpt lat="47.195688989013433" lon="7.178766969591379">
        <ele>674.5</ele>
        <time>2016-07-26T12:27:54Z</time>
      </trkpt>
      <trkpt lat="47.195737017318606" lon="7.178822038695216">
        <ele>674.98000000000002</ele>
        <time>2016-07-26T12:27:55Z</time>
      </trkpt>
      <trkpt lat="47.19578898511827" lon="7.178923040628433">
        <ele>674.5</ele>
        <time>2016-07-26T12:27:56Z</time>
      </trkpt>
      <trkpt lat="47.196253007277846" lon="7.180186025798321">
        <ele>674.98000000000002</ele>
        <time>2016-07-26T12:28:04Z</time>
      </trkpt>
      <trkpt lat="47.196838986128569" lon="7.181966006755829">
        <ele>680.26999999999998</ele>
        <time>2016-07-26T12:28:14Z</time>
      </trkpt>
      <trkpt lat="47.197656976059079" lon="7.18325799331069">
        <ele>685.08000000000004</ele>
        <time>2016-07-26T12:28:23Z</time>
      </trkpt>
      <trkpt lat="47.197841964662075" lon="7.183554964140058">
        <ele>685.55999999999995</ele>
        <time>2016-07-26T12:28:26Z</time>
      </trkpt>
      <trkpt lat="47.197938021272421" lon="7.183721009641886">
        <ele>685.55999999999995</ele>
        <time>2016-07-26T12:28:28Z</time>
      </trkpt>
      <trkpt lat="47.198014967143536" lon="7.183761997148395">
        <ele>686.03999999999996</ele>
        <time>2016-07-26T12:28:29Z</time>
      </trkpt>
      <trkpt lat="47.198502039536834" lon="7.183960983529687">
        <ele>687.48000000000002</ele>
        <time>2016-07-26T12:28:34Z</time>
      </trkpt>
      <trkpt lat="47.198613015934825" lon="7.18396601267159">
        <ele>687.96000000000004</ele>
        <time>2016-07-26T12:28:35Z</time>
      </trkpt>
      <trkpt lat="47.198718963190913" lon="7.183940028771758">
        <ele>688.44000000000005</ele>
        <time>2016-07-26T12:28:36Z</time>
      </trkpt>
      <trkpt lat="47.198827005922794" lon="7.183886971324682">
        <ele>689.39999999999998</ele>
        <time>2016-07-26T12:28:37Z</time>
      </trkpt>
      <trkpt lat="47.198914010077715" lon="7.183798961341381">
        <ele>689.88</ele>
        <time>2016-07-26T12:28:38Z</time>
      </trkpt>
      <trkpt lat="47.198991039767861" lon="7.183692008256912">
        <ele>690.36000000000001</ele>
        <time>2016-07-26T12:28:39Z</time>
      </trkpt>
      <trkpt lat="47.199057005345821" lon="7.183563010767102">
        <ele>691.33000000000004</ele>
        <time>2016-07-26T12:28:40Z</time>
      </trkpt>
      <trkpt lat="47.199103021994233" lon="7.183401994407177">
        <ele>691.80999999999995</ele>
        <time>2016-07-26T12:28:41Z</time>
      </trkpt>
      <trkpt lat="47.199122970923781" lon="7.183229997754097">
        <ele>692.76999999999998</ele>
        <time>2016-07-26T12:28:42Z</time>
      </trkpt>
      <trkpt lat="47.199120037257671" lon="7.183040985837579">
        <ele>693.25</ele>
        <time>2016-07-26T12:28:43Z</time>
      </trkpt>
      <trkpt lat="47.19909698702395" lon="7.182851973921061">
        <ele>694.21000000000004</ele>
        <time>2016-07-26T12:28:44Z</time>
      </trkpt>
      <trkpt lat="47.199058011174202" lon="7.182663967832923">
        <ele>695.16999999999996</ele>
        <time>2016-07-26T12:28:45Z</time>
      </trkpt>
      <trkpt lat="47.199019035324454" lon="7.182471016421914">
        <ele>695.64999999999998</ele>
        <time>2016-07-26T12:28:46Z</time>
      </trkpt>
      <trkpt lat="47.198905041441321" lon="7.181692002341151">
        <ele>699.01999999999998</ele>
        <time>2016-07-26T12:28:50Z</time>
      </trkpt>
      <trkpt lat="47.198891965672374" lon="7.181470971554518">
        <ele>700.46000000000004</ele>
        <time>2016-07-26T12:28:51Z</time>
      </trkpt>
      <trkpt lat="47.198890959843993" lon="7.181241977959871">
        <ele>701.41999999999996</ele>
        <time>2016-07-26T12:28:52Z</time>
      </trkpt>
      <trkpt lat="47.198918033391237" lon="7.18102497048676">
        <ele>702.38</ele>
        <time>2016-07-26T12:28:53Z</time>
      </trkpt>
      <trkpt lat="47.19894896261394" lon="7.180804023519158">
        <ele>702.86000000000001</ele>
        <time>2016-07-26T12:28:54Z</time>
      </trkpt>
      <trkpt lat="47.199000008404255" lon="7.180588021874428">
        <ele>704.29999999999995</ele>
        <time>2016-07-26T12:28:55Z</time>
      </trkpt>
      <trkpt lat="47.199055999517441" lon="7.18037897720933">
        <ele>705.25999999999999</ele>
        <time>2016-07-26T12:28:56Z</time>
      </trkpt>
      <trkpt lat="47.199538964778185" lon="7.178323986008763">
        <ele>714.39999999999998</ele>
        <time>2016-07-26T12:29:06Z</time>
      </trkpt>
      <trkpt lat="47.199596967548132" lon="7.177980998530984">
        <ele>715.84000000000003</ele>
        <time>2016-07-26T12:29:08Z</time>
      </trkpt>
      <trkpt lat="47.19965698197484" lon="7.177848983556032">
        <ele>716.32000000000005</ele>
        <time>2016-07-26T12:29:09Z</time>
      </trkpt>
      <trkpt lat="47.199745997786522" lon="7.177753010764718">
        <ele>716.79999999999995</ele>
        <time>2016-07-26T12:29:10Z</time>
      </trkpt>
      <trkpt lat="47.199843982234597" lon="7.177706994116306">
        <ele>715.84000000000003</ele>
        <time>2016-07-26T12:29:11Z</time>
      </trkpt>
      <trkpt lat="47.199963005259633" lon="7.177699031308293">
        <ele>715.84000000000003</ele>
        <time>2016-07-26T12:29:12Z</time>
      </trkpt>
      <trkpt lat="47.200065013021231" lon="7.17773599550128">
        <ele>712.95000000000005</ele>
        <time>2016-07-26T12:29:13Z</time>
      </trkpt>
      <trkpt lat="47.200145982205868" lon="7.177826017141342">
        <ele>713.44000000000005</ele>
        <time>2016-07-26T12:29:14Z</time>
      </trkpt>
      <trkpt lat="47.200200967490673" lon="7.178002959117293">
        <ele>713.44000000000005</ele>
        <time>2016-07-26T12:29:15Z</time>
      </trkpt>
      <trkpt lat="47.200195016339421" lon="7.178210997954011">
        <ele>713.91999999999996</ele>
        <time>2016-07-26T12:29:16Z</time>
      </trkpt>
      <trkpt lat="47.200174983590841" lon="7.1784239821136">
        <ele>714.88</ele>
        <time>2016-07-26T12:29:17Z</time>
      </trkpt>
      <trkpt lat="47.200131984427571" lon="7.178676025941968">
        <ele>717.27999999999997</ele>
        <time>2016-07-26T12:29:18Z</time>
      </trkpt>
      <trkpt lat="47.20008697360754" lon="7.178923962637782">
        <ele>719.20000000000005</ele>
        <time>2016-07-26T12:29:19Z</time>
      </trkpt>
      <trkpt lat="47.199989994987845" lon="7.180835036560893">
        <ele>726.88999999999999</ele>
        <time>2016-07-26T12:29:26Z</time>
      </trkpt>
      <trkpt lat="47.200290989130735" lon="7.182981977239251">
        <ele>734.10000000000002</ele>
        <time>2016-07-26T12:29:35Z</time>
      </trkpt>
      <trkpt lat="47.201124988496304" lon="7.184749972075224">
        <ele>743.24000000000001</ele>
        <time>2016-07-26T12:29:44Z</time>
      </trkpt>
      <trkpt lat="47.201680960133672" lon="7.185700982809067">
        <ele>749.49000000000001</ele>
        <time>2016-07-26T12:29:49Z</time>
      </trkpt>
      <trkpt lat="47.202390991151333" lon="7.187579032033682">
        <ele>759.58000000000004</ele>
        <time>2016-07-26T12:29:57Z</time>
      </trkpt>
      <trkpt lat="47.202916033565998" lon="7.189645003527403">
        <ele>769.66999999999996</ele>
        <time>2016-07-26T12:30:05Z</time>
      </trkpt>
      <trkpt lat="47.203147960826755" lon="7.190703973174095">
        <ele>775.91999999999996</ele>
        <time>2016-07-26T12:30:10Z</time>
      </trkpt>
      <trkpt lat="47.203233037143946" lon="7.190846968442202">
        <ele>777.36000000000001</ele>
        <time>2016-07-26T12:30:11Z</time>
      </trkpt>
      <trkpt lat="47.203335966914892" lon="7.190969008952379">
        <ele>778.80999999999995</ele>
        <time>2016-07-26T12:30:12Z</time>
      </trkpt>
      <trkpt lat="47.203455995768309" lon="7.191065987572074">
        <ele>779.76999999999998</ele>
        <time>2016-07-26T12:30:13Z</time>
      </trkpt>
      <trkpt lat="47.20358700491488" lon="7.191124996170402">
        <ele>781.21000000000004</ele>
        <time>2016-07-26T12:30:14Z</time>
      </trkpt>
      <trkpt lat="47.203722959384322" lon="7.191144023090601">
        <ele>782.16999999999996</ele>
        <time>2016-07-26T12:30:15Z</time>
      </trkpt>
      <trkpt lat="47.203856986016035" lon="7.191139999777079">
        <ele>783.61000000000001</ele>
        <time>2016-07-26T12:30:16Z</time>
      </trkpt>
      <trkpt lat="47.203991012647748" lon="7.191113010048866">
        <ele>785.04999999999995</ele>
        <time>2016-07-26T12:30:17Z</time>
      </trkpt>
      <trkpt lat="47.204128978773952" lon="7.191069005057216">
        <ele>786.01999999999998</ele>
        <time>2016-07-26T12:30:18Z</time>
      </trkpt>
      <trkpt lat="47.20427599735558" lon="7.191025000065565">
        <ele>787.46000000000004</ele>
        <time>2016-07-26T12:30:19Z</time>
      </trkpt>
      <trkpt lat="47.205507969483733" lon="7.190647982060909">
        <ele>794.19000000000005</ele>
        <time>2016-07-26T12:30:27Z</time>
      </trkpt>
      <trkpt lat="47.205653982236981" lon="7.190658962354064">
        <ele>795.14999999999998</ele>
        <time>2016-07-26T12:30:28Z</time>
      </trkpt>
      <trkpt lat="47.205795971676707" lon="7.190703973174095">
        <ele>795.63</ele>
        <time>2016-07-26T12:30:29Z</time>
      </trkpt>
      <trkpt lat="47.205926980823278" lon="7.190762981772423">
        <ele>796.59000000000003</ele>
        <time>2016-07-26T12:30:30Z</time>
      </trkpt>
      <trkpt lat="47.206061007454991" lon="7.19084202311933">
        <ele>797.07000000000005</ele>
        <time>2016-07-26T12:30:31Z</time>
      </trkpt>
      <trkpt lat="47.206204002723098" lon="7.190946964547038">
        <ele>796.59000000000003</ele>
        <time>2016-07-26T12:30:32Z</time>
      </trkpt>
      <trkpt lat="47.207318963482976" lon="7.191854976117611">
        <ele>806.20000000000005</ele>
        <time>2016-07-26T12:30:42Z</time>
      </trkpt>
      <trkpt lat="47.207789020612836" lon="7.192058991640806">
        <ele>810.04999999999995</ele>
        <time>2016-07-26T12:30:50Z</time>
      </trkpt>
      <trkpt lat="47.208479018881917" lon="7.192329978570342">
        <ele>821.10000000000002</ele>
        <time>2016-07-26T12:31:01Z</time>
      </trkpt>
      <trkpt lat="47.208563005551696" lon="7.192355040460825">
        <ele>828.30999999999995</ele>
        <time>2016-07-26T12:31:09Z</time>
      </trkpt>
      <trkpt lat="47.208598963916302" lon="7.19236602075398">
        <ele>831.20000000000005</ele>
        <time>2016-07-26T12:31:17Z</time>
      </trkpt>
      <trkpt lat="47.208831980824471" lon="7.192327966913581">
        <ele>833.60000000000002</ele>
        <time>2016-07-26T12:31:21Z</time>
      </trkpt>
      <trkpt lat="47.20887397415936" lon="7.192301983013749">
        <ele>834.55999999999995</ele>
        <time>2016-07-26T12:31:22Z</time>
      </trkpt>
      <trkpt lat="47.20889400690794" lon="7.192149013280869">
        <ele>837.45000000000005</ele>
        <time>2016-07-26T12:31:28Z</time>
      </trkpt>
      <trkpt lat="47.208812031894922" lon="7.192105008289218">
        <ele>838.40999999999997</ele>
        <time>2016-07-26T12:31:30Z</time>
      </trkpt>
      <trkpt lat="47.208767021074891" lon="7.19206603243947">
        <ele>838.40999999999997</ele>
        <time>2016-07-26T12:31:31Z</time>
      </trkpt>
      <trkpt lat="47.208643974736333" lon="7.19198296777904">
        <ele>839.37</ele>
        <time>2016-07-26T12:31:33Z</time>
      </trkpt>
      <trkpt lat="47.20859301276505" lon="7.191929994150996">
        <ele>839.85000000000002</ele>
        <time>2016-07-26T12:31:34Z</time>
      </trkpt>
      <trkpt lat="47.207829002290964" lon="7.191214011982083">
        <ele>836.96000000000004</ele>
        <time>2016-07-26T12:31:45Z</time>
      </trkpt>
      <trkpt lat="47.207163982093334" lon="7.19045695848763">
        <ele>831.67999999999995</ele>
        <time>2016-07-26T12:31:54Z</time>
      </trkpt>
      <trkpt lat="47.2068100143224" lon="7.189945997670293">
        <ele>833.12</ele>
        <time>2016-07-26T12:32:01Z</time>
      </trkpt>
      <trkpt lat="47.206619996577501" lon="7.189772995188832">
        <ele>834.08000000000004</ele>
        <time>2016-07-26T12:32:04Z</time>
      </trkpt>
      <trkpt lat="47.206557970494032" lon="7.189702000468969">
        <ele>835.03999999999996</ele>
        <time>2016-07-26T12:32:05Z</time>
      </trkpt>
      <trkpt lat="47.206493010744452" lon="7.18961700797081">
        <ele>836.48000000000002</ele>
        <time>2016-07-26T12:32:06Z</time>
      </trkpt>
      <trkpt lat="47.206434002146125" lon="7.189518017694354">
        <ele>837.45000000000005</ele>
        <time>2016-07-26T12:32:07Z</time>
      </trkpt>
      <trkpt lat="47.206373987719417" lon="7.189426990225911">
        <ele>838.40999999999997</ele>
        <time>2016-07-26T12:32:08Z</time>
      </trkpt>
      <trkpt lat="47.206247001886368" lon="7.189280977472663">
        <ele>839.85000000000002</ele>
        <time>2016-07-26T12:32:10Z</time>
      </trkpt>
      <trkpt lat="47.206177012994885" lon="7.189224986359477">
        <ele>840.33000000000004</ele>
        <time>2016-07-26T12:32:11Z</time>
      </trkpt>
      <trkpt lat="47.206011973321438" lon="7.189118033275008">
        <ele>842.25</ele>
        <time>2016-07-26T12:32:13Z</time>
      </trkpt>
      <trkpt lat="47.205555997788906" lon="7.189004961401224">
        <ele>847.05999999999995</ele>
        <time>2016-07-26T12:32:18Z</time>
      </trkpt>
      <trkpt lat="47.205210998654366" lon="7.189016025513411">
        <ele>850.89999999999998</ele>
        <time>2016-07-26T12:32:21Z</time>
      </trkpt>
      <trkpt lat="47.204836998134851" lon="7.189047960564494">
        <ele>855.23000000000002</ele>
        <time>2016-07-26T12:32:24Z</time>
      </trkpt>
      <trkpt lat="47.204719986766577" lon="7.189085008576512">
        <ele>857.63</ele>
        <time>2016-07-26T12:32:25Z</time>
      </trkpt>
      <trkpt lat="47.20461999066174" lon="7.189138988032937">
        <ele>859.08000000000004</ele>
        <time>2016-07-26T12:32:26Z</time>
      </trkpt>
      <trkpt lat="47.204516977071762" lon="7.189203025773168">
        <ele>859.55999999999995</ele>
        <time>2016-07-26T12:32:27Z</time>
      </trkpt>
      <trkpt lat="47.204411029815674" lon="7.189263962209225">
        <ele>859.08000000000004</ele>
        <time>2016-07-26T12:32:28Z</time>
      </trkpt>
      <trkpt lat="47.204351015388966" lon="7.189331017434597">
        <ele>859.55999999999995</ele>
        <time>2016-07-26T12:32:29Z</time>
      </trkpt>
      <trkpt lat="47.20429603010416" lon="7.189394971355796">
        <ele>861</ele>
        <time>2016-07-26T12:32:30Z</time>
      </trkpt>
      <trkpt lat="47.204241966828704" lon="7.189422966912389">
        <ele>861.96000000000004</ele>
        <time>2016-07-26T12:32:31Z</time>
      </trkpt>
      <trkpt lat="47.204180024564266" lon="7.189407041296363">
        <ele>864.36000000000001</ele>
        <time>2016-07-26T12:32:32Z</time>
      </trkpt>
      <trkpt lat="47.204138031229377" lon="7.189396983012557">
        <ele>866.28999999999996</ele>
        <time>2016-07-26T12:32:33Z</time>
      </trkpt>
      <trkpt lat="47.204096037894487" lon="7.189331017434597">
        <ele>866.76999999999998</ele>
        <time>2016-07-26T12:32:34Z</time>
      </trkpt>
      <trkpt lat="47.204065024852753" lon="7.189253987744451">
        <ele>866.76999999999998</ele>
        <time>2016-07-26T12:32:35Z</time>
      </trkpt>
      <trkpt lat="47.204027976840734" lon="7.189152985811234">
        <ele>865.32000000000005</ele>
        <time>2016-07-26T12:32:36Z</time>
      </trkpt>
      <trkpt lat="47.204013979062438" lon="7.189055001363158">
        <ele>866.28999999999996</ele>
        <time>2016-07-26T12:32:37Z</time>
      </trkpt>
      <trkpt lat="47.203807029873133" lon="7.188357040286064">
        <ele>869.16999999999996</ele>
        <time>2016-07-26T12:32:45Z</time>
      </trkpt>
      <trkpt lat="47.20382303930819" lon="7.187528992071748">
        <ele>874.94000000000005</ele>
        <time>2016-07-26T12:32:53Z</time>
      </trkpt>
      <trkpt lat="47.203805018216372" lon="7.187413992360234">
        <ele>875.89999999999998</ele>
        <time>2016-07-26T12:32:54Z</time>
      </trkpt>
      <trkpt lat="47.203784985467792" lon="7.187303015962243">
        <ele>876.86000000000001</ele>
        <time>2016-07-26T12:32:55Z</time>
      </trkpt>
      <trkpt lat="47.203755984082818" lon="7.187192039564252">
        <ele>877.82000000000005</ele>
        <time>2016-07-26T12:32:56Z</time>
      </trkpt>
      <trkpt lat="47.203723965212703" lon="7.187073016539216">
        <ele>878.77999999999997</ele>
        <time>2016-07-26T12:32:57Z</time>
      </trkpt>
      <trkpt lat="47.203536964952946" lon="7.186427023261786">
        <ele>882.14999999999998</ele>
        <time>2016-07-26T12:33:02Z</time>
      </trkpt>
      <trkpt lat="47.203417019918561" lon="7.186067020520568">
        <ele>884.07000000000005</ele>
        <time>2016-07-26T12:33:05Z</time>
      </trkpt>
      <trkpt lat="47.203385001048446" lon="7.185927964746952">
        <ele>885.02999999999997</ele>
        <time>2016-07-26T12:33:06Z</time>
      </trkpt>
      <trkpt lat="47.203305959701538" lon="7.184699010103941">
        <ele>889.36000000000001</ele>
        <time>2016-07-26T12:33:14Z</time>
      </trkpt>
      <trkpt lat="47.203283999115229" lon="7.184556014835835">
        <ele>890.32000000000005</ele>
        <time>2016-07-26T12:33:15Z</time>
      </trkpt>
      <trkpt lat="47.20324301160872" lon="7.184430034831166">
        <ele>891.75999999999999</ele>
        <time>2016-07-26T12:33:16Z</time>
      </trkpt>
      <trkpt lat="47.203167993575335" lon="7.184068020433188">
        <ele>894.15999999999997</ele>
        <time>2016-07-26T12:33:19Z</time>
      </trkpt>
      <trkpt lat="47.203185008838773" lon="7.183951009064913">
        <ele>894.15999999999997</ele>
        <time>2016-07-26T12:33:20Z</time>
      </trkpt>
      <trkpt lat="47.203231025487185" lon="7.183702988550067">
        <ele>896.57000000000005</ele>
        <time>2016-07-26T12:33:22Z</time>
      </trkpt>
      <trkpt lat="47.203264972195029" lon="7.183607015758753">
        <ele>897.04999999999995</ele>
        <time>2016-07-26T12:33:23Z</time>
      </trkpt>
      <trkpt lat="47.203318029642105" lon="7.183530991896987">
        <ele>897.52999999999997</ele>
        <time>2016-07-26T12:33:24Z</time>
      </trkpt>
      <trkpt lat="47.203369997441769" lon="7.183479024097323">
        <ele>898.97000000000003</ele>
        <time>2016-07-26T12:33:25Z</time>
      </trkpt>
      <trkpt lat="47.203425988554955" lon="7.183449016883969">
        <ele>900.88999999999999</ele>
        <time>2016-07-26T12:33:26Z</time>
      </trkpt>
      <trkpt lat="47.203474016860127" lon="7.183444993570447">
        <ele>903.29999999999995</ele>
        <time>2016-07-26T12:33:27Z</time>
      </trkpt>
      <trkpt lat="47.203530007973313" lon="7.183453962206841">
        <ele>904.74000000000001</ele>
        <time>2016-07-26T12:33:28Z</time>
      </trkpt>
      <trkpt lat="47.203595973551273" lon="7.183461003005505">
        <ele>905.22000000000003</ele>
        <time>2016-07-26T12:33:29Z</time>
      </trkpt>
      <trkpt lat="47.20373896881938" lon="7.183494027704001">
        <ele>908.10000000000002</ele>
        <time>2016-07-26T12:33:31Z</time>
      </trkpt>
      <trkpt lat="47.203829996287823" lon="7.183522023260593">
        <ele>906.65999999999997</ele>
        <time>2016-07-26T12:33:32Z</time>
      </trkpt>
      <trkpt lat="47.203909959644079" lon="7.183573991060257">
        <ele>907.62</ele>
        <time>2016-07-26T12:33:33Z</time>
      </trkpt>
      <trkpt lat="47.204346992075443" lon="7.183871967718005">
        <ele>914.83000000000004</ele>
        <time>2016-07-26T12:33:39Z</time>
      </trkpt>
      <trkpt lat="47.204433996230364" lon="7.183882026001811">
        <ele>915.78999999999996</ele>
        <time>2016-07-26T12:33:40Z</time>
      </trkpt>
      <trkpt lat="47.20492098480463" lon="7.18388001434505">
        <ele>918.20000000000005</ele>
        <time>2016-07-26T12:33:44Z</time>
      </trkpt>
      <trkpt lat="47.205018969252706" lon="7.183849001303315">
        <ele>919.63999999999999</ele>
        <time>2016-07-26T12:33:45Z</time>
      </trkpt>
      <trkpt lat="47.205109996721148" lon="7.183783035725355">
        <ele>920.60000000000002</ele>
        <time>2016-07-26T12:33:46Z</time>
      </trkpt>
      <trkpt lat="47.205212004482746" lon="7.183724027127028">
        <ele>919.15999999999997</ele>
        <time>2016-07-26T12:33:47Z</time>
      </trkpt>
      <trkpt lat="47.205278975889087" lon="7.183623025193811">
        <ele>919.63999999999999</ele>
        <time>2016-07-26T12:33:48Z</time>
      </trkpt>
      <trkpt lat="47.205345025286078" lon="7.183500984683633">
        <ele>919.63999999999999</ele>
        <time>2016-07-26T12:33:49Z</time>
      </trkpt>
      <trkpt lat="47.205380983650684" lon="7.183375004678965">
        <ele>920.60000000000002</ele>
        <time>2016-07-26T12:33:50Z</time>
      </trkpt>
      <trkpt lat="47.205423982813954" lon="7.183239972218871">
        <ele>921.55999999999995</ele>
        <time>2016-07-26T12:33:51Z</time>
      </trkpt>
      <trkpt lat="47.205453990027308" lon="7.18310602940619">
        <ele>922.03999999999996</ele>
        <time>2016-07-26T12:33:52Z</time>
      </trkpt>
      <trkpt lat="47.205473016947508" lon="7.182981977239251">
        <ele>923</ele>
        <time>2016-07-26T12:33:53Z</time>
      </trkpt>
      <trkpt lat="47.205502018332481" lon="7.182869995012879">
        <ele>923.48000000000002</ele>
        <time>2016-07-26T12:33:54Z</time>
      </trkpt>
      <trkpt lat="47.20554300583899" lon="7.182778967544437">
        <ele>924.92999999999995</ele>
        <time>2016-07-26T12:33:55Z</time>
      </trkpt>
      <trkpt lat="47.20558600500226" lon="7.18269900418818">
        <ele>926.37</ele>
        <time>2016-07-26T12:33:56Z</time>
      </trkpt>
      <trkpt lat="47.205653982236981" lon="7.18261300586164">
        <ele>926.85000000000002</ele>
        <time>2016-07-26T12:33:57Z</time>
      </trkpt>
      <trkpt lat="47.205721959471703" lon="7.182531030848622">
        <ele>927.33000000000004</ele>
        <time>2016-07-26T12:33:58Z</time>
      </trkpt>
      <trkpt lat="47.206172989681363" lon="7.181981010362506">
        <ele>930.69000000000005</ele>
        <time>2016-07-26T12:34:04Z</time>
      </trkpt>
      <trkpt lat="47.206252031028271" lon="7.181923007592559">
        <ele>931.16999999999996</ele>
        <time>2016-07-26T12:34:05Z</time>
      </trkpt>
      <trkpt lat="47.206333000212908" lon="7.181874979287386">
        <ele>932.13999999999999</ele>
        <time>2016-07-26T12:34:06Z</time>
      </trkpt>
      <trkpt lat="47.206475995481014" lon="7.181770037859678">
        <ele>934.05999999999995</ele>
        <time>2016-07-26T12:34:08Z</time>
      </trkpt>
      <trkpt lat="47.206541961058974" lon="7.18168999068439">
        <ele>935.01999999999998</ele>
        <time>2016-07-26T12:34:09Z</time>
      </trkpt>
      <trkpt lat="47.206643968820572" lon="7.181499972939491">
        <ele>936.94000000000005</ele>
        <time>2016-07-26T12:34:11Z</time>
      </trkpt>
      <trkpt lat="47.206868017092347" lon="7.181081967428327">
        <ele>940.78999999999996</ele>
        <time>2016-07-26T12:34:15Z</time>
      </trkpt>
      <trkpt lat="47.206941023468971" lon="7.180978031829">
        <ele>941.26999999999998</ele>
        <time>2016-07-26T12:34:16Z</time>
      </trkpt>
      <trkpt lat="47.207079995423555" lon="7.180777033790946">
        <ele>942.71000000000004</ele>
        <time>2016-07-26T12:34:18Z</time>
      </trkpt>
      <trkpt lat="47.2071329690516" lon="7.180662034079433">
        <ele>943.66999999999996</ele>
        <time>2016-07-26T12:34:19Z</time>
      </trkpt>
      <trkpt lat="47.207169011235237" lon="7.180533958598971">
        <ele>944.14999999999998</ele>
        <time>2016-07-26T12:34:20Z</time>
      </trkpt>
      <trkpt lat="47.207185020670295" lon="7.180403033271432">
        <ele>945.59000000000003</ele>
        <time>2016-07-26T12:34:21Z</time>
      </trkpt>
      <trkpt lat="47.207199018448591" lon="7.180262971669436">
        <ele>945.59000000000003</ele>
        <time>2016-07-26T12:34:22Z</time>
      </trkpt>
      <trkpt lat="47.207185020670295" lon="7.180145960301161">
        <ele>946.55999999999995</ele>
        <time>2016-07-26T12:34:23Z</time>
      </trkpt>
      <trkpt lat="47.207153001800179" lon="7.180033978074789">
        <ele>948</ele>
        <time>2016-07-26T12:34:24Z</time>
      </trkpt>
      <trkpt lat="47.207124000415206" lon="7.179902968928218">
        <ele>948.48000000000002</ele>
        <time>2016-07-26T12:34:25Z</time>
      </trkpt>
      <trkpt lat="47.207083012908697" lon="7.179634999483824">
        <ele>951.36000000000001</ele>
        <time>2016-07-26T12:34:27Z</time>
      </trkpt>
      <trkpt lat="47.20709097571671" lon="7.179489992558956">
        <ele>950.88</ele>
        <time>2016-07-26T12:34:28Z</time>
      </trkpt>
      <trkpt lat="47.207113020122051" lon="7.179351020604372">
        <ele>950.88</ele>
        <time>2016-07-26T12:34:29Z</time>
      </trkpt>
      <trkpt lat="47.207147972658277" lon="7.179216993972659">
        <ele>950.88</ele>
        <time>2016-07-26T12:34:30Z</time>
      </trkpt>
      <trkpt lat="47.207185020670295" lon="7.17908900231123">
        <ele>951.36000000000001</ele>
        <time>2016-07-26T12:34:31Z</time>
      </trkpt>
      <trkpt lat="47.207795977592468" lon="7.177395019680262">
        <ele>947.51999999999998</ele>
        <time>2016-07-26T12:34:44Z</time>
      </trkpt>
      <trkpt lat="47.208511959761381" lon="7.176171010360122">
        <ele>948.48000000000002</ele>
        <time>2016-07-26T12:34:52Z</time>
      </trkpt>
      <trkpt lat="47.209343025460839" lon="7.174808029085398">
        <ele>951.84000000000003</ele>
        <time>2016-07-26T12:35:02Z</time>
      </trkpt>
      <trkpt lat="47.209759019315243" lon="7.174091041088104">
        <ele>951.36000000000001</ele>
        <time>2016-07-26T12:35:12Z</time>
      </trkpt>
      <trkpt lat="47.21016101539135" lon="7.173222005367279">
        <ele>954.25</ele>
        <time>2016-07-26T12:35:21Z</time>
      </trkpt>
      <trkpt lat="47.210816983133554" lon="7.171829016879201">
        <ele>962.41999999999996</ele>
        <time>2016-07-26T12:35:31Z</time>
      </trkpt>
      <trkpt lat="47.210873980075121" lon="7.171675963327289">
        <ele>962.89999999999998</ele>
        <time>2016-07-26T12:35:32Z</time>
      </trkpt>
      <trkpt lat="47.210927959531546" lon="7.171519976109266">
        <ele>964.34000000000003</ele>
        <time>2016-07-26T12:35:33Z</time>
      </trkpt>
      <trkpt lat="47.210974982008338" lon="7.171359965577722">
        <ele>965.29999999999995</ele>
        <time>2016-07-26T12:35:34Z</time>
      </trkpt>
      <trkpt lat="47.211014963686466" lon="7.171198027208448">
        <ele>966.74000000000001</ele>
        <time>2016-07-26T12:35:35Z</time>
      </trkpt>
      <trkpt lat="47.211046982556581" lon="7.171019995585084">
        <ele>967.22000000000003</ele>
        <time>2016-07-26T12:35:36Z</time>
      </trkpt>
      <trkpt lat="47.211325010284781" lon="7.169624995440245">
        <ele>972.99000000000001</ele>
        <time>2016-07-26T12:35:45Z</time>
      </trkpt>
      <trkpt lat="47.211591973900795" lon="7.168736010789871">
        <ele>978.75999999999999</ele>
        <time>2016-07-26T12:35:54Z</time>
      </trkpt>
      <trkpt lat="47.211918029934168" lon="7.167376969009638">
        <ele>984.04999999999995</ele>
        <time>2016-07-26T12:36:03Z</time>
      </trkpt>
      <trkpt lat="47.212149035185575" lon="7.166182966902852">
        <ele>990.29999999999995</ele>
        <time>2016-07-26T12:36:09Z</time>
      </trkpt>
      <trkpt lat="47.212158003821969" lon="7.165965959429741">
        <ele>992.70000000000005</ele>
        <time>2016-07-26T12:36:10Z</time>
      </trkpt>
      <trkpt lat="47.212150963023305" lon="7.1657470241189">
        <ele>995.10000000000002</ele>
        <time>2016-07-26T12:36:11Z</time>
      </trkpt>
      <trkpt lat="47.212126990780234" lon="7.165533034130931">
        <ele>997.50999999999999</ele>
        <time>2016-07-26T12:36:12Z</time>
      </trkpt>
      <trkpt lat="47.212092960253358" lon="7.16531996615231">
        <ele>998.47000000000003</ele>
        <time>2016-07-26T12:36:13Z</time>
      </trkpt>
      <trkpt lat="47.212050966918468" lon="7.165106981992722">
        <ele>1000.39</ele>
        <time>2016-07-26T12:36:14Z</time>
      </trkpt>
      <trkpt lat="47.211581999436021" lon="7.162543041631579">
        <ele>1019.62</ele>
        <time>2016-07-26T12:36:26Z</time>
      </trkpt>
      <trkpt lat="47.211632039397955" lon="7.160586034879088">
        <ele>1025.8599999999999</ele>
        <time>2016-07-26T12:36:35Z</time>
      </trkpt>
      <trkpt lat="47.21183798275888" lon="7.158211022615433">
        <ele>1033.0699999999999</ele>
        <time>2016-07-26T12:36:47Z</time>
      </trkpt>
      <trkpt lat="47.211827002465725" lon="7.158074984326959">
        <ele>1033.55</ele>
        <time>2016-07-26T12:36:48Z</time>
      </trkpt>
      <trkpt lat="47.211805041879416" lon="7.157930983230472">
        <ele>1034.04</ele>
        <time>2016-07-26T12:36:49Z</time>
      </trkpt>
      <trkpt lat="47.21145199611783" lon="7.156186038628221">
        <ele>1032.1099999999999</ele>
        <time>2016-07-26T12:37:02Z</time>
      </trkpt>
      <trkpt lat="47.211268013343215" lon="7.155196974053979">
        <ele>1030.1900000000001</ele>
        <time>2016-07-26T12:37:13Z</time>
      </trkpt>
      <trkpt lat="47.211268013343215" lon="7.15513302013278">
        <ele>1030.6700000000001</ele>
        <time>2016-07-26T12:37:21Z</time>
      </trkpt>
      <trkpt lat="47.211255021393299" lon="7.155135031789541">
        <ele>1030.6700000000001</ele>
        <time>2016-07-26T12:38:09Z</time>
      </trkpt>
      <trkpt lat="47.211250998079777" lon="7.155149029567838">
        <ele>1030.6700000000001</ele>
        <time>2016-07-26T12:38:10Z</time>
      </trkpt>
      <trkpt lat="47.211247980594635" lon="7.155167972669005">
        <ele>1030.1900000000001</ele>
        <time>2016-07-26T12:38:11Z</time>
      </trkpt>
      <trkpt lat="47.211250998079777" lon="7.155203009024262">
        <ele>1030.1900000000001</ele>
        <time>2016-07-26T12:38:12Z</time>
      </trkpt>
      <trkpt lat="47.211261978372931" lon="7.155236033722758">
        <ele>1029.71</ele>
        <time>2016-07-26T12:38:13Z</time>
      </trkpt>
      <trkpt lat="47.211293997243047" lon="7.155447006225586">
        <ele>1030.1900000000001</ele>
        <time>2016-07-26T12:38:25Z</time>
      </trkpt>
      <trkpt lat="47.211338002234697" lon="7.155699972063303">
        <ele>1030.1900000000001</ele>
        <time>2016-07-26T12:39:05Z</time>
      </trkpt>
      <trkpt lat="47.211565990000963" lon="7.156883999705315">
        <ele>1032.5899999999999</ele>
        <time>2016-07-26T12:39:15Z</time>
      </trkpt>
      <trkpt lat="47.211587028577924" lon="7.1569590177387">
        <ele>1032.5899999999999</ele>
        <time>2016-07-26T12:39:16Z</time>
      </trkpt>
      <trkpt lat="47.211611000820994" lon="7.157008973881602">
        <ele>1033.0699999999999</ele>
        <time>2016-07-26T12:39:17Z</time>
      </trkpt>
      <trkpt lat="47.211638996377587" lon="7.15704501606524">
        <ele>1033.0699999999999</ele>
        <time>2016-07-26T12:39:18Z</time>
      </trkpt>
      <trkpt lat="47.2116659861058" lon="7.157063037157059">
        <ele>1033.0699999999999</ele>
        <time>2016-07-26T12:39:19Z</time>
      </trkpt>
      <trkpt lat="47.211693981662393" lon="7.157062031328678">
        <ele>1033.55</ele>
        <time>2016-07-26T12:39:20Z</time>
      </trkpt>
      <trkpt lat="47.211726000532508" lon="7.157054990530014">
        <ele>1033.55</ele>
        <time>2016-07-26T12:39:21Z</time>
      </trkpt>
      <trkpt lat="47.211761036887765" lon="7.157044010236859">
        <ele>1033.55</ele>
        <time>2016-07-26T12:39:22Z</time>
      </trkpt>
      <trkpt lat="47.211796995252371" lon="7.157031018286943">
        <ele>1034.04</ele>
        <time>2016-07-26T12:39:23Z</time>
      </trkpt>
      <trkpt lat="47.211850974708796" lon="7.157003022730351">
        <ele>1034.52</ele>
        <time>2016-07-26T12:39:24Z</time>
      </trkpt>
      <trkpt lat="47.212314996868372" lon="7.156755002215505">
        <ele>1031.1500000000001</ele>
        <time>2016-07-26T12:39:30Z</time>
      </trkpt>
      <trkpt lat="47.212403006851673" lon="7.156683001667261">
        <ele>1031.1500000000001</ele>
        <time>2016-07-26T12:39:31Z</time>
      </trkpt>
      <trkpt lat="47.212487999349833" lon="7.156590968370438">
        <ele>1031.1500000000001</ele>
        <time>2016-07-26T12:39:32Z</time>
      </trkpt>
      <trkpt lat="47.212573997676373" lon="7.156491978093982">
        <ele>1030.6700000000001</ele>
        <time>2016-07-26T12:39:33Z</time>
      </trkpt>
      <trkpt lat="47.212656978517771" lon="7.156384019181132">
        <ele>1030.6700000000001</ele>
        <time>2016-07-26T12:39:34Z</time>
      </trkpt>
      <trkpt lat="47.214015014469624" lon="7.154867984354496">
        <ele>1024.4200000000001</ele>
        <time>2016-07-26T12:39:48Z</time>
      </trkpt>
      <trkpt lat="47.214422961696982" lon="7.154479986056685">
        <ele>1024.9000000000001</ele>
        <time>2016-07-26T12:39:52Z</time>
      </trkpt>
      <trkpt lat="47.214529998600483" lon="7.154420977458358">
        <ele>1025.8599999999999</ele>
        <time>2016-07-26T12:39:53Z</time>
      </trkpt>
      <trkpt lat="47.215345976874232" lon="7.15410296805203">
        <ele>1029.23</ele>
        <time>2016-07-26T12:40:00Z</time>
      </trkpt>
      <trkpt lat="47.216164972633123" lon="7.154128029942513">
        <ele>1029.71</ele>
        <time>2016-07-26T12:40:09Z</time>
      </trkpt>
      <trkpt lat="47.216229010373354" lon="7.154170023277402">
        <ele>1029.71</ele>
        <time>2016-07-26T12:40:10Z</time>
      </trkpt>
      <trkpt lat="47.21630897372961" lon="7.154234983026981">
        <ele>1029.23</ele>
        <time>2016-07-26T12:40:11Z</time>
      </trkpt>
      <trkpt lat="47.216395977884531" lon="7.154302960261703">
        <ele>1029.23</ele>
        <time>2016-07-26T12:40:12Z</time>
      </trkpt>
      <trkpt lat="47.216476025059819" lon="7.154386024922133">
        <ele>1028.75</ele>
        <time>2016-07-26T12:40:13Z</time>
      </trkpt>
      <trkpt lat="47.21751001663506" lon="7.15530501678586">
        <ele>1017.6900000000001</ele>
        <time>2016-07-26T12:40:23Z</time>
      </trkpt>
      <trkpt lat="47.21869002096355" lon="7.155857970938087">
        <ele>1004.72</ele>
        <time>2016-07-26T12:40:34Z</time>
      </trkpt>
      <trkpt lat="47.219236018136144" lon="7.15605603531003">
        <ele>1000.87</ele>
        <time>2016-07-26T12:40:40Z</time>
      </trkpt>
      <trkpt lat="47.219320004805923" lon="7.156062992289662">
        <ele>999.90999999999997</ele>
        <time>2016-07-26T12:40:41Z</time>
      </trkpt>
      <trkpt lat="47.219392005354166" lon="7.156044971197844">
        <ele>997.99000000000001</ele>
        <time>2016-07-26T12:40:42Z</time>
      </trkpt>
      <trkpt lat="47.220194991677999" lon="7.155577009543777">
        <ele>995.10000000000002</ele>
        <time>2016-07-26T12:40:51Z</time>
      </trkpt>
      <trkpt lat="47.220447035506368" lon="7.155376011505723">
        <ele>995.10000000000002</ele>
        <time>2016-07-26T12:40:54Z</time>
      </trkpt>
      <trkpt lat="47.220516018569469" lon="7.155297975987196">
        <ele>994.62</ele>
        <time>2016-07-26T12:40:55Z</time>
      </trkpt>
      <trkpt lat="47.220573015511036" lon="7.155191022902727">
        <ele>994.62</ele>
        <time>2016-07-26T12:40:56Z</time>
      </trkpt>
      <trkpt lat="47.221068972721696" lon="7.153946980834007">
        <ele>992.22000000000003</ele>
        <time>2016-07-26T12:41:04Z</time>
      </trkpt>
      <trkpt lat="47.221232000738382" lon="7.153470972552896">
        <ele>992.70000000000005</ele>
        <time>2016-07-26T12:41:07Z</time>
      </trkpt>
      <trkpt lat="47.221268964931369" lon="7.153294030576944">
        <ele>993.17999999999995</ele>
        <time>2016-07-26T12:41:08Z</time>
      </trkpt>
      <trkpt lat="47.221287991851568" lon="7.153108958154917">
        <ele>993.65999999999997</ele>
        <time>2016-07-26T12:41:09Z</time>
      </trkpt>
      <trkpt lat="47.221296038478613" lon="7.152911983430386">
        <ele>993.65999999999997</ele>
        <time>2016-07-26T12:41:10Z</time>
      </trkpt>
      <trkpt lat="47.221296960487962" lon="7.152709979563952">
        <ele>993.65999999999997</ele>
        <time>2016-07-26T12:41:11Z</time>
      </trkpt>
      <trkpt lat="47.221283968538046" lon="7.150505036115646">
        <ele>995.10000000000002</ele>
        <time>2016-07-26T12:41:21Z</time>
      </trkpt>
      <trkpt lat="47.221290003508329" lon="7.150315018370748">
        <ele>995.10000000000002</ele>
        <time>2016-07-26T12:41:22Z</time>
      </trkpt>
      <trkpt lat="47.221312969923019" lon="7.150141010060906">
        <ele>995.58000000000004</ele>
        <time>2016-07-26T12:41:23Z</time>
      </trkpt>
      <trkpt lat="47.22135404124856" lon="7.149985022842884">
        <ele>996.05999999999995</ele>
        <time>2016-07-26T12:41:24Z</time>
      </trkpt>
      <trkpt lat="47.221811022609472" lon="7.148661017417908">
        <ele>1000.87</ele>
        <time>2016-07-26T12:41:32Z</time>
      </trkpt>
      <trkpt lat="47.222308991476893" lon="7.14701296761632">
        <ele>1003.75</ele>
        <time>2016-07-26T12:41:42Z</time>
      </trkpt>
      <trkpt lat="47.222337992861867" lon="7.146852035075426">
        <ele>1003.75</ele>
        <time>2016-07-26T12:41:43Z</time>
      </trkpt>
      <trkpt lat="47.222362970933318" lon="7.146682972088456">
        <ele>1003.27</ele>
        <time>2016-07-26T12:41:44Z</time>
      </trkpt>
      <trkpt lat="47.222378980368376" lon="7.146510975435376">
        <ele>1003.27</ele>
        <time>2016-07-26T12:41:45Z</time>
      </trkpt>
      <trkpt lat="47.22238602116704" lon="7.146337972953916">
        <ele>1002.79</ele>
        <time>2016-07-26T12:41:46Z</time>
      </trkpt>
      <trkpt lat="47.222384009510279" lon="7.146158013492823">
        <ele>1002.3099999999999</ele>
        <time>2016-07-26T12:41:47Z</time>
      </trkpt>
      <trkpt lat="47.222347967326641" lon="7.144598979502916">
        <ele>1000.87</ele>
        <time>2016-07-26T12:41:56Z</time>
      </trkpt>
      <trkpt lat="47.222372023388743" lon="7.144445003941655">
        <ele>1000.39</ele>
        <time>2016-07-26T12:41:57Z</time>
      </trkpt>
      <trkpt lat="47.222661031410098" lon="7.142904996871948">
        <ele>1002.3099999999999</ele>
        <time>2016-07-26T12:42:07Z</time>
      </trkpt>
      <trkpt lat="47.222668994218111" lon="7.142757978290319">
        <ele>1002.3099999999999</ele>
        <time>2016-07-26T12:42:08Z</time>
      </trkpt>
      <trkpt lat="47.222665976732969" lon="7.142611965537071">
        <ele>1001.35</ele>
        <time>2016-07-26T12:42:09Z</time>
      </trkpt>
      <trkpt lat="47.222647033631802" lon="7.142473999410868">
        <ele>1001.35</ele>
        <time>2016-07-26T12:42:10Z</time>
      </trkpt>
      <trkpt lat="47.222619038075209" lon="7.142339972779155">
        <ele>1001.35</ele>
        <time>2016-07-26T12:42:11Z</time>
      </trkpt>
      <trkpt lat="47.222338998690248" lon="7.140763001516461">
        <ele>1003.27</ele>
        <time>2016-07-26T12:42:22Z</time>
      </trkpt>
      <trkpt lat="47.222189968451858" lon="7.139397002756596">
        <ele>991.25999999999999</ele>
        <time>2016-07-26T12:42:32Z</time>
      </trkpt>
      <trkpt lat="47.222145963460207" lon="7.138973968103528">
        <ele>985.49000000000001</ele>
        <time>2016-07-26T12:42:36Z</time>
      </trkpt>
      <trkpt lat="47.222165996208787" lon="7.138886963948607">
        <ele>984.52999999999997</ele>
        <time>2016-07-26T12:42:37Z</time>
      </trkpt>
      <trkpt lat="47.222191980108619" lon="7.138810018077493">
        <ele>983.57000000000005</ele>
        <time>2016-07-26T12:42:38Z</time>
      </trkpt>
      <trkpt lat="47.222235985100269" lon="7.138747991994023">
        <ele>984.52999999999997</ele>
        <time>2016-07-26T12:42:39Z</time>
      </trkpt>
      <trkpt lat="47.222284013405442" lon="7.13869996368885">
        <ele>983.57000000000005</ele>
        <time>2016-07-26T12:42:40Z</time>
      </trkpt>
      <trkpt lat="47.222338998690248" lon="7.138668028637767">
        <ele>982.60000000000002</ele>
        <time>2016-07-26T12:42:41Z</time>
      </trkpt>
      <trkpt lat="47.222403958439827" lon="7.138646990060806">
        <ele>981.63999999999999</ele>
        <time>2016-07-26T12:42:42Z</time>
      </trkpt>
      <trkpt lat="47.222541002556682" lon="7.138580018654466">
        <ele>980.20000000000005</ele>
        <time>2016-07-26T12:42:44Z</time>
      </trkpt>
      <trkpt lat="47.222603028640151" lon="7.138540958985686">
        <ele>979.24000000000001</ele>
        <time>2016-07-26T12:42:45Z</time>
      </trkpt>
      <trkpt lat="47.222660025581717" lon="7.138491002842784">
        <ele>978.27999999999997</ele>
        <time>2016-07-26T12:42:46Z</time>
      </trkpt>
      <trkpt lat="47.222710987553" lon="7.138442974537611">
        <ele>977.79999999999995</ele>
        <time>2016-07-26T12:42:47Z</time>
      </trkpt>
      <trkpt lat="47.222767984494567" lon="7.138378014788032">
        <ele>977.32000000000005</ele>
        <time>2016-07-26T12:42:48Z</time>
      </trkpt>
      <trkpt lat="47.222822969779372" lon="7.138294028118253">
        <ele>976.84000000000003</ele>
        <time>2016-07-26T12:42:49Z</time>
      </trkpt>
      <trkpt lat="47.222888013347983" lon="7.138221021741629">
        <ele>975.88</ele>
        <time>2016-07-26T12:42:50Z</time>
      </trkpt>
      <trkpt lat="47.222959008067846" lon="7.138154972344637">
        <ele>975.38999999999999</ele>
        <time>2016-07-26T12:42:51Z</time>
      </trkpt>
      <trkpt lat="47.223035031929612" lon="7.138095963746309">
        <ele>974.42999999999995</ele>
        <time>2016-07-26T12:42:52Z</time>
      </trkpt>
      <trkpt lat="47.223169980570674" lon="7.137975012883544">
        <ele>972.99000000000001</ele>
        <time>2016-07-26T12:42:54Z</time>
      </trkpt>
      <trkpt lat="47.223231000825763" lon="7.137898989021778">
        <ele>972.50999999999999</ele>
        <time>2016-07-26T12:42:55Z</time>
      </trkpt>
      <trkpt lat="47.223281962797046" lon="7.137797987088561">
        <ele>971.54999999999995</ele>
        <time>2016-07-26T12:42:56Z</time>
      </trkpt>
      <trkpt lat="47.223324961960316" lon="7.137693967670202">
        <ele>971.07000000000005</ele>
        <time>2016-07-26T12:42:57Z</time>
      </trkpt>
      <trkpt lat="47.223368966951966" lon="7.137582991272211">
        <ele>970.59000000000003</ele>
        <time>2016-07-26T12:42:58Z</time>
      </trkpt>
      <trkpt lat="47.223536018282175" lon="7.137058032676578">
        <ele>967.22000000000003</ele>
        <time>2016-07-26T12:43:03Z</time>
      </trkpt>
      <trkpt lat="47.223538029938936" lon="7.136960970237851">
        <ele>966.74000000000001</ele>
        <time>2016-07-26T12:43:04Z</time>
      </trkpt>
      <trkpt lat="47.22352403216064" lon="7.13684999383986">
        <ele>966.25999999999999</ele>
        <time>2016-07-26T12:43:05Z</time>
      </trkpt>
      <trkpt lat="47.223424036055803" lon="7.135832011699677">
        <ele>962.89999999999998</ele>
        <time>2016-07-26T12:43:12Z</time>
      </trkpt>
      <trkpt lat="47.223381958901882" lon="7.134849987924099">
        <ele>957.61000000000001</ele>
        <time>2016-07-26T12:43:19Z</time>
      </trkpt>
      <trkpt lat="47.223383970558643" lon="7.13317503221333">
        <ele>942.71000000000004</ele>
        <time>2016-07-26T12:43:29Z</time>
      </trkpt>
      <trkpt lat="47.223150031641126" lon="7.131189024075866">
        <ele>921.08000000000004</ele>
        <time>2016-07-26T12:43:42Z</time>
      </trkpt>
      <trkpt lat="47.2231600061059" lon="7.131077041849494">
        <ele>920.12</ele>
        <time>2016-07-26T12:43:43Z</time>
      </trkpt>
      <trkpt lat="47.223192024976015" lon="7.130968999117613">
        <ele>918.67999999999995</ele>
        <time>2016-07-26T12:43:44Z</time>
      </trkpt>
      <trkpt lat="47.223320016637444" lon="7.130239019170404">
        <ele>911.95000000000005</ele>
        <time>2016-07-26T12:43:50Z</time>
      </trkpt>
      <trkpt lat="47.223323034122586" lon="7.130107004195452">
        <ele>910.50999999999999</ele>
        <time>2016-07-26T12:43:51Z</time>
      </trkpt>
      <trkpt lat="47.223306018859148" lon="7.129961997270584">
        <ele>909.05999999999995</ele>
        <time>2016-07-26T12:43:52Z</time>
      </trkpt>
      <trkpt lat="47.22307501360774" lon="7.128317970782518">
        <ele>898.00999999999999</ele>
        <time>2016-07-26T12:44:03Z</time>
      </trkpt>
      <trkpt lat="47.223069984465837" lon="7.128176987171173">
        <ele>897.52999999999997</ele>
        <time>2016-07-26T12:44:04Z</time>
      </trkpt>
      <trkpt lat="47.223081970587373" lon="7.128045978024602">
        <ele>896.57000000000005</ele>
        <time>2016-07-26T12:44:05Z</time>
      </trkpt>
      <trkpt lat="47.223157994449139" lon="7.127495035529137">
        <ele>894.63999999999999</ele>
        <time>2016-07-26T12:44:09Z</time>
      </trkpt>
      <trkpt lat="47.223201999440789" lon="7.127356985583901">
        <ele>894.63999999999999</ele>
        <time>2016-07-26T12:44:10Z</time>
      </trkpt>
      <trkpt lat="47.223339965566993" lon="7.126969993114471">
        <ele>892.72000000000003</ele>
        <time>2016-07-26T12:44:13Z</time>
      </trkpt>
      <trkpt lat="47.22335496917367" lon="7.126826997846365">
        <ele>891.75999999999999</ele>
        <time>2016-07-26T12:44:14Z</time>
      </trkpt>
      <trkpt lat="47.223366033285856" lon="7.126680985093117">
        <ele>891.75999999999999</ele>
        <time>2016-07-26T12:44:15Z</time>
      </trkpt>
      <trkpt lat="47.223357986658812" lon="7.126535978168249">
        <ele>891.75999999999999</ele>
        <time>2016-07-26T12:44:16Z</time>
      </trkpt>
      <trkpt lat="47.223347006365657" lon="7.126394994556904">
        <ele>891.75999999999999</ele>
        <time>2016-07-26T12:44:17Z</time>
      </trkpt>
      <trkpt lat="47.223150031641126" lon="7.124660024419427">
        <ele>886.95000000000005</ele>
        <time>2016-07-26T12:44:31Z</time>
      </trkpt>
      <trkpt lat="47.222897987812757" lon="7.123327972367406">
        <ele>886.47000000000003</ele>
        <time>2016-07-26T12:44:40Z</time>
      </trkpt>
      <trkpt lat="47.222818024456501" lon="7.123037958517671">
        <ele>885.99000000000001</ele>
        <time>2016-07-26T12:44:42Z</time>
      </trkpt>
      <trkpt lat="47.222803020849824" lon="7.122881971299648">
        <ele>885.50999999999999</ele>
        <time>2016-07-26T12:44:43Z</time>
      </trkpt>
      <trkpt lat="47.222800003364682" lon="7.122723972424865">
        <ele>885.99000000000001</ele>
        <time>2016-07-26T12:44:44Z</time>
      </trkpt>
      <trkpt lat="47.222897987812757" lon="7.12056496180594">
        <ele>884.54999999999995</ele>
        <time>2016-07-26T12:44:58Z</time>
      </trkpt>
      <trkpt lat="47.22285901196301" lon="7.11910399608314">
        <ele>885.50999999999999</ele>
        <time>2016-07-26T12:45:09Z</time>
      </trkpt>
      <trkpt lat="47.22275298088789" lon="7.117284033447504">
        <ele>882.63</ele>
        <time>2016-07-26T12:45:21Z</time>
      </trkpt>
      <trkpt lat="47.222715010866523" lon="7.114901980385184">
        <ele>880.71000000000004</ele>
        <time>2016-07-26T12:45:37Z</time>
      </trkpt>
      <trkpt lat="47.222682991996408" lon="7.114368975162506">
        <ele>879.25999999999999</ele>
        <time>2016-07-26T12:45:42Z</time>
      </trkpt>
      <trkpt lat="47.2227300144732" lon="7.113991035148501">
        <ele>878.29999999999995</ele>
        <time>2016-07-26T12:45:49Z</time>
      </trkpt>
      <trkpt lat="47.222716016694903" lon="7.113934960216284">
        <ele>878.77999999999997</ele>
        <time>2016-07-26T12:45:50Z</time>
      </trkpt>
      <trkpt lat="47.222702018916607" lon="7.113871006295085">
        <ele>878.77999999999997</ele>
        <time>2016-07-26T12:45:51Z</time>
      </trkpt>
      <trkpt lat="47.222699001431465" lon="7.113764975219965">
        <ele>879.25999999999999</ele>
        <time>2016-07-26T12:45:53Z</time>
      </trkpt>
      <trkpt lat="47.222702018916607" lon="7.11373102851212">
        <ele>878.77999999999997</ele>
        <time>2016-07-26T12:45:54Z</time>
      </trkpt>
      <trkpt lat="47.222716016694903" lon="7.113714013248682">
        <ele>878.77999999999997</ele>
        <time>2016-07-26T12:45:55Z</time>
      </trkpt>
      <trkpt lat="47.222742000594735" lon="7.113708984106779">
        <ele>878.77999999999997</ele>
        <time>2016-07-26T12:45:56Z</time>
      </trkpt>
      <trkpt lat="47.222788017243147" lon="7.113706972450018">
        <ele>878.77999999999997</ele>
        <time>2016-07-26T12:45:57Z</time>
      </trkpt>
      <trkpt lat="47.222830010578036" lon="7.11371099576354">
        <ele>878.29999999999995</ele>
        <time>2016-07-26T12:45:58Z</time>
      </trkpt>
      <trkpt lat="47.222876027226448" lon="7.113719964399934">
        <ele>878.77999999999997</ele>
        <time>2016-07-26T12:45:59Z</time>
      </trkpt>
      <trkpt lat="47.222921960055828" lon="7.113746032118797">
        <ele>878.77999999999997</ele>
        <time>2016-07-26T12:46:00Z</time>
      </trkpt>
      <trkpt lat="47.222963031381369" lon="7.113784002140164">
        <ele>878.29999999999995</ele>
        <time>2016-07-26T12:46:01Z</time>
      </trkpt>
      <trkpt lat="47.223107032477856" lon="7.113962033763528">
        <ele>879.25999999999999</ele>
        <time>2016-07-26T12:46:05Z</time>
      </trkpt>
      <trkpt lat="47.223155982792377" lon="7.114016013219953">
        <ele>879.25999999999999</ele>
        <time>2016-07-26T12:46:07Z</time>
      </trkpt>
      <trkpt lat="47.223184984177351" lon="7.114026993513107">
        <ele>879.25999999999999</ele>
        <time>2016-07-26T12:46:18Z</time>
      </trkpt>
      <trkpt lat="47.223193030804396" lon="7.114027999341488">
        <ele>879.25999999999999</ele>
        <time>2016-07-26T12:46:20Z</time>
      </trkpt>
      <trkpt lat="47.223217003047466" lon="7.113963961601257">
        <ele>879.25999999999999</ele>
        <time>2016-07-26T12:46:21Z</time>
      </trkpt>
      <trkpt lat="47.22322697751224" lon="7.113880980759859">
        <ele>879.25999999999999</ele>
        <time>2016-07-26T12:46:22Z</time>
      </trkpt>
      <trkpt lat="47.223227983340621" lon="7.113781990483403">
        <ele>879.25999999999999</ele>
        <time>2016-07-26T12:46:23Z</time>
      </trkpt>
      <trkpt lat="47.223222032189369" lon="7.113674031570554">
        <ele>878.77999999999997</ele>
        <time>2016-07-26T12:46:24Z</time>
      </trkpt>
      <trkpt lat="47.223213985562325" lon="7.113556014373899">
        <ele>878.77999999999997</ele>
        <time>2016-07-26T12:46:25Z</time>
      </trkpt>
      <trkpt lat="47.223194036632776" lon="7.111849039793015">
        <ele>880.22000000000003</ele>
        <time>2016-07-26T12:46:37Z</time>
      </trkpt>
      <trkpt lat="47.223380031064153" lon="7.110310038551688">
        <ele>881.19000000000005</ele>
        <time>2016-07-26T12:46:47Z</time>
      </trkpt>
      <trkpt lat="47.223428981378675" lon="7.110174000263214">
        <ele>881.19000000000005</ele>
        <time>2016-07-26T12:46:48Z</time>
      </trkpt>
      <trkpt lat="47.223631991073489" lon="7.109782984480262">
        <ele>881.19000000000005</ele>
        <time>2016-07-26T12:46:51Z</time>
      </trkpt>
      <trkpt lat="47.2238489985466" lon="7.109328014776111">
        <ele>882.63</ele>
        <time>2016-07-26T12:46:54Z</time>
      </trkpt>
      <trkpt lat="47.223895015195012" lon="7.109173033386469">
        <ele>882.14999999999998</ele>
        <time>2016-07-26T12:46:55Z</time>
      </trkpt>
      <trkpt lat="47.223919993266463" lon="7.109016040340066">
        <ele>883.59000000000003</ele>
        <time>2016-07-26T12:46:56Z</time>
      </trkpt>
      <trkpt lat="47.22393399104476" lon="7.108849994838238">
        <ele>884.54999999999995</ele>
        <time>2016-07-26T12:46:57Z</time>
      </trkpt>
      <trkpt lat="47.223908007144928" lon="7.108684033155441">
        <ele>884.54999999999995</ele>
        <time>2016-07-26T12:46:58Z</time>
      </trkpt>
      <trkpt lat="47.22389099188149" lon="7.108521005138755">
        <ele>885.02999999999997</ele>
        <time>2016-07-26T12:46:59Z</time>
      </trkpt>
      <trkpt lat="47.223688988015056" lon="7.106257975101471">
        <ele>888.39999999999998</ele>
        <time>2016-07-26T12:47:12Z</time>
      </trkpt>
      <trkpt lat="47.223580023273826" lon="7.104274984449148">
        <ele>897.04999999999995</ele>
        <time>2016-07-26T12:47:23Z</time>
      </trkpt>
      <trkpt lat="47.223433004692197" lon="7.101899972185493">
        <ele>903.29999999999995</ele>
        <time>2016-07-26T12:47:37Z</time>
      </trkpt>
      <trkpt lat="47.223121030256152" lon="7.100013960152865">
        <ele>911.95000000000005</ele>
        <time>2016-07-26T12:47:49Z</time>
      </trkpt>
      <trkpt lat="47.223070990294218" lon="7.099707014858723">
        <ele>912.90999999999997</ele>
        <time>2016-07-26T12:47:51Z</time>
      </trkpt>
      <trkpt lat="47.223065961152315" lon="7.099563013762236">
        <ele>913.38999999999999</ele>
        <time>2016-07-26T12:47:52Z</time>
      </trkpt>
      <trkpt lat="47.223038971424103" lon="7.09892800077796">
        <ele>915.78999999999996</ele>
        <time>2016-07-26T12:47:59Z</time>
      </trkpt>
      <trkpt lat="47.222995972260833" lon="7.098353002220392">
        <ele>920.12</ele>
        <time>2016-07-26T12:48:12Z</time>
      </trkpt>
      <trkpt lat="47.222966970875859" lon="7.097428981214762">
        <ele>923.96000000000004</ele>
        <time>2016-07-26T12:48:20Z</time>
      </trkpt>
      <trkpt lat="47.222948027774692" lon="7.097119018435478">
        <ele>924.92999999999995</ele>
        <time>2016-07-26T12:48:22Z</time>
      </trkpt>
      <trkpt lat="47.222948027774692" lon="7.095141978934407">
        <ele>933.58000000000004</ele>
        <time>2016-07-26T12:48:34Z</time>
      </trkpt>
      <trkpt lat="47.223008964210749" lon="7.093660980463028">
        <ele>943.19000000000005</ele>
        <time>2016-07-26T12:48:43Z</time>
      </trkpt>
      <trkpt lat="47.223002007231116" lon="7.093481021001935">
        <ele>944.14999999999998</ele>
        <time>2016-07-26T12:48:44Z</time>
      </trkpt>
      <trkpt lat="47.222944004461169" lon="7.092476030811667">
        <ele>950.39999999999998</ele>
        <time>2016-07-26T12:48:50Z</time>
      </trkpt>
      <trkpt lat="47.222974011674523" lon="7.092346027493477">
        <ele>951.36000000000001</ele>
        <time>2016-07-26T12:48:51Z</time>
      </trkpt>
      <trkpt lat="47.223028996959329" lon="7.092244019731879">
        <ele>951.84000000000003</ele>
        <time>2016-07-26T12:48:52Z</time>
      </trkpt>
      <trkpt lat="47.223112983629107" lon="7.092165984213352">
        <ele>952.32000000000005</ele>
        <time>2016-07-26T12:48:53Z</time>
      </trkpt>
      <trkpt lat="47.22320300526917" lon="7.092110998928547">
        <ele>953.76999999999998</ele>
        <time>2016-07-26T12:48:54Z</time>
      </trkpt>
      <trkpt lat="47.223293026909232" lon="7.092078980058432">
        <ele>955.69000000000005</ele>
        <time>2016-07-26T12:48:55Z</time>
      </trkpt>
      <trkpt lat="47.223717989400029" lon="7.0919010322541">
        <ele>960.00999999999999</ele>
        <time>2016-07-26T12:49:00Z</time>
      </trkpt>
      <trkpt lat="47.223810022696853" lon="7.091842023655772">
        <ele>960.49000000000001</ele>
        <time>2016-07-26T12:49:01Z</time>
      </trkpt>
      <trkpt lat="47.223901972174644" lon="7.091760970652103">
        <ele>960.98000000000002</ele>
        <time>2016-07-26T12:49:02Z</time>
      </trkpt>
      <trkpt lat="47.223971039056778" lon="7.091634990647435">
        <ele>960.98000000000002</ele>
        <time>2016-07-26T12:49:03Z</time>
      </trkpt>
      <trkpt lat="47.224027030169964" lon="7.091483026742935">
        <ele>962.41999999999996</ele>
        <time>2016-07-26T12:49:04Z</time>
      </trkpt>
      <trkpt lat="47.224060976877809" lon="7.091310024261475">
        <ele>963.38</ele>
        <time>2016-07-26T12:49:05Z</time>
      </trkpt>
      <trkpt lat="47.224074974656105" lon="7.091122018173337">
        <ele>964.34000000000003</ele>
        <time>2016-07-26T12:49:06Z</time>
      </trkpt>
      <trkpt lat="47.224076986312866" lon="7.090920014306903">
        <ele>965.77999999999997</ele>
        <time>2016-07-26T12:49:07Z</time>
      </trkpt>
      <trkpt lat="47.223907001316547" lon="7.089204993098974">
        <ele>973.47000000000003</ele>
        <time>2016-07-26T12:49:16Z</time>
      </trkpt>
      <trkpt lat="47.223588991910219" lon="7.087056962773204">
        <ele>985.97000000000003</ele>
        <time>2016-07-26T12:49:26Z</time>
      </trkpt>
      <trkpt lat="47.22356996499002" lon="7.08644500002265">
        <ele>990.77999999999997</ele>
        <time>2016-07-26T12:49:29Z</time>
      </trkpt>
      <trkpt lat="47.223786972463131" lon="7.084823017939925">
        <ele>1000.87</ele>
        <time>2016-07-26T12:49:38Z</time>
      </trkpt>
      <trkpt lat="47.223853021860123" lon="7.084338963031769">
        <ele>1004.23</ele>
        <time>2016-07-26T12:49:42Z</time>
      </trkpt>
      <trkpt lat="47.223889986053109" lon="7.084237039089203">
        <ele>1005.2</ele>
        <time>2016-07-26T12:49:43Z</time>
      </trkpt>
      <trkpt lat="47.223942037671804" lon="7.08414601162076">
        <ele>1005.6799999999999</ele>
        <time>2016-07-26T12:49:44Z</time>
      </trkpt>
      <trkpt lat="47.224012026563287" lon="7.084071999415755">
        <ele>1006.64</ele>
        <time>2016-07-26T12:49:45Z</time>
      </trkpt>
      <trkpt lat="47.224103976041079" lon="7.084020031616092">
        <ele>1007.6</ele>
        <time>2016-07-26T12:49:46Z</time>
      </trkpt>
      <trkpt lat="47.224198020994663" lon="7.083973009139299">
        <ele>1008.08</ele>
        <time>2016-07-26T12:49:47Z</time>
      </trkpt>
      <trkpt lat="47.224362976849079" lon="7.083833031356335">
        <ele>1009.04</ele>
        <time>2016-07-26T12:49:49Z</time>
      </trkpt>
      <trkpt lat="47.224435983225703" lon="7.083729011937976">
        <ele>1009.52</ele>
        <time>2016-07-26T12:49:50Z</time>
      </trkpt>
      <trkpt lat="47.224499015137553" lon="7.083603031933308">
        <ele>1009.04</ele>
        <time>2016-07-26T12:49:51Z</time>
      </trkpt>
      <trkpt lat="47.224560035392642" lon="7.083464981988072">
        <ele>1009.04</ele>
        <time>2016-07-26T12:49:52Z</time>
      </trkpt>
      <trkpt lat="47.224604962393641" lon="7.083314023911953">
        <ele>1009.04</ele>
        <time>2016-07-26T12:49:53Z</time>
      </trkpt>
      <trkpt lat="47.224656008183956" lon="7.083163987845182">
        <ele>1008.5599999999999</ele>
        <time>2016-07-26T12:49:54Z</time>
      </trkpt>
      <trkpt lat="47.225126987323165" lon="7.081518033519387">
        <ele>1011.9299999999999</ele>
        <time>2016-07-26T12:50:04Z</time>
      </trkpt>
      <trkpt lat="47.22528699785471" lon="7.079832013696432">
        <ele>1021.54</ele>
        <time>2016-07-26T12:50:13Z</time>
      </trkpt>
      <trkpt lat="47.225917987525463" lon="7.078096037730575">
        <ele>1029.23</ele>
        <time>2016-07-26T12:50:22Z</time>
      </trkpt>
      <trkpt lat="47.226412016898394" lon="7.077109990641475">
        <ele>1032.5899999999999</ele>
        <time>2016-07-26T12:50:29Z</time>
      </trkpt>
      <trkpt lat="47.226943010464311" lon="7.075797971338034">
        <ele>1037.4000000000001</ele>
        <time>2016-07-26T12:50:38Z</time>
      </trkpt>
      <trkpt lat="47.228035004809499" lon="7.074121003970504">
        <ele>1028.75</ele>
        <time>2016-07-26T12:50:49Z</time>
      </trkpt>
      <trkpt lat="47.229748014360666" lon="7.071523033082485">
        <ele>1005.6799999999999</ele>
        <time>2016-07-26T12:51:05Z</time>
      </trkpt>
      <trkpt lat="47.231081994250417" lon="7.069544987753034">
        <ele>990.77999999999997</ele>
        <time>2016-07-26T12:51:17Z</time>
      </trkpt>
      <trkpt lat="47.23270196467638" lon="7.067125970497727">
        <ele>983.57000000000005</ele>
        <time>2016-07-26T12:51:29Z</time>
      </trkpt>
      <trkpt lat="47.234392007812858" lon="7.064601005986333">
        <ele>985.97000000000003</ele>
        <time>2016-07-26T12:51:43Z</time>
      </trkpt>
      <trkpt lat="47.23469702526927" lon="7.064021984115243">
        <ele>987.88999999999999</ele>
        <time>2016-07-26T12:51:49Z</time>
      </trkpt>
      <trkpt lat="47.234746981412172" lon="7.063982002437115">
        <ele>988.37</ele>
        <time>2016-07-26T12:51:50Z</time>
      </trkpt>
      <trkpt lat="47.234804984182119" lon="7.063975967466831">
        <ele>989.33000000000004</ele>
        <time>2016-07-26T12:51:51Z</time>
      </trkpt>
      <trkpt lat="47.234863992780447" lon="7.063978984951973">
        <ele>989.80999999999995</ele>
        <time>2016-07-26T12:51:52Z</time>
      </trkpt>
      <trkpt lat="47.234916966408491" lon="7.063962975516915">
        <ele>990.29999999999995</ele>
        <time>2016-07-26T12:51:53Z</time>
      </trkpt>
      <trkpt lat="47.235003970563412" lon="7.063910001888871">
        <ele>990.77999999999997</ele>
        <time>2016-07-26T12:51:55Z</time>
      </trkpt>
      <trkpt lat="47.235028026625514" lon="7.063875971361995">
        <ele>991.74000000000001</ele>
        <time>2016-07-26T12:51:56Z</time>
      </trkpt>
      <trkpt lat="47.235055016353726" lon="7.063830038532615">
        <ele>992.22000000000003</ele>
        <time>2016-07-26T12:51:57Z</time>
      </trkpt>
      <trkpt lat="47.235120981931686" lon="7.063719984143972">
        <ele>993.17999999999995</ele>
        <time>2016-07-26T12:51:59Z</time>
      </trkpt>
      <trkpt lat="47.235165992751718" lon="7.063671033829451">
        <ele>993.65999999999997</ele>
        <time>2016-07-26T12:52:00Z</time>
      </trkpt>
      <trkpt lat="47.235215026885271" lon="7.0636270288378">
        <ele>994.13999999999999</ele>
        <time>2016-07-26T12:52:01Z</time>
      </trkpt>
      <trkpt lat="47.23532298579812" lon="7.063525021076202">
        <ele>995.10000000000002</ele>
        <time>2016-07-26T12:52:03Z</time>
      </trkpt>
      <trkpt lat="47.235378976911306" lon="7.063464000821114">
        <ele>995.58000000000004</ele>
        <time>2016-07-26T12:52:04Z</time>
      </trkpt>
      <trkpt lat="47.23588096909225" lon="7.06263997592032">
        <ele>1003.75</ele>
        <time>2016-07-26T12:52:15Z</time>
      </trkpt>
      <trkpt lat="47.236276008188725" lon="7.062003035098314">
        <ele>1005.6799999999999</ele>
        <time>2016-07-26T12:52:26Z</time>
      </trkpt>
      <trkpt lat="47.236911021173" lon="7.061039032414556">
        <ele>1010.48</ele>
        <time>2016-07-26T12:52:37Z</time>
      </trkpt>
      <trkpt lat="47.237780978903174" lon="7.059711003676057">
        <ele>1018.17</ele>
        <time>2016-07-26T12:52:50Z</time>
      </trkpt>
      <trkpt lat="47.238492015749216" lon="7.059165006503463">
        <ele>1023.9400000000001</ele>
        <time>2016-07-26T12:52:58Z</time>
      </trkpt>
      <trkpt lat="47.238800972700119" lon="7.059084959328175">
        <ele>1026.3399999999999</ele>
        <time>2016-07-26T12:53:01Z</time>
      </trkpt>
      <trkpt lat="47.238907003775239" lon="7.059100968763232">
        <ele>1027.79</ele>
        <time>2016-07-26T12:53:02Z</time>
      </trkpt>
      <trkpt lat="47.239003982394934" lon="7.059110021218658">
        <ele>1028.75</ele>
        <time>2016-07-26T12:53:03Z</time>
      </trkpt>
      <trkpt lat="47.239786013960838" lon="7.059419983997941">
        <ele>1025.8599999999999</ele>
        <time>2016-07-26T12:53:11Z</time>
      </trkpt>
      <trkpt lat="47.240093965083361" lon="7.059623999521136">
        <ele>1022.98</ele>
        <time>2016-07-26T12:53:15Z</time>
      </trkpt>
      <trkpt lat="47.240898041054606" lon="7.060312991961837">
        <ele>1019.62</ele>
        <time>2016-07-26T12:53:24Z</time>
      </trkpt>
      <trkpt lat="47.242049966007471" lon="7.061207005754113">
        <ele>1013.37</ele>
        <time>2016-07-26T12:53:36Z</time>
      </trkpt>
      <trkpt lat="47.243174985051155" lon="7.061954000964761">
        <ele>1008.5599999999999</ele>
        <time>2016-07-26T12:53:47Z</time>
      </trkpt>
      <trkpt lat="47.244314001873136" lon="7.062308974564076">
        <ele>1005.2</ele>
        <time>2016-07-26T12:53:56Z</time>
      </trkpt>
      <trkpt lat="47.245706990361214" lon="7.062737038359046">
        <ele>1005.6799999999999</ele>
        <time>2016-07-26T12:54:10Z</time>
      </trkpt>
      <trkpt lat="47.246017958968878" lon="7.062882967293263">
        <ele>1004.23</ele>
        <time>2016-07-26T12:54:14Z</time>
      </trkpt>
      <trkpt lat="47.246090965345502" lon="7.062932001426816">
        <ele>1003.75</ele>
        <time>2016-07-26T12:54:15Z</time>
      </trkpt>
      <trkpt lat="47.24692496471107" lon="7.063645971938968">
        <ele>1004.23</ele>
        <time>2016-07-26T12:54:24Z</time>
      </trkpt>
      <trkpt lat="47.247037030756474" lon="7.063712021335959">
        <ele>1004.23</ele>
        <time>2016-07-26T12:54:25Z</time>
      </trkpt>
      <trkpt lat="47.247153958305717" lon="7.063763989135623">
        <ele>1004.72</ele>
        <time>2016-07-26T12:54:26Z</time>
      </trkpt>
      <trkpt lat="47.247271975502372" lon="7.063804976642132">
        <ele>1005.2</ele>
        <time>2016-07-26T12:54:27Z</time>
      </trkpt>
      <trkpt lat="47.247388986870646" lon="7.063838001340628">
        <ele>1005.2</ele>
        <time>2016-07-26T12:54:28Z</time>
      </trkpt>
      <trkpt lat="47.24791101180017" lon="7.064000023528934">
        <ele>1007.6</ele>
        <time>2016-07-26T12:54:33Z</time>
      </trkpt>
      <trkpt lat="47.248090971261263" lon="7.064093984663487">
        <ele>1010.48</ele>
        <time>2016-07-26T12:54:35Z</time>
      </trkpt>
      <trkpt lat="47.248171018436551" lon="7.064159028232098">
        <ele>1010.96</ele>
        <time>2016-07-26T12:54:36Z</time>
      </trkpt>
      <trkpt lat="47.248768983408809" lon="7.064639981836081">
        <ele>1009.04</ele>
        <time>2016-07-26T12:54:42Z</time>
      </trkpt>
      <trkpt lat="47.248865962028503" lon="7.064762022346258">
        <ele>1009.52</ele>
        <time>2016-07-26T12:54:43Z</time>
      </trkpt>
      <trkpt lat="47.24894299171865" lon="7.064914992079139">
        <ele>1009.04</ele>
        <time>2016-07-26T12:54:44Z</time>
      </trkpt>
      <trkpt lat="47.248999988660216" lon="7.065110038965941">
        <ele>1009.04</ele>
        <time>2016-07-26T12:54:45Z</time>
      </trkpt>
      <trkpt lat="47.249033013358712" lon="7.065331991761923">
        <ele>1009.04</ele>
        <time>2016-07-26T12:54:46Z</time>
      </trkpt>
      <trkpt lat="47.249061008915305" lon="7.065570959821343">
        <ele>1009.04</ele>
        <time>2016-07-26T12:54:47Z</time>
      </trkpt>
      <trkpt lat="47.249348005279899" lon="7.067684959620237">
        <ele>1010.96</ele>
        <time>2016-07-26T12:54:57Z</time>
      </trkpt>
      <trkpt lat="47.249660985544324" lon="7.069497965276241">
        <ele>1008.5599999999999</ele>
        <time>2016-07-26T12:55:08Z</time>
      </trkpt>
      <trkpt lat="47.250130958855152" lon="7.071486990898848">
        <ele>1008.08</ele>
        <time>2016-07-26T12:55:23Z</time>
      </trkpt>
      <trkpt lat="47.250351989641786" lon="7.07224203273654">
        <ele>1005.2</ele>
        <time>2016-07-26T12:55:29Z</time>
      </trkpt>
      <trkpt lat="47.250400017946959" lon="7.072342028841376">
        <ele>1005.2</ele>
        <time>2016-07-26T12:55:30Z</time>
      </trkpt>
      <trkpt lat="47.250459026545286" lon="7.072434984147549">
        <ele>1005.2</ele>
        <time>2016-07-26T12:55:31Z</time>
      </trkpt>
      <trkpt lat="47.250538989901543" lon="7.072505978867412">
        <ele>1005.2</ele>
        <time>2016-07-26T12:55:32Z</time>
      </trkpt>
      <trkpt lat="47.250647032633424" lon="7.072551995515823">
        <ele>1004.23</ele>
        <time>2016-07-26T12:55:33Z</time>
      </trkpt>
      <trkpt lat="47.250755997374654" lon="7.07256599329412">
        <ele>1005.6799999999999</ele>
        <time>2016-07-26T12:55:34Z</time>
      </trkpt>
      <trkpt lat="47.250869991257787" lon="7.072558030486107">
        <ele>1006.16</ele>
        <time>2016-07-26T12:55:35Z</time>
      </trkpt>
      <trkpt lat="47.250998988747597" lon="7.072545038536191">
        <ele>1005.6799999999999</ele>
        <time>2016-07-26T12:55:36Z</time>
      </trkpt>
      <trkpt lat="47.252559028565884" lon="7.072427021339536">
        <ele>1008.5599999999999</ele>
        <time>2016-07-26T12:55:47Z</time>
      </trkpt>
      <trkpt lat="47.253754958510399" lon="7.07237396389246">
        <ele>1013.85</ele>
        <time>2016-07-26T12:55:57Z</time>
      </trkpt>
      <trkpt lat="47.253873981535435" lon="7.072412017732859">
        <ele>1013.37</ele>
        <time>2016-07-26T12:55:58Z</time>
      </trkpt>
      <trkpt lat="47.253990992903709" lon="7.072475971654058">
        <ele>1013.85</ele>
        <time>2016-07-26T12:55:59Z</time>
      </trkpt>
      <trkpt lat="47.255443995818496" lon="7.073376020416617">
        <ele>1013.37</ele>
        <time>2016-07-26T12:56:10Z</time>
      </trkpt>
      <trkpt lat="47.255684975534678" lon="7.073494037613273">
        <ele>1013.37</ele>
        <time>2016-07-26T12:56:12Z</time>
      </trkpt>
      <trkpt lat="47.255810033529997" lon="7.073524966835976">
        <ele>1013.37</ele>
        <time>2016-07-26T12:56:13Z</time>
      </trkpt>
      <trkpt lat="47.255934001877904" lon="7.07353301346302">
        <ele>1013.85</ele>
        <time>2016-07-26T12:56:14Z</time>
      </trkpt>
      <trkpt lat="47.256394000723958" lon="7.073510969057679">
        <ele>1014.33</ele>
        <time>2016-07-26T12:56:18Z</time>
      </trkpt>
      <trkpt lat="47.256496008485556" lon="7.073470987379551">
        <ele>1014.33</ele>
        <time>2016-07-26T12:56:19Z</time>
      </trkpt>
      <trkpt lat="47.256590975448489" lon="7.073407033458352">
        <ele>1014.8099999999999</ele>
        <time>2016-07-26T12:56:20Z</time>
      </trkpt>
      <trkpt lat="47.256673034280539" lon="7.073322962969542">
        <ele>1015.29</ele>
        <time>2016-07-26T12:56:21Z</time>
      </trkpt>
      <trkpt lat="47.256747968494892" lon="7.073229001834989">
        <ele>1015.77</ele>
        <time>2016-07-26T12:56:22Z</time>
      </trkpt>
      <trkpt lat="47.256818963214755" lon="7.073133029043675">
        <ele>1016.25</ele>
        <time>2016-07-26T12:56:23Z</time>
      </trkpt>
      <trkpt lat="47.257005963474512" lon="7.072870004922152">
        <ele>1017.21</ele>
        <time>2016-07-26T12:56:26Z</time>
      </trkpt>
      <trkpt lat="47.257067989557981" lon="7.072810996323824">
        <ele>1018.17</ele>
        <time>2016-07-26T12:56:27Z</time>
      </trkpt>
      <trkpt lat="47.257134038954973" lon="7.072777971625328">
        <ele>1017.6900000000001</ele>
        <time>2016-07-26T12:56:28Z</time>
      </trkpt>
      <trkpt lat="47.257201010361314" lon="7.072771014645696">
        <ele>1017.6900000000001</ele>
        <time>2016-07-26T12:56:29Z</time>
      </trkpt>
      <trkpt lat="47.257276028394699" lon="7.072793981060386">
        <ele>1018.65</ele>
        <time>2016-07-26T12:56:30Z</time>
      </trkpt>
      <trkpt lat="47.257350962609053" lon="7.072870004922152">
        <ele>1019.62</ele>
        <time>2016-07-26T12:56:31Z</time>
      </trkpt>
      <trkpt lat="47.257410977035761" lon="7.072965977713466">
        <ele>1020.1</ele>
        <time>2016-07-26T12:56:32Z</time>
      </trkpt>
      <trkpt lat="47.257467973977327" lon="7.073073014616966">
        <ele>1020.58</ele>
        <time>2016-07-26T12:56:33Z</time>
      </trkpt>
      <trkpt lat="47.257940964773297" lon="7.074121003970504">
        <ele>1022.5</ele>
        <time>2016-07-26T12:56:42Z</time>
      </trkpt>
      <trkpt lat="47.258451003581285" lon="7.075321041047573">
        <ele>1027.79</ele>
        <time>2016-07-26T12:56:51Z</time>
      </trkpt>
      <trkpt lat="47.259186012670398" lon="7.076681004837155">
        <ele>1031.6300000000001</ele>
        <time>2016-07-26T12:57:01Z</time>
      </trkpt>
      <trkpt lat="47.259296989068389" lon="7.076754011213779">
        <ele>1031.1500000000001</ele>
        <time>2016-07-26T12:57:02Z</time>
      </trkpt>
      <trkpt lat="47.259414000436664" lon="7.076792987063527">
        <ele>1031.1500000000001</ele>
        <time>2016-07-26T12:57:03Z</time>
      </trkpt>
      <trkpt lat="47.259537968784571" lon="7.076794998720288">
        <ele>1031.1500000000001</ele>
        <time>2016-07-26T12:57:04Z</time>
      </trkpt>
      <trkpt lat="47.259671995416284" lon="7.076786030083895">
        <ele>1030.6700000000001</ele>
        <time>2016-07-26T12:57:05Z</time>
      </trkpt>
      <trkpt lat="47.259813984856009" lon="7.076773960143328">
        <ele>1029.71</ele>
        <time>2016-07-26T12:57:06Z</time>
      </trkpt>
      <trkpt lat="47.260926011949778" lon="7.076946962624788">
        <ele>1015.29</ele>
        <time>2016-07-26T12:57:14Z</time>
      </trkpt>
      <trkpt lat="47.261040005832911" lon="7.076984010636807">
        <ele>1014.8099999999999</ele>
        <time>2016-07-26T12:57:15Z</time>
      </trkpt>
      <trkpt lat="47.261141007766128" lon="7.077038995921612">
        <ele>1014.8099999999999</ele>
        <time>2016-07-26T12:57:16Z</time>
      </trkpt>
      <trkpt lat="47.261242009699345" lon="7.077107978984714">
        <ele>1014.33</ele>
        <time>2016-07-26T12:57:17Z</time>
      </trkpt>
      <trkpt lat="47.261338988319039" lon="7.077173022553325">
        <ele>1013.85</ele>
        <time>2016-07-26T12:57:18Z</time>
      </trkpt>
      <trkpt lat="47.261434961110353" lon="7.077254997566342">
        <ele>1013.37</ele>
        <time>2016-07-26T12:57:19Z</time>
      </trkpt>
      <trkpt lat="47.262423019856215" lon="7.078062007203698">
        <ele>1012.89</ele>
        <time>2016-07-26T12:57:28Z</time>
      </trkpt>
      <trkpt lat="47.262545982375741" lon="7.078111041337252">
        <ele>1012.89</ele>
        <time>2016-07-26T12:57:29Z</time>
      </trkpt>
      <trkpt lat="47.26267104037106" lon="7.0781309902668">
        <ele>1012.89</ele>
        <time>2016-07-26T12:57:30Z</time>
      </trkpt>
      <trkpt lat="47.262797020375729" lon="7.078129984438419">
        <ele>1012.89</ele>
        <time>2016-07-26T12:57:31Z</time>
      </trkpt>
      <trkpt lat="47.262924006208777" lon="7.078106012195349">
        <ele>1012.41</ele>
        <time>2016-07-26T12:57:32Z</time>
      </trkpt>
      <trkpt lat="47.26303699426353" lon="7.078047003597021">
        <ele>1012.89</ele>
        <time>2016-07-26T12:57:33Z</time>
      </trkpt>
      <trkpt lat="47.263148976489902" lon="7.077967962250114">
        <ele>1012.41</ele>
        <time>2016-07-26T12:57:34Z</time>
      </trkpt>
      <trkpt lat="47.263247966766357" lon="7.077864026650786">
        <ele>1012.89</ele>
        <time>2016-07-26T12:57:35Z</time>
      </trkpt>
      <trkpt lat="47.2633389942348" lon="7.077747015282512">
        <ele>1012.89</ele>
        <time>2016-07-26T12:57:36Z</time>
      </trkpt>
      <trkpt lat="47.263421975076199" lon="7.077613994479179">
        <ele>1013.85</ele>
        <time>2016-07-26T12:57:37Z</time>
      </trkpt>
      <trkpt lat="47.263499004766345" lon="7.077478040009737">
        <ele>1014.8099999999999</ele>
        <time>2016-07-26T12:57:38Z</time>
      </trkpt>
      <trkpt lat="47.26454003714025" lon="7.075589010491967">
        <ele>1023.46</ele>
        <time>2016-07-26T12:57:51Z</time>
      </trkpt>
      <trkpt lat="47.265376970171928" lon="7.074052020907402">
        <ele>1034.04</ele>
        <time>2016-07-26T12:58:02Z</time>
      </trkpt>
      <trkpt lat="47.265481995418668" lon="7.073763012886047">
        <ele>1035</ele>
        <time>2016-07-26T12:58:04Z</time>
      </trkpt>
      <trkpt lat="47.265802016481757" lon="7.071884963661432">
        <ele>1035.96</ele>
        <time>2016-07-26T12:58:15Z</time>
      </trkpt>
      <trkpt lat="47.265977030619979" lon="7.06957901827991">
        <ele>1038.3599999999999</ele>
        <time>2016-07-26T12:58:27Z</time>
      </trkpt>
      <trkpt lat="47.266150033101439" lon="7.06719595938921">
        <ele>1041.25</ele>
        <time>2016-07-26T12:58:39Z</time>
      </trkpt>
      <trkpt lat="47.266293028369546" lon="7.065476998686791">
        <ele>1040.28</ele>
        <time>2016-07-26T12:58:48Z</time>
      </trkpt>
      <trkpt lat="47.266437029466033" lon="7.064078981056809">
        <ele>1038.3599999999999</ele>
        <time>2016-07-26T12:58:55Z</time>
      </trkpt>
      <trkpt lat="47.266511041671038" lon="7.062603011727333">
        <ele>1036.4400000000001</ele>
        <time>2016-07-26T12:59:02Z</time>
      </trkpt>
      <trkpt lat="47.266501989215612" lon="7.060119034722447">
        <ele>1030.1900000000001</ele>
        <time>2016-07-26T12:59:13Z</time>
      </trkpt>
      <trkpt lat="47.266304008662701" lon="7.058075023815036">
        <ele>1019.62</ele>
        <time>2016-07-26T12:59:22Z</time>
      </trkpt>
      <trkpt lat="47.266065962612629" lon="7.056492017582059">
        <ele>1005.2</ele>
        <time>2016-07-26T12:59:29Z</time>
      </trkpt>
      <trkpt lat="47.265431033447385" lon="7.054463010281324">
        <ele>988.37</ele>
        <time>2016-07-26T12:59:39Z</time>
      </trkpt>
      <trkpt lat="47.26539901457727" lon="7.054090015590191">
        <ele>985.00999999999999</ele>
        <time>2016-07-26T12:59:41Z</time>
      </trkpt>
      <trkpt lat="47.265435978770256" lon="7.053903015330434">
        <ele>982.60000000000002</ele>
        <time>2016-07-26T12:59:42Z</time>
      </trkpt>
      <trkpt lat="47.265488030388951" lon="7.053726995363832">
        <ele>979.24000000000001</ele>
        <time>2016-07-26T12:59:43Z</time>
      </trkpt>
      <trkpt lat="47.265562964603305" lon="7.053579976782203">
        <ele>976.84000000000003</ele>
        <time>2016-07-26T12:59:44Z</time>
      </trkpt>
      <trkpt lat="47.265670001506805" lon="7.053458020091057">
        <ele>973.95000000000005</ele>
        <time>2016-07-26T12:59:45Z</time>
      </trkpt>
      <trkpt lat="47.265794975683093" lon="7.053361041471362">
        <ele>971.54999999999995</ele>
        <time>2016-07-26T12:59:46Z</time>
      </trkpt>
      <trkpt lat="47.265926990658045" lon="7.05329398624599">
        <ele>970.59000000000003</ele>
        <time>2016-07-26T12:59:47Z</time>
      </trkpt>
      <trkpt lat="47.266061017289758" lon="7.053233971819282">
        <ele>969.63</ele>
        <time>2016-07-26T12:59:48Z</time>
      </trkpt>
      <trkpt lat="47.266577007248998" lon="7.053028028458357">
        <ele>965.29999999999995</ele>
        <time>2016-07-26T12:59:52Z</time>
      </trkpt>
      <trkpt lat="47.266704998910427" lon="7.05301403068006">
        <ele>964.34000000000003</ele>
        <time>2016-07-26T12:59:53Z</time>
      </trkpt>
      <trkpt lat="47.266840031370521" lon="7.053022999316454">
        <ele>964.34000000000003</ele>
        <time>2016-07-26T12:59:54Z</time>
      </trkpt>
      <trkpt lat="47.266971040517092" lon="7.053049989044666">
        <ele>964.34000000000003</ele>
        <time>2016-07-26T12:59:55Z</time>
      </trkpt>
      <trkpt lat="47.267092997208238" lon="7.053113020956516">
        <ele>963.86000000000001</ele>
        <time>2016-07-26T12:59:56Z</time>
      </trkpt>
      <trkpt lat="47.267215959727764" lon="7.053212011232972">
        <ele>963.86000000000001</ele>
        <time>2016-07-26T12:59:57Z</time>
      </trkpt>
      <trkpt lat="47.267339006066322" lon="7.053344026207924">
        <ele>964.34000000000003</ele>
        <time>2016-07-26T12:59:58Z</time>
      </trkpt>
      <trkpt lat="47.268798965960741" lon="7.054914040490985">
        <ele>959.04999999999995</ele>
        <time>2016-07-26T13:00:10Z</time>
      </trkpt>
      <trkpt lat="47.269215965643525" lon="7.055314024910331">
        <ele>957.61000000000001</ele>
        <time>2016-07-26T13:00:14Z</time>
      </trkpt>
      <trkpt lat="47.26939600892365" lon="7.055432964116335">
        <ele>957.13</ele>
        <time>2016-07-26T13:00:16Z</time>
      </trkpt>
      <trkpt lat="47.269491981714964" lon="7.055454002693296">
        <ele>956.64999999999998</ele>
        <time>2016-07-26T13:00:17Z</time>
      </trkpt>
      <trkpt lat="47.269613016396761" lon="7.055437993258238">
        <ele>956.16999999999996</ele>
        <time>2016-07-26T13:00:18Z</time>
      </trkpt>
      <trkpt lat="47.269730027765036" lon="7.055416032671928">
        <ele>956.16999999999996</ele>
        <time>2016-07-26T13:00:19Z</time>
      </trkpt>
      <trkpt lat="47.269850978627801" lon="7.055383007973433">
        <ele>955.69000000000005</ele>
        <time>2016-07-26T13:00:20Z</time>
      </trkpt>
      <trkpt lat="47.270118026062846" lon="7.055346965789795">
        <ele>954.73000000000002</ele>
        <time>2016-07-26T13:00:22Z</time>
      </trkpt>
      <trkpt lat="47.27171796374023" lon="7.055444028228521">
        <ele>944.14999999999998</ele>
        <time>2016-07-26T13:00:33Z</time>
      </trkpt>
      <trkpt lat="47.272114008665085" lon="7.055556010454893">
        <ele>942.23000000000002</ele>
        <time>2016-07-26T13:00:36Z</time>
      </trkpt>
      <trkpt lat="47.272240994498134" lon="7.055633962154388">
        <ele>941.26999999999998</ele>
        <time>2016-07-26T13:00:37Z</time>
      </trkpt>
      <trkpt lat="47.272364040836692" lon="7.055748961865902">
        <ele>941.26999999999998</ele>
        <time>2016-07-26T13:00:38Z</time>
      </trkpt>
      <trkpt lat="47.27246998809278" lon="7.055886005982757">
        <ele>940.78999999999996</ele>
        <time>2016-07-26T13:00:39Z</time>
      </trkpt>
      <trkpt lat="47.272565960884094" lon="7.056054985150695">
        <ele>939.83000000000004</ele>
        <time>2016-07-26T13:00:40Z</time>
      </trkpt>
      <trkpt lat="47.272637961432338" lon="7.056242991238833">
        <ele>940.30999999999995</ele>
        <time>2016-07-26T13:00:41Z</time>
      </trkpt>
      <trkpt lat="47.272692024707794" lon="7.05645103007555">
        <ele>939.83000000000004</ele>
        <time>2016-07-26T13:00:42Z</time>
      </trkpt>
      <trkpt lat="47.272736029699445" lon="7.05666502006352">
        <ele>939.83000000000004</ele>
        <time>2016-07-26T13:00:43Z</time>
      </trkpt>
      <trkpt lat="47.272771988064051" lon="7.056884039193392">
        <ele>939.83000000000004</ele>
        <time>2016-07-26T13:00:44Z</time>
      </trkpt>
      <trkpt lat="47.272993018850684" lon="7.058140989392996">
        <ele>938.38</ele>
        <time>2016-07-26T13:00:51Z</time>
      </trkpt>
      <trkpt lat="47.273037023842335" lon="7.058270992711186">
        <ele>937.89999999999998</ele>
        <time>2016-07-26T13:00:52Z</time>
      </trkpt>
      <trkpt lat="47.273096032440662" lon="7.058386998251081">
        <ele>937.41999999999996</ele>
        <time>2016-07-26T13:00:53Z</time>
      </trkpt>
      <trkpt lat="47.273168032988906" lon="7.058481965214014">
        <ele>937.41999999999996</ele>
        <time>2016-07-26T13:00:54Z</time>
      </trkpt>
      <trkpt lat="47.273258976638317" lon="7.058562012389302">
        <ele>937.89999999999998</ele>
        <time>2016-07-26T13:00:55Z</time>
      </trkpt>
      <trkpt lat="47.27335000410676" lon="7.058632001280785">
        <ele>937.89999999999998</ele>
        <time>2016-07-26T13:00:56Z</time>
      </trkpt>
      <trkpt lat="47.273725010454655" lon="7.058894019573927">
        <ele>938.86000000000001</ele>
        <time>2016-07-26T13:01:00Z</time>
      </trkpt>
      <trkpt lat="47.273816037923098" lon="7.058930983766913">
        <ele>938.86000000000001</ele>
        <time>2016-07-26T13:01:01Z</time>
      </trkpt>
      <trkpt lat="47.273911004886031" lon="7.058936012908816">
        <ele>938.86000000000001</ele>
        <time>2016-07-26T13:01:02Z</time>
      </trkpt>
      <trkpt lat="47.274003038182855" lon="7.058916985988617">
        <ele>938.86000000000001</ele>
        <time>2016-07-26T13:01:03Z</time>
      </trkpt>
      <trkpt lat="47.274094987660646" lon="7.058873986825347">
        <ele>938.86000000000001</ele>
        <time>2016-07-26T13:01:04Z</time>
      </trkpt>
      <trkpt lat="47.274184003472328" lon="7.058830987662077">
        <ele>938.86000000000001</ele>
        <time>2016-07-26T13:01:05Z</time>
      </trkpt>
      <trkpt lat="47.274616006761789" lon="7.058610962703824">
        <ele>939.35000000000002</ele>
        <time>2016-07-26T13:01:11Z</time>
      </trkpt>
      <trkpt lat="47.274685995653272" lon="7.058586990460753">
        <ele>939.83000000000004</ele>
        <time>2016-07-26T13:01:12Z</time>
      </trkpt>
      <trkpt lat="47.275314973667264" lon="7.058464027941227">
        <ele>936.46000000000004</ele>
        <time>2016-07-26T13:01:21Z</time>
      </trkpt>
      <trkpt lat="47.275387980043888" lon="7.058472996577621">
        <ele>935.98000000000002</ele>
        <time>2016-07-26T13:01:22Z</time>
      </trkpt>
      <trkpt lat="47.275468027219176" lon="7.058495040982962">
        <ele>935.01999999999998</ele>
        <time>2016-07-26T13:01:23Z</time>
      </trkpt>
      <trkpt lat="47.276610983535647" lon="7.059019999578595">
        <ele>926.37</ele>
        <time>2016-07-26T13:01:39Z</time>
      </trkpt>
      <trkpt lat="47.277013985440135" lon="7.059500031173229">
        <ele>927.80999999999995</ele>
        <time>2016-07-26T13:01:48Z</time>
      </trkpt>
      <trkpt lat="47.277215989306569" lon="7.059687031432986">
        <ele>928.76999999999998</ele>
        <time>2016-07-26T13:01:59Z</time>
      </trkpt>
      <trkpt lat="47.277277009561658" lon="7.059678984805942">
        <ele>929.25</ele>
        <time>2016-07-26T13:02:59Z</time>
      </trkpt>
      <trkpt lat="47.277327971532941" lon="7.059660963714123">
        <ele>929.25</ele>
        <time>2016-07-26T13:03:00Z</time>
      </trkpt>
      <trkpt lat="47.277392009273171" lon="7.0596310403198">
        <ele>929.73000000000002</ele>
        <time>2016-07-26T13:03:01Z</time>
      </trkpt>
      <trkpt lat="47.277459986507893" lon="7.05959097482264">
        <ele>929.73000000000002</ele>
        <time>2016-07-26T13:03:02Z</time>
      </trkpt>
      <trkpt lat="47.277535004541278" lon="7.059544958174229">
        <ele>929.73000000000002</ele>
        <time>2016-07-26T13:03:03Z</time>
      </trkpt>
      <trkpt lat="47.277611028403044" lon="7.059507993981242">
        <ele>929.73000000000002</ele>
        <time>2016-07-26T13:03:04Z</time>
      </trkpt>
      <trkpt lat="47.277686968445778" lon="7.059484021738172">
        <ele>930.69000000000005</ele>
        <time>2016-07-26T13:03:05Z</time>
      </trkpt>
      <trkpt lat="47.277766009792686" lon="7.059486033394933">
        <ele>931.16999999999996</ele>
        <time>2016-07-26T13:03:06Z</time>
      </trkpt>
      <trkpt lat="47.278739986941218" lon="7.05984603613615">
        <ele>938.38</ele>
        <time>2016-07-26T13:03:16Z</time>
      </trkpt>
      <trkpt lat="47.278853980824351" lon="7.05986900255084">
        <ele>939.83000000000004</ele>
        <time>2016-07-26T13:03:17Z</time>
      </trkpt>
      <trkpt lat="47.278974009677768" lon="7.059874031692743">
        <ele>940.78999999999996</ele>
        <time>2016-07-26T13:03:18Z</time>
      </trkpt>
      <trkpt lat="47.280020993202925" lon="7.059655012562871">
        <ele>945.11000000000001</ele>
        <time>2016-07-26T13:03:27Z</time>
      </trkpt>
      <trkpt lat="47.280125012621284" lon="7.059591980651021">
        <ele>945.59000000000003</ele>
        <time>2016-07-26T13:03:28Z</time>
      </trkpt>
      <trkpt lat="47.28022500872612" lon="7.059499025344849">
        <ele>946.55999999999995</ele>
        <time>2016-07-26T13:03:29Z</time>
      </trkpt>
      <trkpt lat="47.280316958203912" lon="7.059378996491432">
        <ele>946.55999999999995</ele>
        <time>2016-07-26T13:03:30Z</time>
      </trkpt>
      <trkpt lat="47.280404968187213" lon="7.059249999001622">
        <ele>947.03999999999996</ele>
        <time>2016-07-26T13:03:31Z</time>
      </trkpt>
      <trkpt lat="47.280492978170514" lon="7.059113960713148">
        <ele>948</ele>
        <time>2016-07-26T13:03:32Z</time>
      </trkpt>
      <trkpt lat="47.281029000878334" lon="7.058345004916191">
        <ele>954.73000000000002</ele>
        <time>2016-07-26T13:03:38Z</time>
      </trkpt>
      <trkpt lat="47.281122962012887" lon="7.058252971619368">
        <ele>955.21000000000004</ele>
        <time>2016-07-26T13:03:39Z</time>
      </trkpt>
      <trkpt lat="47.282272037118673" lon="7.057433975860477">
        <ele>965.29999999999995</ele>
        <time>2016-07-26T13:03:50Z</time>
      </trkpt>
      <trkpt lat="47.282387036830187" lon="7.057410003617406">
        <ele>966.25999999999999</ele>
        <time>2016-07-26T13:03:51Z</time>
      </trkpt>
      <trkpt lat="47.282493989914656" lon="7.057426013052464">
        <ele>967.22000000000003</ele>
        <time>2016-07-26T13:03:52Z</time>
      </trkpt>
      <trkpt lat="47.282577976584435" lon="7.057498013600707">
        <ele>970.11000000000001</ele>
        <time>2016-07-26T13:03:53Z</time>
      </trkpt>
      <trkpt lat="47.282666992396116" lon="7.057583006098867">
        <ele>971.54999999999995</ele>
        <time>2016-07-26T13:03:54Z</time>
      </trkpt>
      <trkpt lat="47.282870002090931" lon="7.057689959183335">
        <ele>974.90999999999997</ele>
        <time>2016-07-26T13:03:56Z</time>
      </trkpt>
      <trkpt lat="47.282972009852529" lon="7.057687025517225">
        <ele>976.36000000000001</ele>
        <time>2016-07-26T13:03:57Z</time>
      </trkpt>
      <trkpt lat="47.283072005957365" lon="7.057650983333588">
        <ele>977.79999999999995</ele>
        <time>2016-07-26T13:03:58Z</time>
      </trkpt>
      <trkpt lat="47.28314702399075" lon="7.057546963915229">
        <ele>980.20000000000005</ele>
        <time>2016-07-26T13:03:59Z</time>
      </trkpt>
      <trkpt lat="47.283193040639162" lon="7.057410003617406">
        <ele>980.20000000000005</ele>
        <time>2016-07-26T13:04:00Z</time>
      </trkpt>
      <trkpt lat="47.283207038417459" lon="7.057258961722255">
        <ele>981.63999999999999</ele>
        <time>2016-07-26T13:04:01Z</time>
      </trkpt>
      <trkpt lat="47.283202009275556" lon="7.057098029181361">
        <ele>982.60000000000002</ele>
        <time>2016-07-26T13:04:02Z</time>
      </trkpt>
      <trkpt lat="47.28318901732564" lon="7.056927960366011">
        <ele>984.04999999999995</ele>
        <time>2016-07-26T13:04:03Z</time>
      </trkpt>
      <trkpt lat="47.283055996522307" lon="7.055177986621857">
        <ele>990.29999999999995</ele>
        <time>2016-07-26T13:04:14Z</time>
      </trkpt>
      <trkpt lat="47.283124979585409" lon="7.053993958979845">
        <ele>996.05999999999995</ele>
        <time>2016-07-26T13:04:24Z</time>
      </trkpt>
      <trkpt lat="47.283208966255188" lon="7.052809009328485">
        <ele>1001.83</ele>
        <time>2016-07-26T13:04:37Z</time>
      </trkpt>
      <trkpt lat="47.28327602148056" lon="7.052689986303449">
        <ele>1002.79</ele>
        <time>2016-07-26T13:04:41Z</time>
      </trkpt>
      <trkpt lat="47.283311979845166" lon="7.052690992131829">
        <ele>1002.3099999999999</ele>
        <time>2016-07-26T13:04:42Z</time>
      </trkpt>
      <trkpt lat="47.283352967351675" lon="7.052708007395268">
        <ele>1002.79</ele>
        <time>2016-07-26T13:04:43Z</time>
      </trkpt>
      <trkpt lat="47.283386997878551" lon="7.052772967144847">
        <ele>1002.79</ele>
        <time>2016-07-26T13:04:44Z</time>
      </trkpt>
      <trkpt lat="47.283411975950003" lon="7.052846979349852">
        <ele>1002.79</ele>
        <time>2016-07-26T13:04:45Z</time>
      </trkpt>
      <trkpt lat="47.283627977594733" lon="7.053206982091069">
        <ele>1005.2</ele>
        <time>2016-07-26T13:04:54Z</time>
      </trkpt>
      <trkpt lat="47.283955961465836" lon="7.053806036710739">
        <ele>1007.12</ele>
        <time>2016-07-26T13:05:05Z</time>
      </trkpt>
      <trkpt lat="47.284294003620744" lon="7.054554037749767">
        <ele>1003.75</ele>
        <time>2016-07-26T13:05:11Z</time>
      </trkpt>
      <trkpt lat="47.285337969660759" lon="7.055951971560717">
        <ele>999.90999999999997</ele>
        <time>2016-07-26T13:05:22Z</time>
      </trkpt>
      <trkpt lat="47.285925038158894" lon="7.056535016745329">
        <ele>999.42999999999995</ele>
        <time>2016-07-26T13:05:28Z</time>
      </trkpt>
      <trkpt lat="47.285992009565234" lon="7.056528981775045">
        <ele>999.90999999999997</ele>
        <time>2016-07-26T13:05:29Z</time>
      </trkpt>
      <trkpt lat="47.286049006506801" lon="7.056491011753678">
        <ele>999.42999999999995</ele>
        <time>2016-07-26T13:05:30Z</time>
      </trkpt>
      <trkpt lat="47.286130981519818" lon="7.056481037288904">
        <ele>997.99000000000001</ele>
        <time>2016-07-26T13:05:31Z</time>
      </trkpt>
      <trkpt lat="47.286223014816642" lon="7.056506015360355">
        <ele>997.50999999999999</ele>
        <time>2016-07-26T13:05:32Z</time>
      </trkpt>
      <trkpt lat="47.28632602840662" lon="7.056540967896581">
        <ele>997.01999999999998</ele>
        <time>2016-07-26T13:05:33Z</time>
      </trkpt>
      <trkpt lat="47.287264969199896" lon="7.056683041155338">
        <ele>991.25999999999999</ele>
        <time>2016-07-26T13:05:40Z</time>
      </trkpt>
      <trkpt lat="47.287387009710073" lon="7.05664599314332">
        <ele>988.85000000000002</ele>
        <time>2016-07-26T13:05:41Z</time>
      </trkpt>
      <trkpt lat="47.287493962794542" lon="7.056540967896581">
        <ele>987.40999999999997</ele>
        <time>2016-07-26T13:05:42Z</time>
      </trkpt>
      <trkpt lat="47.287590019404888" lon="7.056391015648842">
        <ele>985.97000000000003</ele>
        <time>2016-07-26T13:05:43Z</time>
      </trkpt>
      <trkpt lat="47.287680963054299" lon="7.05623502843082">
        <ele>984.52999999999997</ele>
        <time>2016-07-26T13:05:44Z</time>
      </trkpt>
      <trkpt lat="47.288495013490319" lon="7.054680017754436">
        <ele>978.27999999999997</ele>
        <time>2016-07-26T13:05:54Z</time>
      </trkpt>
      <trkpt lat="47.288522003218532" lon="7.054509026929736">
        <ele>979.24000000000001</ele>
        <time>2016-07-26T13:05:55Z</time>
      </trkpt>
      <trkpt lat="47.288531977683306" lon="7.054333006963134">
        <ele>977.79999999999995</ele>
        <time>2016-07-26T13:05:56Z</time>
      </trkpt>
      <trkpt lat="47.288520997390151" lon="7.054148018360138">
        <ele>977.32000000000005</ele>
        <time>2016-07-26T13:05:57Z</time>
      </trkpt>
      <trkpt lat="47.288501970469952" lon="7.053962023928762">
        <ele>976.84000000000003</ele>
        <time>2016-07-26T13:05:58Z</time>
      </trkpt>
      <trkpt lat="47.288470035418868" lon="7.053762031719089">
        <ele>976.36000000000001</ele>
        <time>2016-07-26T13:05:59Z</time>
      </trkpt>
      <trkpt lat="47.288183039054275" lon="7.051900997757912">
        <ele>970.11000000000001</ele>
        <time>2016-07-26T13:06:09Z</time>
      </trkpt>
      <trkpt lat="47.288207011297345" lon="7.051283000037074">
        <ele>966.74000000000001</ele>
        <time>2016-07-26T13:06:13Z</time>
      </trkpt>
      <trkpt lat="47.288236012682319" lon="7.051128018647432">
        <ele>965.77999999999997</ele>
        <time>2016-07-26T13:06:14Z</time>
      </trkpt>
      <trkpt lat="47.288275994360447" lon="7.050969013944268">
        <ele>965.29999999999995</ele>
        <time>2016-07-26T13:06:15Z</time>
      </trkpt>
      <trkpt lat="47.288318993523717" lon="7.050810009241104">
        <ele>964.34000000000003</ele>
        <time>2016-07-26T13:06:16Z</time>
      </trkpt>
      <trkpt lat="47.288375990465283" lon="7.050652010366321">
        <ele>963.38</ele>
        <time>2016-07-26T13:06:17Z</time>
      </trkpt>
      <trkpt lat="47.288565002381802" lon="7.049998976290226">
        <ele>960.00999999999999</ele>
        <time>2016-07-26T13:06:21Z</time>
      </trkpt>
      <trkpt lat="47.288588974624872" lon="7.049826979637146">
        <ele>959.52999999999997</ele>
        <time>2016-07-26T13:06:22Z</time>
      </trkpt>
      <trkpt lat="47.288595009595156" lon="7.049646014347673">
        <ele>959.52999999999997</ele>
        <time>2016-07-26T13:06:23Z</time>
      </trkpt>
      <trkpt lat="47.288588974624872" lon="7.048382023349404">
        <ele>959.52999999999997</ele>
        <time>2016-07-26T13:06:31Z</time>
      </trkpt>
      <trkpt lat="47.288617976009846" lon="7.048264006152749">
        <ele>958.57000000000005</ele>
        <time>2016-07-26T13:06:32Z</time>
      </trkpt>
      <trkpt lat="47.288663992658257" lon="7.048169039189816">
        <ele>957.13</ele>
        <time>2016-07-26T13:06:33Z</time>
      </trkpt>
      <trkpt lat="47.288729958236217" lon="7.048110030591488">
        <ele>956.16999999999996</ele>
        <time>2016-07-26T13:06:34Z</time>
      </trkpt>
      <trkpt lat="47.288810005411506" lon="7.048107013106346">
        <ele>955.69000000000005</ele>
        <time>2016-07-26T13:06:35Z</time>
      </trkpt>
      <trkpt lat="47.288893992081285" lon="7.048145988956094">
        <ele>955.69000000000005</ele>
        <time>2016-07-26T13:06:36Z</time>
      </trkpt>
      <trkpt lat="47.288993988186121" lon="7.048197034746409">
        <ele>955.21000000000004</ele>
        <time>2016-07-26T13:06:37Z</time>
      </trkpt>
      <trkpt lat="47.290139039978385" lon="7.048926008865237">
        <ele>953.76999999999998</ele>
        <time>2016-07-26T13:06:48Z</time>
      </trkpt>
      <trkpt lat="47.291682986542583" lon="7.049519028514624">
        <ele>952.32000000000005</ele>
        <time>2016-07-26T13:07:01Z</time>
      </trkpt>
      <trkpt lat="47.293058959767222" lon="7.049869978800416">
        <ele>950.39999999999998</ele>
        <time>2016-07-26T13:07:13Z</time>
      </trkpt>
      <trkpt lat="47.293173037469387" lon="7.04989898018539">
        <ele>950.39999999999998</ele>
        <time>2016-07-26T13:07:14Z</time>
      </trkpt>
      <trkpt lat="47.293286025524139" lon="7.049958994612098">
        <ele>949.91999999999996</ele>
        <time>2016-07-26T13:07:15Z</time>
      </trkpt>
      <trkpt lat="47.293406976386905" lon="7.05004901625216">
        <ele>950.39999999999998</ele>
        <time>2016-07-26T13:07:16Z</time>
      </trkpt>
      <trkpt lat="47.293506972491741" lon="7.050138032063842">
        <ele>950.39999999999998</ele>
        <time>2016-07-26T13:07:17Z</time>
      </trkpt>
      <trkpt lat="47.293605040758848" lon="7.050248002633452">
        <ele>950.39999999999998</ele>
        <time>2016-07-26T13:07:18Z</time>
      </trkpt>
      <trkpt lat="47.293705958873034" lon="7.050375994294882">
        <ele>950.39999999999998</ele>
        <time>2016-07-26T13:07:19Z</time>
      </trkpt>
      <trkpt lat="47.294500982388854" lon="7.051543006673455">
        <ele>948.96000000000004</ele>
        <time>2016-07-26T13:07:27Z</time>
      </trkpt>
      <trkpt lat="47.29468597099185" lon="7.051909966394305">
        <ele>948.96000000000004</ele>
        <time>2016-07-26T13:07:30Z</time>
      </trkpt>
      <trkpt lat="47.294765012338758" lon="7.051990013569593">
        <ele>948.48000000000002</ele>
        <time>2016-07-26T13:07:31Z</time>
      </trkpt>
      <trkpt lat="47.294844975695014" lon="7.052035024389625">
        <ele>948.48000000000002</ele>
        <time>2016-07-26T13:07:32Z</time>
      </trkpt>
      <trkpt lat="47.29494103230536" lon="7.052033012732863">
        <ele>948</ele>
        <time>2016-07-26T13:07:33Z</time>
      </trkpt>
      <trkpt lat="47.295037005096674" lon="7.051994958892465">
        <ele>948</ele>
        <time>2016-07-26T13:07:34Z</time>
      </trkpt>
      <trkpt lat="47.295139012858272" lon="7.05194097943604">
        <ele>948</ele>
        <time>2016-07-26T13:07:35Z</time>
      </trkpt>
      <trkpt lat="47.295649973675609" lon="7.051567984744906">
        <ele>945.59000000000003</ele>
        <time>2016-07-26T13:07:40Z</time>
      </trkpt>
      <trkpt lat="47.295730020850897" lon="7.05144502222538">
        <ele>944.63</ele>
        <time>2016-07-26T13:07:41Z</time>
      </trkpt>
      <trkpt lat="47.295792968943715" lon="7.051300015300512">
        <ele>944.14999999999998</ele>
        <time>2016-07-26T13:07:42Z</time>
      </trkpt>
      <trkpt lat="47.295838985592127" lon="7.051149979233742">
        <ele>943.66999999999996</ele>
        <time>2016-07-26T13:07:43Z</time>
      </trkpt>
      <trkpt lat="47.29586698114872" lon="7.0509949978441">
        <ele>942.71000000000004</ele>
        <time>2016-07-26T13:07:44Z</time>
      </trkpt>
      <trkpt lat="47.295875027775764" lon="7.050818977877498">
        <ele>942.71000000000004</ele>
        <time>2016-07-26T13:07:45Z</time>
      </trkpt>
      <trkpt lat="47.295886008068919" lon="7.050631977617741">
        <ele>942.23000000000002</ele>
        <time>2016-07-26T13:07:46Z</time>
      </trkpt>
      <trkpt lat="47.295786011964083" lon="7.048837998881936">
        <ele>937.41999999999996</ele>
        <time>2016-07-26T13:07:55Z</time>
      </trkpt>
      <trkpt lat="47.295765979215503" lon="7.048484031111002">
        <ele>936.46000000000004</ele>
        <time>2016-07-26T13:07:57Z</time>
      </trkpt>
      <trkpt lat="47.295791963115335" lon="7.04822201281786">
        <ele>933.10000000000002</ele>
        <time>2016-07-26T13:07:59Z</time>
      </trkpt>
      <trkpt lat="47.295825993642211" lon="7.048135008662939">
        <ele>932.62</ele>
        <time>2016-07-26T13:08:00Z</time>
      </trkpt>
      <trkpt lat="47.295892965048552" lon="7.048103995621204">
        <ele>931.16999999999996</ele>
        <time>2016-07-26T13:08:01Z</time>
      </trkpt>
      <trkpt lat="47.295944010838866" lon="7.048130985349417">
        <ele>931.64999999999998</ele>
        <time>2016-07-26T13:08:02Z</time>
      </trkpt>
      <trkpt lat="47.295982986688614" lon="7.048209020867944">
        <ele>931.64999999999998</ele>
        <time>2016-07-26T13:08:03Z</time>
      </trkpt>
      <trkpt lat="47.296006958931684" lon="7.048317985609174">
        <ele>930.21000000000004</ele>
        <time>2016-07-26T13:08:04Z</time>
      </trkpt>
      <trkpt lat="47.2960389778018" lon="7.048466010019183">
        <ele>929.73000000000002</ele>
        <time>2016-07-26T13:08:05Z</time>
      </trkpt>
      <trkpt lat="47.296209968626499" lon="7.049161959439516">
        <ele>927.33000000000004</ele>
        <time>2016-07-26T13:08:09Z</time>
      </trkpt>
      <trkpt lat="47.296279035508633" lon="7.049326999112964">
        <ele>926.37</ele>
        <time>2016-07-26T13:08:10Z</time>
      </trkpt>
      <trkpt lat="47.297084033489227" lon="7.051001032814384">
        <ele>916.26999999999998</ele>
        <time>2016-07-26T13:08:20Z</time>
      </trkpt>
      <trkpt lat="47.297752993181348" lon="7.052295031026006">
        <ele>906.17999999999995</ele>
        <time>2016-07-26T13:08:29Z</time>
      </trkpt>
      <trkpt lat="47.297804960981011" lon="7.052335012704134">
        <ele>904.74000000000001</ele>
        <time>2016-07-26T13:08:30Z</time>
      </trkpt>
      <trkpt lat="47.297866987064481" lon="7.052320009097457">
        <ele>903.29999999999995</ele>
        <time>2016-07-26T13:08:31Z</time>
      </trkpt>
      <trkpt lat="47.297913003712893" lon="7.052223030477762">
        <ele>900.40999999999997</ele>
        <time>2016-07-26T13:08:32Z</time>
      </trkpt>
      <trkpt lat="47.297959020361304" lon="7.052099984139204">
        <ele>899.45000000000005</ele>
        <time>2016-07-26T13:08:33Z</time>
      </trkpt>
      <trkpt lat="47.297991961240768" lon="7.051951037719846">
        <ele>898.49000000000001</ele>
        <time>2016-07-26T13:08:34Z</time>
      </trkpt>
      <trkpt lat="47.298019034788013" lon="7.051780968904495">
        <ele>897.04999999999995</ele>
        <time>2016-07-26T13:08:35Z</time>
      </trkpt>
      <trkpt lat="47.298022974282503" lon="7.051593968644738">
        <ele>896.57000000000005</ele>
        <time>2016-07-26T13:08:36Z</time>
      </trkpt>
      <trkpt lat="47.298017023131251" lon="7.049917001277208">
        <ele>887.90999999999997</ele>
        <time>2016-07-26T13:08:44Z</time>
      </trkpt>
      <trkpt lat="47.297968994826078" lon="7.049685996025801">
        <ele>886.47000000000003</ele>
        <time>2016-07-26T13:08:45Z</time>
      </trkpt>
      <trkpt lat="47.297939993441105" lon="7.049266984686256">
        <ele>884.07000000000005</ele>
        <time>2016-07-26T13:08:47Z</time>
      </trkpt>
      <trkpt lat="47.29795097373426" lon="7.049032961949706">
        <ele>881.66999999999996</ele>
        <time>2016-07-26T13:08:48Z</time>
      </trkpt>
      <trkpt lat="47.297966983169317" lon="7.048370037227869">
        <ele>876.38</ele>
        <time>2016-07-26T13:08:51Z</time>
      </trkpt>
      <trkpt lat="47.298066979274154" lon="7.047567972913384">
        <ele>869.64999999999998</ele>
        <time>2016-07-26T13:08:55Z</time>
      </trkpt>
      <trkpt lat="47.298091035336256" lon="7.047366974875331">
        <ele>867.73000000000002</ele>
        <time>2016-07-26T13:08:56Z</time>
      </trkpt>
      <trkpt lat="47.298114001750946" lon="7.046761969104409">
        <ele>861.96000000000004</ele>
        <time>2016-07-26T13:08:59Z</time>
      </trkpt>
      <trkpt lat="47.298114001750946" lon="7.046587038785219">
        <ele>860.03999999999996</ele>
        <time>2016-07-26T13:09:00Z</time>
      </trkpt>
      <trkpt lat="47.298118025064468" lon="7.046386962756515">
        <ele>858.59000000000003</ele>
        <time>2016-07-26T13:09:01Z</time>
      </trkpt>
      <trkpt lat="47.298005959019065" lon="7.045278958976269">
        <ele>848.5</ele>
        <time>2016-07-26T13:09:07Z</time>
      </trkpt>
      <trkpt lat="47.297965977340937" lon="7.045106962323189">
        <ele>848.5</ele>
        <time>2016-07-26T13:09:08Z</time>
      </trkpt>
      <trkpt lat="47.297572027891874" lon="7.043926035985351">
        <ele>841.76999999999998</ele>
        <time>2016-07-26T13:09:15Z</time>
      </trkpt>
      <trkpt lat="47.297534979879856" lon="7.043744986876845">
        <ele>840.80999999999995</ele>
        <time>2016-07-26T13:09:16Z</time>
      </trkpt>
      <trkpt lat="47.297504972666502" lon="7.043565027415752">
        <ele>839.85000000000002</ele>
        <time>2016-07-26T13:09:17Z</time>
      </trkpt>
      <trkpt lat="47.297502961009741" lon="7.043377021327615">
        <ele>838.88999999999999</ele>
        <time>2016-07-26T13:09:18Z</time>
      </trkpt>
      <trkpt lat="47.297503966838121" lon="7.043198989704251">
        <ele>837.92999999999995</ele>
        <time>2016-07-26T13:09:19Z</time>
      </trkpt>
      <trkpt lat="47.297526011243463" lon="7.043017018586397">
        <ele>836.96000000000004</ele>
        <time>2016-07-26T13:09:20Z</time>
      </trkpt>
      <trkpt lat="47.297551995143294" lon="7.042833035811782">
        <ele>835.51999999999998</ele>
        <time>2016-07-26T13:09:21Z</time>
      </trkpt>
      <trkpt lat="47.297587031498551" lon="7.04265701584518">
        <ele>834.55999999999995</ele>
        <time>2016-07-26T13:09:22Z</time>
      </trkpt>
      <trkpt lat="47.29762801900506" lon="7.042498011142016">
        <ele>833.60000000000002</ele>
        <time>2016-07-26T13:09:23Z</time>
      </trkpt>
      <trkpt lat="47.297679986804724" lon="7.042348980903626">
        <ele>832.63999999999999</ele>
        <time>2016-07-26T13:09:24Z</time>
      </trkpt>
      <trkpt lat="47.297720974311233" lon="7.042217971757054">
        <ele>831.67999999999995</ele>
        <time>2016-07-26T13:09:25Z</time>
      </trkpt>
      <trkpt lat="47.297762967646122" lon="7.042106995359063">
        <ele>830.72000000000003</ele>
        <time>2016-07-26T13:09:26Z</time>
      </trkpt>
      <trkpt lat="47.297851983457804" lon="7.041869033128023">
        <ele>828.78999999999996</ele>
        <time>2016-07-26T13:09:29Z</time>
      </trkpt>
      <trkpt lat="47.297909986227751" lon="7.04184296540916">
        <ele>827.35000000000002</ele>
        <time>2016-07-26T13:09:30Z</time>
      </trkpt>
      <trkpt lat="47.297975029796362" lon="7.041865009814501">
        <ele>825.90999999999997</ele>
        <time>2016-07-26T13:09:31Z</time>
      </trkpt>
      <trkpt lat="47.298004031181335" lon="7.041941033676267">
        <ele>825.90999999999997</ele>
        <time>2016-07-26T13:09:32Z</time>
      </trkpt>
      <trkpt lat="47.298001013696194" lon="7.042038012295961">
        <ele>825.42999999999995</ele>
        <time>2016-07-26T13:09:33Z</time>
      </trkpt>
      <trkpt lat="47.297964971512556" lon="7.042145971208811">
        <ele>824.47000000000003</ele>
        <time>2016-07-26T13:09:34Z</time>
      </trkpt>
      <trkpt lat="47.297924989834428" lon="7.042260970920324">
        <ele>823.50999999999999</ele>
        <time>2016-07-26T13:09:35Z</time>
      </trkpt>
      <trkpt lat="47.297761961817741" lon="7.042899001389742">
        <ele>820.62</ele>
        <time>2016-07-26T13:09:39Z</time>
      </trkpt>
      <trkpt lat="47.297765985131264" lon="7.043080972507596">
        <ele>819.65999999999997</ele>
        <time>2016-07-26T13:09:40Z</time>
      </trkpt>
      <trkpt lat="47.297781994566321" lon="7.043255986645818">
        <ele>818.70000000000005</ele>
        <time>2016-07-26T13:09:41Z</time>
      </trkpt>
      <trkpt lat="47.29782298207283" lon="7.043420020490885">
        <ele>817.74000000000001</ele>
        <time>2016-07-26T13:09:42Z</time>
      </trkpt>
      <trkpt lat="47.297862963750958" lon="7.043577013537288">
        <ele>816.77999999999997</ele>
        <time>2016-07-26T13:09:43Z</time>
      </trkpt>
      <trkpt lat="47.29790504090488" lon="7.043730989098549">
        <ele>816.29999999999995</ele>
        <time>2016-07-26T13:09:44Z</time>
      </trkpt>
      <trkpt lat="47.298086006194353" lon="7.04422602429986">
        <ele>813.88999999999999</ele>
        <time>2016-07-26T13:09:48Z</time>
      </trkpt>
      <trkpt lat="47.298135040327907" lon="7.044297019019723">
        <ele>813.40999999999997</ele>
        <time>2016-07-26T13:09:49Z</time>
      </trkpt>
      <trkpt lat="47.298244005069137" lon="7.044286038726568">
        <ele>811.49000000000001</ele>
        <time>2016-07-26T13:09:51Z</time>
      </trkpt>
      <trkpt lat="47.298284992575645" lon="7.044209009036422">
        <ele>811.00999999999999</ele>
        <time>2016-07-26T13:09:52Z</time>
      </trkpt>
      <trkpt lat="47.298268983140588" lon="7.044123010709882">
        <ele>810.04999999999995</ele>
        <time>2016-07-26T13:09:53Z</time>
      </trkpt>
      <trkpt lat="47.298258002847433" lon="7.044031983241439">
        <ele>809.09000000000003</ele>
        <time>2016-07-26T13:09:54Z</time>
      </trkpt>
      <trkpt lat="47.298239981755614" lon="7.04392503015697">
        <ele>808.61000000000001</ele>
        <time>2016-07-26T13:09:55Z</time>
      </trkpt>
      <trkpt lat="47.298130011186004" lon="7.043499983847141">
        <ele>807.15999999999997</ele>
        <time>2016-07-26T13:09:58Z</time>
      </trkpt>
      <trkpt lat="47.298121964558959" lon="7.043362017720938">
        <ele>806.20000000000005</ele>
        <time>2016-07-26T13:09:59Z</time>
      </trkpt>
      <trkpt lat="47.298114001750946" lon="7.04323897138238">
        <ele>805.24000000000001</ele>
        <time>2016-07-26T13:10:00Z</time>
      </trkpt>
      <trkpt lat="47.298139985650778" lon="7.043146016076207">
        <ele>804.27999999999997</ele>
        <time>2016-07-26T13:10:01Z</time>
      </trkpt>
      <trkpt lat="47.298195976763964" lon="7.043132018297911">
        <ele>803.32000000000005</ele>
        <time>2016-07-26T13:10:02Z</time>
      </trkpt>
      <trkpt lat="47.298226989805698" lon="7.043189015239477">
        <ele>803.32000000000005</ele>
        <time>2016-07-26T13:10:03Z</time>
      </trkpt>
      <trkpt lat="47.298258002847433" lon="7.04328297637403">
        <ele>802.36000000000001</ele>
        <time>2016-07-26T13:10:04Z</time>
      </trkpt>
      <trkpt lat="47.2982959728688" lon="7.043409962207079">
        <ele>801.88</ele>
        <time>2016-07-26T13:10:05Z</time>
      </trkpt>
      <trkpt lat="47.298739040270448" lon="7.044561970978975">
        <ele>797.54999999999995</ele>
        <time>2016-07-26T13:10:12Z</time>
      </trkpt>
      <trkpt lat="47.298952024430037" lon="7.045011995360255">
        <ele>795.14999999999998</ele>
        <time>2016-07-26T13:10:15Z</time>
      </trkpt>
      <trkpt lat="47.299000974744558" lon="7.045176029205322">
        <ele>794.19000000000005</ele>
        <time>2016-07-26T13:10:16Z</time>
      </trkpt>
      <trkpt lat="47.299397019669414" lon="7.046782001852989">
        <ele>786.98000000000002</ele>
        <time>2016-07-26T13:10:26Z</time>
      </trkpt>
      <trkpt lat="47.300041001290083" lon="7.048385040834546">
        <ele>777.36000000000001</ele>
        <time>2016-07-26T13:10:38Z</time>
      </trkpt>
      <trkpt lat="47.300460012629628" lon="7.050094027072191">
        <ele>768.23000000000002</ele>
        <time>2016-07-26T13:10:49Z</time>
      </trkpt>
      <trkpt lat="47.300797970965505" lon="7.051622970029712">
        <ele>755.25</ele>
        <time>2016-07-26T13:11:00Z</time>
      </trkpt>
      <trkpt lat="47.300741979852319" lon="7.051750961691141">
        <ele>753.80999999999995</ele>
        <time>2016-07-26T13:11:01Z</time>
      </trkpt>
      <trkpt lat="47.300698980689049" lon="7.051864033564925">
        <ele>751.88999999999999</ele>
        <time>2016-07-26T13:11:02Z</time>
      </trkpt>
      <trkpt lat="47.300664028152823" lon="7.052064025774598">
        <ele>747.08000000000004</ele>
        <time>2016-07-26T13:11:04Z</time>
      </trkpt>
      <trkpt lat="47.300676014274359" lon="7.052105013281107">
        <ele>745.63999999999999</ele>
        <time>2016-07-26T13:11:05Z</time>
      </trkpt>
      <trkpt lat="47.300732005387545" lon="7.052111970260739">
        <ele>745.15999999999997</ele>
        <time>2016-07-26T13:11:06Z</time>
      </trkpt>
      <trkpt lat="47.300778022035956" lon="7.052078023552895">
        <ele>744.20000000000005</ele>
        <time>2016-07-26T13:11:07Z</time>
      </trkpt>
      <trkpt lat="47.300810040906072" lon="7.052009040489793">
        <ele>742.75999999999999</ele>
        <time>2016-07-26T13:11:08Z</time>
      </trkpt>
      <trkpt lat="47.300842981785536" lon="7.051917007192969">
        <ele>742.75999999999999</ele>
        <time>2016-07-26T13:11:09Z</time>
      </trkpt>
      <trkpt lat="47.300943983718753" lon="7.051672004163265">
        <ele>740.83000000000004</ele>
        <time>2016-07-26T13:11:11Z</time>
      </trkpt>
      <trkpt lat="47.300984971225262" lon="7.051524985581636">
        <ele>739.38999999999999</ele>
        <time>2016-07-26T13:11:12Z</time>
      </trkpt>
      <trkpt lat="47.300998969003558" lon="7.051374027505517">
        <ele>738.42999999999995</ele>
        <time>2016-07-26T13:11:13Z</time>
      </trkpt>
      <trkpt lat="47.301000980660319" lon="7.051218040287495">
        <ele>737.47000000000003</ele>
        <time>2016-07-26T13:11:14Z</time>
      </trkpt>
      <trkpt lat="47.301009027287364" lon="7.051054006442428">
        <ele>736.50999999999999</ele>
        <time>2016-07-26T13:11:15Z</time>
      </trkpt>
      <trkpt lat="47.301039034500718" lon="7.050655027851462">
        <ele>732.65999999999997</ele>
        <time>2016-07-26T13:11:17Z</time>
      </trkpt>
      <trkpt lat="47.301049008965492" lon="7.050470961257815">
        <ele>731.70000000000005</ele>
        <time>2016-07-26T13:11:18Z</time>
      </trkpt>
      <trkpt lat="47.300990000367165" lon="7.048916034400463">
        <ele>718.72000000000003</ele>
        <time>2016-07-26T13:11:27Z</time>
      </trkpt>
      <trkpt lat="47.300778022035956" lon="7.047332022339106">
        <ele>706.23000000000002</ele>
        <time>2016-07-26T13:11:35Z</time>
      </trkpt>
      <trkpt lat="47.300647012889385" lon="7.045529996976256">
        <ele>690.84000000000003</ele>
        <time>2016-07-26T13:11:44Z</time>
      </trkpt>
      <trkpt lat="47.300629997625947" lon="7.045332016423345">
        <ele>689.39999999999998</ele>
        <time>2016-07-26T13:11:45Z</time>
      </trkpt>
      <trkpt lat="47.300623040646315" lon="7.044700020924211">
        <ele>684.12</ele>
        <time>2016-07-26T13:11:48Z</time>
      </trkpt>
      <trkpt lat="47.300580041483045" lon="7.044487958773971">
        <ele>682.19000000000005</ele>
        <time>2016-07-26T13:11:49Z</time>
      </trkpt>
      <trkpt lat="47.300477027893066" lon="7.042758017778397">
        <ele>666.80999999999995</ele>
        <time>2016-07-26T13:11:57Z</time>
      </trkpt>
      <trkpt lat="47.300557997077703" lon="7.041375003755093">
        <ele>651.90999999999997</ele>
        <time>2016-07-26T13:12:05Z</time>
      </trkpt>
      <trkpt lat="47.300626980140805" lon="7.04128397628665">
        <ele>649.99000000000001</ele>
        <time>2016-07-26T13:12:06Z</time>
      </trkpt>
      <trkpt lat="47.300655981525779" lon="7.041238965466619">
        <ele>650.47000000000003</ele>
        <time>2016-07-26T13:12:07Z</time>
      </trkpt>
      <trkpt lat="47.300671990960836" lon="7.041232008486986">
        <ele>647.10000000000002</ele>
        <time>2016-07-26T13:12:08Z</time>
      </trkpt>
      <trkpt lat="47.300722030922771" lon="7.041252041235566">
        <ele>646.13999999999999</ele>
        <time>2016-07-26T13:12:09Z</time>
      </trkpt>
      <trkpt lat="47.300787996500731" lon="7.041291017085314">
        <ele>645.65999999999997</ele>
        <time>2016-07-26T13:12:10Z</time>
      </trkpt>
      <trkpt lat="47.300819009542465" lon="7.041373997926712">
        <ele>644.22000000000003</ele>
        <time>2016-07-26T13:12:11Z</time>
      </trkpt>
      <trkpt lat="47.300844993442297" lon="7.041487991809845">
        <ele>643.74000000000001</ele>
        <time>2016-07-26T13:12:12Z</time>
      </trkpt>
      <trkpt lat="47.300856979563832" lon="7.041611960157752">
        <ele>642.29999999999995</ele>
        <time>2016-07-26T13:12:13Z</time>
      </trkpt>
      <trkpt lat="47.300879023969173" lon="7.041749004274607">
        <ele>641.34000000000003</ele>
        <time>2016-07-26T13:12:14Z</time>
      </trkpt>
      <trkpt lat="47.301085973158479" lon="7.042756006121635">
        <ele>633.64999999999998</ele>
        <time>2016-07-26T13:12:20Z</time>
      </trkpt>
      <trkpt lat="47.301138024777174" lon="7.042925991117954">
        <ele>632.20000000000005</ele>
        <time>2016-07-26T13:12:21Z</time>
      </trkpt>
      <trkpt lat="47.301808996126056" lon="7.044817032292485">
        <ele>618.25999999999999</ele>
        <time>2016-07-26T13:12:32Z</time>
      </trkpt>
      <trkpt lat="47.301829028874636" lon="7.044975031167269">
        <ele>618.25999999999999</ele>
        <time>2016-07-26T13:12:33Z</time>
      </trkpt>
      <trkpt lat="47.301830034703016" lon="7.045140992850065">
        <ele>616.82000000000005</ele>
        <time>2016-07-26T13:12:34Z</time>
      </trkpt>
      <trkpt lat="47.301869010552764" lon="7.045648014172912">
        <ele>613.94000000000005</ele>
        <time>2016-07-26T13:12:37Z</time>
      </trkpt>
      <trkpt lat="47.301906980574131" lon="7.045808024704456">
        <ele>612.98000000000002</ele>
        <time>2016-07-26T13:12:38Z</time>
      </trkpt>
      <trkpt lat="47.301958026364446" lon="7.045957976952195">
        <ele>612.5</ele>
        <time>2016-07-26T13:12:39Z</time>
      </trkpt>
      <trkpt lat="47.302020974457264" lon="7.046100972220302">
        <ele>611.53999999999996</ele>
        <time>2016-07-26T13:12:40Z</time>
      </trkpt>
      <trkpt lat="47.302090041339397" lon="7.046237010508776">
        <ele>610.57000000000005</ele>
        <time>2016-07-26T13:12:41Z</time>
      </trkpt>
      <trkpt lat="47.302365973591805" lon="7.046863976866007">
        <ele>606.25</ele>
        <time>2016-07-26T13:12:46Z</time>
      </trkpt>
      <trkpt lat="47.302386006340384" lon="7.046996997669339">
        <ele>605.28999999999996</ele>
        <time>2016-07-26T13:12:47Z</time>
      </trkpt>
      <trkpt lat="47.302599996328354" lon="7.048554020002484">
        <ele>595.66999999999996</ele>
        <time>2016-07-26T13:12:56Z</time>
      </trkpt>
      <trkpt lat="47.302796971052885" lon="7.049454990774393">
        <ele>589.90999999999997</ele>
        <time>2016-07-26T13:13:01Z</time>
      </trkpt>
      <trkpt lat="47.302828989923" lon="7.049609972164035">
        <ele>589.90999999999997</ele>
        <time>2016-07-26T13:13:02Z</time>
      </trkpt>
      <trkpt lat="47.303285971283913" lon="7.050714958459139">
        <ele>584.13999999999999</ele>
        <time>2016-07-26T13:13:10Z</time>
      </trkpt>
      <trkpt lat="47.303332993760705" lon="7.050850996747613">
        <ele>582.70000000000005</ele>
        <time>2016-07-26T13:13:11Z</time>
      </trkpt>
      <trkpt lat="47.303352020680904" lon="7.051008995622397">
        <ele>582.70000000000005</ele>
        <time>2016-07-26T13:13:12Z</time>
      </trkpt>
      <trkpt lat="47.303427960723639" lon="7.051332034170628">
        <ele>581.73000000000002</ele>
        <time>2016-07-26T13:13:14Z</time>
      </trkpt>
      <trkpt lat="47.303789975121617" lon="7.052245996892452">
        <ele>576.92999999999995</ele>
        <time>2016-07-26T13:13:20Z</time>
      </trkpt>
      <trkpt lat="47.303840015083551" lon="7.052399972453713">
        <ele>575.97000000000003</ele>
        <time>2016-07-26T13:13:21Z</time>
      </trkpt>
      <trkpt lat="47.303876979276538" lon="7.052568029612303">
        <ele>574.52999999999997</ele>
        <time>2016-07-26T13:13:22Z</time>
      </trkpt>
      <trkpt lat="47.303902041167021" lon="7.052742959931493">
        <ele>573.55999999999995</ele>
        <time>2016-07-26T13:13:23Z</time>
      </trkpt>
      <trkpt lat="47.303926013410091" lon="7.052916968241334">
        <ele>573.08000000000004</ele>
        <time>2016-07-26T13:13:24Z</time>
      </trkpt>
      <trkpt lat="47.303964989259839" lon="7.053410997614265">
        <ele>570.67999999999995</ele>
        <time>2016-07-26T13:13:27Z</time>
      </trkpt>
      <trkpt lat="47.303940011188388" lon="7.053568996489048">
        <ele>569.72000000000003</ele>
        <time>2016-07-26T13:13:28Z</time>
      </trkpt>
      <trkpt lat="47.303896006196737" lon="7.053715009242296">
        <ele>568.27999999999997</ele>
        <time>2016-07-26T13:13:29Z</time>
      </trkpt>
      <trkpt lat="47.303554024547338" lon="7.055087964981794">
        <ele>561.07000000000005</ele>
        <time>2016-07-26T13:13:37Z</time>
      </trkpt>
      <trkpt lat="47.30342703871429" lon="7.05653602257371">
        <ele>551.92999999999995</ele>
        <time>2016-07-26T13:13:45Z</time>
      </trkpt>
      <trkpt lat="47.303384961560369" lon="7.056722017005086">
        <ele>550.49000000000001</ele>
        <time>2016-07-26T13:13:46Z</time>
      </trkpt>
      <trkpt lat="47.303333999589086" lon="7.056889990344644">
        <ele>549.04999999999995</ele>
        <time>2016-07-26T13:13:47Z</time>
      </trkpt>
      <trkpt lat="47.303265016525984" lon="7.057050000876188">
        <ele>547.61000000000001</ele>
        <time>2016-07-26T13:13:48Z</time>
      </trkpt>
      <trkpt lat="47.303146999329329" lon="7.057190984487534">
        <ele>545.69000000000005</ele>
        <time>2016-07-26T13:13:49Z</time>
      </trkpt>
      <trkpt lat="47.303059995174408" lon="7.057325011119247">
        <ele>544.24000000000001</ele>
        <time>2016-07-26T13:13:50Z</time>
      </trkpt>
      <trkpt lat="47.302982965484262" lon="7.057473035529256">
        <ele>542.32000000000005</ele>
        <time>2016-07-26T13:13:51Z</time>
      </trkpt>
      <trkpt lat="47.302650036290288" lon="7.057979973033071">
        <ele>535.59000000000003</ele>
        <time>2016-07-26T13:13:55Z</time>
      </trkpt>
      <trkpt lat="47.302553979679942" lon="7.058066977187991">
        <ele>534.14999999999998</ele>
        <time>2016-07-26T13:13:56Z</time>
      </trkpt>
      <trkpt lat="47.302387012168765" lon="7.058253977447748">
        <ele>532.71000000000004</ele>
        <time>2016-07-26T13:13:58Z</time>
      </trkpt>
      <trkpt lat="47.302319034934044" lon="7.058349028229713">
        <ele>531.75</ele>
        <time>2016-07-26T13:13:59Z</time>
      </trkpt>
      <trkpt lat="47.302288021892309" lon="7.058452963829041">
        <ele>530.29999999999995</ele>
        <time>2016-07-26T13:14:00Z</time>
      </trkpt>
      <trkpt lat="47.302285004407167" lon="7.058575004339218">
        <ele>529.34000000000003</ele>
        <time>2016-07-26T13:14:01Z</time>
      </trkpt>
      <trkpt lat="47.30231199413538" lon="7.058694027364254">
        <ele>527.89999999999998</ele>
        <time>2016-07-26T13:14:02Z</time>
      </trkpt>
      <trkpt lat="47.302345018833876" lon="7.058784971013665">
        <ele>525.98000000000002</ele>
        <time>2016-07-26T13:14:03Z</time>
      </trkpt>
      <trkpt lat="47.302437974140048" lon="7.058768039569259">
        <ele>523.58000000000004</ele>
        <time>2016-07-26T13:14:04Z</time>
      </trkpt>
      <trkpt lat="47.302540987730026" lon="7.058722022920847">
        <ele>523.58000000000004</ele>
        <time>2016-07-26T13:14:05Z</time>
      </trkpt>
      <trkpt lat="47.302617011591792" lon="7.058626972138882">
        <ele>522.61000000000001</ele>
        <time>2016-07-26T13:14:06Z</time>
      </trkpt>
      <trkpt lat="47.30267995968461" lon="7.058524964377284">
        <ele>521.64999999999998</ele>
        <time>2016-07-26T13:14:07Z</time>
      </trkpt>
      <trkpt lat="47.30276302434504" lon="7.058410970494151">
        <ele>520.69000000000005</ele>
        <time>2016-07-26T13:14:08Z</time>
      </trkpt>
      <trkpt lat="47.302958993241191" lon="7.058164039626718">
        <ele>518.76999999999998</ele>
        <time>2016-07-26T13:14:10Z</time>
      </trkpt>
      <trkpt lat="47.303929030895233" lon="7.057449985295534">
        <ele>507.23000000000002</ele>
        <time>2016-07-26T13:14:19Z</time>
      </trkpt>
      <trkpt lat="47.305023036897182" lon="7.056999038904905">
        <ele>494.25999999999999</ele>
        <time>2016-07-26T13:14:29Z</time>
      </trkpt>
      <trkpt lat="47.305118003860116" lon="7.056930977851152">
        <ele>493.29000000000002</ele>
        <time>2016-07-26T13:14:30Z</time>
      </trkpt>
      <trkpt lat="47.306300019845366" lon="7.056199992075563">
        <ele>482.24000000000001</ele>
        <time>2016-07-26T13:14:42Z</time>
      </trkpt>
      <trkpt lat="47.306383000686765" lon="7.056119022890925">
        <ele>481.27999999999997</ele>
        <time>2016-07-26T13:14:43Z</time>
      </trkpt>
      <trkpt lat="47.306443015113473" lon="7.056005029007793">
        <ele>479.35000000000002</ele>
        <time>2016-07-26T13:14:44Z</time>
      </trkpt>
      <trkpt lat="47.306484002619982" lon="7.055869996547699">
        <ele>478.87</ele>
        <time>2016-07-26T13:14:45Z</time>
      </trkpt>
      <trkpt lat="47.306505041196942" lon="7.055719960480928">
        <ele>478.38999999999999</ele>
        <time>2016-07-26T13:14:46Z</time>
      </trkpt>
      <trkpt lat="47.306514009833336" lon="7.055558022111654">
        <ele>477.43000000000001</ele>
        <time>2016-07-26T13:14:47Z</time>
      </trkpt>
      <trkpt lat="47.306524990126491" lon="7.055389964953065">
        <ele>476.94999999999999</ele>
        <time>2016-07-26T13:14:48Z</time>
      </trkpt>
      <trkpt lat="47.306535970419645" lon="7.052665008231998">
        <ele>465.89999999999998</ele>
        <time>2016-07-26T13:15:05Z</time>
      </trkpt>
      <trkpt lat="47.306520966812968" lon="7.052354961633682">
        <ele>465.42000000000002</ele>
        <time>2016-07-26T13:15:07Z</time>
      </trkpt>
      <trkpt lat="47.306492971256375" lon="7.052211966365576">
        <ele>465.42000000000002</ele>
        <time>2016-07-26T13:15:08Z</time>
      </trkpt>
      <trkpt lat="47.306453995406628" lon="7.052072994410992">
        <ele>466.38</ele>
        <time>2016-07-26T13:15:09Z</time>
      </trkpt>
      <trkpt lat="47.306323992088437" lon="7.05151098780334">
        <ele>465.89999999999998</ele>
        <time>2016-07-26T13:15:13Z</time>
      </trkpt>
      <trkpt lat="47.306332038715482" lon="7.051365980878472">
        <ele>465.42000000000002</ele>
        <time>2016-07-26T13:15:14Z</time>
      </trkpt>
      <trkpt lat="47.306347964331508" lon="7.051231032237411">
        <ele>465.42000000000002</ele>
        <time>2016-07-26T13:15:15Z</time>
      </trkpt>
      <trkpt lat="47.306581987068057" lon="7.050093021243811">
        <ele>463.00999999999999</ele>
        <time>2016-07-26T13:15:26Z</time>
      </trkpt>
      <trkpt lat="47.306826990097761" lon="7.049332028254867">
        <ele>464.93000000000001</ele>
        <time>2016-07-26T13:15:34Z</time>
      </trkpt>
      <trkpt lat="47.307308027520776" lon="7.048211032524705">
        <ele>467.33999999999997</ele>
        <time>2016-07-26T13:15:48Z</time>
      </trkpt>
      <trkpt lat="47.307330993935466" lon="7.048168033361435">
        <ele>466.86000000000001</ele>
        <time>2016-07-26T13:15:49Z</time>
      </trkpt>
      <trkpt lat="47.307371981441975" lon="7.048124028369784">
        <ele>466.86000000000001</ele>
        <time>2016-07-26T13:15:50Z</time>
      </trkpt>
      <trkpt lat="47.30744699947536" lon="7.048052027821541">
        <ele>467.33999999999997</ele>
        <time>2016-07-26T13:15:52Z</time>
      </trkpt>
      <trkpt lat="47.30751103721559" lon="7.048034006729722">
        <ele>468.30000000000001</ele>
        <time>2016-07-26T13:15:53Z</time>
      </trkpt>
      <trkpt lat="47.30757700279355" lon="7.04803098924458">
        <ele>468.30000000000001</ele>
        <time>2016-07-26T13:15:54Z</time>
      </trkpt>
      <trkpt lat="47.307632993906736" lon="7.048069965094328">
        <ele>470.22000000000003</ele>
        <time>2016-07-26T13:15:55Z</time>
      </trkpt>
      <trkpt lat="47.307689990848303" lon="7.04811698757112">
        <ele>470.22000000000003</ele>
        <time>2016-07-26T13:15:56Z</time>
      </trkpt>
      <trkpt lat="47.307745981961489" lon="7.048181025311351">
        <ele>471.18000000000001</ele>
        <time>2016-07-26T13:15:57Z</time>
      </trkpt>
      <trkpt lat="47.307980004698038" lon="7.048455029726028">
        <ele>475.50999999999999</ele>
        <time>2016-07-26T13:16:02Z</time>
      </trkpt>
      <trkpt lat="47.308009006083012" lon="7.04850398004055">
        <ele>475.50999999999999</ele>
        <time>2016-07-26T13:16:03Z</time>
      </trkpt>
      <trkpt lat="47.307989979162812" lon="7.048549996688962">
        <ele>476.47000000000003</ele>
        <time>2016-07-26T13:16:04Z</time>
      </trkpt>
      <trkpt lat="47.30785695835948" lon="7.04893397167325">
        <ele>480.31999999999999</ele>
        <time>2016-07-26T13:16:13Z</time>
      </trkpt>
      <trkpt lat="47.307868022471666" lon="7.048966996371746">
        <ele>480.80000000000001</ele>
        <time>2016-07-26T13:16:14Z</time>
      </trkpt>
      <trkpt lat="47.307882020249963" lon="7.048989962786436">
        <ele>481.27999999999997</ele>
        <time>2016-07-26T13:16:15Z</time>
      </trkpt>
      <trkpt lat="47.307903980836272" lon="7.04897697083652">
        <ele>481.27999999999997</ele>
        <time>2016-07-26T13:16:18Z</time>
      </trkpt>
      <trkpt lat="47.307937005534768" lon="7.048859037458897">
        <ele>483.68000000000001</ele>
        <time>2016-07-26T13:16:31Z</time>
      </trkpt>
      <trkpt lat="47.307948991656303" lon="7.048858031630516">
        <ele>483.68000000000001</ele>
        <time>2016-07-26T13:17:05Z</time>
      </trkpt>
      <trkpt lat="47.307956032454967" lon="7.048877980560064">
        <ele>489.93000000000001</ele>
        <time>2016-07-26T14:27:26Z</time>
      </trkpt>
      <trkpt lat="47.307935999706388" lon="7.048898013308644">
        <ele>481.27999999999997</ele>
        <time>2016-07-26T14:28:47Z</time>
      </trkpt>
      <trkpt lat="47.307935999706388" lon="7.048899019137025">
        <ele>481.75999999999999</ele>
        <time>2016-07-26T14:30:36Z</time>
      </trkpt>
      <trkpt lat="47.307937005534768" lon="7.048891978338361">
        <ele>481.75999999999999</ele>
        <time>2016-07-26T14:31:25Z</time>
      </trkpt>
      <trkpt lat="47.308002971112728" lon="7.048671031370759">
        <ele>480.31999999999999</ele>
        <time>2016-07-26T14:31:34Z</time>
      </trkpt>
      <trkpt lat="47.30800699442625" lon="7.048645969480276">
        <ele>480.31999999999999</ele>
        <time>2016-07-26T14:31:35Z</time>
      </trkpt>
      <trkpt lat="47.308000037446618" lon="7.048477996140719">
        <ele>480.31999999999999</ele>
        <time>2016-07-26T14:31:43Z</time>
      </trkpt>
      <trkpt lat="47.308009006083012" lon="7.048404989764094">
        <ele>480.31999999999999</ele>
        <time>2016-07-26T14:31:45Z</time>
      </trkpt>
      <trkpt lat="47.30802996084094" lon="7.048324020579457">
        <ele>480.31999999999999</ele>
        <time>2016-07-26T14:31:46Z</time>
      </trkpt>
      <trkpt lat="47.308440003544092" lon="7.047425983473659">
        <ele>478.87</ele>
        <time>2016-07-26T14:31:56Z</time>
      </trkpt>
      <trkpt lat="47.308487026020885" lon="7.047347025945783">
        <ele>479.35000000000002</ele>
        <time>2016-07-26T14:31:57Z</time>
      </trkpt>
      <trkpt lat="47.308537987992167" lon="7.047291034832597">
        <ele>479.83999999999997</ele>
        <time>2016-07-26T14:31:58Z</time>
      </trkpt>
      <trkpt lat="47.308591967448592" lon="7.047258010134101">
        <ele>479.35000000000002</ele>
        <time>2016-07-26T14:31:59Z</time>
      </trkpt>
      <trkpt lat="47.308761030435562" lon="7.047158014029265">
        <ele>478.38999999999999</ele>
        <time>2016-07-26T14:32:02Z</time>
      </trkpt>
      <trkpt lat="47.308812998235226" lon="7.047091964632273">
        <ele>478.38999999999999</ele>
        <time>2016-07-26T14:32:03Z</time>
      </trkpt>
      <trkpt lat="47.308861026540399" lon="7.047004960477352">
        <ele>477.91000000000003</ele>
        <time>2016-07-26T14:32:04Z</time>
      </trkpt>
      <trkpt lat="47.308906959369779" lon="7.046906976029277">
        <ele>477.91000000000003</ele>
        <time>2016-07-26T14:32:05Z</time>
      </trkpt>
      <trkpt lat="47.308954987674952" lon="7.046788958832622">
        <ele>477.43000000000001</ele>
        <time>2016-07-26T14:32:06Z</time>
      </trkpt>
      <trkpt lat="47.30899304151535" lon="7.046651998534799">
        <ele>477.43000000000001</ele>
        <time>2016-07-26T14:32:07Z</time>
      </trkpt>
      <trkpt lat="47.30903897434473" lon="7.046513026580215">
        <ele>476.94999999999999</ele>
        <time>2016-07-26T14:32:08Z</time>
      </trkpt>
      <trkpt lat="47.309198984876275" lon="7.046017991378903">
        <ele>479.83999999999997</ele>
        <time>2016-07-26T14:32:12Z</time>
      </trkpt>
      <trkpt lat="47.309248019009829" lon="7.045909026637673">
        <ele>480.31999999999999</ele>
        <time>2016-07-26T14:32:13Z</time>
      </trkpt>
      <trkpt lat="47.309882026165724" lon="7.044798005372286">
        <ele>482.24000000000001</ele>
        <time>2016-07-26T14:32:24Z</time>
      </trkpt>
      <trkpt lat="47.310564983636141" lon="7.044080011546612">
        <ele>482.72000000000003</ele>
        <time>2016-07-26T14:32:34Z</time>
      </trkpt>
      <trkpt lat="47.310710996389389" lon="7.044000970199704">
        <ele>483.19999999999999</ele>
        <time>2016-07-26T14:32:36Z</time>
      </trkpt>
      <trkpt lat="47.310764975845814" lon="7.043952019885182">
        <ele>483.19999999999999</ele>
        <time>2016-07-26T14:32:37Z</time>
      </trkpt>
      <trkpt lat="47.310813004150987" lon="7.043886976316571">
        <ele>483.19999999999999</ele>
        <time>2016-07-26T14:32:38Z</time>
      </trkpt>
      <trkpt lat="47.3109280038625" lon="7.043823022395372">
        <ele>483.19999999999999</ele>
        <time>2016-07-26T14:32:40Z</time>
      </trkpt>
      <trkpt lat="47.311209971085191" lon="7.043725037947297">
        <ele>483.68000000000001</ele>
        <time>2016-07-26T14:32:44Z</time>
      </trkpt>
      <trkpt lat="47.311288006603718" lon="7.043706011027098">
        <ele>483.68000000000001</ele>
        <time>2016-07-26T14:32:45Z</time>
      </trkpt>
      <trkpt lat="47.311543989926577" lon="7.043633004650474">
        <ele>483.68000000000001</ele>
        <time>2016-07-26T14:32:48Z</time>
      </trkpt>
      <trkpt lat="47.311639040708542" lon="7.043586988002062">
        <ele>483.19999999999999</ele>
        <time>2016-07-26T14:32:49Z</time>
      </trkpt>
      <trkpt lat="47.311720009893179" lon="7.043534014374018">
        <ele>483.68000000000001</ele>
        <time>2016-07-26T14:32:50Z</time>
      </trkpt>
      <trkpt lat="47.311780024319887" lon="7.043450027704239">
        <ele>484.16000000000003</ele>
        <time>2016-07-26T14:32:51Z</time>
      </trkpt>
      <trkpt lat="47.311832997947931" lon="7.043371992185712">
        <ele>484.16000000000003</ele>
        <time>2016-07-26T14:32:52Z</time>
      </trkpt>
      <trkpt lat="47.311885971575975" lon="7.043316001072526">
        <ele>484.63999999999999</ele>
        <time>2016-07-26T14:32:53Z</time>
      </trkpt>
      <trkpt lat="47.311939029023051" lon="7.043270990252495">
        <ele>485.12</ele>
        <time>2016-07-26T14:32:54Z</time>
      </trkpt>
      <trkpt lat="47.311998037621379" lon="7.04323603771627">
        <ele>485.60000000000002</ele>
        <time>2016-07-26T14:32:55Z</time>
      </trkpt>
      <trkpt lat="47.312057968229055" lon="7.043220028281212">
        <ele>485.60000000000002</ele>
        <time>2016-07-26T14:32:56Z</time>
      </trkpt>
      <trkpt lat="47.312119994312525" lon="7.04321701079607">
        <ele>485.12</ele>
        <time>2016-07-26T14:32:57Z</time>
      </trkpt>
      <trkpt lat="47.312187971547246" lon="7.04321600496769">
        <ele>485.12</ele>
        <time>2016-07-26T14:32:58Z</time>
      </trkpt>
      <trkpt lat="47.312295008450747" lon="7.043265039101243">
        <ele>485.12</ele>
        <time>2016-07-26T14:32:59Z</time>
      </trkpt>
      <trkpt lat="47.3124960064888" lon="7.04327903687954">
        <ele>484.63999999999999</ele>
        <time>2016-07-26T14:33:01Z</time>
      </trkpt>
      <trkpt lat="47.31258200481534" lon="7.043240983039141">
        <ele>484.16000000000003</ele>
        <time>2016-07-26T14:33:02Z</time>
      </trkpt>
      <trkpt lat="47.312718965113163" lon="7.043107962235808">
        <ele>483.68000000000001</ele>
        <time>2016-07-26T14:33:04Z</time>
      </trkpt>
      <trkpt lat="47.313495967537165" lon="7.042444031685591">
        <ele>480.31999999999999</ele>
        <time>2016-07-26T14:33:14Z</time>
      </trkpt>
      <trkpt lat="47.31419300660491" lon="7.041641967371106">
        <ele>485.60000000000002</ele>
        <time>2016-07-26T14:33:23Z</time>
      </trkpt>
      <trkpt lat="47.314269030466676" lon="7.041571978479624">
        <ele>486.07999999999998</ele>
        <time>2016-07-26T14:33:24Z</time>
      </trkpt>
      <trkpt lat="47.31460003182292" lon="7.041232008486986">
        <ele>487.52999999999997</ele>
        <time>2016-07-26T14:33:28Z</time>
      </trkpt>
      <trkpt lat="47.314759036526084" lon="7.041042996570468">
        <ele>487.52999999999997</ele>
        <time>2016-07-26T14:33:30Z</time>
      </trkpt>
      <trkpt lat="47.314826007932425" lon="7.040953980758786">
        <ele>488.00999999999999</ele>
        <time>2016-07-26T14:33:31Z</time>
      </trkpt>
      <trkpt lat="47.314913012087345" lon="7.04096001572907">
        <ele>487.52999999999997</ele>
        <time>2016-07-26T14:33:32Z</time>
      </trkpt>
      <trkpt lat="47.314951987937093" lon="7.040828000754118">
        <ele>488.49000000000001</ele>
        <time>2016-07-26T14:33:33Z</time>
      </trkpt>
      <trkpt lat="47.31496699154377" lon="7.04072599299252">
        <ele>488.97000000000003</ele>
        <time>2016-07-26T14:33:34Z</time>
      </trkpt>
      <trkpt lat="47.315070005133748" lon="7.040388034656644">
        <ele>491.37</ele>
        <time>2016-07-26T14:33:37Z</time>
      </trkpt>
      <trkpt lat="47.31511602178216" lon="7.040288038551807">
        <ele>492.32999999999998</ele>
        <time>2016-07-26T14:33:38Z</time>
      </trkpt>
      <trkpt lat="47.315177964046597" lon="7.040196005254984">
        <ele>493.76999999999998</ele>
        <time>2016-07-26T14:33:39Z</time>
      </trkpt>
      <trkpt lat="47.315254993736744" lon="7.040115036070347">
        <ele>494.74000000000001</ele>
        <time>2016-07-26T14:33:40Z</time>
      </trkpt>
      <trkpt lat="47.315334035083652" lon="7.040032977238298">
        <ele>494.74000000000001</ele>
        <time>2016-07-26T14:33:41Z</time>
      </trkpt>
      <trkpt lat="47.315577026456594" lon="7.03975603915751">
        <ele>494.74000000000001</ele>
        <time>2016-07-26T14:33:44Z</time>
      </trkpt>
      <trkpt lat="47.315623965114355" lon="7.0396270416677">
        <ele>495.22000000000003</ele>
        <time>2016-07-26T14:33:45Z</time>
      </trkpt>
      <trkpt lat="47.315679034218192" lon="7.039512963965535">
        <ele>495.22000000000003</ele>
        <time>2016-07-26T14:33:46Z</time>
      </trkpt>
      <trkpt lat="47.315693031996489" lon="7.039401987567544">
        <ele>495.22000000000003</ele>
        <time>2016-07-26T14:33:47Z</time>
      </trkpt>
      <trkpt lat="47.315695965662599" lon="7.039283970370889">
        <ele>494.74000000000001</ele>
        <time>2016-07-26T14:33:48Z</time>
      </trkpt>
      <trkpt lat="47.315695965662599" lon="7.039169976487756">
        <ele>494.74000000000001</ele>
        <time>2016-07-26T14:33:49Z</time>
      </trkpt>
      <trkpt lat="47.315704012289643" lon="7.038937965407968">
        <ele>495.69999999999999</ele>
        <time>2016-07-26T14:33:51Z</time>
      </trkpt>
      <trkpt lat="47.315724967047572" lon="7.038816008716822">
        <ele>495.69999999999999</ele>
        <time>2016-07-26T14:33:52Z</time>
      </trkpt>
      <trkpt lat="47.315757991746068" lon="7.038711989298463">
        <ele>496.66000000000003</ele>
        <time>2016-07-26T14:33:53Z</time>
      </trkpt>
      <trkpt lat="47.315799985080957" lon="7.03861802816391">
        <ele>496.66000000000003</ele>
        <time>2016-07-26T14:33:54Z</time>
      </trkpt>
      <trkpt lat="47.315851030871272" lon="7.038528006523848">
        <ele>497.13999999999999</ele>
        <time>2016-07-26T14:33:55Z</time>
      </trkpt>
      <trkpt lat="47.315905010327697" lon="7.038438990712166">
        <ele>496.66000000000003</ele>
        <time>2016-07-26T14:33:56Z</time>
      </trkpt>
      <trkpt lat="47.315944992005825" lon="7.038324996829033">
        <ele>496.66000000000003</ele>
        <time>2016-07-26T14:33:57Z</time>
      </trkpt>
      <trkpt lat="47.315967958420515" lon="7.038203040137887">
        <ele>496.66000000000003</ele>
        <time>2016-07-26T14:33:58Z</time>
      </trkpt>
      <trkpt lat="47.315962007269263" lon="7.038021991029382">
        <ele>497.13999999999999</ele>
        <time>2016-07-26T14:33:59Z</time>
      </trkpt>
      <trkpt lat="47.31597600504756" lon="7.037617983296514">
        <ele>496.66000000000003</ele>
        <time>2016-07-26T14:34:02Z</time>
      </trkpt>
      <trkpt lat="47.316151019185781" lon="7.03586901538074">
        <ele>493.29000000000002</ele>
        <time>2016-07-26T14:34:14Z</time>
      </trkpt>
      <trkpt lat="47.316306000575423" lon="7.034579962491989">
        <ele>491.37</ele>
        <time>2016-07-26T14:34:24Z</time>
      </trkpt>
      <trkpt lat="47.316294014453888" lon="7.034469991922379">
        <ele>491.37</ele>
        <time>2016-07-26T14:34:25Z</time>
      </trkpt>
      <trkpt lat="47.316260989755392" lon="7.034376030787826">
        <ele>491.37</ele>
        <time>2016-07-26T14:34:26Z</time>
      </trkpt>
      <trkpt lat="47.316207010298967" lon="7.034291038289666">
        <ele>490.88999999999999</ele>
        <time>2016-07-26T14:34:27Z</time>
      </trkpt>
      <trkpt lat="47.316146995872259" lon="7.034207973629236">
        <ele>490.88999999999999</ele>
        <time>2016-07-26T14:34:28Z</time>
      </trkpt>
      <trkpt lat="47.315849019214511" lon="7.033826010301709">
        <ele>489.93000000000001</ele>
        <time>2016-07-26T14:34:32Z</time>
      </trkpt>
      <trkpt lat="47.314932961016893" lon="7.032738961279392">
        <ele>486.56</ele>
        <time>2016-07-26T14:34:44Z</time>
      </trkpt>
      <trkpt lat="47.314545968547463" lon="7.032125992700458">
        <ele>486.07999999999998</ele>
        <time>2016-07-26T14:34:50Z</time>
      </trkpt>
      <trkpt lat="47.314270958304405" lon="7.031806977465749">
        <ele>486.56</ele>
        <time>2016-07-26T14:34:53Z</time>
      </trkpt>
      <trkpt lat="47.313518011942506" lon="7.0308200083673">
        <ele>487.52999999999997</ele>
        <time>2016-07-26T14:35:04Z</time>
      </trkpt>
      <trkpt lat="47.313420027494431" lon="7.030736021697521">
        <ele>488.49000000000001</ele>
        <time>2016-07-26T14:35:05Z</time>
      </trkpt>
      <trkpt lat="47.313148034736514" lon="7.030557990074158">
        <ele>488.97000000000003</ele>
        <time>2016-07-26T14:35:08Z</time>
      </trkpt>
      <trkpt lat="47.313045021146536" lon="7.030503004789352">
        <ele>488.97000000000003</ele>
        <time>2016-07-26T14:35:09Z</time>
      </trkpt>
      <trkpt lat="47.312430962920189" lon="7.030289014801383">
        <ele>488.00999999999999</ele>
        <time>2016-07-26T14:35:15Z</time>
      </trkpt>
      <trkpt lat="47.311975993216038" lon="7.030100002884865">
        <ele>488.00999999999999</ele>
        <time>2016-07-26T14:35:20Z</time>
      </trkpt>
      <trkpt lat="47.311211982741952" lon="7.029879977926612">
        <ele>488.97000000000003</ele>
        <time>2016-07-26T14:35:29Z</time>
      </trkpt>
      <trkpt lat="47.311129001900554" lon="7.029893975704908">
        <ele>489.44999999999999</ele>
        <time>2016-07-26T14:35:30Z</time>
      </trkpt>
      <trkpt lat="47.311052978038788" lon="7.02991995960474">
        <ele>489.44999999999999</ele>
        <time>2016-07-26T14:35:31Z</time>
      </trkpt>
      <trkpt lat="47.310980977490544" lon="7.029956001788378">
        <ele>489.93000000000001</ele>
        <time>2016-07-26T14:35:32Z</time>
      </trkpt>
      <trkpt lat="47.310920041054487" lon="7.03000201843679">
        <ele>489.93000000000001</ele>
        <time>2016-07-26T14:35:33Z</time>
      </trkpt>
      <trkpt lat="47.310747038573027" lon="7.030053986236453">
        <ele>491.37</ele>
        <time>2016-07-26T14:35:36Z</time>
      </trkpt>
      <trkpt lat="47.310684006661177" lon="7.030048035085201">
        <ele>491.37</ele>
        <time>2016-07-26T14:35:37Z</time>
      </trkpt>
      <trkpt lat="47.310616029426455" lon="7.030034959316254">
        <ele>491.85000000000002</ele>
        <time>2016-07-26T14:35:38Z</time>
      </trkpt>
      <trkpt lat="47.31054101139307" lon="7.030073013156653">
        <ele>492.32999999999998</ele>
        <time>2016-07-26T14:35:39Z</time>
      </trkpt>
      <trkpt lat="47.310483008623123" lon="7.030097991228104">
        <ele>492.32999999999998</ele>
        <time>2016-07-26T14:35:40Z</time>
      </trkpt>
      <trkpt lat="47.31043397448957" lon="7.030149959027767">
        <ele>492.81</ele>
        <time>2016-07-26T14:35:41Z</time>
      </trkpt>
      <trkpt lat="47.310384018346667" lon="7.030207039788365">
        <ele>492.81</ele>
        <time>2016-07-26T14:35:42Z</time>
      </trkpt>
      <trkpt lat="47.310223001986742" lon="7.030258001759648">
        <ele>492.81</ele>
        <time>2016-07-26T14:35:45Z</time>
      </trkpt>
      <trkpt lat="47.31015401892364" lon="7.030249033123255">
        <ele>492.81</ele>
        <time>2016-07-26T14:35:46Z</time>
      </trkpt>
      <trkpt lat="47.309910021722317" lon="7.03023998066783">
        <ele>495.22000000000003</ele>
        <time>2016-07-26T14:35:49Z</time>
      </trkpt>
      <trkpt lat="47.309827040880919" lon="7.030273005366325">
        <ele>496.18000000000001</ele>
        <time>2016-07-26T14:35:50Z</time>
      </trkpt>
      <trkpt lat="47.309485981240869" lon="7.030376018956304">
        <ele>499.06</ele>
        <time>2016-07-26T14:35:55Z</time>
      </trkpt>
      <trkpt lat="47.30942202731967" lon="7.030384987592697">
        <ele>499.54000000000002</ele>
        <time>2016-07-26T14:35:56Z</time>
      </trkpt>
      <trkpt lat="47.309364024549723" lon="7.030374007299542">
        <ele>500.01999999999998</ele>
        <time>2016-07-26T14:35:57Z</time>
      </trkpt>
      <trkpt lat="47.309311972931027" lon="7.030355986207724">
        <ele>500.01999999999998</ele>
        <time>2016-07-26T14:35:58Z</time>
      </trkpt>
      <trkpt lat="47.309260005131364" lon="7.030328996479511">
        <ele>500.5</ele>
        <time>2016-07-26T14:35:59Z</time>
      </trkpt>
      <trkpt lat="47.309202002361417" lon="7.030281974002719">
        <ele>500.5</ele>
        <time>2016-07-26T14:36:00Z</time>
      </trkpt>
      <trkpt lat="47.309136036783457" lon="7.030235035344958">
        <ele>500.01999999999998</ele>
        <time>2016-07-26T14:36:01Z</time>
      </trkpt>
      <trkpt lat="47.308990024030209" lon="7.030121041461825">
        <ele>500.01999999999998</ele>
        <time>2016-07-26T14:36:03Z</time>
      </trkpt>
      <trkpt lat="47.308910982683301" lon="7.030074018985033">
        <ele>500.01999999999998</ele>
        <time>2016-07-26T14:36:04Z</time>
      </trkpt>
      <trkpt lat="47.308828001841903" lon="7.030048035085201">
        <ele>499.06</ele>
        <time>2016-07-26T14:36:05Z</time>
      </trkpt>
      <trkpt lat="47.308751977980137" lon="7.03002599067986">
        <ele>498.57999999999998</ele>
        <time>2016-07-26T14:36:06Z</time>
      </trkpt>
      <trkpt lat="47.308679977431893" lon="7.03002498485148">
        <ele>499.06</ele>
        <time>2016-07-26T14:36:07Z</time>
      </trkpt>
      <trkpt lat="47.308528013527393" lon="7.02998299151659">
        <ele>499.54000000000002</ele>
        <time>2016-07-26T14:36:09Z</time>
      </trkpt>
      <trkpt lat="47.308230036869645" lon="7.029893975704908">
        <ele>499.06</ele>
        <time>2016-07-26T14:36:13Z</time>
      </trkpt>
      <trkpt lat="47.307558981701732" lon="7.029937980696559">
        <ele>499.54000000000002</ele>
        <time>2016-07-26T14:36:21Z</time>
      </trkpt>
      <trkpt lat="47.307476000860333" lon="7.02996295876801">
        <ele>499.54000000000002</ele>
        <time>2016-07-26T14:36:22Z</time>
      </trkpt>
      <trkpt lat="47.307399976998568" lon="7.030001012608409">
        <ele>500.01999999999998</ele>
        <time>2016-07-26T14:36:23Z</time>
      </trkpt>
      <trkpt lat="47.307255975902081" lon="7.030062032863498">
        <ele>500.98000000000002</ele>
        <time>2016-07-26T14:36:25Z</time>
      </trkpt>
      <trkpt lat="47.307193027809262" lon="7.030074018985033">
        <ele>500.98000000000002</ele>
        <time>2016-07-26T14:36:26Z</time>
      </trkpt>
      <trkpt lat="47.307135025039315" lon="7.030075024813414">
        <ele>500.5</ele>
        <time>2016-07-26T14:36:27Z</time>
      </trkpt>
      <trkpt lat="47.30708003975451" lon="7.030064966529608">
        <ele>500.5</ele>
        <time>2016-07-26T14:36:28Z</time>
      </trkpt>
      <trkpt lat="47.307026982307434" lon="7.030044011771679">
        <ele>500.5</ele>
        <time>2016-07-26T14:36:29Z</time>
      </trkpt>
      <trkpt lat="47.306971997022629" lon="7.030009981244803">
        <ele>500.5</ele>
        <time>2016-07-26T14:36:30Z</time>
      </trkpt>
      <trkpt lat="47.306920029222965" lon="7.029966982081533">
        <ele>500.5</ele>
        <time>2016-07-26T14:36:31Z</time>
      </trkpt>
      <trkpt lat="47.306866971775889" lon="7.029919037595391">
        <ele>500.5</ele>
        <time>2016-07-26T14:36:32Z</time>
      </trkpt>
      <trkpt lat="47.306268000975251" lon="7.029258040711284">
        <ele>500.01999999999998</ele>
        <time>2016-07-26T14:36:42Z</time>
      </trkpt>
      <trkpt lat="47.306173034012318" lon="7.029098030179739">
        <ele>500.01999999999998</ele>
        <time>2016-07-26T14:36:44Z</time>
      </trkpt>
      <trkpt lat="47.305986033752561" lon="7.028670972213149">
        <ele>499.54000000000002</ele>
        <time>2016-07-26T14:36:48Z</time>
      </trkpt>
      <trkpt lat="47.305901041254401" lon="7.028395961970091">
        <ele>499.06</ele>
        <time>2016-07-26T14:36:50Z</time>
      </trkpt>
      <trkpt lat="47.305669030174613" lon="7.027206989005208">
        <ele>498.10000000000002</ele>
        <time>2016-07-26T14:36:57Z</time>
      </trkpt>
      <trkpt lat="47.305644974112511" lon="7.027009008452296">
        <ele>498.10000000000002</ele>
        <time>2016-07-26T14:36:58Z</time>
      </trkpt>
      <trkpt lat="47.305302992463112" lon="7.025171024724841">
        <ele>494.25999999999999</ele>
        <time>2016-07-26T14:37:08Z</time>
      </trkpt>
      <trkpt lat="47.305263010784984" lon="7.025002967566252">
        <ele>494.25999999999999</ele>
        <time>2016-07-26T14:37:09Z</time>
      </trkpt>
      <trkpt lat="47.304948018863797" lon="7.023736964911223">
        <ele>491.37</ele>
        <time>2016-07-26T14:37:17Z</time>
      </trkpt>
      <trkpt lat="47.304878029972315" lon="7.022293014451861">
        <ele>489.93000000000001</ele>
        <time>2016-07-26T14:37:26Z</time>
      </trkpt>
      <trkpt lat="47.304812986403704" lon="7.020239029079676">
        <ele>487.05000000000001</ele>
        <time>2016-07-26T14:37:37Z</time>
      </trkpt>
      <trkpt lat="47.30458801612258" lon="7.018394004553556">
        <ele>487.05000000000001</ele>
        <time>2016-07-26T14:37:47Z</time>
      </trkpt>
      <trkpt lat="47.304564965888858" lon="7.017877008765936">
        <ele>487.52999999999997</ele>
        <time>2016-07-26T14:37:50Z</time>
      </trkpt>
      <trkpt lat="47.304538981989026" lon="7.017708029597998">
        <ele>488.00999999999999</ele>
        <time>2016-07-26T14:37:51Z</time>
      </trkpt>
      <trkpt lat="47.304356005042791" lon="7.016208004206419">
        <ele>488.97000000000003</ele>
        <time>2016-07-26T14:38:00Z</time>
      </trkpt>
      <trkpt lat="47.304308982565999" lon="7.015512976795435">
        <ele>489.93000000000001</ele>
        <time>2016-07-26T14:38:04Z</time>
      </trkpt>
      <trkpt lat="47.304281992837787" lon="7.01535296626389">
        <ele>490.41000000000003</ele>
        <time>2016-07-26T14:38:05Z</time>
      </trkpt>
      <trkpt lat="47.304162969812751" lon="7.014818033203483">
        <ele>491.85000000000002</ele>
        <time>2016-07-26T14:38:09Z</time>
      </trkpt>
      <trkpt lat="47.304131034761667" lon="7.014708984643221">
        <ele>491.37</ele>
        <time>2016-07-26T14:38:10Z</time>
      </trkpt>
      <trkpt lat="47.303630970418453" lon="7.013454968109727">
        <ele>494.74000000000001</ele>
        <time>2016-07-26T14:38:21Z</time>
      </trkpt>
      <trkpt lat="47.303528962656856" lon="7.013261010870338">
        <ele>495.22000000000003</ele>
        <time>2016-07-26T14:38:23Z</time>
      </trkpt>
      <trkpt lat="47.303431984037161" lon="7.01315900310874">
        <ele>494.74000000000001</ele>
        <time>2016-07-26T14:38:24Z</time>
      </trkpt>
      <trkpt lat="47.30334397405386" lon="7.013048026710749">
        <ele>495.22000000000003</ele>
        <time>2016-07-26T14:38:25Z</time>
      </trkpt>
      <trkpt lat="47.302969973534346" lon="7.012715013697743">
        <ele>495.22000000000003</ele>
        <time>2016-07-26T14:38:29Z</time>
      </trkpt>
      <trkpt lat="47.302886992692947" lon="7.012677965685725">
        <ele>496.66000000000003</ele>
        <time>2016-07-26T14:38:30Z</time>
      </trkpt>
      <trkpt lat="47.302737962454557" lon="7.012604037299752">
        <ele>497.13999999999999</ele>
        <time>2016-07-26T14:38:32Z</time>
      </trkpt>
      <trkpt lat="47.302696974948049" lon="7.012539999559522">
        <ele>497.13999999999999</ele>
        <time>2016-07-26T14:38:33Z</time>
      </trkpt>
      <trkpt lat="47.302654981613159" lon="7.012476967647672">
        <ele>497.62</ele>
        <time>2016-07-26T14:38:34Z</time>
      </trkpt>
      <trkpt lat="47.302607037127018" lon="7.012398010119796">
        <ele>497.62</ele>
        <time>2016-07-26T14:38:35Z</time>
      </trkpt>
      <trkpt lat="47.302546016871929" lon="7.012318968772888">
        <ele>498.10000000000002</ele>
        <time>2016-07-26T14:38:36Z</time>
      </trkpt>
      <trkpt lat="47.302487008273602" lon="7.012239005416632">
        <ele>498.10000000000002</ele>
        <time>2016-07-26T14:38:37Z</time>
      </trkpt>
      <trkpt lat="47.302408972755075" lon="7.012162981554866">
        <ele>498.10000000000002</ele>
        <time>2016-07-26T14:38:38Z</time>
      </trkpt>
      <trkpt lat="47.301376992836595" lon="7.01131297275424">
        <ele>497.13999999999999</ele>
        <time>2016-07-26T14:38:50Z</time>
      </trkpt>
      <trkpt lat="47.301144981756806" lon="7.011029999703169">
        <ele>496.66000000000003</ele>
        <time>2016-07-26T14:38:53Z</time>
      </trkpt>
      <trkpt lat="47.301084967330098" lon="7.010917011648417">
        <ele>496.66000000000003</ele>
        <time>2016-07-26T14:38:54Z</time>
      </trkpt>
      <trkpt lat="47.301041968166828" lon="7.010797988623381">
        <ele>497.13999999999999</ele>
        <time>2016-07-26T14:38:55Z</time>
      </trkpt>
      <trkpt lat="47.301011960953474" lon="7.010660022497177">
        <ele>496.18000000000001</ele>
        <time>2016-07-26T14:38:56Z</time>
      </trkpt>
      <trkpt lat="47.300993017852306" lon="7.010528007522225">
        <ele>495.69999999999999</ele>
        <time>2016-07-26T14:38:57Z</time>
      </trkpt>
      <trkpt lat="47.300981031730771" lon="7.010383000597358">
        <ele>494.74000000000001</ele>
        <time>2016-07-26T14:38:58Z</time>
      </trkpt>
      <trkpt lat="47.300976002588868" lon="7.010235982015729">
        <ele>494.25999999999999</ele>
        <time>2016-07-26T14:38:59Z</time>
      </trkpt>
      <trkpt lat="47.300981031730771" lon="7.010084018111229">
        <ele>493.76999999999998</ele>
        <time>2016-07-26T14:39:00Z</time>
      </trkpt>
      <trkpt lat="47.300992012023926" lon="7.009929958730936">
        <ele>493.29000000000002</ele>
        <time>2016-07-26T14:39:01Z</time>
      </trkpt>
      <trkpt lat="47.301010033115745" lon="7.009779000654817">
        <ele>493.76999999999998</ele>
        <time>2016-07-26T14:39:02Z</time>
      </trkpt>
      <trkpt lat="47.301196027547121" lon="7.00890501961112">
        <ele>494.25999999999999</ele>
        <time>2016-07-26T14:39:10Z</time>
      </trkpt>
      <trkpt lat="47.301461985334754" lon="7.008146038278937">
        <ele>498.10000000000002</ele>
        <time>2016-07-26T14:39:23Z</time>
      </trkpt>
      <trkpt lat="47.301476988941431" lon="7.008089041337371">
        <ele>498.10000000000002</ele>
        <time>2016-07-26T14:39:24Z</time>
      </trkpt>
      <trkpt lat="47.301677986979485" lon="7.007266022264957">
        <ele>496.66000000000003</ele>
        <time>2016-07-26T14:39:33Z</time>
      </trkpt>
      <trkpt lat="47.302003037184477" lon="7.005990967154503">
        <ele>496.18000000000001</ele>
        <time>2016-07-26T14:39:43Z</time>
      </trkpt>
      <trkpt lat="47.302064979448915" lon="7.005281019955874">
        <ele>495.69999999999999</ele>
        <time>2016-07-26T14:39:48Z</time>
      </trkpt>
      <trkpt lat="47.301995996385813" lon="7.00349098071456">
        <ele>493.76999999999998</ele>
        <time>2016-07-26T14:40:00Z</time>
      </trkpt>
      <trkpt lat="47.301940005272627" lon="7.00323399156332">
        <ele>492.81</ele>
        <time>2016-07-26T14:40:02Z</time>
      </trkpt>
      <trkpt lat="47.301249001175165" lon="7.00179398059845">
        <ele>491.85000000000002</ele>
        <time>2016-07-26T14:40:14Z</time>
      </trkpt>
      <trkpt lat="47.300738962367177" lon="7.000872977077961">
        <ele>491.37</ele>
        <time>2016-07-26T14:40:23Z</time>
      </trkpt>
      <trkpt lat="47.300707027316093" lon="7.00078203342855">
        <ele>491.37</ele>
        <time>2016-07-26T14:40:24Z</time>
      </trkpt>
      <trkpt lat="47.300674002617598" lon="7.000668039545417">
        <ele>491.37</ele>
        <time>2016-07-26T14:40:25Z</time>
      </trkpt>
      <trkpt lat="47.300653969869018" lon="7.000580029562116">
        <ele>491.37</ele>
        <time>2016-07-26T14:40:26Z</time>
      </trkpt>
      <trkpt lat="47.300633015111089" lon="7.000470981001854">
        <ele>490.88999999999999</ele>
        <time>2016-07-26T14:40:27Z</time>
      </trkpt>
      <trkpt lat="47.300625974312425" lon="7.000389005988836">
        <ele>491.37</ele>
        <time>2016-07-26T14:40:28Z</time>
      </trkpt>
      <trkpt lat="47.300623962655663" lon="7.000271994620562">
        <ele>491.37</ele>
        <time>2016-07-26T14:40:29Z</time>
      </trkpt>
      <trkpt lat="47.300633015111089" lon="7.000156994909048">
        <ele>490.88999999999999</ele>
        <time>2016-07-26T14:40:30Z</time>
      </trkpt>
      <trkpt lat="47.300648018717766" lon="7.000046018511057">
        <ele>490.88999999999999</ele>
        <time>2016-07-26T14:40:31Z</time>
      </trkpt>
      <trkpt lat="47.300671990960836" lon="6.999926995486021">
        <ele>490.88999999999999</ele>
        <time>2016-07-26T14:40:32Z</time>
      </trkpt>
      <trkpt lat="47.300710966810584" lon="6.999805960804224">
        <ele>490.41000000000003</ele>
        <time>2016-07-26T14:40:33Z</time>
      </trkpt>
      <trkpt lat="47.300749020650983" lon="6.999706970527768">
        <ele>489.93000000000001</ele>
        <time>2016-07-26T14:40:34Z</time>
      </trkpt>
      <trkpt lat="47.300794031471014" lon="6.999598005786538">
        <ele>489.44999999999999</ele>
        <time>2016-07-26T14:40:35Z</time>
      </trkpt>
      <trkpt lat="47.301528034731746" lon="6.998266037553549">
        <ele>491.37</ele>
        <time>2016-07-26T14:40:48Z</time>
      </trkpt>
      <trkpt lat="47.301587965339422" lon="6.998174004256725">
        <ele>491.85000000000002</ele>
        <time>2016-07-26T14:40:49Z</time>
      </trkpt>
      <trkpt lat="47.301645968109369" lon="6.998090017586947">
        <ele>492.32999999999998</ele>
        <time>2016-07-26T14:40:50Z</time>
      </trkpt>
      <trkpt lat="47.30171101167798" lon="6.998023968189955">
        <ele>492.32999999999998</ele>
        <time>2016-07-26T14:40:51Z</time>
      </trkpt>
      <trkpt lat="47.301788963377476" lon="6.997993960976601">
        <ele>492.81</ele>
        <time>2016-07-26T14:40:52Z</time>
      </trkpt>
      <trkpt lat="47.30186297558248" lon="6.997950039803982">
        <ele>492.81</ele>
        <time>2016-07-26T14:40:53Z</time>
      </trkpt>
      <trkpt lat="47.302003959193826" lon="6.997845014557242">
        <ele>494.74000000000001</ele>
        <time>2016-07-26T14:40:55Z</time>
      </trkpt>
      <trkpt lat="47.302046958357096" lon="6.997758010402322">
        <ele>495.69999999999999</ele>
        <time>2016-07-26T14:40:56Z</time>
      </trkpt>
      <trkpt lat="47.302080988883972" lon="6.997644016519189">
        <ele>495.69999999999999</ele>
        <time>2016-07-26T14:40:57Z</time>
      </trkpt>
      <trkpt lat="47.302231024950743" lon="6.997311003506184">
        <ele>498.57999999999998</ele>
        <time>2016-07-26T14:41:00Z</time>
      </trkpt>
      <trkpt lat="47.302346024662256" lon="6.997084021568298">
        <ele>499.54000000000002</ele>
        <time>2016-07-26T14:41:02Z</time>
      </trkpt>
      <trkpt lat="47.302393969148397" lon="6.996969021856785">
        <ele>500.01999999999998</ele>
        <time>2016-07-26T14:41:03Z</time>
      </trkpt>
      <trkpt lat="47.3025509621948" lon="6.9964640121907">
        <ele>502.43000000000001</ele>
        <time>2016-07-26T14:41:07Z</time>
      </trkpt>
      <trkpt lat="47.302609970793128" lon="6.996368961408734">
        <ele>503.38999999999999</ele>
        <time>2016-07-26T14:41:08Z</time>
      </trkpt>
      <trkpt lat="47.302665961906314" lon="6.996280029416084">
        <ele>504.35000000000002</ele>
        <time>2016-07-26T14:41:09Z</time>
      </trkpt>
      <trkpt lat="47.302750032395124" lon="6.996176009997726">
        <ele>505.31</ele>
        <time>2016-07-26T14:41:10Z</time>
      </trkpt>
      <trkpt lat="47.302837958559394" lon="6.996072996407747">
        <ele>505.31</ele>
        <time>2016-07-26T14:41:11Z</time>
      </trkpt>
      <trkpt lat="47.303604986518621" lon="6.995334969833493">
        <ele>506.75</ele>
        <time>2016-07-26T14:41:19Z</time>
      </trkpt>
      <trkpt lat="47.303670030087233" lon="6.995211001485586">
        <ele>506.75</ele>
        <time>2016-07-26T14:41:20Z</time>
      </trkpt>
      <trkpt lat="47.303758962079883" lon="6.994957029819489">
        <ele>507.23000000000002</ele>
        <time>2016-07-26T14:41:22Z</time>
      </trkpt>
      <trkpt lat="47.303895000368357" lon="6.994557967409492">
        <ele>507.70999999999998</ele>
        <time>2016-07-26T14:41:25Z</time>
      </trkpt>
      <trkpt lat="47.30405199341476" lon="6.994196958839893">
        <ele>508.67000000000002</ele>
        <time>2016-07-26T14:41:28Z</time>
      </trkpt>
      <trkpt lat="47.30411502532661" lon="6.99410199187696">
        <ele>509.63999999999999</ele>
        <time>2016-07-26T14:41:29Z</time>
      </trkpt>
      <trkpt lat="47.304766969755292" lon="6.993399001657963">
        <ele>513.48000000000002</ele>
        <time>2016-07-26T14:41:37Z</time>
      </trkpt>
      <trkpt lat="47.304861014708877" lon="6.993335969746113">
        <ele>513.96000000000004</ele>
        <time>2016-07-26T14:41:38Z</time>
      </trkpt>
      <trkpt lat="47.305162008851767" lon="6.993177970871329">
        <ele>513.96000000000004</ele>
        <time>2016-07-26T14:41:41Z</time>
      </trkpt>
      <trkpt lat="47.305982010439038" lon="6.992706991732121">
        <ele>513.96000000000004</ele>
        <time>2016-07-26T14:41:49Z</time>
      </trkpt>
      <trkpt lat="47.306057028472424" lon="6.992610013112426">
        <ele>514.44000000000005</ele>
        <time>2016-07-26T14:41:50Z</time>
      </trkpt>
      <trkpt lat="47.306219972670078" lon="6.99238495901227">
        <ele>516.37</ele>
        <time>2016-07-26T14:41:52Z</time>
      </trkpt>
      <trkpt lat="47.306643007323146" lon="6.99169697239995">
        <ele>519.73000000000002</ele>
        <time>2016-07-26T14:41:58Z</time>
      </trkpt>
      <trkpt lat="47.306750966235995" lon="6.991666965186596">
        <ele>520.21000000000004</ele>
        <time>2016-07-26T14:41:59Z</time>
      </trkpt>
      <trkpt lat="47.307129995897412" lon="6.991181988269091">
        <ele>523.09000000000003</ele>
        <time>2016-07-26T14:42:04Z</time>
      </trkpt>
      <trkpt lat="47.307218005880713" lon="6.991129014641047">
        <ele>524.05999999999995</ele>
        <time>2016-07-26T14:42:05Z</time>
      </trkpt>
      <trkpt lat="47.307315990328789" lon="6.991123985499144">
        <ele>523.58000000000004</ele>
        <time>2016-07-26T14:42:06Z</time>
      </trkpt>
      <trkpt lat="47.307416992262006" lon="6.991139994934201">
        <ele>523.09000000000003</ele>
        <time>2016-07-26T14:42:07Z</time>
      </trkpt>
      <trkpt lat="47.307499973103404" lon="6.991124991327524">
        <ele>523.09000000000003</ele>
        <time>2016-07-26T14:42:08Z</time>
      </trkpt>
      <trkpt lat="47.307633999735117" lon="6.991076963022351">
        <ele>524.05999999999995</ele>
        <time>2016-07-26T14:42:10Z</time>
      </trkpt>
      <trkpt lat="47.307799961417913" lon="6.99092298746109">
        <ele>524.53999999999996</ele>
        <time>2016-07-26T14:42:13Z</time>
      </trkpt>
      <trkpt lat="47.307861987501383" lon="6.990883005782962">
        <ele>522.61000000000001</ele>
        <time>2016-07-26T14:42:14Z</time>
      </trkpt>
      <trkpt lat="47.307923007756472" lon="6.990889040753245">
        <ele>522.61000000000001</ele>
        <time>2016-07-26T14:42:15Z</time>
      </trkpt>
      <trkpt lat="47.307987967506051" lon="6.990930028259754">
        <ele>523.09000000000003</ele>
        <time>2016-07-26T14:42:16Z</time>
      </trkpt>
      <trkpt lat="47.308044964447618" lon="6.99100797995925">
        <ele>524.53999999999996</ele>
        <time>2016-07-26T14:42:17Z</time>
      </trkpt>
      <trkpt lat="47.308836970478296" lon="6.991844996809959">
        <ele>528.86000000000001</ele>
        <time>2016-07-26T14:42:27Z</time>
      </trkpt>
      <trkpt lat="47.309195967391133" lon="6.992380013689399">
        <ele>532.23000000000002</ele>
        <time>2016-07-26T14:42:33Z</time>
      </trkpt>
      <trkpt lat="47.309262016788125" lon="6.992448996752501">
        <ele>532.71000000000004</ele>
        <time>2016-07-26T14:42:34Z</time>
      </trkpt>
      <trkpt lat="47.30933703482151" lon="6.992514040321112">
        <ele>533.19000000000005</ele>
        <time>2016-07-26T14:42:35Z</time>
      </trkpt>
      <trkpt lat="47.309668036177754" lon="6.992760971188545">
        <ele>535.11000000000001</ele>
        <time>2016-07-26T14:42:39Z</time>
      </trkpt>
      <trkpt lat="47.310066008940339" lon="6.992875970900059">
        <ele>537.50999999999999</ele>
        <time>2016-07-26T14:42:44Z</time>
      </trkpt>
      <trkpt lat="47.310145972296596" lon="6.992916958406568">
        <ele>537.99000000000001</ele>
        <time>2016-07-26T14:42:45Z</time>
      </trkpt>
      <trkpt lat="47.310386030003428" lon="6.993180988356471">
        <ele>539.44000000000005</ele>
        <time>2016-07-26T14:42:48Z</time>
      </trkpt>
      <trkpt lat="47.310902019962668" lon="6.99388800188899">
        <ele>543.75999999999999</ele>
        <time>2016-07-26T14:42:55Z</time>
      </trkpt>
      <trkpt lat="47.310955999419093" lon="6.993939969688654">
        <ele>544.72000000000003</ele>
        <time>2016-07-26T14:42:56Z</time>
      </trkpt>
      <trkpt lat="47.311068987473845" lon="6.994007024914026">
        <ele>546.16999999999996</ele>
        <time>2016-07-26T14:42:58Z</time>
      </trkpt>
      <trkpt lat="47.311068987473845" lon="6.99382203631103">
        <ele>550.00999999999999</ele>
        <time>2016-07-26T14:43:01Z</time>
      </trkpt>
      <trkpt lat="47.311043003574014" lon="6.993767973035574">
        <ele>550.97000000000003</ele>
        <time>2016-07-26T14:43:02Z</time>
      </trkpt>
      <trkpt lat="47.311007967218757" lon="6.993712987750769">
        <ele>552.40999999999997</ele>
        <time>2016-07-26T14:43:03Z</time>
      </trkpt>
      <trkpt lat="47.310854997485876" lon="6.99332901276648">
        <ele>556.74000000000001</ele>
        <time>2016-07-26T14:43:07Z</time>
      </trkpt>
      <trkpt lat="47.310699010267854" lon="6.992242969572544">
        <ele>563.95000000000005</ele>
        <time>2016-07-26T14:43:16Z</time>
      </trkpt>
      <trkpt lat="47.310696998611093" lon="6.992123024538159">
        <ele>564.90999999999997</ele>
        <time>2016-07-26T14:43:17Z</time>
      </trkpt>
      <trkpt lat="47.310706973075867" lon="6.992015987634659">
        <ele>563.95000000000005</ele>
        <time>2016-07-26T14:43:18Z</time>
      </trkpt>
      <trkpt lat="47.310759024694562" lon="6.99193200096488">
        <ele>564.42999999999995</ele>
        <time>2016-07-26T14:43:19Z</time>
      </trkpt>
      <trkpt lat="47.310827001929283" lon="6.991869974881411">
        <ele>565.38999999999999</ele>
        <time>2016-07-26T14:43:20Z</time>
      </trkpt>
      <trkpt lat="47.31090696528554" lon="6.991832004860044">
        <ele>566.83000000000004</ele>
        <time>2016-07-26T14:43:21Z</time>
      </trkpt>
      <trkpt lat="47.310994975268841" lon="6.991799985989928">
        <ele>567.32000000000005</ele>
        <time>2016-07-26T14:43:22Z</time>
      </trkpt>
      <trkpt lat="47.311089020222425" lon="6.991771990433335">
        <ele>567.79999999999995</ele>
        <time>2016-07-26T14:43:23Z</time>
      </trkpt>
      <trkpt lat="47.312146984040737" lon="6.991568980738521">
        <ele>575.00999999999999</ele>
        <time>2016-07-26T14:43:33Z</time>
      </trkpt>
      <trkpt lat="47.313260016962886" lon="6.991751035675407">
        <ele>577.40999999999997</ele>
        <time>2016-07-26T14:43:45Z</time>
      </trkpt>
      <trkpt lat="47.313338974490762" lon="6.991741983219981">
        <ele>576.92999999999995</ele>
        <time>2016-07-26T14:43:46Z</time>
      </trkpt>
      <trkpt lat="47.313414998352528" lon="6.991704013198614">
        <ele>576.92999999999995</ele>
        <time>2016-07-26T14:43:47Z</time>
      </trkpt>
      <trkpt lat="47.31348498724401" lon="6.991643998771906">
        <ele>576.92999999999995</ele>
        <time>2016-07-26T14:43:48Z</time>
      </trkpt>
      <trkpt lat="47.313552964478731" lon="6.991563029587269">
        <ele>577.40999999999997</ele>
        <time>2016-07-26T14:43:49Z</time>
      </trkpt>
      <trkpt lat="47.313620019704103" lon="6.991478959098458">
        <ele>576.92999999999995</ele>
        <time>2016-07-26T14:43:50Z</time>
      </trkpt>
      <trkpt lat="47.313874997198582" lon="6.991133959963918">
        <ele>577.40999999999997</ele>
        <time>2016-07-26T14:43:54Z</time>
      </trkpt>
      <trkpt lat="47.313921013846993" lon="6.991032036021352">
        <ele>576.92999999999995</ele>
        <time>2016-07-26T14:43:55Z</time>
      </trkpt>
      <trkpt lat="47.313955966383219" lon="6.990917958319187">
        <ele>576.92999999999995</ele>
        <time>2016-07-26T14:43:56Z</time>
      </trkpt>
      <trkpt lat="47.313973987475038" lon="6.99079398997128">
        <ele>576.92999999999995</ele>
        <time>2016-07-26T14:43:57Z</time>
      </trkpt>
      <trkpt lat="47.313987985253334" lon="6.990670021623373">
        <ele>576.92999999999995</ele>
        <time>2016-07-26T14:43:58Z</time>
      </trkpt>
      <trkpt lat="47.314015980809927" lon="6.990023022517562">
        <ele>576.92999999999995</ele>
        <time>2016-07-26T14:44:03Z</time>
      </trkpt>
      <trkpt lat="47.313994020223618" lon="6.989905005320907">
        <ele>577.40999999999997</ele>
        <time>2016-07-26T14:44:04Z</time>
      </trkpt>
      <trkpt lat="47.313959989696741" lon="6.989802997559309">
        <ele>576.92999999999995</ele>
        <time>2016-07-26T14:44:05Z</time>
      </trkpt>
      <trkpt lat="47.313911961391568" lon="6.989720016717911">
        <ele>576.92999999999995</ele>
        <time>2016-07-26T14:44:06Z</time>
      </trkpt>
      <trkpt lat="47.313860999420285" lon="6.989641981199384">
        <ele>576.92999999999995</ele>
        <time>2016-07-26T14:44:07Z</time>
      </trkpt>
      <trkpt lat="47.313709035515785" lon="6.989379040896893">
        <ele>575.49000000000001</ele>
        <time>2016-07-26T14:44:10Z</time>
      </trkpt>
      <trkpt lat="47.313662013038993" lon="6.989255994558334">
        <ele>575.00999999999999</ele>
        <time>2016-07-26T14:44:11Z</time>
      </trkpt>
      <trkpt lat="47.313623037189245" lon="6.989122973755002">
        <ele>575.00999999999999</ele>
        <time>2016-07-26T14:44:12Z</time>
      </trkpt>
      <trkpt lat="47.313497979193926" lon="6.988440016284585">
        <ele>575.00999999999999</ele>
        <time>2016-07-26T14:44:17Z</time>
      </trkpt>
      <trkpt lat="47.313494961708784" lon="6.988308001309633">
        <ele>575.00999999999999</ele>
        <time>2016-07-26T14:44:18Z</time>
      </trkpt>
      <trkpt lat="47.313499990850687" lon="6.988171963021159">
        <ele>575.49000000000001</ele>
        <time>2016-07-26T14:44:19Z</time>
      </trkpt>
      <trkpt lat="47.313517006114125" lon="6.988030979409814">
        <ele>575.97000000000003</ele>
        <time>2016-07-26T14:44:20Z</time>
      </trkpt>
      <trkpt lat="47.313542990013957" lon="6.987887984141707">
        <ele>576.45000000000005</ele>
        <time>2016-07-26T14:44:21Z</time>
      </trkpt>
      <trkpt lat="47.313572997227311" lon="6.987739037722349">
        <ele>577.40999999999997</ele>
        <time>2016-07-26T14:44:22Z</time>
      </trkpt>
      <trkpt lat="47.313617002218962" lon="6.987601993605495">
        <ele>577.40999999999997</ele>
        <time>2016-07-26T14:44:23Z</time>
      </trkpt>
      <trkpt lat="47.313660001382232" lon="6.987460004165769">
        <ele>578.37</ele>
        <time>2016-07-26T14:44:24Z</time>
      </trkpt>
      <trkpt lat="47.314124023541808" lon="6.986445961520076">
        <ele>583.17999999999995</ele>
        <time>2016-07-26T14:44:32Z</time>
      </trkpt>
      <trkpt lat="47.314184959977865" lon="6.986383013427258">
        <ele>584.13999999999999</ele>
        <time>2016-07-26T14:44:33Z</time>
      </trkpt>
      <trkpt lat="47.314244974404573" lon="6.986349988728762">
        <ele>584.13999999999999</ele>
        <time>2016-07-26T14:44:34Z</time>
      </trkpt>
      <trkpt lat="47.314285039901733" lon="6.986355017870665">
        <ele>584.62</ele>
        <time>2016-07-26T14:44:35Z</time>
      </trkpt>
      <trkpt lat="47.314332984387875" lon="6.986381001770496">
        <ele>585.10000000000002</ele>
        <time>2016-07-26T14:44:36Z</time>
      </trkpt>
      <trkpt lat="47.314359974116087" lon="6.986443027853966">
        <ele>586.05999999999995</ele>
        <time>2016-07-26T14:44:37Z</time>
      </trkpt>
      <trkpt lat="47.314362991601229" lon="6.986551992595196">
        <ele>587.5</ele>
        <time>2016-07-26T14:44:38Z</time>
      </trkpt>
      <trkpt lat="47.31436600908637" lon="6.986648971214891">
        <ele>587.5</ele>
        <time>2016-07-26T14:44:39Z</time>
      </trkpt>
      <trkpt lat="47.314358968287706" lon="6.986747039481998">
        <ele>587.98000000000002</ele>
        <time>2016-07-26T14:44:40Z</time>
      </trkpt>
      <trkpt lat="47.314355028793216" lon="6.98686103336513">
        <ele>587.98000000000002</ele>
        <time>2016-07-26T14:44:41Z</time>
      </trkpt>
      <trkpt lat="47.31436600908637" lon="6.987126991152763">
        <ele>588.95000000000005</ele>
        <time>2016-07-26T14:44:43Z</time>
      </trkpt>
      <trkpt lat="47.314390987157822" lon="6.987267974764109">
        <ele>589.42999999999995</ele>
        <time>2016-07-26T14:44:44Z</time>
      </trkpt>
      <trkpt lat="47.314433986321092" lon="6.987426979467273">
        <ele>590.38999999999999</ele>
        <time>2016-07-26T14:44:45Z</time>
      </trkpt>
      <trkpt lat="47.314478997141123" lon="6.987556982785463">
        <ele>591.35000000000002</ele>
        <time>2016-07-26T14:44:46Z</time>
      </trkpt>
      <trkpt lat="47.314533982425928" lon="6.987688997760415">
        <ele>592.30999999999995</ele>
        <time>2016-07-26T14:44:47Z</time>
      </trkpt>
      <trkpt lat="47.314927009865642" lon="6.98866599239409">
        <ele>601.44000000000005</ele>
        <time>2016-07-26T14:44:55Z</time>
      </trkpt>
      <trkpt lat="47.314974032342434" lon="6.988712009042501">
        <ele>602.39999999999998</ele>
        <time>2016-07-26T14:44:56Z</time>
      </trkpt>
      <trkpt lat="47.315028011798859" lon="6.988715026527643">
        <ele>603.36000000000001</ele>
        <time>2016-07-26T14:44:57Z</time>
      </trkpt>
      <trkpt lat="47.315050978213549" lon="6.988658029586077">
        <ele>603.36000000000001</ele>
        <time>2016-07-26T14:44:58Z</time>
      </trkpt>
      <trkpt lat="47.315071010962129" lon="6.988599020987749">
        <ele>604.33000000000004</ele>
        <time>2016-07-26T14:44:59Z</time>
      </trkpt>
      <trkpt lat="47.315084002912045" lon="6.988524002954364">
        <ele>604.80999999999995</ele>
        <time>2016-07-26T14:45:00Z</time>
      </trkpt>
      <trkpt lat="47.315093977376819" lon="6.988447979092598">
        <ele>604.80999999999995</ele>
        <time>2016-07-26T14:45:01Z</time>
      </trkpt>
      <trkpt lat="47.31509598903358" lon="6.988354017958045">
        <ele>605.28999999999996</ele>
        <time>2016-07-26T14:45:02Z</time>
      </trkpt>
      <trkpt lat="47.315098000690341" lon="6.988245975226164">
        <ele>605.76999999999998</ele>
        <time>2016-07-26T14:45:03Z</time>
      </trkpt>
      <trkpt lat="47.315208977088332" lon="6.9872269872576">
        <ele>609.61000000000001</ele>
        <time>2016-07-26T14:45:11Z</time>
      </trkpt>
      <trkpt lat="47.315768972039223" lon="6.985240979120135">
        <ele>617.29999999999995</ele>
        <time>2016-07-26T14:45:23Z</time>
      </trkpt>
      <trkpt lat="47.316054040566087" lon="6.984215034171939">
        <ele>618.25999999999999</ele>
        <time>2016-07-26T14:45:30Z</time>
      </trkpt>
      <trkpt lat="47.316073989495635" lon="6.983980005607009">
        <ele>619.23000000000002</ele>
        <time>2016-07-26T14:45:33Z</time>
      </trkpt>
      <trkpt lat="47.316126963123679" lon="6.983884032815695">
        <ele>620.19000000000005</ele>
        <time>2016-07-26T14:45:34Z</time>
      </trkpt>
      <trkpt lat="47.316302983090281" lon="6.983483964577317">
        <ele>622.59000000000003</ele>
        <time>2016-07-26T14:45:38Z</time>
      </trkpt>
      <trkpt lat="47.316357968375087" lon="6.983372988179326">
        <ele>623.54999999999995</ele>
        <time>2016-07-26T14:45:39Z</time>
      </trkpt>
      <trkpt lat="47.316524013876915" lon="6.983019020408392">
        <ele>624.99000000000001</ele>
        <time>2016-07-26T14:45:42Z</time>
      </trkpt>
      <trkpt lat="47.316591991111636" lon="6.982883987948299">
        <ele>624.99000000000001</ele>
        <time>2016-07-26T14:45:43Z</time>
      </trkpt>
      <trkpt lat="47.3166439589113" lon="6.982733029872179">
        <ele>624.99000000000001</ele>
        <time>2016-07-26T14:45:44Z</time>
      </trkpt>
      <trkpt lat="47.316688969731331" lon="6.982577964663506">
        <ele>624.99000000000001</ele>
        <time>2016-07-26T14:45:45Z</time>
      </trkpt>
      <trkpt lat="47.316725011914968" lon="6.982418959960342">
        <ele>624.99000000000001</ele>
        <time>2016-07-26T14:45:46Z</time>
      </trkpt>
      <trkpt lat="47.316748984158039" lon="6.982259033247829">
        <ele>624.99000000000001</ele>
        <time>2016-07-26T14:45:47Z</time>
      </trkpt>
      <trkpt lat="47.316755019128323" lon="6.982067003846169">
        <ele>624.50999999999999</ele>
        <time>2016-07-26T14:45:48Z</time>
      </trkpt>
      <trkpt lat="47.316781003028154" lon="6.981667019426823">
        <ele>625.96000000000004</ele>
        <time>2016-07-26T14:45:51Z</time>
      </trkpt>
      <trkpt lat="47.316800029948354" lon="6.981563000008464">
        <ele>626.44000000000005</ele>
        <time>2016-07-26T14:45:52Z</time>
      </trkpt>
      <trkpt lat="47.316830959171057" lon="6.981408018618822">
        <ele>628.36000000000001</ele>
        <time>2016-07-26T14:45:53Z</time>
      </trkpt>
      <trkpt lat="47.316887034103274" lon="6.981273991987109">
        <ele>629.79999999999995</ele>
        <time>2016-07-26T14:45:54Z</time>
      </trkpt>
      <trkpt lat="47.316960962489247" lon="6.981162009760737">
        <ele>629.79999999999995</ele>
        <time>2016-07-26T14:45:55Z</time>
      </trkpt>
      <trkpt lat="47.317104963585734" lon="6.980907032266259">
        <ele>629.79999999999995</ele>
        <time>2016-07-26T14:45:57Z</time>
      </trkpt>
      <trkpt lat="47.317165983840823" lon="6.980750039219856">
        <ele>629.79999999999995</ele>
        <time>2016-07-26T14:45:58Z</time>
      </trkpt>
      <trkpt lat="47.31733001768589" lon="6.980377966538072">
        <ele>629.79999999999995</ele>
        <time>2016-07-26T14:46:01Z</time>
      </trkpt>
      <trkpt lat="47.31739598326385" lon="6.98028601706028">
        <ele>630.75999999999999</ele>
        <time>2016-07-26T14:46:02Z</time>
      </trkpt>
      <trkpt lat="47.317478964105248" lon="6.980206975713372">
        <ele>630.75999999999999</ele>
        <time>2016-07-26T14:46:03Z</time>
      </trkpt>
      <trkpt lat="47.317563034594059" lon="6.980145033448935">
        <ele>631.24000000000001</ele>
        <time>2016-07-26T14:46:04Z</time>
      </trkpt>
      <trkpt lat="47.317654984071851" lon="6.980098010972142">
        <ele>631.24000000000001</ele>
        <time>2016-07-26T14:46:05Z</time>
      </trkpt>
      <trkpt lat="47.31782496906817" lon="6.980015030130744">
        <ele>630.75999999999999</ele>
        <time>2016-07-26T14:46:07Z</time>
      </trkpt>
      <trkpt lat="47.317900992929935" lon="6.979956021532416">
        <ele>631.24000000000001</ele>
        <time>2016-07-26T14:46:08Z</time>
      </trkpt>
      <trkpt lat="47.317978022620082" lon="6.979852002114058">
        <ele>631.72000000000003</ele>
        <time>2016-07-26T14:46:09Z</time>
      </trkpt>
      <trkpt lat="47.318024039268494" lon="6.979732979089022">
        <ele>631.24000000000001</ele>
        <time>2016-07-26T14:46:10Z</time>
      </trkpt>
      <trkpt lat="47.318047005683184" lon="6.979590989649296">
        <ele>631.72000000000003</ele>
        <time>2016-07-26T14:46:11Z</time>
      </trkpt>
      <trkpt lat="47.318050023168325" lon="6.979446988552809">
        <ele>631.72000000000003</ele>
        <time>2016-07-26T14:46:12Z</time>
      </trkpt>
      <trkpt lat="47.318041976541281" lon="6.979308016598225">
        <ele>631.72000000000003</ele>
        <time>2016-07-26T14:46:13Z</time>
      </trkpt>
      <trkpt lat="47.31799696572125" lon="6.979156974703074">
        <ele>632.67999999999995</ele>
        <time>2016-07-26T14:46:14Z</time>
      </trkpt>
      <trkpt lat="47.317944997921586" lon="6.979027977213264">
        <ele>632.67999999999995</ele>
        <time>2016-07-26T14:46:15Z</time>
      </trkpt>
      <trkpt lat="47.317877020686865" lon="6.978893028572202">
        <ele>633.64999999999998</ele>
        <time>2016-07-26T14:46:16Z</time>
      </trkpt>
      <trkpt lat="47.317806025967002" lon="6.978768976405263">
        <ele>633.64999999999998</ele>
        <time>2016-07-26T14:46:17Z</time>
      </trkpt>
      <trkpt lat="47.317736959084868" lon="6.978651965036988">
        <ele>633.64999999999998</ele>
        <time>2016-07-26T14:46:18Z</time>
      </trkpt>
      <trkpt lat="47.317675016820431" lon="6.978529002517462">
        <ele>633.64999999999998</ele>
        <time>2016-07-26T14:46:19Z</time>
      </trkpt>
      <trkpt lat="47.317263968288898" lon="6.977620990946889">
        <ele>635.57000000000005</ele>
        <time>2016-07-26T14:46:26Z</time>
      </trkpt>
      <trkpt lat="47.317249970510602" lon="6.977488975971937">
        <ele>635.57000000000005</ele>
        <time>2016-07-26T14:46:27Z</time>
      </trkpt>
      <trkpt lat="47.31724401935935" lon="6.977339023724198">
        <ele>636.04999999999995</ele>
        <time>2016-07-26T14:46:28Z</time>
      </trkpt>
      <trkpt lat="47.317262040451169" lon="6.97719301097095">
        <ele>636.04999999999995</ele>
        <time>2016-07-26T14:46:29Z</time>
      </trkpt>
      <trkpt lat="47.317272014915943" lon="6.97704004123807">
        <ele>636.04999999999995</ele>
        <time>2016-07-26T14:46:30Z</time>
      </trkpt>
      <trkpt lat="47.317550964653492" lon="6.975544961169362">
        <ele>636.52999999999997</ele>
        <time>2016-07-26T14:46:39Z</time>
      </trkpt>
      <trkpt lat="47.317572003230453" lon="6.975374976173043">
        <ele>637.00999999999999</ele>
        <time>2016-07-26T14:46:40Z</time>
      </trkpt>
      <trkpt lat="47.317579966038465" lon="6.975225023925304">
        <ele>637.00999999999999</ele>
        <time>2016-07-26T14:46:41Z</time>
      </trkpt>
      <trkpt lat="47.317586001008749" lon="6.975082028657198">
        <ele>637.00999999999999</ele>
        <time>2016-07-26T14:46:42Z</time>
      </trkpt>
      <trkpt lat="47.31754400767386" lon="6.974833002313972">
        <ele>638.45000000000005</ele>
        <time>2016-07-26T14:46:44Z</time>
      </trkpt>
      <trkpt lat="47.317508971318603" lon="6.974691012874246">
        <ele>638.45000000000005</ele>
        <time>2016-07-26T14:46:45Z</time>
      </trkpt>
      <trkpt lat="47.317462032660842" lon="6.974526979029179">
        <ele>638.45000000000005</ele>
        <time>2016-07-26T14:46:46Z</time>
      </trkpt>
      <trkpt lat="47.317177969962358" lon="6.973718963563442">
        <ele>641.82000000000005</ele>
        <time>2016-07-26T14:46:51Z</time>
      </trkpt>
      <trkpt lat="47.317104963585734" lon="6.973575968295336">
        <ele>642.29999999999995</ele>
        <time>2016-07-26T14:46:52Z</time>
      </trkpt>
      <trkpt lat="47.31700798496604" lon="6.973485024645925">
        <ele>643.25999999999999</ele>
        <time>2016-07-26T14:46:53Z</time>
      </trkpt>
      <trkpt lat="47.316901031881571" lon="6.973344963043928">
        <ele>644.22000000000003</ele>
        <time>2016-07-26T14:46:54Z</time>
      </trkpt>
      <trkpt lat="47.316790977492929" lon="6.973227029666305">
        <ele>645.65999999999997</ele>
        <time>2016-07-26T14:46:55Z</time>
      </trkpt>
      <trkpt lat="47.316589979454875" lon="6.973051009699702">
        <ele>648.07000000000005</ele>
        <time>2016-07-26T14:46:57Z</time>
      </trkpt>
      <trkpt lat="47.316505992785096" lon="6.972928969189525">
        <ele>649.02999999999997</ele>
        <time>2016-07-26T14:46:58Z</time>
      </trkpt>
      <trkpt lat="47.31642996892333" lon="6.97280902415514">
        <ele>649.99000000000001</ele>
        <time>2016-07-26T14:46:59Z</time>
      </trkpt>
      <trkpt lat="47.316073989495635" lon="6.972410967573524">
        <ele>654.30999999999995</ele>
        <time>2016-07-26T14:47:03Z</time>
      </trkpt>
      <trkpt lat="47.315992014482617" lon="6.972284987568855">
        <ele>655.27999999999997</ele>
        <time>2016-07-26T14:47:04Z</time>
      </trkpt>
      <trkpt lat="47.315926970914006" lon="6.972145009785891">
        <ele>655.75999999999999</ele>
        <time>2016-07-26T14:47:05Z</time>
      </trkpt>
      <trkpt lat="47.315864022821188" lon="6.972008971497417">
        <ele>656.24000000000001</ele>
        <time>2016-07-26T14:47:06Z</time>
      </trkpt>
      <trkpt lat="47.315811971202493" lon="6.971880979835987">
        <ele>656.72000000000003</ele>
        <time>2016-07-26T14:47:07Z</time>
      </trkpt>
      <trkpt lat="47.315742988139391" lon="6.971777966246009">
        <ele>657.67999999999995</ele>
        <time>2016-07-26T14:47:08Z</time>
      </trkpt>
      <trkpt lat="47.315671993419528" lon="6.971689034253359">
        <ele>658.15999999999997</ele>
        <time>2016-07-26T14:47:09Z</time>
      </trkpt>
      <trkpt lat="47.315286006778479" lon="6.971311010420322">
        <ele>659.60000000000002</ele>
        <time>2016-07-26T14:47:13Z</time>
      </trkpt>
      <trkpt lat="47.314909994602203" lon="6.970928041264415">
        <ele>661.03999999999996</ele>
        <time>2016-07-26T14:47:17Z</time>
      </trkpt>
      <trkpt lat="47.314831959083676" lon="6.97081002406776">
        <ele>661.51999999999998</ele>
        <time>2016-07-26T14:47:18Z</time>
      </trkpt>
      <trkpt lat="47.314749984070659" lon="6.97068396024406">
        <ele>662.49000000000001</ele>
        <time>2016-07-26T14:47:19Z</time>
      </trkpt>
      <trkpt lat="47.314684018492699" lon="6.97055202908814">
        <ele>662.97000000000003</ele>
        <time>2016-07-26T14:47:20Z</time>
      </trkpt>
      <trkpt lat="47.314617969095707" lon="6.970412973314524">
        <ele>663.45000000000005</ele>
        <time>2016-07-26T14:47:21Z</time>
      </trkpt>
      <trkpt lat="47.313759997487068" lon="6.968723013997078">
        <ele>667.76999999999998</ele>
        <time>2016-07-26T14:47:32Z</time>
      </trkpt>
      <trkpt lat="47.313081985339522" lon="6.967363972216845">
        <ele>681.23000000000002</ele>
        <time>2016-07-26T14:47:41Z</time>
      </trkpt>
      <trkpt lat="47.312252009287477" lon="6.965169003233314">
        <ele>696.61000000000001</ele>
        <time>2016-07-26T14:47:53Z</time>
      </trkpt>
      <trkpt lat="47.312150001525879" lon="6.964672040194273">
        <ele>699.5</ele>
        <time>2016-07-26T14:47:56Z</time>
      </trkpt>
      <trkpt lat="47.312155030667782" lon="6.964512029662728">
        <ele>700.94000000000005</ele>
        <time>2016-07-26T14:47:57Z</time>
      </trkpt>
      <trkpt lat="47.312159975990653" lon="6.964070973917842">
        <ele>703.82000000000005</ele>
        <time>2016-07-26T14:48:00Z</time>
      </trkpt>
      <trkpt lat="47.312134997919202" lon="6.963951028883457">
        <ele>704.77999999999997</ele>
        <time>2016-07-26T14:48:01Z</time>
      </trkpt>
      <trkpt lat="47.312099961563945" lon="6.963843991979957">
        <ele>705.75</ele>
        <time>2016-07-26T14:48:02Z</time>
      </trkpt>
      <trkpt lat="47.31146402657032" lon="6.96243298240006">
        <ele>714.39999999999998</ele>
        <time>2016-07-26T14:48:14Z</time>
      </trkpt>
      <trkpt lat="47.310693981125951" lon="6.960699018090963">
        <ele>719.20000000000005</ele>
        <time>2016-07-26T14:48:27Z</time>
      </trkpt>
      <trkpt lat="47.310312017798424" lon="6.959888990968466">
        <ele>718.24000000000001</ele>
        <time>2016-07-26T14:48:33Z</time>
      </trkpt>
      <trkpt lat="47.310277987271547" lon="6.95976996794343">
        <ele>718.24000000000001</ele>
        <time>2016-07-26T14:48:34Z</time>
      </trkpt>
      <trkpt lat="47.310243034735322" lon="6.959636025130749">
        <ele>719.20000000000005</ele>
        <time>2016-07-26T14:48:35Z</time>
      </trkpt>
      <trkpt lat="47.310221996158361" lon="6.959500992670655">
        <ele>721.61000000000001</ele>
        <time>2016-07-26T14:48:36Z</time>
      </trkpt>
      <trkpt lat="47.310212021693587" lon="6.959369983524084">
        <ele>721.61000000000001</ele>
        <time>2016-07-26T14:48:37Z</time>
      </trkpt>
      <trkpt lat="47.310188971459866" lon="6.959097990766168">
        <ele>722.09000000000003</ele>
        <time>2016-07-26T14:48:39Z</time>
      </trkpt>
      <trkpt lat="47.31019701808691" lon="6.958964969962835">
        <ele>722.09000000000003</ele>
        <time>2016-07-26T14:48:40Z</time>
      </trkpt>
      <trkpt lat="47.310227025300264" lon="6.958839995786548">
        <ele>723.04999999999995</ele>
        <time>2016-07-26T14:48:41Z</time>
      </trkpt>
      <trkpt lat="47.310267006978393" lon="6.958722984418273">
        <ele>723.52999999999997</ele>
        <time>2016-07-26T14:48:42Z</time>
      </trkpt>
      <trkpt lat="47.310316041111946" lon="6.958615025505424">
        <ele>723.52999999999997</ele>
        <time>2016-07-26T14:48:43Z</time>
      </trkpt>
      <trkpt lat="47.310373038053513" lon="6.958507988601923">
        <ele>724.00999999999999</ele>
        <time>2016-07-26T14:48:44Z</time>
      </trkpt>
      <trkpt lat="47.310786014422774" lon="6.957446001470089">
        <ele>725.45000000000005</ele>
        <time>2016-07-26T14:48:54Z</time>
      </trkpt>
      <trkpt lat="47.310834964737296" lon="6.957337958738208">
        <ele>724.97000000000003</ele>
        <time>2016-07-26T14:48:55Z</time>
      </trkpt>
      <trkpt lat="47.310891961678863" lon="6.957229999825358">
        <ele>724.49000000000001</ele>
        <time>2016-07-26T14:48:56Z</time>
      </trkpt>
      <trkpt lat="47.311409963294864" lon="6.95624303072691">
        <ele>724.00999999999999</ele>
        <time>2016-07-26T14:49:05Z</time>
      </trkpt>
      <trkpt lat="47.31161498464644" lon="6.955830976366997">
        <ele>724.49000000000001</ele>
        <time>2016-07-26T14:49:09Z</time>
      </trkpt>
      <trkpt lat="47.311752028763294" lon="6.955640958622098">
        <ele>724.97000000000003</ele>
        <time>2016-07-26T14:49:11Z</time>
      </trkpt>
      <trkpt lat="47.311947997659445" lon="6.955352034419775">
        <ele>726.40999999999997</ele>
        <time>2016-07-26T14:49:14Z</time>
      </trkpt>
      <trkpt lat="47.312017986550927" lon="6.955290008336306">
        <ele>726.88999999999999</ele>
        <time>2016-07-26T14:49:15Z</time>
      </trkpt>
      <trkpt lat="47.312079006806016" lon="6.955246003344655">
        <ele>727.37</ele>
        <time>2016-07-26T14:49:16Z</time>
      </trkpt>
      <trkpt lat="47.312284028157592" lon="6.955043999478221">
        <ele>728.34000000000003</ele>
        <time>2016-07-26T14:49:22Z</time>
      </trkpt>
      <trkpt lat="47.312300959601998" lon="6.954969987273216">
        <ele>728.34000000000003</ele>
        <time>2016-07-26T14:49:23Z</time>
      </trkpt>
      <trkpt lat="47.312397016212344" lon="6.954709980636835">
        <ele>728.82000000000005</ele>
        <time>2016-07-26T14:49:26Z</time>
      </trkpt>
      <trkpt lat="47.312569012865424" lon="6.954423990100622">
        <ele>729.77999999999997</ele>
        <time>2016-07-26T14:49:29Z</time>
      </trkpt>
      <trkpt lat="47.312613017857075" lon="6.95431100204587">
        <ele>730.25999999999999</ele>
        <time>2016-07-26T14:49:30Z</time>
      </trkpt>
      <trkpt lat="47.312646964564919" lon="6.954187033697963">
        <ele>730.74000000000001</ele>
        <time>2016-07-26T14:49:31Z</time>
      </trkpt>
      <trkpt lat="47.313019959256053" lon="6.952710980549455">
        <ele>738.90999999999997</ele>
        <time>2016-07-26T14:49:40Z</time>
      </trkpt>
      <trkpt lat="47.313119033351541" lon="6.95233304053545">
        <ele>739.87</ele>
        <time>2016-07-26T14:49:42Z</time>
      </trkpt>
      <trkpt lat="47.31314099393785" lon="6.952132964506745">
        <ele>740.35000000000002</ele>
        <time>2016-07-26T14:49:43Z</time>
      </trkpt>
      <trkpt lat="47.313128001987934" lon="6.951925009489059">
        <ele>740.83000000000004</ele>
        <time>2016-07-26T14:49:44Z</time>
      </trkpt>
      <trkpt lat="47.313089026138186" lon="6.951714958995581">
        <ele>741.30999999999995</ele>
        <time>2016-07-26T14:49:45Z</time>
      </trkpt>
      <trkpt lat="47.313021970912814" lon="6.95151899009943">
        <ele>741.78999999999996</ele>
        <time>2016-07-26T14:49:46Z</time>
      </trkpt>
      <trkpt lat="47.312929015606642" lon="6.951347999274731">
        <ele>742.75999999999999</ele>
        <time>2016-07-26T14:49:47Z</time>
      </trkpt>
      <trkpt lat="47.312804963439703" lon="6.951225958764553">
        <ele>743.24000000000001</ele>
        <time>2016-07-26T14:49:48Z</time>
      </trkpt>
      <trkpt lat="47.312656017020345" lon="6.951150018721819">
        <ele>743.72000000000003</ele>
        <time>2016-07-26T14:49:49Z</time>
      </trkpt>
      <trkpt lat="47.3124960064888" lon="6.951142977923155">
        <ele>744.20000000000005</ele>
        <time>2016-07-26T14:49:50Z</time>
      </trkpt>
      <trkpt lat="47.312332978472114" lon="6.951199974864721">
        <ele>744.67999999999995</ele>
        <time>2016-07-26T14:49:51Z</time>
      </trkpt>
      <trkpt lat="47.312181014567614" lon="6.951258983463049">
        <ele>745.15999999999997</ele>
        <time>2016-07-26T14:49:52Z</time>
      </trkpt>
      <trkpt lat="47.31204497627914" lon="6.95128002204001">
        <ele>745.63999999999999</ele>
        <time>2016-07-26T14:49:53Z</time>
      </trkpt>
      <trkpt lat="47.311914972960949" lon="6.951258983463049">
        <ele>746.60000000000002</ele>
        <time>2016-07-26T14:49:54Z</time>
      </trkpt>
      <trkpt lat="47.311795027926564" lon="6.951183965429664">
        <ele>748.03999999999996</ele>
        <time>2016-07-26T14:49:55Z</time>
      </trkpt>
      <trkpt lat="47.311698971316218" lon="6.95106502622366">
        <ele>748.51999999999998</ele>
        <time>2016-07-26T14:49:56Z</time>
      </trkpt>
      <trkpt lat="47.311625964939594" lon="6.950908033177257">
        <ele>749</ele>
        <time>2016-07-26T14:49:57Z</time>
      </trkpt>
      <trkpt lat="47.31157198548317" lon="6.950735030695796">
        <ele>749.97000000000003</ele>
        <time>2016-07-26T14:49:58Z</time>
      </trkpt>
      <trkpt lat="47.311533009633422" lon="6.950535960495472">
        <ele>750.45000000000005</ele>
        <time>2016-07-26T14:49:59Z</time>
      </trkpt>
      <trkpt lat="47.311495961621404" lon="6.950317025184631">
        <ele>750.45000000000005</ele>
        <time>2016-07-26T14:50:00Z</time>
      </trkpt>
      <trkpt lat="47.311281971633434" lon="6.948646008968353">
        <ele>756.21000000000004</ele>
        <time>2016-07-26T14:50:07Z</time>
      </trkpt>
      <trkpt lat="47.311295969411731" lon="6.948383990675211">
        <ele>757.17999999999995</ele>
        <time>2016-07-26T14:50:08Z</time>
      </trkpt>
      <trkpt lat="47.31174398213625" lon="6.945311017334461">
        <ele>768.71000000000004</ele>
        <time>2016-07-26T14:50:19Z</time>
      </trkpt>
      <trkpt lat="47.311877002939582" lon="6.944806007668376">
        <ele>770.63</ele>
        <time>2016-07-26T14:50:21Z</time>
      </trkpt>
      <trkpt lat="47.31191597878933" lon="6.944554969668388">
        <ele>771.60000000000002</ele>
        <time>2016-07-26T14:50:22Z</time>
      </trkpt>
      <trkpt lat="47.311924025416374" lon="6.944294041022658">
        <ele>772.08000000000004</ele>
        <time>2016-07-26T14:50:23Z</time>
      </trkpt>
      <trkpt lat="47.311900975182652" lon="6.944027999415994">
        <ele>773.03999999999996</ele>
        <time>2016-07-26T14:50:24Z</time>
      </trkpt>
      <trkpt lat="47.311866022646427" lon="6.943751983344555">
        <ele>774</ele>
        <time>2016-07-26T14:50:25Z</time>
      </trkpt>
      <trkpt lat="47.311651026830077" lon="6.942640040069819">
        <ele>778.32000000000005</ele>
        <time>2016-07-26T14:50:29Z</time>
      </trkpt>
      <trkpt lat="47.311310973018408" lon="6.941287033259869">
        <ele>782.64999999999998</ele>
        <time>2016-07-26T14:50:34Z</time>
      </trkpt>
      <trkpt lat="47.311290018260479" lon="6.941032977774739">
        <ele>783.61000000000001</ele>
        <time>2016-07-26T14:50:35Z</time>
      </trkpt>
      <trkpt lat="47.311299992725253" lon="6.940784035250545">
        <ele>784.57000000000005</ele>
        <time>2016-07-26T14:50:36Z</time>
      </trkpt>
      <trkpt lat="47.311332011595368" lon="6.940091019496322">
        <ele>786.01999999999998</ele>
        <time>2016-07-26T14:50:39Z</time>
      </trkpt>
      <trkpt lat="47.311304016038775" lon="6.93987300619483">
        <ele>786.98000000000002</ele>
        <time>2016-07-26T14:50:40Z</time>
      </trkpt>
      <trkpt lat="47.31125196442008" lon="6.939657004550099">
        <ele>787.46000000000004</ele>
        <time>2016-07-26T14:50:41Z</time>
      </trkpt>
      <trkpt lat="47.311068987473845" lon="6.938991984352469">
        <ele>788.89999999999998</ele>
        <time>2016-07-26T14:50:44Z</time>
      </trkpt>
      <trkpt lat="47.311032023280859" lon="6.938749998807907">
        <ele>789.38</ele>
        <time>2016-07-26T14:50:45Z</time>
      </trkpt>
      <trkpt lat="47.311008973047137" lon="6.9384999666363">
        <ele>789.38</ele>
        <time>2016-07-26T14:50:46Z</time>
      </trkpt>
      <trkpt lat="47.31079900637269" lon="6.936405999585986">
        <ele>791.77999999999997</ele>
        <time>2016-07-26T14:50:54Z</time>
      </trkpt>
      <trkpt lat="47.310733962804079" lon="6.936174994334579">
        <ele>792.25999999999999</ele>
        <time>2016-07-26T14:50:55Z</time>
      </trkpt>
      <trkpt lat="47.310656011104584" lon="6.935961004346609">
        <ele>792.74000000000001</ele>
        <time>2016-07-26T14:50:56Z</time>
      </trkpt>
      <trkpt lat="47.31056297197938" lon="6.935763023793697">
        <ele>793.22000000000003</ele>
        <time>2016-07-26T14:50:57Z</time>
      </trkpt>
      <trkpt lat="47.310462975874543" lon="6.935569988563657">
        <ele>793.22000000000003</ele>
        <time>2016-07-26T14:50:58Z</time>
      </trkpt>
      <trkpt lat="47.309232009574771" lon="6.933049969375134">
        <ele>786.5</ele>
        <time>2016-07-26T14:51:11Z</time>
      </trkpt>
      <trkpt lat="47.309159003198147" lon="6.932844026014209">
        <ele>785.04999999999995</ele>
        <time>2016-07-26T14:51:12Z</time>
      </trkpt>
      <trkpt lat="47.309098988771439" lon="6.932622995227575">
        <ele>784.09000000000003</ele>
        <time>2016-07-26T14:51:13Z</time>
      </trkpt>
      <trkpt lat="47.309047020971775" lon="6.932377992197871">
        <ele>783.61000000000001</ele>
        <time>2016-07-26T14:51:14Z</time>
      </trkpt>
      <trkpt lat="47.30901500210166" lon="6.932132989168167">
        <ele>782.64999999999998</ele>
        <time>2016-07-26T14:51:15Z</time>
      </trkpt>
      <trkpt lat="47.308993963524699" lon="6.931881029158831">
        <ele>782.16999999999996</ele>
        <time>2016-07-26T14:51:16Z</time>
      </trkpt>
      <trkpt lat="47.308990024030209" lon="6.931638959795237">
        <ele>781.21000000000004</ele>
        <time>2016-07-26T14:51:17Z</time>
      </trkpt>
      <trkpt lat="47.309060012921691" lon="6.928562968969345">
        <ele>775.91999999999996</ele>
        <time>2016-07-26T14:51:29Z</time>
      </trkpt>
      <trkpt lat="47.309473995119333" lon="6.92435902543366">
        <ele>773.51999999999998</ele>
        <time>2016-07-26T14:51:45Z</time>
      </trkpt>
      <trkpt lat="47.309914967045188" lon="6.922565968707204">
        <ele>774.48000000000002</ele>
        <time>2016-07-26T14:51:53Z</time>
      </trkpt>
      <trkpt lat="47.310716025531292" lon="6.919737998396158">
        <ele>771.60000000000002</ele>
        <time>2016-07-26T14:52:06Z</time>
      </trkpt>
      <trkpt lat="47.310757013037801" lon="6.919506993144751">
        <ele>771.11000000000001</ele>
        <time>2016-07-26T14:52:07Z</time>
      </trkpt>
      <trkpt lat="47.31077897362411" lon="6.919283028692007">
        <ele>770.63</ele>
        <time>2016-07-26T14:52:08Z</time>
      </trkpt>
      <trkpt lat="47.310780985280871" lon="6.919050011783838">
        <ele>769.66999999999996</ele>
        <time>2016-07-26T14:52:09Z</time>
      </trkpt>
      <trkpt lat="47.310762964189053" lon="6.918812971562147">
        <ele>769.19000000000005</ele>
        <time>2016-07-26T14:52:10Z</time>
      </trkpt>
      <trkpt lat="47.31073304079473" lon="6.918564029037952">
        <ele>769.19000000000005</ele>
        <time>2016-07-26T14:52:11Z</time>
      </trkpt>
      <trkpt lat="47.310694986954331" lon="6.918309973552823">
        <ele>769.19000000000005</ele>
        <time>2016-07-26T14:52:12Z</time>
      </trkpt>
      <trkpt lat="47.310100039467216" lon="6.915471022948623">
        <ele>767.75</ele>
        <time>2016-07-26T14:52:22Z</time>
      </trkpt>
      <trkpt lat="47.309113992378116" lon="6.910858964547515">
        <ele>765.35000000000002</ele>
        <time>2016-07-26T14:52:38Z</time>
      </trkpt>
      <trkpt lat="47.308569001033902" lon="6.908351015299559">
        <ele>758.62</ele>
        <time>2016-07-26T14:52:46Z</time>
      </trkpt>
      <trkpt lat="47.307407017797232" lon="6.905017029494047">
        <ele>757.17999999999995</ele>
        <time>2016-07-26T14:52:58Z</time>
      </trkpt>
      <trkpt lat="47.306294990703464" lon="6.902309004217386">
        <ele>751.88999999999999</ele>
        <time>2016-07-26T14:53:08Z</time>
      </trkpt>
      <trkpt lat="47.304966961964965" lon="6.899701980873942">
        <ele>747.08000000000004</ele>
        <time>2016-07-26T14:53:18Z</time>
      </trkpt>
      <trkpt lat="47.30428702197969" lon="6.898411000147462">
        <ele>748.03999999999996</ele>
        <time>2016-07-26T14:53:25Z</time>
      </trkpt>
      <trkpt lat="47.303548995405436" lon="6.897194031625986">
        <ele>747.08000000000004</ele>
        <time>2016-07-26T14:53:34Z</time>
      </trkpt>
      <trkpt lat="47.303379010409117" lon="6.896889014169574">
        <ele>746.60000000000002</ele>
        <time>2016-07-26T14:53:36Z</time>
      </trkpt>
      <trkpt lat="47.303311033174396" lon="6.89673101529479">
        <ele>746.60000000000002</ele>
        <time>2016-07-26T14:53:37Z</time>
      </trkpt>
      <trkpt lat="47.303256969898939" lon="6.896574022248387">
        <ele>747.08000000000004</ele>
        <time>2016-07-26T14:53:38Z</time>
      </trkpt>
      <trkpt lat="47.303220005705953" lon="6.896417029201984">
        <ele>747.08000000000004</ele>
        <time>2016-07-26T14:53:39Z</time>
      </trkpt>
      <trkpt lat="47.303197961300611" lon="6.896249977871776">
        <ele>746.60000000000002</ele>
        <time>2016-07-26T14:53:40Z</time>
      </trkpt>
      <trkpt lat="47.303197961300611" lon="6.896088039502502">
        <ele>747.08000000000004</ele>
        <time>2016-07-26T14:53:41Z</time>
      </trkpt>
      <trkpt lat="47.303202990442514" lon="6.895918976515532">
        <ele>746.12</ele>
        <time>2016-07-26T14:53:42Z</time>
      </trkpt>
      <trkpt lat="47.303225034847856" lon="6.893822997808456">
        <ele>744.67999999999995</ele>
        <time>2016-07-26T14:53:53Z</time>
      </trkpt>
      <trkpt lat="47.303224029019475" lon="6.892205961048603">
        <ele>743.72000000000003</ele>
        <time>2016-07-26T14:54:03Z</time>
      </trkpt>
      <trkpt lat="47.303182035684586" lon="6.890621026977897">
        <ele>742.75999999999999</ele>
        <time>2016-07-26T14:54:11Z</time>
      </trkpt>
      <trkpt lat="47.303142976015806" lon="6.890428997576237">
        <ele>742.75999999999999</ele>
        <time>2016-07-26T14:54:12Z</time>
      </trkpt>
      <trkpt lat="47.30308597907424" lon="6.890244008973241">
        <ele>742.75999999999999</ele>
        <time>2016-07-26T14:54:13Z</time>
      </trkpt>
      <trkpt lat="47.302411990240216" lon="6.888541979715228">
        <ele>740.35000000000002</ele>
        <time>2016-07-26T14:54:22Z</time>
      </trkpt>
      <trkpt lat="47.302297996357083" lon="6.888380963355303">
        <ele>739.87</ele>
        <time>2016-07-26T14:54:23Z</time>
      </trkpt>
      <trkpt lat="47.302070008590817" lon="6.888065971434116">
        <ele>737.95000000000005</ele>
        <time>2016-07-26T14:54:25Z</time>
      </trkpt>
      <trkpt lat="47.301984010264277" lon="6.887876037508249">
        <ele>736.99000000000001</ele>
        <time>2016-07-26T14:54:26Z</time>
      </trkpt>
      <trkpt lat="47.301917038857937" lon="6.887661041691899">
        <ele>736.02999999999997</ele>
        <time>2016-07-26T14:54:27Z</time>
      </trkpt>
      <trkpt lat="47.301885019987822" lon="6.887434981763363">
        <ele>736.02999999999997</ele>
        <time>2016-07-26T14:54:28Z</time>
      </trkpt>
      <trkpt lat="47.301877979189157" lon="6.887202970683575">
        <ele>735.54999999999995</ele>
        <time>2016-07-26T14:54:29Z</time>
      </trkpt>
      <trkpt lat="47.301899017766118" lon="6.886970959603787">
        <ele>736.50999999999999</ele>
        <time>2016-07-26T14:54:30Z</time>
      </trkpt>
      <trkpt lat="47.301931036636233" lon="6.886754035949707">
        <ele>736.02999999999997</ele>
        <time>2016-07-26T14:54:31Z</time>
      </trkpt>
      <trkpt lat="47.3019690066576" lon="6.886336030438542">
        <ele>736.02999999999997</ele>
        <time>2016-07-26T14:54:33Z</time>
      </trkpt>
      <trkpt lat="47.301952997222543" lon="6.886124974116683">
        <ele>736.02999999999997</ele>
        <time>2016-07-26T14:54:34Z</time>
      </trkpt>
      <trkpt lat="47.301912009716034" lon="6.885911989957094">
        <ele>736.02999999999997</ele>
        <time>2016-07-26T14:54:35Z</time>
      </trkpt>
      <trkpt lat="47.301829028874636" lon="6.885711997747421">
        <ele>736.02999999999997</ele>
        <time>2016-07-26T14:54:36Z</time>
      </trkpt>
      <trkpt lat="47.301728026941419" lon="6.88551401719451">
        <ele>736.02999999999997</ele>
        <time>2016-07-26T14:54:37Z</time>
      </trkpt>
      <trkpt lat="47.300924034789205" lon="6.884174002334476">
        <ele>736.99000000000001</ele>
        <time>2016-07-26T14:54:44Z</time>
      </trkpt>
      <trkpt lat="47.300768969580531" lon="6.884039975702763">
        <ele>736.99000000000001</ele>
        <time>2016-07-26T14:54:45Z</time>
      </trkpt>
      <trkpt lat="47.300603007897735" lon="6.883934028446674">
        <ele>736.99000000000001</ele>
        <time>2016-07-26T14:54:46Z</time>
      </trkpt>
      <trkpt lat="47.299148999154568" lon="6.882935995236039">
        <ele>734.10000000000002</ele>
        <time>2016-07-26T14:54:55Z</time>
      </trkpt>
      <trkpt lat="47.297992967069149" lon="6.88194802030921">
        <ele>734.10000000000002</ele>
        <time>2016-07-26T14:55:02Z</time>
      </trkpt>
      <trkpt lat="47.296960987150669" lon="6.881493972614408">
        <ele>737.47000000000003</ele>
        <time>2016-07-26T14:55:08Z</time>
      </trkpt>
      <trkpt lat="47.296838024631143" lon="6.881347037851811">
        <ele>738.42999999999995</ele>
        <time>2016-07-26T14:55:09Z</time>
      </trkpt>
      <trkpt lat="47.296741968020797" lon="6.881173029541969">
        <ele>738.90999999999997</ele>
        <time>2016-07-26T14:55:10Z</time>
      </trkpt>
      <trkpt lat="47.296669967472553" lon="6.880977982655168">
        <ele>739.38999999999999</ele>
        <time>2016-07-26T14:55:11Z</time>
      </trkpt>
      <trkpt lat="47.296608025208116" lon="6.880780002102256">
        <ele>739.87</ele>
        <time>2016-07-26T14:55:12Z</time>
      </trkpt>
      <trkpt lat="47.296537030488253" lon="6.880583027377725">
        <ele>740.35000000000002</ele>
        <time>2016-07-26T14:55:13Z</time>
      </trkpt>
      <trkpt lat="47.296439968049526" lon="6.880399966612458">
        <ele>740.83000000000004</ele>
        <time>2016-07-26T14:55:14Z</time>
      </trkpt>
      <trkpt lat="47.296320023015141" lon="6.880240039899945">
        <ele>741.30999999999995</ele>
        <time>2016-07-26T14:55:15Z</time>
      </trkpt>
      <trkpt lat="47.296180967241526" lon="6.880091009661555">
        <ele>741.30999999999995</ele>
        <time>2016-07-26T14:55:16Z</time>
      </trkpt>
      <trkpt lat="47.296021962538362" lon="6.879970980808139">
        <ele>742.27999999999997</ele>
        <time>2016-07-26T14:55:17Z</time>
      </trkpt>
      <trkpt lat="47.295863963663578" lon="6.879847012460232">
        <ele>742.27999999999997</ele>
        <time>2016-07-26T14:55:18Z</time>
      </trkpt>
      <trkpt lat="47.295559030026197" lon="6.879551969468594">
        <ele>742.27999999999997</ele>
        <time>2016-07-26T14:55:20Z</time>
      </trkpt>
      <trkpt lat="47.294576000422239" lon="6.877922024577856">
        <ele>747.55999999999995</ele>
        <time>2016-07-26T14:55:28Z</time>
      </trkpt>
      <trkpt lat="47.293729009106755" lon="6.876026038080454">
        <ele>750.92999999999995</ele>
        <time>2016-07-26T14:55:36Z</time>
      </trkpt>
      <trkpt lat="47.293603029102087" lon="6.875814981758595">
        <ele>750.92999999999995</ele>
        <time>2016-07-26T14:55:37Z</time>
      </trkpt>
      <trkpt lat="47.293349979445338" lon="6.875382978469133">
        <ele>752.37</ele>
        <time>2016-07-26T14:55:39Z</time>
      </trkpt>
      <trkpt lat="47.293245038017631" lon="6.875148033723235">
        <ele>752.37</ele>
        <time>2016-07-26T14:55:40Z</time>
      </trkpt>
      <trkpt lat="47.293167002499104" lon="6.874916022643447">
        <ele>752.85000000000002</ele>
        <time>2016-07-26T14:55:41Z</time>
      </trkpt>
      <trkpt lat="47.292824015021324" lon="6.873730989173055">
        <ele>753.80999999999995</ele>
        <time>2016-07-26T14:55:46Z</time>
      </trkpt>
      <trkpt lat="47.292723013088107" lon="6.873529991135001">
        <ele>754.28999999999996</ele>
        <time>2016-07-26T14:55:47Z</time>
      </trkpt>
      <trkpt lat="47.292598960921168" lon="6.873362017795444">
        <ele>754.28999999999996</ele>
        <time>2016-07-26T14:55:48Z</time>
      </trkpt>
      <trkpt lat="47.292455965653062" lon="6.873232014477253">
        <ele>754.76999999999998</ele>
        <time>2016-07-26T14:55:49Z</time>
      </trkpt>
      <trkpt lat="47.292296038940549" lon="6.873141992837191">
        <ele>754.76999999999998</ele>
        <time>2016-07-26T14:55:50Z</time>
      </trkpt>
      <trkpt lat="47.292126975953579" lon="6.873099999502301">
        <ele>754.76999999999998</ele>
        <time>2016-07-26T14:55:51Z</time>
      </trkpt>
      <trkpt lat="47.291950033977628" lon="6.873080972582102">
        <ele>755.25</ele>
        <time>2016-07-26T14:55:52Z</time>
      </trkpt>
      <trkpt lat="47.291764039546251" lon="6.873081978410482">
        <ele>755.73000000000002</ele>
        <time>2016-07-26T14:55:53Z</time>
      </trkpt>
      <trkpt lat="47.289728997275233" lon="6.873069992288947">
        <ele>758.62</ele>
        <time>2016-07-26T14:56:05Z</time>
      </trkpt>
      <trkpt lat="47.289577033370733" lon="6.873005032539368">
        <ele>758.62</ele>
        <time>2016-07-26T14:56:06Z</time>
      </trkpt>
      <trkpt lat="47.289434960111976" lon="6.872911993414164">
        <ele>759.10000000000002</ele>
        <time>2016-07-26T14:56:07Z</time>
      </trkpt>
      <trkpt lat="47.289302023127675" lon="6.872782995924354">
        <ele>759.58000000000004</ele>
        <time>2016-07-26T14:56:08Z</time>
      </trkpt>
      <trkpt lat="47.28918400593102" lon="6.872629020363092">
        <ele>760.05999999999995</ele>
        <time>2016-07-26T14:56:09Z</time>
      </trkpt>
      <trkpt lat="47.28907504118979" lon="6.872469009831548">
        <ele>760.05999999999995</ele>
        <time>2016-07-26T14:56:10Z</time>
      </trkpt>
      <trkpt lat="47.288972027599812" lon="6.872310005128384">
        <ele>760.53999999999996</ele>
        <time>2016-07-26T14:56:11Z</time>
      </trkpt>
      <trkpt lat="47.288761977106333" lon="6.87204304151237">
        <ele>761.01999999999998</ele>
        <time>2016-07-26T14:56:13Z</time>
      </trkpt>
      <trkpt lat="47.288643959909678" lon="6.871950002387166">
        <ele>761.01999999999998</ele>
        <time>2016-07-26T14:56:14Z</time>
      </trkpt>
      <trkpt lat="47.288514962419868" lon="6.871899962425232">
        <ele>761.5</ele>
        <time>2016-07-26T14:56:15Z</time>
      </trkpt>
      <trkpt lat="47.288387976586819" lon="6.87189401127398">
        <ele>762.46000000000004</ele>
        <time>2016-07-26T14:56:16Z</time>
      </trkpt>
      <trkpt lat="47.288255039602518" lon="6.87193701043725">
        <ele>762.94000000000005</ele>
        <time>2016-07-26T14:56:17Z</time>
      </trkpt>
      <trkpt lat="47.288125036284328" lon="6.872009010985494">
        <ele>763.89999999999998</ele>
        <time>2016-07-26T14:56:18Z</time>
      </trkpt>
      <trkpt lat="47.287992015480995" lon="6.872075982391834">
        <ele>764.38999999999999</ele>
        <time>2016-07-26T14:56:19Z</time>
      </trkpt>
      <trkpt lat="47.287854971364141" lon="6.872110012918711">
        <ele>765.35000000000002</ele>
        <time>2016-07-26T14:56:20Z</time>
      </trkpt>
      <trkpt lat="47.287713987752795" lon="6.872117975726724">
        <ele>765.83000000000004</ele>
        <time>2016-07-26T14:56:21Z</time>
      </trkpt>
      <trkpt lat="47.287568980827928" lon="6.872096015140414">
        <ele>765.83000000000004</ele>
        <time>2016-07-26T14:56:22Z</time>
      </trkpt>
      <trkpt lat="47.287425985559821" lon="6.872056033462286">
        <ele>766.30999999999995</ele>
        <time>2016-07-26T14:56:23Z</time>
      </trkpt>
      <trkpt lat="47.287288019433618" lon="6.871986966580153">
        <ele>766.30999999999995</ele>
        <time>2016-07-26T14:56:24Z</time>
      </trkpt>
      <trkpt lat="47.287157010287046" lon="6.871891999617219">
        <ele>766.78999999999996</ele>
        <time>2016-07-26T14:56:25Z</time>
      </trkpt>
      <trkpt lat="47.28703698143363" lon="6.871767025440931">
        <ele>766.78999999999996</ele>
        <time>2016-07-26T14:56:26Z</time>
      </trkpt>
      <trkpt lat="47.286917958408594" lon="6.871634004637599">
        <ele>767.26999999999998</ele>
        <time>2016-07-26T14:56:27Z</time>
      </trkpt>
      <trkpt lat="47.285729991272092" lon="6.870639994740486">
        <ele>770.14999999999998</ele>
        <time>2016-07-26T14:56:35Z</time>
      </trkpt>
      <trkpt lat="47.284558033570647" lon="6.87008997425437">
        <ele>772.55999999999995</ele>
        <time>2016-07-26T14:56:43Z</time>
      </trkpt>
      <trkpt lat="47.28357600979507" lon="6.86925002373755">
        <ele>775.44000000000005</ele>
        <time>2016-07-26T14:56:53Z</time>
      </trkpt>
      <trkpt lat="47.282704962417483" lon="6.868019979447126">
        <ele>775.91999999999996</ele>
        <time>2016-07-26T14:57:05Z</time>
      </trkpt>
      <trkpt lat="47.282659029588103" lon="6.867973040789366">
        <ele>775.91999999999996</ele>
        <time>2016-07-26T14:57:06Z</time>
      </trkpt>
      <trkpt lat="47.282613012939692" lon="6.867952002212405">
        <ele>775.91999999999996</ele>
        <time>2016-07-26T14:57:07Z</time>
      </trkpt>
      <trkpt lat="47.282563978806138" lon="6.867959965020418">
        <ele>775.44000000000005</ele>
        <time>2016-07-26T14:57:08Z</time>
      </trkpt>
      <trkpt lat="47.282514022663236" lon="6.867987038567662">
        <ele>775.44000000000005</ele>
        <time>2016-07-26T14:57:09Z</time>
      </trkpt>
      <trkpt lat="47.282468006014824" lon="6.868030959740281">
        <ele>775.91999999999996</ele>
        <time>2016-07-26T14:57:10Z</time>
      </trkpt>
      <trkpt lat="47.282416960224509" lon="6.868079993873835">
        <ele>775.44000000000005</ele>
        <time>2016-07-26T14:57:11Z</time>
      </trkpt>
      <trkpt lat="47.28237303905189" lon="6.868131961673498">
        <ele>774.96000000000004</ele>
        <time>2016-07-26T14:57:12Z</time>
      </trkpt>
      <trkpt lat="47.282198024913669" lon="6.868301024660468">
        <ele>774.96000000000004</ele>
        <time>2016-07-26T14:57:18Z</time>
      </trkpt>
      <trkpt lat="47.282183021306992" lon="6.868364978581667">
        <ele>774.96000000000004</ele>
        <time>2016-07-26T14:57:19Z</time>
      </trkpt>
      <trkpt lat="47.282178997993469" lon="6.868441002443433">
        <ele>775.44000000000005</ele>
        <time>2016-07-26T14:57:20Z</time>
      </trkpt>
      <trkpt lat="47.282192995771766" lon="6.868524989113212">
        <ele>775.91999999999996</ele>
        <time>2016-07-26T14:57:21Z</time>
      </trkpt>
      <trkpt lat="47.282221997156739" lon="6.868608975782991">
        <ele>776.39999999999998</ele>
        <time>2016-07-26T14:57:22Z</time>
      </trkpt>
      <trkpt lat="47.282275976613164" lon="6.868706038221717">
        <ele>777.36000000000001</ele>
        <time>2016-07-26T14:57:23Z</time>
      </trkpt>
      <trkpt lat="47.28233196772635" lon="6.868809973821044">
        <ele>777.84000000000003</ele>
        <time>2016-07-26T14:57:24Z</time>
      </trkpt>
      <trkpt lat="47.282402962446213" lon="6.868913993239403">
        <ele>778.32000000000005</ele>
        <time>2016-07-26T14:57:25Z</time>
      </trkpt>
      <trkpt lat="47.282559033483267" lon="6.869223034009337">
        <ele>779.28999999999996</ele>
        <time>2016-07-26T14:57:28Z</time>
      </trkpt>
      <trkpt lat="47.282599015161395" lon="6.869338033720851">
        <ele>779.28999999999996</ele>
        <time>2016-07-26T14:57:29Z</time>
      </trkpt>
      <trkpt lat="47.282623993232846" lon="6.869469964876771">
        <ele>779.28999999999996</ele>
        <time>2016-07-26T14:57:30Z</time>
      </trkpt>
      <trkpt lat="47.282632039859891" lon="6.869620000943542">
        <ele>779.76999999999998</ele>
        <time>2016-07-26T14:57:31Z</time>
      </trkpt>
      <trkpt lat="47.282628016546369" lon="6.869779005646706">
        <ele>780.25</ele>
        <time>2016-07-26T14:57:32Z</time>
      </trkpt>
      <trkpt lat="47.28260999545455" lon="6.872436990961433">
        <ele>786.98000000000002</ele>
        <time>2016-07-26T14:57:47Z</time>
      </trkpt>
      <trkpt lat="47.282584011554718" lon="6.872804034501314">
        <ele>787.46000000000004</ele>
        <time>2016-07-26T14:57:49Z</time>
      </trkpt>
      <trkpt lat="47.282549981027842" lon="6.87298801727593">
        <ele>787.94000000000005</ele>
        <time>2016-07-26T14:57:50Z</time>
      </trkpt>
      <trkpt lat="47.28250103071332" lon="6.873172000050545">
        <ele>788.41999999999996</ele>
        <time>2016-07-26T14:57:51Z</time>
      </trkpt>
      <trkpt lat="47.28243799880147" lon="6.873352965340018">
        <ele>788.89999999999998</ele>
        <time>2016-07-26T14:57:52Z</time>
      </trkpt>
      <trkpt lat="47.28237203322351" lon="6.873530996963382">
        <ele>788.89999999999998</ele>
        <time>2016-07-26T14:57:53Z</time>
      </trkpt>
      <trkpt lat="47.282142033800483" lon="6.874071964994073">
        <ele>790.82000000000005</ele>
        <time>2016-07-26T14:57:56Z</time>
      </trkpt>
      <trkpt lat="47.282050000503659" lon="6.874223006889224">
        <ele>790.82000000000005</ele>
        <time>2016-07-26T14:57:57Z</time>
      </trkpt>
      <trkpt lat="47.281042998656631" lon="6.875560004264116">
        <ele>791.29999999999995</ele>
        <time>2016-07-26T14:58:07Z</time>
      </trkpt>
      <trkpt lat="47.279839022085071" lon="6.877331016585231">
        <ele>794.19000000000005</ele>
        <time>2016-07-26T14:58:19Z</time>
      </trkpt>
      <trkpt lat="47.279386986047029" lon="6.878972025588155">
        <ele>799.95000000000005</ele>
        <time>2016-07-26T14:58:26Z</time>
      </trkpt>
      <trkpt lat="47.279353961348534" lon="6.879224991425872">
        <ele>801.39999999999998</ele>
        <time>2016-07-26T14:58:27Z</time>
      </trkpt>
      <trkpt lat="47.279348010197282" lon="6.87950000166893">
        <ele>802.84000000000003</ele>
        <time>2016-07-26T14:58:28Z</time>
      </trkpt>
      <trkpt lat="47.279351027682424" lon="6.879775011911988">
        <ele>805.24000000000001</ele>
        <time>2016-07-26T14:58:29Z</time>
      </trkpt>
      <trkpt lat="47.279355973005295" lon="6.880050022155047">
        <ele>806.20000000000005</ele>
        <time>2016-07-26T14:58:30Z</time>
      </trkpt>
      <trkpt lat="47.279345998540521" lon="6.882190005853772">
        <ele>810.52999999999997</ele>
        <time>2016-07-26T14:58:38Z</time>
      </trkpt>
      <trkpt lat="47.279293024912477" lon="6.882471973076463">
        <ele>810.52999999999997</ele>
        <time>2016-07-26T14:58:39Z</time>
      </trkpt>
      <trkpt lat="47.279228987172246" lon="6.882757963612676">
        <ele>811.00999999999999</ele>
        <time>2016-07-26T14:58:40Z</time>
      </trkpt>
      <trkpt lat="47.279138965532184" lon="6.883027022704482">
        <ele>811.00999999999999</ele>
        <time>2016-07-26T14:58:41Z</time>
      </trkpt>
      <trkpt lat="47.279024971649051" lon="6.883292980492115">
        <ele>809.57000000000005</ele>
        <time>2016-07-26T14:58:42Z</time>
      </trkpt>
      <trkpt lat="47.278901003301144" lon="6.883556004613638">
        <ele>811.00999999999999</ele>
        <time>2016-07-26T14:58:43Z</time>
      </trkpt>
      <trkpt lat="47.27876303717494" lon="6.883791033178568">
        <ele>811.49000000000001</ele>
        <time>2016-07-26T14:58:44Z</time>
      </trkpt>
      <trkpt lat="47.278607971966267" lon="6.884006028994918">
        <ele>811.97000000000003</ele>
        <time>2016-07-26T14:58:45Z</time>
      </trkpt>
      <trkpt lat="47.278445027768612" lon="6.88420400954783">
        <ele>812.45000000000005</ele>
        <time>2016-07-26T14:58:46Z</time>
      </trkpt>
      <trkpt lat="47.277573980391026" lon="6.885347971692681">
        <ele>819.17999999999995</ele>
        <time>2016-07-26T14:58:52Z</time>
      </trkpt>
      <trkpt lat="47.277464009821415" lon="6.885575959458947">
        <ele>820.62</ele>
        <time>2016-07-26T14:58:53Z</time>
      </trkpt>
      <trkpt lat="47.277079029008746" lon="6.886635012924671">
        <ele>823.99000000000001</ele>
        <time>2016-07-26T14:58:57Z</time>
      </trkpt>
      <trkpt lat="47.277012979611754" lon="6.886938018724322">
        <ele>825.42999999999995</ele>
        <time>2016-07-26T14:58:58Z</time>
      </trkpt>
      <trkpt lat="47.276667980477214" lon="6.889637997373939">
        <ele>834.55999999999995</ele>
        <time>2016-07-26T14:59:07Z</time>
      </trkpt>
      <trkpt lat="47.27670201100409" lon="6.892363037914038">
        <ele>841.28999999999996</ele>
        <time>2016-07-26T14:59:15Z</time>
      </trkpt>
      <trkpt lat="47.276738975197077" lon="6.893742028623819">
        <ele>844.17999999999995</ele>
        <time>2016-07-26T14:59:19Z</time>
      </trkpt>
      <trkpt lat="47.276720032095909" lon="6.89406699500978">
        <ele>845.13999999999999</ele>
        <time>2016-07-26T14:59:20Z</time>
      </trkpt>
      <trkpt lat="47.27668197825551" lon="6.894702007994056">
        <ele>848.01999999999998</ele>
        <time>2016-07-26T14:59:22Z</time>
      </trkpt>
      <trkpt lat="47.276742998510599" lon="6.89612802118063">
        <ele>849.46000000000004</ele>
        <time>2016-07-26T14:59:27Z</time>
      </trkpt>
      <trkpt lat="47.276793038472533" lon="6.896371012553573">
        <ele>849.46000000000004</ele>
        <time>2016-07-26T14:59:28Z</time>
      </trkpt>
      <trkpt lat="47.276864033192396" lon="6.89660201780498">
        <ele>849.46000000000004</ele>
        <time>2016-07-26T14:59:29Z</time>
      </trkpt>
      <trkpt lat="47.276954976841807" lon="6.896822964772582">
        <ele>848.98000000000002</ele>
        <time>2016-07-26T14:59:30Z</time>
      </trkpt>
      <trkpt lat="47.277063019573689" lon="6.897039972245693">
        <ele>848.98000000000002</ele>
        <time>2016-07-26T14:59:31Z</time>
      </trkpt>
      <trkpt lat="47.277162009850144" lon="6.897264020517469">
        <ele>848.98000000000002</ele>
        <time>2016-07-26T14:59:32Z</time>
      </trkpt>
      <trkpt lat="47.27723803371191" lon="6.897511035203934">
        <ele>849.46000000000004</ele>
        <time>2016-07-26T14:59:33Z</time>
      </trkpt>
      <trkpt lat="47.277716975659132" lon="6.900273039937019">
        <ele>848.98000000000002</ele>
        <time>2016-07-26T14:59:43Z</time>
      </trkpt>
      <trkpt lat="47.278385013341904" lon="6.902428027242422">
        <ele>850.41999999999996</ele>
        <time>2016-07-26T14:59:51Z</time>
      </trkpt>
      <trkpt lat="47.279077023267746" lon="6.90491896122694">
        <ele>851.38</ele>
        <time>2016-07-26T14:59:59Z</time>
      </trkpt>
      <trkpt lat="47.279668031260371" lon="6.907568983733654">
        <ele>856.66999999999996</ele>
        <time>2016-07-26T15:00:08Z</time>
      </trkpt>
      <trkpt lat="47.280013030394912" lon="6.909724976867437">
        <ele>860.51999999999998</ele>
        <time>2016-07-26T15:00:17Z</time>
      </trkpt>
      <trkpt lat="47.280341014266014" lon="6.911043031141162">
        <ele>861.96000000000004</ele>
        <time>2016-07-26T15:00:26Z</time>
      </trkpt>
      <trkpt lat="47.280382001772523" lon="6.911292979493737">
        <ele>860.51999999999998</ele>
        <time>2016-07-26T15:00:28Z</time>
      </trkpt>
      <trkpt lat="47.280388036742806" lon="6.911423988640308">
        <ele>859.55999999999995</ele>
        <time>2016-07-26T15:00:29Z</time>
      </trkpt>
      <trkpt lat="47.280384013429284" lon="6.911561032757163">
        <ele>859.08000000000004</ele>
        <time>2016-07-26T15:00:30Z</time>
      </trkpt>
      <trkpt lat="47.280366998165846" lon="6.911692963913083">
        <ele>858.59000000000003</ele>
        <time>2016-07-26T15:00:31Z</time>
      </trkpt>
      <trkpt lat="47.280340008437634" lon="6.911826990544796">
        <ele>858.11000000000001</ele>
        <time>2016-07-26T15:00:32Z</time>
      </trkpt>
      <trkpt lat="47.28031100705266" lon="6.911960011348128">
        <ele>857.14999999999998</ele>
        <time>2016-07-26T15:00:33Z</time>
      </trkpt>
      <trkpt lat="47.280276976525784" lon="6.9120910204947">
        <ele>856.66999999999996</ele>
        <time>2016-07-26T15:00:34Z</time>
      </trkpt>
      <trkpt lat="47.280193995684385" lon="6.912520006299019">
        <ele>855.23000000000002</ele>
        <time>2016-07-26T15:00:37Z</time>
      </trkpt>
      <trkpt lat="47.280178992077708" lon="6.912689991295338">
        <ele>854.26999999999998</ele>
        <time>2016-07-26T15:00:38Z</time>
      </trkpt>
      <trkpt lat="47.280169017612934" lon="6.912875985726714">
        <ele>853.78999999999996</ele>
        <time>2016-07-26T15:00:39Z</time>
      </trkpt>
      <trkpt lat="47.280142027884722" lon="6.915069026872516">
        <ele>846.10000000000002</ele>
        <time>2016-07-26T15:00:52Z</time>
      </trkpt>
      <trkpt lat="47.280153008177876" lon="6.91522903740406">
        <ele>845.13999999999999</ele>
        <time>2016-07-26T15:00:53Z</time>
      </trkpt>
      <trkpt lat="47.280167005956173" lon="6.915383012965322">
        <ele>842.73000000000002</ele>
        <time>2016-07-26T15:00:54Z</time>
      </trkpt>
      <trkpt lat="47.280197013169527" lon="6.91553003154695">
        <ele>841.28999999999996</ele>
        <time>2016-07-26T15:00:55Z</time>
      </trkpt>
      <trkpt lat="47.280450984835625" lon="6.916436031460762">
        <ele>838.88999999999999</ele>
        <time>2016-07-26T15:01:01Z</time>
      </trkpt>
      <trkpt lat="47.280471017584205" lon="6.916613979265094">
        <ele>838.40999999999997</ele>
        <time>2016-07-26T15:01:02Z</time>
      </trkpt>
      <trkpt lat="47.280472023412585" lon="6.91679704003036">
        <ele>837.45000000000005</ele>
        <time>2016-07-26T15:01:03Z</time>
      </trkpt>
      <trkpt lat="47.280452996492386" lon="6.916969958692789">
        <ele>836.96000000000004</ele>
        <time>2016-07-26T15:01:04Z</time>
      </trkpt>
      <trkpt lat="47.280434975400567" lon="6.917138015851378">
        <ele>836.48000000000002</ele>
        <time>2016-07-26T15:01:05Z</time>
      </trkpt>
      <trkpt lat="47.28041997179389" lon="6.917469017207623">
        <ele>835.51999999999998</ele>
        <time>2016-07-26T15:01:07Z</time>
      </trkpt>
      <trkpt lat="47.280455008149147" lon="6.917620981112123">
        <ele>835.03999999999996</ele>
        <time>2016-07-26T15:01:08Z</time>
      </trkpt>
      <trkpt lat="47.280518962070346" lon="6.917760958895087">
        <ele>834.08000000000004</ele>
        <time>2016-07-26T15:01:09Z</time>
      </trkpt>
      <trkpt lat="47.280738987028599" lon="6.918181981891394">
        <ele>831.67999999999995</ele>
        <time>2016-07-26T15:01:12Z</time>
      </trkpt>
      <trkpt lat="47.280801013112068" lon="6.918340986594558">
        <ele>831.67999999999995</ele>
        <time>2016-07-26T15:01:13Z</time>
      </trkpt>
      <trkpt lat="47.280853986740112" lon="6.918509965762496">
        <ele>829.75999999999999</ele>
        <time>2016-07-26T15:01:14Z</time>
      </trkpt>
      <trkpt lat="47.280934033915401" lon="6.91890399903059">
        <ele>827.83000000000004</ele>
        <time>2016-07-26T15:01:16Z</time>
      </trkpt>
      <trkpt lat="47.281379029154778" lon="6.920941974967718">
        <ele>815.82000000000005</ele>
        <time>2016-07-26T15:01:25Z</time>
      </trkpt>
      <trkpt lat="47.282416960224509" lon="6.923568025231361">
        <ele>805.72000000000003</ele>
        <time>2016-07-26T15:01:36Z</time>
      </trkpt>
      <trkpt lat="47.283738031983376" lon="6.925873970612884">
        <ele>797.54999999999995</ele>
        <time>2016-07-26T15:01:46Z</time>
      </trkpt>
      <trkpt lat="47.284546969458461" lon="6.92696001380682">
        <ele>790.34000000000003</ele>
        <time>2016-07-26T15:01:52Z</time>
      </trkpt>
      <trkpt lat="47.284702034667134" lon="6.927070990204811">
        <ele>790.34000000000003</ele>
        <time>2016-07-26T15:01:53Z</time>
      </trkpt>
      <trkpt lat="47.285662014037371" lon="6.927765011787415">
        <ele>783.61000000000001</ele>
        <time>2016-07-26T15:02:00Z</time>
      </trkpt>
      <trkpt lat="47.285762010142207" lon="6.927917981520295">
        <ele>782.64999999999998</ele>
        <time>2016-07-26T15:02:01Z</time>
      </trkpt>
      <trkpt lat="47.285845996811986" lon="6.92810095846653">
        <ele>781.69000000000005</ele>
        <time>2016-07-26T15:02:02Z</time>
      </trkpt>
      <trkpt lat="47.285905005410314" lon="6.928321989253163">
        <ele>779.76999999999998</ele>
        <time>2016-07-26T15:02:03Z</time>
      </trkpt>
      <trkpt lat="47.285968037322164" lon="6.928548971191049">
        <ele>779.28999999999996</ele>
        <time>2016-07-26T15:02:04Z</time>
      </trkpt>
      <trkpt lat="47.286338014528155" lon="6.93044001236558">
        <ele>770.14999999999998</ele>
        <time>2016-07-26T15:02:12Z</time>
      </trkpt>
      <trkpt lat="47.286337008699775" lon="6.930660959333181">
        <ele>767.75</ele>
        <time>2016-07-26T15:02:13Z</time>
      </trkpt>
      <trkpt lat="47.286318987607956" lon="6.930865980684757">
        <ele>766.30999999999995</ele>
        <time>2016-07-26T15:02:14Z</time>
      </trkpt>
      <trkpt lat="47.286169035360217" lon="6.932175988331437">
        <ele>758.62</ele>
        <time>2016-07-26T15:02:20Z</time>
      </trkpt>
      <trkpt lat="47.286172974854708" lon="6.932426020503044">
        <ele>757.17999999999995</ele>
        <time>2016-07-26T15:02:21Z</time>
      </trkpt>
      <trkpt lat="47.286159982904792" lon="6.933191958814859">
        <ele>751.88999999999999</ele>
        <time>2016-07-26T15:02:24Z</time>
      </trkpt>
      <trkpt lat="47.286139028146863" lon="6.933421958237886">
        <ele>750.45000000000005</ele>
        <time>2016-07-26T15:02:25Z</time>
      </trkpt>
      <trkpt lat="47.286102985963225" lon="6.933641983196139">
        <ele>748.51999999999998</ele>
        <time>2016-07-26T15:02:26Z</time>
      </trkpt>
      <trkpt lat="47.286064010113478" lon="6.933865025639534">
        <ele>747.55999999999995</ele>
        <time>2016-07-26T15:02:27Z</time>
      </trkpt>
      <trkpt lat="47.286034002900124" lon="6.934054959565401">
        <ele>745.63999999999999</ele>
        <time>2016-07-26T15:02:28Z</time>
      </trkpt>
      <trkpt lat="47.286009024828672" lon="6.934239026159048">
        <ele>743.72000000000003</ele>
        <time>2016-07-26T15:02:29Z</time>
      </trkpt>
      <trkpt lat="47.285948004573584" lon="6.934614032506943">
        <ele>742.27999999999997</ele>
        <time>2016-07-26T15:02:31Z</time>
      </trkpt>
      <trkpt lat="47.28589796461165" lon="6.934802960604429">
        <ele>741.30999999999995</ele>
        <time>2016-07-26T15:02:32Z</time>
      </trkpt>
      <trkpt lat="47.285813977941871" lon="6.934934975579381">
        <ele>739.87</ele>
        <time>2016-07-26T15:02:33Z</time>
      </trkpt>
      <trkpt lat="47.285685986280441" lon="6.935033965855837">
        <ele>739.38999999999999</ele>
        <time>2016-07-26T15:02:34Z</time>
      </trkpt>
      <trkpt lat="47.28555497713387" lon="6.935077970847487">
        <ele>738.90999999999997</ele>
        <time>2016-07-26T15:02:35Z</time>
      </trkpt>
      <trkpt lat="47.285434026271105" lon="6.935069002211094">
        <ele>737.95000000000005</ele>
        <time>2016-07-26T15:02:36Z</time>
      </trkpt>
      <trkpt lat="47.285302011296153" lon="6.935061039403081">
        <ele>736.99000000000001</ele>
        <time>2016-07-26T15:02:37Z</time>
      </trkpt>
      <trkpt lat="47.285160021856427" lon="6.935027008876205">
        <ele>737.47000000000003</ele>
        <time>2016-07-26T15:02:38Z</time>
      </trkpt>
      <trkpt lat="47.285029012709856" lon="6.934998007491231">
        <ele>736.99000000000001</ele>
        <time>2016-07-26T15:02:39Z</time>
      </trkpt>
      <trkpt lat="47.2846710216254" lon="6.934970011934638">
        <ele>735.07000000000005</ele>
        <time>2016-07-26T15:02:42Z</time>
      </trkpt>
      <trkpt lat="47.284532971680164" lon="6.935029020532966">
        <ele>736.99000000000001</ele>
        <time>2016-07-26T15:02:43Z</time>
      </trkpt>
      <trkpt lat="47.28441596031189" lon="6.935108983889222">
        <ele>737.47000000000003</ele>
        <time>2016-07-26T15:02:44Z</time>
      </trkpt>
      <trkpt lat="47.283936012536287" lon="6.935482984408736">
        <ele>736.50999999999999</ele>
        <time>2016-07-26T15:02:48Z</time>
      </trkpt>
      <trkpt lat="47.283815983682871" lon="6.935508968308568">
        <ele>736.50999999999999</ele>
        <time>2016-07-26T15:02:49Z</time>
      </trkpt>
      <trkpt lat="47.28370601311326" lon="6.935478039085865">
        <ele>736.50999999999999</ele>
        <time>2016-07-26T15:02:50Z</time>
      </trkpt>
      <trkpt lat="47.283517001196742" lon="6.93529698997736">
        <ele>735.07000000000005</ele>
        <time>2016-07-26T15:02:52Z</time>
      </trkpt>
      <trkpt lat="47.283424967899919" lon="6.935181990265846">
        <ele>734.10000000000002</ele>
        <time>2016-07-26T15:02:53Z</time>
      </trkpt>
      <trkpt lat="47.282660035416484" lon="6.933907018974423">
        <ele>729.29999999999995</ele>
        <time>2016-07-26T15:03:01Z</time>
      </trkpt>
      <trkpt lat="47.281797034665942" lon="6.932405987754464">
        <ele>722.09000000000003</ele>
        <time>2016-07-26T15:03:09Z</time>
      </trkpt>
      <trkpt lat="47.280300026759505" lon="6.930445041507483">
        <ele>716.79999999999995</ele>
        <time>2016-07-26T15:03:21Z</time>
      </trkpt>
      <trkpt lat="47.280214028432965" lon="6.930272039026022">
        <ele>715.84000000000003</ele>
        <time>2016-07-26T15:03:22Z</time>
      </trkpt>
      <trkpt lat="47.280142027884722" lon="6.930072968825698">
        <ele>714.88</ele>
        <time>2016-07-26T15:03:23Z</time>
      </trkpt>
      <trkpt lat="47.279426967725158" lon="6.928139012306929">
        <ele>711.50999999999999</ele>
        <time>2016-07-26T15:03:32Z</time>
      </trkpt>
      <trkpt lat="47.279347004368901" lon="6.928023006767035">
        <ele>711.02999999999997</ele>
        <time>2016-07-26T15:03:33Z</time>
      </trkpt>
      <trkpt lat="47.279262011870742" lon="6.927938014268875">
        <ele>710.07000000000005</ele>
        <time>2016-07-26T15:03:34Z</time>
      </trkpt>
      <trkpt lat="47.279153969138861" lon="6.927872970700264">
        <ele>709.11000000000001</ele>
        <time>2016-07-26T15:03:35Z</time>
      </trkpt>
      <trkpt lat="47.279031006619334" lon="6.927914964035153">
        <ele>708.63</ele>
        <time>2016-07-26T15:03:36Z</time>
      </trkpt>
      <trkpt lat="47.278921036049724" lon="6.927957041189075">
        <ele>708.63</ele>
        <time>2016-07-26T15:03:37Z</time>
      </trkpt>
      <trkpt lat="47.278831014409661" lon="6.928057037293911">
        <ele>708.63</ele>
        <time>2016-07-26T15:03:38Z</time>
      </trkpt>
      <trkpt lat="47.278769994154572" lon="6.928202966228128">
        <ele>706.23000000000002</ele>
        <time>2016-07-26T15:03:39Z</time>
      </trkpt>
      <trkpt lat="47.278720960021019" lon="6.928351996466517">
        <ele>705.75</ele>
        <time>2016-07-26T15:03:40Z</time>
      </trkpt>
      <trkpt lat="47.278692964464426" lon="6.9285290222615">
        <ele>705.25999999999999</ele>
        <time>2016-07-26T15:03:41Z</time>
      </trkpt>
      <trkpt lat="47.278681984171271" lon="6.928729014471173">
        <ele>704.29999999999995</ele>
        <time>2016-07-26T15:03:42Z</time>
      </trkpt>
      <trkpt lat="47.278674021363258" lon="6.928948033601046">
        <ele>703.82000000000005</ele>
        <time>2016-07-26T15:03:43Z</time>
      </trkpt>
      <trkpt lat="47.278618030250072" lon="6.930962959304452">
        <ele>697.57000000000005</ele>
        <time>2016-07-26T15:03:52Z</time>
      </trkpt>
      <trkpt lat="47.278538988903165" lon="6.931155994534493">
        <ele>697.09000000000003</ele>
        <time>2016-07-26T15:03:53Z</time>
      </trkpt>
      <trkpt lat="47.278437986969948" lon="6.931334026157856">
        <ele>696.13</ele>
        <time>2016-07-26T15:03:54Z</time>
      </trkpt>
      <trkpt lat="47.278257021680474" lon="6.931684976443648">
        <ele>694.21000000000004</ele>
        <time>2016-07-26T15:03:56Z</time>
      </trkpt>
      <trkpt lat="47.278185021132231" lon="6.931870970875025">
        <ele>693.73000000000002</ele>
        <time>2016-07-26T15:03:57Z</time>
      </trkpt>
      <trkpt lat="47.27814101614058" lon="6.932078003883362">
        <ele>693.25</ele>
        <time>2016-07-26T15:03:58Z</time>
      </trkpt>
      <trkpt lat="47.278103968128562" lon="6.932285036891699">
        <ele>692.28999999999996</ele>
        <time>2016-07-26T15:03:59Z</time>
      </trkpt>
      <trkpt lat="47.27807798422873" lon="6.932499026879668">
        <ele>691.80999999999995</ele>
        <time>2016-07-26T15:04:00Z</time>
      </trkpt>
      <trkpt lat="47.278069015592337" lon="6.932728020474315">
        <ele>691.33000000000004</ele>
        <time>2016-07-26T15:04:01Z</time>
      </trkpt>
      <trkpt lat="47.278067003935575" lon="6.932966988533735">
        <ele>691.33000000000004</ele>
        <time>2016-07-26T15:04:02Z</time>
      </trkpt>
      <trkpt lat="47.278035990893841" lon="6.935534030199051">
        <ele>687.96000000000004</ele>
        <time>2016-07-26T15:04:12Z</time>
      </trkpt>
      <trkpt lat="47.277960972860456" lon="6.937953969463706">
        <ele>680.75</ele>
        <time>2016-07-26T15:04:22Z</time>
      </trkpt>
      <trkpt lat="47.277931971475482" lon="6.938193021342158">
        <ele>680.26999999999998</ele>
        <time>2016-07-26T15:04:23Z</time>
      </trkpt>
      <trkpt lat="47.277884026989341" lon="6.938412040472031">
        <ele>679.30999999999995</ele>
        <time>2016-07-26T15:04:24Z</time>
      </trkpt>
      <trkpt lat="47.277817977592349" lon="6.938618989661336">
        <ele>677.38999999999999</ele>
        <time>2016-07-26T15:04:25Z</time>
      </trkpt>
      <trkpt lat="47.277728039771318" lon="6.938801966607571">
        <ele>674.98000000000002</ele>
        <time>2016-07-26T15:04:26Z</time>
      </trkpt>
      <trkpt lat="47.277621002867818" lon="6.938977986574173">
        <ele>673.05999999999995</ele>
        <time>2016-07-26T15:04:27Z</time>
      </trkpt>
      <trkpt lat="47.277509020641446" lon="6.939141014590859">
        <ele>672.58000000000004</ele>
        <time>2016-07-26T15:04:28Z</time>
      </trkpt>
      <trkpt lat="47.277385974302888" lon="6.939307982102037">
        <ele>671.62</ele>
        <time>2016-07-26T15:04:29Z</time>
      </trkpt>
      <trkpt lat="47.276894962415099" lon="6.939982976764441">
        <ele>667.28999999999996</ele>
        <time>2016-07-26T15:04:33Z</time>
      </trkpt>
      <trkpt lat="47.276798989623785" lon="6.940171988680959">
        <ele>666.33000000000004</ele>
        <time>2016-07-26T15:04:34Z</time>
      </trkpt>
      <trkpt lat="47.276726989075541" lon="6.94036896340549">
        <ele>665.85000000000002</ele>
        <time>2016-07-26T15:04:35Z</time>
      </trkpt>
      <trkpt lat="47.276555998250842" lon="6.940919989719987">
        <ele>664.40999999999997</ele>
        <time>2016-07-26T15:04:38Z</time>
      </trkpt>
      <trkpt lat="47.276463964954019" lon="6.941074971109629">
        <ele>662.49000000000001</ele>
        <time>2016-07-26T15:04:39Z</time>
      </trkpt>
      <trkpt lat="47.276366986334324" lon="6.941216038540006">
        <ele>662.00999999999999</ele>
        <time>2016-07-26T15:04:40Z</time>
      </trkpt>
      <trkpt lat="47.276261039078236" lon="6.941348975524306">
        <ele>661.51999999999998</ele>
        <time>2016-07-26T15:04:41Z</time>
      </trkpt>
      <trkpt lat="47.276148973032832" lon="6.941466992720962">
        <ele>661.03999999999996</ele>
        <time>2016-07-26T15:04:42Z</time>
      </trkpt>
      <trkpt lat="47.275516977533698" lon="6.942308032885194">
        <ele>655.27999999999997</ele>
        <time>2016-07-26T15:04:48Z</time>
      </trkpt>
      <trkpt lat="47.275193016976118" lon="6.943018985912204">
        <ele>652.87</ele>
        <time>2016-07-26T15:04:52Z</time>
      </trkpt>
      <trkpt lat="47.27509100921452" lon="6.943152006715536">
        <ele>651.90999999999997</ele>
        <time>2016-07-26T15:04:53Z</time>
      </trkpt>
      <trkpt lat="47.274955976754427" lon="6.943277986720204">
        <ele>649.99000000000001</ele>
        <time>2016-07-26T15:04:54Z</time>
      </trkpt>
      <trkpt lat="47.274186015129089" lon="6.943854996934533">
        <ele>644.70000000000005</ele>
        <time>2016-07-26T15:05:00Z</time>
      </trkpt>
      <trkpt lat="47.274048971012235" lon="6.943906964734197">
        <ele>643.74000000000001</ele>
        <time>2016-07-26T15:05:01Z</time>
      </trkpt>
      <trkpt lat="47.273912010714412" lon="6.943928003311157">
        <ele>643.25999999999999</ele>
        <time>2016-07-26T15:05:02Z</time>
      </trkpt>
      <trkpt lat="47.273777984082699" lon="6.9439119938761">
        <ele>642.29999999999995</ele>
        <time>2016-07-26T15:05:03Z</time>
      </trkpt>
      <trkpt lat="47.273641023784876" lon="6.943876035511494">
        <ele>641.34000000000003</ele>
        <time>2016-07-26T15:05:04Z</time>
      </trkpt>
      <trkpt lat="47.27349903434515" lon="6.943836975842714">
        <ele>640.38</ele>
        <time>2016-07-26T15:05:05Z</time>
      </trkpt>
      <trkpt lat="47.273353021591902" lon="6.943809986114502">
        <ele>639.88999999999999</ele>
        <time>2016-07-26T15:05:06Z</time>
      </trkpt>
      <trkpt lat="47.273206003010273" lon="6.943800011649728">
        <ele>638.92999999999995</ele>
        <time>2016-07-26T15:05:07Z</time>
      </trkpt>
      <trkpt lat="47.273059990257025" lon="6.943820966407657">
        <ele>637.97000000000003</ele>
        <time>2016-07-26T15:05:08Z</time>
      </trkpt>
      <trkpt lat="47.272921018302441" lon="6.943865977227688">
        <ele>637.49000000000001</ele>
        <time>2016-07-26T15:05:09Z</time>
      </trkpt>
      <trkpt lat="47.272784980013967" lon="6.94393303245306">
        <ele>636.52999999999997</ele>
        <time>2016-07-26T15:05:10Z</time>
      </trkpt>
      <trkpt lat="47.272386001423001" lon="6.944168983027339">
        <ele>635.09000000000003</ele>
        <time>2016-07-26T15:05:13Z</time>
      </trkpt>
      <trkpt lat="47.272252980619669" lon="6.944218017160893">
        <ele>634.13</ele>
        <time>2016-07-26T15:05:14Z</time>
      </trkpt>
      <trkpt lat="47.27212599478662" lon="6.944203013554215">
        <ele>633.16999999999996</ele>
        <time>2016-07-26T15:05:15Z</time>
      </trkpt>
      <trkpt lat="47.271998003125191" lon="6.944144004955888">
        <ele>632.20000000000005</ele>
        <time>2016-07-26T15:05:16Z</time>
      </trkpt>
      <trkpt lat="47.271883003413677" lon="6.944079967215657">
        <ele>631.24000000000001</ele>
        <time>2016-07-26T15:05:17Z</time>
      </trkpt>
      <trkpt lat="47.271765992045403" lon="6.944033028557897">
        <ele>630.27999999999997</ele>
        <time>2016-07-26T15:05:18Z</time>
      </trkpt>
      <trkpt lat="47.271655015647411" lon="6.944027999415994">
        <ele>629.32000000000005</ele>
        <time>2016-07-26T15:05:19Z</time>
      </trkpt>
      <trkpt lat="47.27154596708715" lon="6.944057000800967">
        <ele>628.84000000000003</ele>
        <time>2016-07-26T15:05:20Z</time>
      </trkpt>
      <trkpt lat="47.271433984860778" lon="6.944124978035688">
        <ele>627.88</ele>
        <time>2016-07-26T15:05:21Z</time>
      </trkpt>
      <trkpt lat="47.271316973492503" lon="6.944206031039357">
        <ele>626.91999999999996</ele>
        <time>2016-07-26T15:05:22Z</time>
      </trkpt>
      <trkpt lat="47.270957976579666" lon="6.944563016295433">
        <ele>624.99000000000001</ele>
        <time>2016-07-26T15:05:25Z</time>
      </trkpt>
      <trkpt lat="47.270847000181675" lon="6.944725038483739">
        <ele>624.50999999999999</ele>
        <time>2016-07-26T15:05:26Z</time>
      </trkpt>
      <trkpt lat="47.27075002156198" lon="6.9448980409652">
        <ele>624.02999999999997</ele>
        <time>2016-07-26T15:05:27Z</time>
      </trkpt>
      <trkpt lat="47.270668968558311" lon="6.945089986547828">
        <ele>623.54999999999995</ele>
        <time>2016-07-26T15:05:28Z</time>
      </trkpt>
      <trkpt lat="47.270593028515577" lon="6.945290984585881">
        <ele>622.59000000000003</ele>
        <time>2016-07-26T15:05:29Z</time>
      </trkpt>
      <trkpt lat="47.270519016310573" lon="6.945497011765838">
        <ele>621.63</ele>
        <time>2016-07-26T15:05:30Z</time>
      </trkpt>
      <trkpt lat="47.270189020782709" lon="6.946273008361459">
        <ele>619.23000000000002</ele>
        <time>2016-07-26T15:05:34Z</time>
      </trkpt>
      <trkpt lat="47.270005038008094" lon="6.946562016382814">
        <ele>618.25999999999999</ele>
        <time>2016-07-26T15:05:36Z</time>
      </trkpt>
      <trkpt lat="47.269871011376381" lon="6.946665029972792">
        <ele>617.29999999999995</ele>
        <time>2016-07-26T15:05:37Z</time>
      </trkpt>
      <trkpt lat="47.269730027765036" lon="6.946755973622203">
        <ele>617.29999999999995</ele>
        <time>2016-07-26T15:05:38Z</time>
      </trkpt>
      <trkpt lat="47.269598012790084" lon="6.946820011362433">
        <ele>616.82000000000005</ele>
        <time>2016-07-26T15:05:39Z</time>
      </trkpt>
      <trkpt lat="47.269459962844849" lon="6.946893017739058">
        <ele>615.86000000000001</ele>
        <time>2016-07-26T15:05:40Z</time>
      </trkpt>
      <trkpt lat="47.269306993111968" lon="6.946938028559089">
        <ele>615.38</ele>
        <time>2016-07-26T15:05:41Z</time>
      </trkpt>
      <trkpt lat="47.269143965095282" lon="6.946967029944062">
        <ele>613.94000000000005</ele>
        <time>2016-07-26T15:05:42Z</time>
      </trkpt>
      <trkpt lat="47.268973980098963" lon="6.946967029944062">
        <ele>612.5</ele>
        <time>2016-07-26T15:05:43Z</time>
      </trkpt>
      <trkpt lat="47.268806006759405" lon="6.946956971660256">
        <ele>611.05999999999995</ele>
        <time>2016-07-26T15:05:44Z</time>
      </trkpt>
      <trkpt lat="47.267575962468982" lon="6.946989996358752">
        <ele>602.88</ele>
        <time>2016-07-26T15:05:52Z</time>
      </trkpt>
      <trkpt lat="47.267134990543127" lon="6.946896035224199">
        <ele>600</ele>
        <time>2016-07-26T15:05:55Z</time>
      </trkpt>
      <trkpt lat="47.266996018588543" lon="6.946895029395819">
        <ele>599.03999999999996</ele>
        <time>2016-07-26T15:05:56Z</time>
      </trkpt>
      <trkpt lat="47.266868026927114" lon="6.946906009688973">
        <ele>598.55999999999995</ele>
        <time>2016-07-26T15:05:57Z</time>
      </trkpt>
      <trkpt lat="47.266516992822289" lon="6.946930987760425">
        <ele>596.14999999999998</ele>
        <time>2016-07-26T15:06:00Z</time>
      </trkpt>
      <trkpt lat="47.266408028081059" lon="6.946879019960761">
        <ele>595.19000000000005</ele>
        <time>2016-07-26T15:06:01Z</time>
      </trkpt>
      <trkpt lat="47.266310965642333" lon="6.94677097722888">
        <ele>594.71000000000004</ele>
        <time>2016-07-26T15:06:02Z</time>
      </trkpt>
      <trkpt lat="47.266212981194258" lon="6.946650026366115">
        <ele>594.23000000000002</ele>
        <time>2016-07-26T15:06:03Z</time>
      </trkpt>
      <trkpt lat="47.266114996746182" lon="6.946523040533066">
        <ele>593.75</ele>
        <time>2016-07-26T15:06:04Z</time>
      </trkpt>
      <trkpt lat="47.265480989590287" lon="6.945723993703723">
        <ele>588.95000000000005</ele>
        <time>2016-07-26T15:06:10Z</time>
      </trkpt>
      <trkpt lat="47.265349980443716" lon="6.945643024519086">
        <ele>587.98000000000002</ele>
        <time>2016-07-26T15:06:11Z</time>
      </trkpt>
      <trkpt lat="47.265208996832371" lon="6.945612011477351">
        <ele>587.01999999999998</ele>
        <time>2016-07-26T15:06:12Z</time>
      </trkpt>
      <trkpt lat="47.265071030706167" lon="6.94563296623528">
        <ele>586.53999999999996</ele>
        <time>2016-07-26T15:06:13Z</time>
      </trkpt>
      <trkpt lat="47.26492996327579" lon="6.945697003975511">
        <ele>586.05999999999995</ele>
        <time>2016-07-26T15:06:14Z</time>
      </trkpt>
      <trkpt lat="47.264793002977967" lon="6.945764981210232">
        <ele>585.58000000000004</ele>
        <time>2016-07-26T15:06:15Z</time>
      </trkpt>
      <trkpt lat="47.264654031023383" lon="6.945823989808559">
        <ele>585.10000000000002</ele>
        <time>2016-07-26T15:06:16Z</time>
      </trkpt>
      <trkpt lat="47.264508018270135" lon="6.945876963436604">
        <ele>584.13999999999999</ele>
        <time>2016-07-26T15:06:17Z</time>
      </trkpt>
      <trkpt lat="47.264185985550284" lon="6.946000009775162">
        <ele>582.22000000000003</ele>
        <time>2016-07-26T15:06:19Z</time>
      </trkpt>
      <trkpt lat="47.264045001938939" lon="6.946090031415224">
        <ele>580.76999999999998</ele>
        <time>2016-07-26T15:06:20Z</time>
      </trkpt>
      <trkpt lat="47.2637880127877" lon="6.946246018633246">
        <ele>577.40999999999997</ele>
        <time>2016-07-26T15:06:22Z</time>
      </trkpt>
      <trkpt lat="47.263654991984367" lon="6.946288011968136">
        <ele>576.92999999999995</ele>
        <time>2016-07-26T15:06:23Z</time>
      </trkpt>
      <trkpt lat="47.263522977009416" lon="6.946281976997852">
        <ele>576.45000000000005</ele>
        <time>2016-07-26T15:06:24Z</time>
      </trkpt>
      <trkpt lat="47.263390040025115" lon="6.946248030290008">
        <ele>576.45000000000005</ele>
        <time>2016-07-26T15:06:25Z</time>
      </trkpt>
      <trkpt lat="47.263261964544654" lon="6.946207964792848">
        <ele>575.49000000000001</ele>
        <time>2016-07-26T15:06:26Z</time>
      </trkpt>
      <trkpt lat="47.26277899928391" lon="6.946036973968148">
        <ele>573.55999999999995</ele>
        <time>2016-07-26T15:06:30Z</time>
      </trkpt>
      <trkpt lat="47.262667017057538" lon="6.945959022268653">
        <ele>572.12</ele>
        <time>2016-07-26T15:06:31Z</time>
      </trkpt>
      <trkpt lat="47.26256400346756" lon="6.945871012285352">
        <ele>572.12</ele>
        <time>2016-07-26T15:06:32Z</time>
      </trkpt>
      <trkpt lat="47.262354036793113" lon="6.945708990097046">
        <ele>570.67999999999995</ele>
        <time>2016-07-26T15:06:34Z</time>
      </trkpt>
      <trkpt lat="47.262239037081599" lon="6.945655010640621">
        <ele>569.72000000000003</ele>
        <time>2016-07-26T15:06:35Z</time>
      </trkpt>
      <trkpt lat="47.262124959379435" lon="6.945636989548802">
        <ele>569.24000000000001</ele>
        <time>2016-07-26T15:06:36Z</time>
      </trkpt>
      <trkpt lat="47.262011971324682" lon="6.94565299898386">
        <ele>568.27999999999997</ele>
        <time>2016-07-26T15:06:37Z</time>
      </trkpt>
      <trkpt lat="47.261910969391465" lon="6.94569599814713">
        <ele>567.79999999999995</ele>
        <time>2016-07-26T15:06:38Z</time>
      </trkpt>
      <trkpt lat="47.261810973286629" lon="6.945763975381851">
        <ele>567.32000000000005</ele>
        <time>2016-07-26T15:06:39Z</time>
      </trkpt>
      <trkpt lat="47.261713994666934" lon="6.945834970101714">
        <ele>567.32000000000005</ele>
        <time>2016-07-26T15:06:40Z</time>
      </trkpt>
      <trkpt lat="47.261520037427545" lon="6.945936977863312">
        <ele>566.83000000000004</ele>
        <time>2016-07-26T15:06:42Z</time>
      </trkpt>
      <trkpt lat="47.261419035494328" lon="6.945950975641608">
        <ele>566.83000000000004</ele>
        <time>2016-07-26T15:06:43Z</time>
      </trkpt>
      <trkpt lat="47.26131803356111" lon="6.945946030318737">
        <ele>566.35000000000002</ele>
        <time>2016-07-26T15:06:44Z</time>
      </trkpt>
      <trkpt lat="47.260397030040622" lon="6.945876963436604">
        <ele>561.07000000000005</ele>
        <time>2016-07-26T15:06:53Z</time>
      </trkpt>
      <trkpt lat="47.260303990915418" lon="6.945916023105383">
        <ele>561.07000000000005</ele>
        <time>2016-07-26T15:06:54Z</time>
      </trkpt>
      <trkpt lat="47.260216986760497" lon="6.945975031703711">
        <ele>560.59000000000003</ele>
        <time>2016-07-26T15:06:55Z</time>
      </trkpt>
      <trkpt lat="47.260138029232621" lon="6.94603999145329">
        <ele>560.59000000000003</ele>
        <time>2016-07-26T15:06:56Z</time>
      </trkpt>
      <trkpt lat="47.260068040341139" lon="6.946120038628578">
        <ele>561.07000000000005</ele>
        <time>2016-07-26T15:06:57Z</time>
      </trkpt>
      <trkpt lat="47.260008025914431" lon="6.946205031126738">
        <ele>561.54999999999995</ele>
        <time>2016-07-26T15:06:58Z</time>
      </trkpt>
      <trkpt lat="47.259827982634306" lon="6.946359006687999">
        <ele>561.07000000000005</ele>
        <time>2016-07-26T15:07:00Z</time>
      </trkpt>
      <trkpt lat="47.259719017893076" lon="6.946407034993172">
        <ele>561.07000000000005</ele>
        <time>2016-07-26T15:07:01Z</time>
      </trkpt>
      <trkpt lat="47.259593959897757" lon="6.946422960609198">
        <ele>561.07000000000005</ele>
        <time>2016-07-26T15:07:02Z</time>
      </trkpt>
      <trkpt lat="47.259462028741837" lon="6.946408962830901">
        <ele>560.59000000000003</ele>
        <time>2016-07-26T15:07:03Z</time>
      </trkpt>
      <trkpt lat="47.259323978796601" lon="6.946387002244592">
        <ele>560.59000000000003</ele>
        <time>2016-07-26T15:07:04Z</time>
      </trkpt>
      <trkpt lat="47.258038027212024" lon="6.946246018633246">
        <ele>555.77999999999997</ele>
        <time>2016-07-26T15:07:14Z</time>
      </trkpt>
      <trkpt lat="47.25792596116662" lon="6.946209976449609">
        <ele>554.34000000000003</ele>
        <time>2016-07-26T15:07:15Z</time>
      </trkpt>
      <trkpt lat="47.257826970890164" lon="6.946145016700029">
        <ele>551.92999999999995</ele>
        <time>2016-07-26T15:07:16Z</time>
      </trkpt>
      <trkpt lat="47.257738038897514" lon="6.946052983403206">
        <ele>550.49000000000001</ele>
        <time>2016-07-26T15:07:17Z</time>
      </trkpt>
      <trkpt lat="47.257668972015381" lon="6.945933038368821">
        <ele>548.57000000000005</ele>
        <time>2016-07-26T15:07:18Z</time>
      </trkpt>
      <trkpt lat="47.257599988952279" lon="6.945810997858644">
        <ele>547.61000000000001</ele>
        <time>2016-07-26T15:07:19Z</time>
      </trkpt>
      <trkpt lat="47.257426986470819" lon="6.945597007870674">
        <ele>545.69000000000005</ele>
        <time>2016-07-26T15:07:21Z</time>
      </trkpt>
      <trkpt lat="47.256387965753675" lon="6.944538960233331">
        <ele>535.11000000000001</ele>
        <time>2016-07-26T15:07:32Z</time>
      </trkpt>
      <trkpt lat="47.256300039589405" lon="6.944505013525486">
        <ele>534.14999999999998</ele>
        <time>2016-07-26T15:07:33Z</time>
      </trkpt>
      <trkpt lat="47.256217980757356" lon="6.944507025182247">
        <ele>533.66999999999996</ele>
        <time>2016-07-26T15:07:34Z</time>
      </trkpt>
      <trkpt lat="47.256137011572719" lon="6.944506019353867">
        <ele>532.71000000000004</ele>
        <time>2016-07-26T15:07:35Z</time>
      </trkpt>
      <trkpt lat="47.256074985489249" lon="6.944568967446685">
        <ele>531.75</ele>
        <time>2016-07-26T15:07:36Z</time>
      </trkpt>
      <trkpt lat="47.256027041003108" lon="6.944678016006947">
        <ele>531.26999999999998</ele>
        <time>2016-07-26T15:07:37Z</time>
      </trkpt>
      <trkpt lat="47.255998039618134" lon="6.944786980748177">
        <ele>530.78999999999996</ele>
        <time>2016-07-26T15:07:38Z</time>
      </trkpt>
      <trkpt lat="47.255984963849187" lon="6.944920001551509">
        <ele>530.29999999999995</ele>
        <time>2016-07-26T15:07:39Z</time>
      </trkpt>
      <trkpt lat="47.256016982719302" lon="6.945042964071035">
        <ele>530.29999999999995</ele>
        <time>2016-07-26T15:07:40Z</time>
      </trkpt>
      <trkpt lat="47.256084959954023" lon="6.945132985711098">
        <ele>530.29999999999995</ele>
        <time>2016-07-26T15:07:41Z</time>
      </trkpt>
      <trkpt lat="47.256169030442834" lon="6.945218984037638">
        <ele>531.26999999999998</ele>
        <time>2016-07-26T15:07:42Z</time>
      </trkpt>
      <trkpt lat="47.256265003234148" lon="6.94528897292912">
        <ele>530.29999999999995</ele>
        <time>2016-07-26T15:07:43Z</time>
      </trkpt>
      <trkpt lat="47.257189024239779" lon="6.946105035021901">
        <ele>525.5</ele>
        <time>2016-07-26T15:07:51Z</time>
      </trkpt>
      <trkpt lat="47.258101981133223" lon="6.947165010496974">
        <ele>519.25</ele>
        <time>2016-07-26T15:08:01Z</time>
      </trkpt>
      <trkpt lat="47.258172975853086" lon="6.947298031300306">
        <ele>519.25</ele>
        <time>2016-07-26T15:08:02Z</time>
      </trkpt>
      <trkpt lat="47.258231984451413" lon="6.947449995204806">
        <ele>518.76999999999998</ele>
        <time>2016-07-26T15:08:03Z</time>
      </trkpt>
      <trkpt lat="47.258397024124861" lon="6.947922986000776">
        <ele>516.85000000000002</ele>
        <time>2016-07-26T15:08:06Z</time>
      </trkpt>
      <trkpt lat="47.258465001359582" lon="6.948066987097263">
        <ele>515.88</ele>
        <time>2016-07-26T15:08:07Z</time>
      </trkpt>
      <trkpt lat="47.258549993857741" lon="6.948201013728976">
        <ele>515.39999999999998</ele>
        <time>2016-07-26T15:08:08Z</time>
      </trkpt>
      <trkpt lat="47.258650995790958" lon="6.948312995955348">
        <ele>514.44000000000005</ele>
        <time>2016-07-26T15:08:09Z</time>
      </trkpt>
      <trkpt lat="47.25876197218895" lon="6.948408968746662">
        <ele>513.48000000000002</ele>
        <time>2016-07-26T15:08:10Z</time>
      </trkpt>
      <trkpt lat="47.258884012699127" lon="6.948481975123286">
        <ele>512.03999999999996</ele>
        <time>2016-07-26T15:08:11Z</time>
      </trkpt>
      <trkpt lat="47.259013010188937" lon="6.948538972064853">
        <ele>511.07999999999998</ele>
        <time>2016-07-26T15:08:12Z</time>
      </trkpt>
      <trkpt lat="47.259144019335508" lon="6.948593035340309">
        <ele>510.12</ele>
        <time>2016-07-26T15:08:13Z</time>
      </trkpt>
      <trkpt lat="47.259981036186218" lon="6.948939962312579">
        <ele>507.70999999999998</ele>
        <time>2016-07-26T15:08:21Z</time>
      </trkpt>
      <trkpt lat="47.261105971410871" lon="6.949602970853448">
        <ele>506.26999999999998</ele>
        <time>2016-07-26T15:08:36Z</time>
      </trkpt>
      <trkpt lat="47.261351980268955" lon="6.949773961678147">
        <ele>505.31</ele>
        <time>2016-07-26T15:08:40Z</time>
      </trkpt>
      <trkpt lat="47.261646017432213" lon="6.950018964707851">
        <ele>503.38999999999999</ele>
        <time>2016-07-26T15:08:47Z</time>
      </trkpt>
      <trkpt lat="47.261681975796819" lon="6.950070010498166">
        <ele>502.43000000000001</ele>
        <time>2016-07-26T15:08:48Z</time>
      </trkpt>
      <trkpt lat="47.261702008545399" lon="6.950137987732887">
        <ele>502.43000000000001</ele>
        <time>2016-07-26T15:08:49Z</time>
      </trkpt>
      <trkpt lat="47.261718017980456" lon="6.950224991887808">
        <ele>501.94999999999999</ele>
        <time>2016-07-26T15:08:50Z</time>
      </trkpt>
      <trkpt lat="47.261722963303328" lon="6.950316019356251">
        <ele>501.45999999999998</ele>
        <time>2016-07-26T15:08:51Z</time>
      </trkpt>
      <trkpt lat="47.261722963303328" lon="6.950404029339552">
        <ele>501.45999999999998</ele>
        <time>2016-07-26T15:08:52Z</time>
      </trkpt>
      <trkpt lat="47.261721035465598" lon="6.950501007959247">
        <ele>500.98000000000002</ele>
        <time>2016-07-26T15:08:53Z</time>
      </trkpt>
      <trkpt lat="47.261621961370111" lon="6.951587973162532">
        <ele>496.18000000000001</ele>
        <time>2016-07-26T15:09:07Z</time>
      </trkpt>
      <trkpt lat="47.261621961370111" lon="6.951626027002931">
        <ele>495.69999999999999</ele>
        <time>2016-07-26T15:09:09Z</time>
      </trkpt>
      <trkpt lat="47.261724974960089" lon="6.951708002015948">
        <ele>494.25999999999999</ele>
        <time>2016-07-26T15:09:13Z</time>
      </trkpt>
      <trkpt lat="47.261826982721686" lon="6.951686041429639">
        <ele>494.25999999999999</ele>
        <time>2016-07-26T15:09:18Z</time>
      </trkpt>
      <trkpt lat="47.262000991031528" lon="6.951716970652342">
        <ele>491.85000000000002</ele>
        <time>2016-07-26T15:09:29Z</time>
      </trkpt>
      <trkpt lat="47.262042984366417" lon="6.951699033379555">
        <ele>487.05000000000001</ele>
        <time>2016-07-26T15:09:54Z</time>
      </trkpt>
      <trkpt lat="47.262167036533356" lon="6.951933978125453">
        <ele>411.10000000000002</ele>
        <time>2016-07-26T15:50:34Z</time>
      </trkpt>
      <trkpt lat="47.262126971036196" lon="6.951961973682046">
        <ele>424.56</ele>
        <time>2016-07-26T15:51:24Z</time>
      </trkpt>
      <trkpt lat="47.262123031541705" lon="6.951913023367524">
        <ele>433.20999999999998</ele>
        <time>2016-07-26T15:52:07Z</time>
      </trkpt>
      <trkpt lat="47.262093024328351" lon="6.951892990618944">
        <ele>434.64999999999998</ele>
        <time>2016-07-26T15:52:40Z</time>
      </trkpt>
      <trkpt lat="47.262111967429519" lon="6.951974965631962">
        <ele>443.79000000000002</ele>
        <time>2016-07-26T15:52:56Z</time>
      </trkpt>
      <trkpt lat="47.262234007939696" lon="6.951978988945484">
        <ele>449.55000000000001</ele>
        <time>2016-07-26T15:53:04Z</time>
      </trkpt>
      <trkpt lat="47.262217998504639" lon="6.951918974518776">
        <ele>455.80000000000001</ele>
        <time>2016-07-26T15:53:16Z</time>
      </trkpt>
      <trkpt lat="47.262238031253219" lon="6.951869018375874">
        <ele>458.69</ele>
        <time>2016-07-26T15:54:16Z</time>
      </trkpt>
      <trkpt lat="47.262225961312652" lon="6.951858960092068">
        <ele>471.66000000000003</ele>
        <time>2016-07-26T15:55:25Z</time>
      </trkpt>
      <trkpt lat="47.262185979634523" lon="6.951850997284055">
        <ele>471.66000000000003</ele>
        <time>2016-07-26T15:55:26Z</time>
      </trkpt>
      <trkpt lat="47.262147003784776" lon="6.9518400169909">
        <ele>472.13999999999999</ele>
        <time>2016-07-26T15:55:27Z</time>
      </trkpt>
      <trkpt lat="47.261909041553736" lon="6.951717976480722">
        <ele>480.80000000000001</ele>
        <time>2016-07-26T15:55:35Z</time>
      </trkpt>
      <trkpt lat="47.261900994926691" lon="6.951725017279387">
        <ele>480.80000000000001</ele>
        <time>2016-07-26T15:55:36Z</time>
      </trkpt>
      <trkpt lat="47.261777026578784" lon="6.951841022819281">
        <ele>482.72000000000003</ele>
        <time>2016-07-26T15:55:39Z</time>
      </trkpt>
      <trkpt lat="47.261612992733717" lon="6.952011007815599">
        <ele>483.19999999999999</ele>
        <time>2016-07-26T15:55:42Z</time>
      </trkpt>
      <trkpt lat="47.261501010507345" lon="6.952039003372192">
        <ele>483.68000000000001</ele>
        <time>2016-07-26T15:55:43Z</time>
      </trkpt>
      <trkpt lat="47.261431021615863" lon="6.952046966180205">
        <ele>485.60000000000002</ele>
        <time>2016-07-26T15:55:44Z</time>
      </trkpt>
      <trkpt lat="47.26136296056211" lon="6.952027017250657">
        <ele>486.07999999999998</ele>
        <time>2016-07-26T15:55:45Z</time>
      </trkpt>
      <trkpt lat="47.261287020519376" lon="6.951984018087387">
        <ele>486.56</ele>
        <time>2016-07-26T15:55:46Z</time>
      </trkpt>
      <trkpt lat="47.261204961687326" lon="6.951913023367524">
        <ele>487.52999999999997</ele>
        <time>2016-07-26T15:55:47Z</time>
      </trkpt>
      <trkpt lat="47.261118963360786" lon="6.951834987848997">
        <ele>487.52999999999997</ele>
        <time>2016-07-26T15:55:48Z</time>
      </trkpt>
      <trkpt lat="47.260095030069351" lon="6.951438020914793">
        <ele>487.52999999999997</ele>
        <time>2016-07-26T15:55:56Z</time>
      </trkpt>
      <trkpt lat="47.25858997553587" lon="6.950993025675416">
        <ele>498.10000000000002</ele>
        <time>2016-07-26T15:56:05Z</time>
      </trkpt>
      <trkpt lat="47.25672198459506" lon="6.950607961043716">
        <ele>508.19</ele>
        <time>2016-07-26T15:56:15Z</time>
      </trkpt>
      <trkpt lat="47.25532497279346" lon="6.950440993532538">
        <ele>520.69000000000005</ele>
        <time>2016-07-26T15:56:22Z</time>
      </trkpt>
      <trkpt lat="47.255135038867593" lon="6.950356001034379">
        <ele>523.09000000000003</ele>
        <time>2016-07-26T15:56:23Z</time>
      </trkpt>
      <trkpt lat="47.254948038607836" lon="6.950246030464768">
        <ele>525.01999999999998</ele>
        <time>2016-07-26T15:56:24Z</time>
      </trkpt>
      <trkpt lat="47.254061987623572" lon="6.949518984183669">
        <ele>530.78999999999996</ele>
        <time>2016-07-26T15:56:30Z</time>
      </trkpt>
      <trkpt lat="47.253939025104046" lon="6.949436003342271">
        <ele>532.23000000000002</ele>
        <time>2016-07-26T15:56:31Z</time>
      </trkpt>
      <trkpt lat="47.253822013735771" lon="6.949383029714227">
        <ele>533.19000000000005</ele>
        <time>2016-07-26T15:56:32Z</time>
      </trkpt>
      <trkpt lat="47.253715982660651" lon="6.949357967823744">
        <ele>534.63</ele>
        <time>2016-07-26T15:56:33Z</time>
      </trkpt>
      <trkpt lat="47.253646999597549" lon="6.949362996965647">
        <ele>536.07000000000005</ele>
        <time>2016-07-26T15:56:34Z</time>
      </trkpt>
      <trkpt lat="47.25358497351408" lon="6.949417982250452">
        <ele>537.02999999999997</ele>
        <time>2016-07-26T15:56:35Z</time>
      </trkpt>
      <trkpt lat="47.253540968522429" lon="6.949509009718895">
        <ele>537.50999999999999</ele>
        <time>2016-07-26T15:56:36Z</time>
      </trkpt>
      <trkpt lat="47.253559995442629" lon="6.94962602108717">
        <ele>538.96000000000004</ele>
        <time>2016-07-26T15:56:37Z</time>
      </trkpt>
      <trkpt lat="47.253622021526098" lon="6.949770022183657">
        <ele>540.88</ele>
        <time>2016-07-26T15:56:38Z</time>
      </trkpt>
      <trkpt lat="47.253705002367496" lon="6.949888961389661">
        <ele>542.32000000000005</ele>
        <time>2016-07-26T15:56:39Z</time>
      </trkpt>
      <trkpt lat="47.25379703566432" lon="6.950024999678135">
        <ele>543.27999999999997</ele>
        <time>2016-07-26T15:56:40Z</time>
      </trkpt>
      <trkpt lat="47.253902982920408" lon="6.950169000774622">
        <ele>544.72000000000003</ele>
        <time>2016-07-26T15:56:41Z</time>
      </trkpt>
      <trkpt lat="47.254849970340729" lon="6.951335007324815">
        <ele>553.38</ele>
        <time>2016-07-26T15:56:48Z</time>
      </trkpt>
      <trkpt lat="47.255378030240536" lon="6.952020982280374">
        <ele>558.17999999999995</ele>
        <time>2016-07-26T15:56:52Z</time>
      </trkpt>
      <trkpt lat="47.255477020516992" lon="6.952211000025272">
        <ele>559.62</ele>
        <time>2016-07-26T15:56:53Z</time>
      </trkpt>
      <trkpt lat="47.255536029115319" lon="6.952401017770171">
        <ele>561.07000000000005</ele>
        <time>2016-07-26T15:56:54Z</time>
      </trkpt>
      <trkpt lat="47.255525970831513" lon="6.952576031908393">
        <ele>562.02999999999997</ele>
        <time>2016-07-26T15:56:55Z</time>
      </trkpt>
      <trkpt lat="47.255480038002133" lon="6.952755991369486">
        <ele>562.99000000000001</ele>
        <time>2016-07-26T15:56:56Z</time>
      </trkpt>
      <trkpt lat="47.255403008311987" lon="6.952940979972482">
        <ele>563.95000000000005</ele>
        <time>2016-07-26T15:56:57Z</time>
      </trkpt>
      <trkpt lat="47.255342993885279" lon="6.953147007152438">
        <ele>564.90999999999997</ele>
        <time>2016-07-26T15:56:58Z</time>
      </trkpt>
      <trkpt lat="47.255262024700642" lon="6.953364014625549">
        <ele>566.35000000000002</ele>
        <time>2016-07-26T15:56:59Z</time>
      </trkpt>
      <trkpt lat="47.255179965868592" lon="6.953588984906673">
        <ele>567.79999999999995</ele>
        <time>2016-07-26T15:57:00Z</time>
      </trkpt>
      <trkpt lat="47.254680991172791" lon="6.954746022820473">
        <ele>575.00999999999999</ele>
        <time>2016-07-26T15:57:05Z</time>
      </trkpt>
      <trkpt lat="47.254635980352759" lon="6.954993037506938">
        <ele>575.97000000000003</ele>
        <time>2016-07-26T15:57:06Z</time>
      </trkpt>
      <trkpt lat="47.254621982574463" lon="6.955238962545991">
        <ele>576.92999999999995</ele>
        <time>2016-07-26T15:57:07Z</time>
      </trkpt>
      <trkpt lat="47.254650983959436" lon="6.955497963353992">
        <ele>577.88999999999999</ele>
        <time>2016-07-26T15:57:08Z</time>
      </trkpt>
      <trkpt lat="47.254705969244242" lon="6.955755036324263">
        <ele>579.80999999999995</ele>
        <time>2016-07-26T15:57:09Z</time>
      </trkpt>
      <trkpt lat="47.254777969792485" lon="6.955995010212064">
        <ele>581.73000000000002</ele>
        <time>2016-07-26T15:57:10Z</time>
      </trkpt>
      <trkpt lat="47.254821974784136" lon="6.95637496188283">
        <ele>587.98000000000002</ele>
        <time>2016-07-26T15:57:12Z</time>
      </trkpt>
      <trkpt lat="47.254908978939056" lon="6.956542013213038">
        <ele>590.38999999999999</ele>
        <time>2016-07-26T15:57:13Z</time>
      </trkpt>
      <trkpt lat="47.25504501722753" lon="6.956667993217707">
        <ele>593.26999999999998</ele>
        <time>2016-07-26T15:57:14Z</time>
      </trkpt>
      <trkpt lat="47.25594699382782" lon="6.957798963412643">
        <ele>606.25</ele>
        <time>2016-07-26T15:57:21Z</time>
      </trkpt>
      <trkpt lat="47.256134999915957" lon="6.958137005567551">
        <ele>607.69000000000005</ele>
        <time>2016-07-26T15:57:23Z</time>
      </trkpt>
      <trkpt lat="47.256166012957692" lon="6.958314031362534">
        <ele>609.13</ele>
        <time>2016-07-26T15:57:24Z</time>
      </trkpt>
      <trkpt lat="47.256143968552351" lon="6.95847898721695">
        <ele>610.57000000000005</ele>
        <time>2016-07-26T15:57:25Z</time>
      </trkpt>
      <trkpt lat="47.256083032116294" lon="6.958631034940481">
        <ele>611.53999999999996</ele>
        <time>2016-07-26T15:57:26Z</time>
      </trkpt>
      <trkpt lat="47.255955040454865" lon="6.958743017166853">
        <ele>612.98000000000002</ele>
        <time>2016-07-26T15:57:27Z</time>
      </trkpt>
      <trkpt lat="47.255813973024487" lon="6.958846030756831">
        <ele>614.89999999999998</ele>
        <time>2016-07-26T15:57:28Z</time>
      </trkpt>
      <trkpt lat="47.254706975072622" lon="6.959599982947111">
        <ele>624.50999999999999</ele>
        <time>2016-07-26T15:57:36Z</time>
      </trkpt>
      <trkpt lat="47.252651983872056" lon="6.96082198061049">
        <ele>638.92999999999995</ele>
        <time>2016-07-26T15:57:52Z</time>
      </trkpt>
      <trkpt lat="47.252346966415644" lon="6.961226994171739">
        <ele>640.38</ele>
        <time>2016-07-26T15:57:55Z</time>
      </trkpt>
      <trkpt lat="47.252256022766232" lon="6.961387004703283">
        <ele>640.86000000000001</ele>
        <time>2016-07-26T15:57:56Z</time>
      </trkpt>
      <trkpt lat="47.25194999948144" lon="6.961865024641156">
        <ele>643.74000000000001</ele>
        <time>2016-07-26T15:57:59Z</time>
      </trkpt>
      <trkpt lat="47.251815972849727" lon="6.961994022130966">
        <ele>645.17999999999995</ele>
        <time>2016-07-26T15:58:00Z</time>
      </trkpt>
      <trkpt lat="47.251678006723523" lon="6.962092006579042">
        <ele>647.10000000000002</ele>
        <time>2016-07-26T15:58:01Z</time>
      </trkpt>
      <trkpt lat="47.251528976485133" lon="6.96215596050024">
        <ele>649.02999999999997</ele>
        <time>2016-07-26T15:58:02Z</time>
      </trkpt>
      <trkpt lat="47.251376006752253" lon="6.962198037654162">
        <ele>649.99000000000001</ele>
        <time>2016-07-26T15:58:03Z</time>
      </trkpt>
      <trkpt lat="47.251218007877469" lon="6.962222009897232">
        <ele>651.42999999999995</ele>
        <time>2016-07-26T15:58:04Z</time>
      </trkpt>
      <trkpt lat="47.249368038028479" lon="6.962566003203392">
        <ele>669.70000000000005</ele>
        <time>2016-07-26T15:58:15Z</time>
      </trkpt>
      <trkpt lat="47.249223031103611" lon="6.962560974061489">
        <ele>670.65999999999997</ele>
        <time>2016-07-26T15:58:16Z</time>
      </trkpt>
      <trkpt lat="47.249090010300279" lon="6.962525015696883">
        <ele>672.10000000000002</ele>
        <time>2016-07-26T15:58:17Z</time>
      </trkpt>
      <trkpt lat="47.248969981446862" lon="6.962458966299892">
        <ele>672.58000000000004</ele>
        <time>2016-07-26T15:58:18Z</time>
      </trkpt>
      <trkpt lat="47.248680973425508" lon="6.962270960211754">
        <ele>675.94000000000005</ele>
        <time>2016-07-26T15:58:21Z</time>
      </trkpt>
      <trkpt lat="47.248607967048883" lon="6.962298033758998">
        <ele>676.41999999999996</ele>
        <time>2016-07-26T15:58:22Z</time>
      </trkpt>
      <trkpt lat="47.24853596650064" lon="6.962376991286874">
        <ele>677.38999999999999</ele>
        <time>2016-07-26T15:58:23Z</time>
      </trkpt>
      <trkpt lat="47.24849003367126" lon="6.962491990998387">
        <ele>677.87</ele>
        <time>2016-07-26T15:58:24Z</time>
      </trkpt>
      <trkpt lat="47.248467989265919" lon="6.962635992094874">
        <ele>678.35000000000002</ele>
        <time>2016-07-26T15:58:25Z</time>
      </trkpt>
      <trkpt lat="47.248503025621176" lon="6.962808994576335">
        <ele>678.83000000000004</ele>
        <time>2016-07-26T15:58:26Z</time>
      </trkpt>
      <trkpt lat="47.248561028391123" lon="6.962984008714557">
        <ele>679.30999999999995</ele>
        <time>2016-07-26T15:58:27Z</time>
      </trkpt>
      <trkpt lat="47.248630011454225" lon="6.963162962347269">
        <ele>680.26999999999998</ele>
        <time>2016-07-26T15:58:28Z</time>
      </trkpt>
      <trkpt lat="47.248704023659229" lon="6.963331019505858">
        <ele>680.75</ele>
        <time>2016-07-26T15:58:29Z</time>
      </trkpt>
      <trkpt lat="47.248790021985769" lon="6.963480971753597">
        <ele>681.71000000000004</ele>
        <time>2016-07-26T15:58:30Z</time>
      </trkpt>
      <trkpt lat="47.248894041404128" lon="6.963579962030053">
        <ele>682.19000000000005</ele>
        <time>2016-07-26T15:58:31Z</time>
      </trkpt>
      <trkpt lat="47.249035025015473" lon="6.963625978678465">
        <ele>682.66999999999996</ele>
        <time>2016-07-26T15:58:32Z</time>
      </trkpt>
      <trkpt lat="47.249192018061876" lon="6.963669983670116">
        <ele>683.63</ele>
        <time>2016-07-26T15:58:33Z</time>
      </trkpt>
      <trkpt lat="47.249546991661191" lon="6.963791018351913">
        <ele>686.03999999999996</ele>
        <time>2016-07-26T15:58:35Z</time>
      </trkpt>
      <trkpt lat="47.249719994142652" lon="6.963875005021691">
        <ele>686.51999999999998</ele>
        <time>2016-07-26T15:58:36Z</time>
      </trkpt>
      <trkpt lat="47.25106998346746" lon="6.96475300937891">
        <ele>693.73000000000002</ele>
        <time>2016-07-26T15:58:44Z</time>
      </trkpt>
      <trkpt lat="47.251848997548223" lon="6.965104965493083">
        <ele>696.61000000000001</ele>
        <time>2016-07-26T15:58:48Z</time>
      </trkpt>
      <trkpt lat="47.253601988777518" lon="6.965640988200903">
        <ele>702.86000000000001</ele>
        <time>2016-07-26T15:58:57Z</time>
      </trkpt>
      <trkpt lat="47.253765016794205" lon="6.965604024007917">
        <ele>703.82000000000005</ele>
        <time>2016-07-26T15:58:58Z</time>
      </trkpt>
      <trkpt lat="47.253930978477001" lon="6.965533029288054">
        <ele>703.82000000000005</ele>
        <time>2016-07-26T15:58:59Z</time>
      </trkpt>
      <trkpt lat="47.255787989124656" lon="6.964444974437356">
        <ele>712.47000000000003</ele>
        <time>2016-07-26T15:59:09Z</time>
      </trkpt>
      <trkpt lat="47.257192963734269" lon="6.963710971176624">
        <ele>721.61000000000001</ele>
        <time>2016-07-26T15:59:17Z</time>
      </trkpt>
      <trkpt lat="47.257346017286181" lon="6.963694961741567">
        <ele>723.04999999999995</ele>
        <time>2016-07-26T15:59:18Z</time>
      </trkpt>
      <trkpt lat="47.257498987019062" lon="6.96372396312654">
        <ele>724.97000000000003</ele>
        <time>2016-07-26T15:59:19Z</time>
      </trkpt>
      <trkpt lat="47.257637036964297" lon="6.963798981159926">
        <ele>725.92999999999995</ele>
        <time>2016-07-26T15:59:20Z</time>
      </trkpt>
      <trkpt lat="47.25775002501905" lon="6.963984975591302">
        <ele>726.40999999999997</ele>
        <time>2016-07-26T15:59:21Z</time>
      </trkpt>
      <trkpt lat="47.257843986153603" lon="6.964171975851059">
        <ele>727.37</ele>
        <time>2016-07-26T15:59:22Z</time>
      </trkpt>
      <trkpt lat="47.257919004186988" lon="6.964341038838029">
        <ele>729.77999999999997</ele>
        <time>2016-07-26T15:59:23Z</time>
      </trkpt>
      <trkpt lat="47.258705981075764" lon="6.966048013418913">
        <ele>751.40999999999997</ele>
        <time>2016-07-26T15:59:32Z</time>
      </trkpt>
      <trkpt lat="47.259056009352207" lon="6.966864997521043">
        <ele>756.21000000000004</ele>
        <time>2016-07-26T15:59:36Z</time>
      </trkpt>
      <trkpt lat="47.259100014343858" lon="6.967067001387477">
        <ele>758.13999999999999</ele>
        <time>2016-07-26T15:59:37Z</time>
      </trkpt>
      <trkpt lat="47.259117029607296" lon="6.967286020517349">
        <ele>759.10000000000002</ele>
        <time>2016-07-26T15:59:38Z</time>
      </trkpt>
      <trkpt lat="47.259081993252039" lon="6.967508979141712">
        <ele>760.53999999999996</ele>
        <time>2016-07-26T15:59:39Z</time>
      </trkpt>
      <trkpt lat="47.259027007967234" lon="6.96773998439312">
        <ele>761.5</ele>
        <time>2016-07-26T15:59:40Z</time>
      </trkpt>
      <trkpt lat="47.258957019075751" lon="6.967974007129669">
        <ele>762.46000000000004</ele>
        <time>2016-07-26T15:59:41Z</time>
      </trkpt>
      <trkpt lat="47.25889096967876" lon="6.968204006552696">
        <ele>763.41999999999996</ele>
        <time>2016-07-26T15:59:42Z</time>
      </trkpt>
      <trkpt lat="47.258451003581285" lon="6.969502028077841">
        <ele>770.63</ele>
        <time>2016-07-26T15:59:49Z</time>
      </trkpt>
      <trkpt lat="47.258550999686122" lon="6.969631025567651">
        <ele>770.63</ele>
        <time>2016-07-26T15:59:50Z</time>
      </trkpt>
      <trkpt lat="47.258558040484786" lon="6.969735966995359">
        <ele>771.11000000000001</ele>
        <time>2016-07-26T15:59:51Z</time>
      </trkpt>
      <trkpt lat="47.258597016334534" lon="6.969832023605704">
        <ele>772.08000000000004</ele>
        <time>2016-07-26T15:59:52Z</time>
      </trkpt>
      <trkpt lat="47.258650995790958" lon="6.969881979748607">
        <ele>772.08000000000004</ele>
        <time>2016-07-26T15:59:53Z</time>
      </trkpt>
      <trkpt lat="47.258710004389286" lon="6.969902012497187">
        <ele>772.55999999999995</ele>
        <time>2016-07-26T15:59:54Z</time>
      </trkpt>
      <trkpt lat="47.258776975795627" lon="6.969902012497187">
        <ele>773.03999999999996</ele>
        <time>2016-07-26T15:59:55Z</time>
      </trkpt>
      <trkpt lat="47.258898010477424" lon="6.969912992790341">
        <ele>773.51999999999998</ele>
        <time>2016-07-26T15:59:56Z</time>
      </trkpt>
      <trkpt lat="47.25917000323534" lon="6.969916010275483">
        <ele>775.91999999999996</ele>
        <time>2016-07-26T15:59:58Z</time>
      </trkpt>
      <trkpt lat="47.260293010622263" lon="6.969873011112213">
        <ele>784.09000000000003</ele>
        <time>2016-07-26T16:00:06Z</time>
      </trkpt>
      <trkpt lat="47.260438017547131" lon="6.969830011948943">
        <ele>785.04999999999995</ele>
        <time>2016-07-26T16:00:07Z</time>
      </trkpt>
      <trkpt lat="47.260592998936772" lon="6.96978097781539">
        <ele>785.52999999999997</ele>
        <time>2016-07-26T16:00:08Z</time>
      </trkpt>
      <trkpt lat="47.261031959205866" lon="6.96965198032558">
        <ele>791.29999999999995</ele>
        <time>2016-07-26T16:00:11Z</time>
      </trkpt>
      <trkpt lat="47.261183001101017" lon="6.969654997810721">
        <ele>793.22000000000003</ele>
        <time>2016-07-26T16:00:12Z</time>
      </trkpt>
      <trkpt lat="47.261344017460942" lon="6.969689028337598">
        <ele>794.66999999999996</ele>
        <time>2016-07-26T16:00:13Z</time>
      </trkpt>
      <trkpt lat="47.261476032435894" lon="6.969740996137261">
        <ele>796.11000000000001</ele>
        <time>2016-07-26T16:00:14Z</time>
      </trkpt>
      <trkpt lat="47.261611986905336" lon="6.969811990857124">
        <ele>797.07000000000005</ele>
        <time>2016-07-26T16:00:15Z</time>
      </trkpt>
      <trkpt lat="47.261744001880288" lon="6.969903018325567">
        <ele>798.50999999999999</ele>
        <time>2016-07-26T16:00:16Z</time>
      </trkpt>
      <trkpt lat="47.261871993541718" lon="6.970009971410036">
        <ele>799.47000000000003</ele>
        <time>2016-07-26T16:00:17Z</time>
      </trkpt>
      <trkpt lat="47.261991016566753" lon="6.970131006091833">
        <ele>800.44000000000005</ele>
        <time>2016-07-26T16:00:18Z</time>
      </trkpt>
      <trkpt lat="47.262107022106647" lon="6.970271989703178">
        <ele>801.88</ele>
        <time>2016-07-26T16:00:19Z</time>
      </trkpt>
      <trkpt lat="47.262213975191116" lon="6.970420014113188">
        <ele>803.32000000000005</ele>
        <time>2016-07-26T16:00:20Z</time>
      </trkpt>
      <trkpt lat="47.262305002659559" lon="6.970559991896153">
        <ele>805.72000000000003</ele>
        <time>2016-07-26T16:00:21Z</time>
      </trkpt>
      <trkpt lat="47.262388989329338" lon="6.97070499882102">
        <ele>808.13</ele>
        <time>2016-07-26T16:00:22Z</time>
      </trkpt>
      <trkpt lat="47.263019979000092" lon="6.972177028656006">
        <ele>824.95000000000005</ele>
        <time>2016-07-26T16:00:31Z</time>
      </trkpt>
      <trkpt lat="47.263914998620749" lon="6.974579030647874">
        <ele>847.53999999999996</ele>
        <time>2016-07-26T16:00:43Z</time>
      </trkpt>
      <trkpt lat="47.264684038236737" lon="6.976176034659147">
        <ele>862.91999999999996</ele>
        <time>2016-07-26T16:00:53Z</time>
      </trkpt>
      <trkpt lat="47.265800004824996" lon="6.978055005893111">
        <ele>878.29999999999995</ele>
        <time>2016-07-26T16:01:07Z</time>
      </trkpt>
      <trkpt lat="47.265953980386257" lon="6.978414002805948">
        <ele>881.19000000000005</ele>
        <time>2016-07-26T16:01:10Z</time>
      </trkpt>
      <trkpt lat="47.265968983992934" lon="6.978532020002604">
        <ele>881.66999999999996</ele>
        <time>2016-07-26T16:01:11Z</time>
      </trkpt>
      <trkpt lat="47.265950962901115" lon="6.978641990572214">
        <ele>881.66999999999996</ele>
        <time>2016-07-26T16:01:12Z</time>
      </trkpt>
      <trkpt lat="47.265902012586594" lon="6.978736035525799">
        <ele>882.14999999999998</ele>
        <time>2016-07-26T16:01:13Z</time>
      </trkpt>
      <trkpt lat="47.265825988724828" lon="6.978782974183559">
        <ele>883.11000000000001</ele>
        <time>2016-07-26T16:01:14Z</time>
      </trkpt>
      <trkpt lat="47.265737978741527" lon="6.978757996112108">
        <ele>883.59000000000003</ele>
        <time>2016-07-26T16:01:15Z</time>
      </trkpt>
      <trkpt lat="47.265645023435354" lon="6.978693958371878">
        <ele>884.07000000000005</ele>
        <time>2016-07-26T16:01:16Z</time>
      </trkpt>
      <trkpt lat="47.265539998188615" lon="6.978602008894086">
        <ele>883.59000000000003</ele>
        <time>2016-07-26T16:01:17Z</time>
      </trkpt>
      <trkpt lat="47.265430027619004" lon="6.978492960333824">
        <ele>883.11000000000001</ele>
        <time>2016-07-26T16:01:18Z</time>
      </trkpt>
      <trkpt lat="47.264104010537267" lon="6.977175995707512">
        <ele>883.11000000000001</ele>
        <time>2016-07-26T16:01:28Z</time>
      </trkpt>
      <trkpt lat="47.262881007045507" lon="6.976429000496864">
        <ele>888.39999999999998</ele>
        <time>2016-07-26T16:01:35Z</time>
      </trkpt>
      <trkpt lat="47.262702975422144" lon="6.976373009383678">
        <ele>888.88</ele>
        <time>2016-07-26T16:01:36Z</time>
      </trkpt>
      <trkpt lat="47.262519998475909" lon="6.976346019655466">
        <ele>889.36000000000001</ele>
        <time>2016-07-26T16:01:37Z</time>
      </trkpt>
      <trkpt lat="47.262342972680926" lon="6.976337973028421">
        <ele>890.32000000000005</ele>
        <time>2016-07-26T16:01:38Z</time>
      </trkpt>
      <trkpt lat="47.262161001563072" lon="6.976361023262143">
        <ele>891.27999999999997</ele>
        <time>2016-07-26T16:01:39Z</time>
      </trkpt>
      <trkpt lat="47.261987999081612" lon="6.976407039910555">
        <ele>892.24000000000001</ele>
        <time>2016-07-26T16:01:40Z</time>
      </trkpt>
      <trkpt lat="47.261811979115009" lon="6.976475017145276">
        <ele>893.20000000000005</ele>
        <time>2016-07-26T16:01:41Z</time>
      </trkpt>
      <trkpt lat="47.261631013825536" lon="6.9765480235219">
        <ele>893.67999999999995</ele>
        <time>2016-07-26T16:01:42Z</time>
      </trkpt>
      <trkpt lat="47.260828027501702" lon="6.976867960765958">
        <ele>898.49000000000001</ele>
        <time>2016-07-26T16:01:47Z</time>
      </trkpt>
      <trkpt lat="47.260700035840273" lon="6.976958988234401">
        <ele>898.97000000000003</ele>
        <time>2016-07-26T16:01:48Z</time>
      </trkpt>
      <trkpt lat="47.260585958138108" lon="6.97708304040134">
        <ele>899.45000000000005</ele>
        <time>2016-07-26T16:01:49Z</time>
      </trkpt>
      <trkpt lat="47.260471964254975" lon="6.977245984598994">
        <ele>900.40999999999997</ele>
        <time>2016-07-26T16:01:50Z</time>
      </trkpt>
      <trkpt lat="47.260361993685365" lon="6.977417981252074">
        <ele>900.88999999999999</ele>
        <time>2016-07-26T16:01:51Z</time>
      </trkpt>
      <trkpt lat="47.260259985923767" lon="6.977610010653734">
        <ele>902.33000000000004</ele>
        <time>2016-07-26T16:01:52Z</time>
      </trkpt>
      <trkpt lat="47.259496981278062" lon="6.978917000815272">
        <ele>907.13999999999999</ele>
        <time>2016-07-26T16:01:59Z</time>
      </trkpt>
      <trkpt lat="47.259429004043341" lon="6.979126967489719">
        <ele>907.62</ele>
        <time>2016-07-26T16:02:00Z</time>
      </trkpt>
      <trkpt lat="47.259360020980239" lon="6.979352021589875">
        <ele>908.10000000000002</ele>
        <time>2016-07-26T16:02:01Z</time>
      </trkpt>
      <trkpt lat="47.258702041581273" lon="6.982692964375019">
        <ele>922.03999999999996</ele>
        <time>2016-07-26T16:02:15Z</time>
      </trkpt>
      <trkpt lat="47.258655019104481" lon="6.984681989997625">
        <ele>929.25</ele>
        <time>2016-07-26T16:02:24Z</time>
      </trkpt>
      <trkpt lat="47.258678991347551" lon="6.984897991642356">
        <ele>929.73000000000002</ele>
        <time>2016-07-26T16:02:25Z</time>
      </trkpt>
      <trkpt lat="47.258728025481105" lon="6.985110975801945">
        <ele>930.69000000000005</ele>
        <time>2016-07-26T16:02:26Z</time>
      </trkpt>
      <trkpt lat="47.258921982720494" lon="6.985951010137796">
        <ele>932.62</ele>
        <time>2016-07-26T16:02:30Z</time>
      </trkpt>
      <trkpt lat="47.258918965235353" lon="6.986161982640624">
        <ele>933.10000000000002</ele>
        <time>2016-07-26T16:02:31Z</time>
      </trkpt>
      <trkpt lat="47.258877977728844" lon="6.986361974850297">
        <ele>933.10000000000002</ele>
        <time>2016-07-26T16:02:32Z</time>
      </trkpt>
      <trkpt lat="47.258802959695458" lon="6.986535983160138">
        <ele>933.58000000000004</ele>
        <time>2016-07-26T16:02:33Z</time>
      </trkpt>
      <trkpt lat="47.258711010217667" lon="6.986675038933754">
        <ele>935.01999999999998</ele>
        <time>2016-07-26T16:02:34Z</time>
      </trkpt>
      <trkpt lat="47.25861101411283" lon="6.9867969956249">
        <ele>935.5</ele>
        <time>2016-07-26T16:02:35Z</time>
      </trkpt>
      <trkpt lat="47.258514035493135" lon="6.986943008378148">
        <ele>935.98000000000002</ele>
        <time>2016-07-26T16:02:36Z</time>
      </trkpt>
      <trkpt lat="47.258431976661086" lon="6.987116010859609">
        <ele>936.94000000000005</ele>
        <time>2016-07-26T16:02:37Z</time>
      </trkpt>
      <trkpt lat="47.258383026346564" lon="6.987306028604507">
        <ele>937.89999999999998</ele>
        <time>2016-07-26T16:02:38Z</time>
      </trkpt>
      <trkpt lat="47.258370034396648" lon="6.987520018592477">
        <ele>937.89999999999998</ele>
        <time>2016-07-26T16:02:39Z</time>
      </trkpt>
      <trkpt lat="47.258371962234378" lon="6.987740965560079">
        <ele>938.86000000000001</ele>
        <time>2016-07-26T16:02:40Z</time>
      </trkpt>
      <trkpt lat="47.258380008861423" lon="6.987960990518332">
        <ele>939.35000000000002</ele>
        <time>2016-07-26T16:02:41Z</time>
      </trkpt>
      <trkpt lat="47.258730037137866" lon="6.990884011611342">
        <ele>947.51999999999998</ele>
        <time>2016-07-26T16:02:54Z</time>
      </trkpt>
      <trkpt lat="47.258905973285437" lon="6.992115983739495">
        <ele>951.36000000000001</ele>
        <time>2016-07-26T16:03:00Z</time>
      </trkpt>
      <trkpt lat="47.258893987163901" lon="6.992292003706098">
        <ele>951.84000000000003</ele>
        <time>2016-07-26T16:03:01Z</time>
      </trkpt>
      <trkpt lat="47.258862974122167" lon="6.992457965388894">
        <ele>952.79999999999995</ele>
        <time>2016-07-26T16:03:02Z</time>
      </trkpt>
      <trkpt lat="47.258806983008981" lon="6.992600038647652">
        <ele>953.27999999999997</ele>
        <time>2016-07-26T16:03:03Z</time>
      </trkpt>
      <trkpt lat="47.25871997885406" lon="6.992719983682036">
        <ele>953.76999999999998</ele>
        <time>2016-07-26T16:03:04Z</time>
      </trkpt>
      <trkpt lat="47.258627023547888" lon="6.992816040292382">
        <ele>954.25</ele>
        <time>2016-07-26T16:03:05Z</time>
      </trkpt>
      <trkpt lat="47.25852400995791" lon="6.992878988385201">
        <ele>954.73000000000002</ele>
        <time>2016-07-26T16:03:06Z</time>
      </trkpt>
      <trkpt lat="47.258406998589635" lon="6.992906983941793">
        <ele>956.64999999999998</ele>
        <time>2016-07-26T16:03:07Z</time>
      </trkpt>
      <trkpt lat="47.258282024413347" lon="6.992896003648639">
        <ele>958.57000000000005</ele>
        <time>2016-07-26T16:03:08Z</time>
      </trkpt>
      <trkpt lat="47.258167024701834" lon="6.992844035848975">
        <ele>960.00999999999999</ele>
        <time>2016-07-26T16:03:09Z</time>
      </trkpt>
      <trkpt lat="47.25805101916194" lon="6.992776980623603">
        <ele>961.46000000000004</ele>
        <time>2016-07-26T16:03:10Z</time>
      </trkpt>
      <trkpt lat="47.257935013622046" lon="6.992717972025275">
        <ele>962.89999999999998</ele>
        <time>2016-07-26T16:03:11Z</time>
      </trkpt>
      <trkpt lat="47.257819008082151" lon="6.992678996175528">
        <ele>964.34000000000003</ele>
        <time>2016-07-26T16:03:12Z</time>
      </trkpt>
      <trkpt lat="47.257698979228735" lon="6.992652006447315">
        <ele>965.29999999999995</ele>
        <time>2016-07-26T16:03:13Z</time>
      </trkpt>
      <trkpt lat="47.257575010880828" lon="6.992637002840638">
        <ele>966.74000000000001</ele>
        <time>2016-07-26T16:03:14Z</time>
      </trkpt>
      <trkpt lat="47.257457999512553" lon="6.992633985355496">
        <ele>968.17999999999995</ele>
        <time>2016-07-26T16:03:15Z</time>
      </trkpt>
      <trkpt lat="47.257358003407717" lon="6.992648988962174">
        <ele>967.70000000000005</ele>
        <time>2016-07-26T16:03:16Z</time>
      </trkpt>
      <trkpt lat="47.257139990106225" lon="6.992684025317431">
        <ele>966.74000000000001</ele>
        <time>2016-07-26T16:03:19Z</time>
      </trkpt>
      <trkpt lat="47.257027002051473" lon="6.992706991732121">
        <ele>968.17999999999995</ele>
        <time>2016-07-26T16:03:23Z</time>
      </trkpt>
      <trkpt lat="47.257053991779685" lon="6.992699028924108">
        <ele>966.74000000000001</ele>
        <time>2016-07-26T16:03:42Z</time>
      </trkpt>
      <trkpt lat="47.257076036185026" lon="6.992697017267346">
        <ele>968.17999999999995</ele>
        <time>2016-07-26T16:04:19Z</time>
      </trkpt>
      <trkpt lat="47.257076958194375" lon="6.992696011438966">
        <ele>967.70000000000005</ele>
        <time>2016-07-26T16:05:28Z</time>
      </trkpt>
      <trkpt lat="47.257076036185026" lon="6.992696011438966">
        <ele>967.70000000000005</ele>
        <time>2016-07-26T16:06:47Z</time>
      </trkpt>
      <trkpt lat="47.257049968466163" lon="6.992730963975191">
        <ele>967.22000000000003</ele>
        <time>2016-07-26T16:06:48Z</time>
      </trkpt>
      <trkpt lat="47.257009986788034" lon="6.992775974795222">
        <ele>966.74000000000001</ele>
        <time>2016-07-26T16:06:49Z</time>
      </trkpt>
      <trkpt lat="47.25687101483345" lon="6.992926010861993">
        <ele>967.70000000000005</ele>
        <time>2016-07-26T16:06:52Z</time>
      </trkpt>
      <trkpt lat="47.256501959636807" lon="6.993530010804534">
        <ele>971.07000000000005</ele>
        <time>2016-07-26T16:06:59Z</time>
      </trkpt>
      <trkpt lat="47.256276989355683" lon="6.994095034897327">
        <ele>974.42999999999995</ele>
        <time>2016-07-26T16:07:03Z</time>
      </trkpt>
      <trkpt lat="47.25616198964417" lon="6.99470498599112">
        <ele>977.79999999999995</ele>
        <time>2016-07-26T16:07:07Z</time>
      </trkpt>
      <trkpt lat="47.256153021007776" lon="6.994871031492949">
        <ele>978.75999999999999</ele>
        <time>2016-07-26T16:07:08Z</time>
      </trkpt>
      <trkpt lat="47.256150003522635" lon="6.995030958205462">
        <ele>979.72000000000003</ele>
        <time>2016-07-26T16:07:09Z</time>
      </trkpt>
      <trkpt lat="47.256083032116294" lon="6.995505960658193">
        <ele>983.09000000000003</ele>
        <time>2016-07-26T16:07:14Z</time>
      </trkpt>
      <trkpt lat="47.256110021844506" lon="6.995531022548676">
        <ele>983.09000000000003</ele>
        <time>2016-07-26T16:07:15Z</time>
      </trkpt>
      <trkpt lat="47.256070962175727" lon="6.995503026992083">
        <ele>984.04999999999995</ele>
        <time>2016-07-26T16:07:16Z</time>
      </trkpt>
      <trkpt lat="47.256041038781404" lon="6.995452987030149">
        <ele>984.52999999999997</ele>
        <time>2016-07-26T16:07:17Z</time>
      </trkpt>
      <trkpt lat="47.256003990769386" lon="6.995371012017131">
        <ele>985.49000000000001</ele>
        <time>2016-07-26T16:07:18Z</time>
      </trkpt>
      <trkpt lat="47.25596996024251" lon="6.995280990377069">
        <ele>985.97000000000003</ele>
        <time>2016-07-26T16:07:19Z</time>
      </trkpt>
      <trkpt lat="47.255866024643183" lon="6.994930040091276">
        <ele>987.40999999999997</ele>
        <time>2016-07-26T16:07:22Z</time>
      </trkpt>
      <trkpt lat="47.255720011889935" lon="6.99433802627027">
        <ele>988.37</ele>
        <time>2016-07-26T16:07:26Z</time>
      </trkpt>
      <trkpt lat="47.255675001069903" lon="6.994182039052248">
        <ele>988.37</ele>
        <time>2016-07-26T16:07:27Z</time>
      </trkpt>
      <trkpt lat="47.255471991375089" lon="6.99369203299284">
        <ele>989.33000000000004</ele>
        <time>2016-07-26T16:07:30Z</time>
      </trkpt>
      <trkpt lat="47.254633968695998" lon="6.992001989856362">
        <ele>987.40999999999997</ele>
        <time>2016-07-26T16:07:40Z</time>
      </trkpt>
      <trkpt lat="47.253789994865656" lon="6.990238018333912">
        <ele>985.97000000000003</ele>
        <time>2016-07-26T16:07:52Z</time>
      </trkpt>
      <trkpt lat="47.252711998298764" lon="6.987984040752053">
        <ele>982.12</ele>
        <time>2016-07-26T16:08:06Z</time>
      </trkpt>
      <trkpt lat="47.251601982861757" lon="6.986835971474648">
        <ele>975.38999999999999</ele>
        <time>2016-07-26T16:08:15Z</time>
      </trkpt>
      <trkpt lat="47.250186027958989" lon="6.985395960509777">
        <ele>972.02999999999997</ele>
        <time>2016-07-26T16:08:24Z</time>
      </trkpt>
      <trkpt lat="47.248852970078588" lon="6.984459031373262">
        <ele>966.25999999999999</ele>
        <time>2016-07-26T16:08:31Z</time>
      </trkpt>
      <trkpt lat="47.2475899849087" lon="6.98447797447443">
        <ele>963.86000000000001</ele>
        <time>2016-07-26T16:08:37Z</time>
      </trkpt>
      <trkpt lat="47.244359012693167" lon="6.985105024650693">
        <ele>960.98000000000002</ele>
        <time>2016-07-26T16:08:52Z</time>
      </trkpt>
      <trkpt lat="47.242459002882242" lon="6.985128996893764">
        <ele>960.98000000000002</ele>
        <time>2016-07-26T16:09:03Z</time>
      </trkpt>
      <trkpt lat="47.240079967305064" lon="6.984960017725825">
        <ele>952.79999999999995</ele>
        <time>2016-07-26T16:09:15Z</time>
      </trkpt>
      <trkpt lat="47.237935038283467" lon="6.984855998307467">
        <ele>951.36000000000001</ele>
        <time>2016-07-26T16:09:26Z</time>
      </trkpt>
      <trkpt lat="47.236209036782384" lon="6.98497099801898">
        <ele>950.88</ele>
        <time>2016-07-26T16:09:37Z</time>
      </trkpt>
      <trkpt lat="47.234698031097651" lon="6.985328989103437">
        <ele>950.88</ele>
        <time>2016-07-26T16:09:48Z</time>
      </trkpt>
      <trkpt lat="47.234586970880628" lon="6.985307028517127">
        <ele>950.88</ele>
        <time>2016-07-26T16:09:49Z</time>
      </trkpt>
      <trkpt lat="47.234494015574455" lon="6.985265035182238">
        <ele>951.36000000000001</ele>
        <time>2016-07-26T16:09:50Z</time>
      </trkpt>
      <trkpt lat="47.234413968399167" lon="6.985209966078401">
        <ele>951.84000000000003</ele>
        <time>2016-07-26T16:09:51Z</time>
      </trkpt>
      <trkpt lat="47.234345991164446" lon="6.985150035470724">
        <ele>951.84000000000003</ele>
        <time>2016-07-26T16:09:52Z</time>
      </trkpt>
      <trkpt lat="47.234284970909357" lon="6.985092032700777">
        <ele>951.84000000000003</ele>
        <time>2016-07-26T16:09:53Z</time>
      </trkpt>
      <trkpt lat="47.234184974804521" lon="6.985038975253701">
        <ele>951.84000000000003</ele>
        <time>2016-07-26T16:09:55Z</time>
      </trkpt>
      <trkpt lat="47.234147004783154" lon="6.985068982467055">
        <ele>951.84000000000003</ele>
        <time>2016-07-26T16:09:56Z</time>
      </trkpt>
      <trkpt lat="47.23411800339818" lon="6.985123967751861">
        <ele>952.32000000000005</ele>
        <time>2016-07-26T16:09:57Z</time>
      </trkpt>
      <trkpt lat="47.234113980084658" lon="6.985195968300104">
        <ele>952.32000000000005</ele>
        <time>2016-07-26T16:09:58Z</time>
      </trkpt>
      <trkpt lat="47.234128983691335" lon="6.985264029353857">
        <ele>952.79999999999995</ele>
        <time>2016-07-26T16:09:59Z</time>
      </trkpt>
      <trkpt lat="47.234151028096676" lon="6.985344998538494">
        <ele>952.79999999999995</ele>
        <time>2016-07-26T16:10:00Z</time>
      </trkpt>
      <trkpt lat="47.234194027259946" lon="6.985561000183225">
        <ele>951.84000000000003</ele>
        <time>2016-07-26T16:10:02Z</time>
      </trkpt>
      <trkpt lat="47.234196960926056" lon="6.985688991844654">
        <ele>951.84000000000003</ele>
        <time>2016-07-26T16:10:03Z</time>
      </trkpt>
      <trkpt lat="47.234182963147759" lon="6.985818995162845">
        <ele>951.84000000000003</ele>
        <time>2016-07-26T16:10:04Z</time>
      </trkpt>
      <trkpt lat="47.234145998954773" lon="6.985943969339132">
        <ele>951.84000000000003</ele>
        <time>2016-07-26T16:10:05Z</time>
      </trkpt>
      <trkpt lat="47.234091013669968" lon="6.98606600984931">
        <ele>952.32000000000005</ele>
        <time>2016-07-26T16:10:06Z</time>
      </trkpt>
      <trkpt lat="47.234019013121724" lon="6.98617497459054">
        <ele>952.32000000000005</ele>
        <time>2016-07-26T16:10:07Z</time>
      </trkpt>
      <trkpt lat="47.233920022845268" lon="6.986256027594209">
        <ele>953.27999999999997</ele>
        <time>2016-07-26T16:10:08Z</time>
      </trkpt>
      <trkpt lat="47.233810974285007" lon="6.98630103841424">
        <ele>953.76999999999998</ele>
        <time>2016-07-26T16:10:09Z</time>
      </trkpt>
      <trkpt lat="47.233693962916732" lon="6.986316964030266">
        <ele>954.25</ele>
        <time>2016-07-26T16:10:10Z</time>
      </trkpt>
      <trkpt lat="47.233580974861979" lon="6.986311012879014">
        <ele>953.76999999999998</ele>
        <time>2016-07-26T16:10:11Z</time>
      </trkpt>
      <trkpt lat="47.233465975150466" lon="6.986279999837279">
        <ele>953.27999999999997</ele>
        <time>2016-07-26T16:10:12Z</time>
      </trkpt>
      <trkpt lat="47.233348963782191" lon="6.986237000674009">
        <ele>952.79999999999995</ele>
        <time>2016-07-26T16:10:13Z</time>
      </trkpt>
      <trkpt lat="47.233231030404568" lon="6.986182015389204">
        <ele>953.27999999999997</ele>
        <time>2016-07-26T16:10:14Z</time>
      </trkpt>
      <trkpt lat="47.232068963348866" lon="6.985617997124791">
        <ele>953.76999999999998</ele>
        <time>2016-07-26T16:10:24Z</time>
      </trkpt>
      <trkpt lat="47.231981959193945" lon="6.985629983246326">
        <ele>954.25</ele>
        <time>2016-07-26T16:10:25Z</time>
      </trkpt>
      <trkpt lat="47.231903001666069" lon="6.985688991844654">
        <ele>954.73000000000002</ele>
        <time>2016-07-26T16:10:26Z</time>
      </trkpt>
      <trkpt lat="47.231832006946206" lon="6.985785970464349">
        <ele>955.21000000000004</ele>
        <time>2016-07-26T16:10:27Z</time>
      </trkpt>
      <trkpt lat="47.231763023883104" lon="6.985900970175862">
        <ele>955.21000000000004</ele>
        <time>2016-07-26T16:10:28Z</time>
      </trkpt>
      <trkpt lat="47.231688005849719" lon="6.986024016514421">
        <ele>955.21000000000004</ele>
        <time>2016-07-26T16:10:29Z</time>
      </trkpt>
      <trkpt lat="47.231601001694798" lon="6.986147984862328">
        <ele>955.69000000000005</ele>
        <time>2016-07-26T16:10:30Z</time>
      </trkpt>
      <trkpt lat="47.231499999761581" lon="6.986261978745461">
        <ele>955.69000000000005</ele>
        <time>2016-07-26T16:10:31Z</time>
      </trkpt>
      <trkpt lat="47.231385000050068" lon="6.986359963193536">
        <ele>956.16999999999996</ele>
        <time>2016-07-26T16:10:32Z</time>
      </trkpt>
      <trkpt lat="47.23126295953989" lon="6.986436992883682">
        <ele>956.64999999999998</ele>
        <time>2016-07-26T16:10:33Z</time>
      </trkpt>
      <trkpt lat="47.231138991191983" lon="6.98649600148201">
        <ele>957.13</ele>
        <time>2016-07-26T16:10:34Z</time>
      </trkpt>
      <trkpt lat="47.23100395873189" lon="6.986542018130422">
        <ele>959.04999999999995</ele>
        <time>2016-07-26T16:10:35Z</time>
      </trkpt>
      <trkpt lat="47.229207968339324" lon="6.987148029729724">
        <ele>959.52999999999997</ele>
        <time>2016-07-26T16:10:47Z</time>
      </trkpt>
      <trkpt lat="47.227079970762134" lon="6.98795897886157">
        <ele>959.04999999999995</ele>
        <time>2016-07-26T16:11:00Z</time>
      </trkpt>
      <trkpt lat="47.22537400200963" lon="6.989368982613087">
        <ele>965.29999999999995</ele>
        <time>2016-07-26T16:11:13Z</time>
      </trkpt>
      <trkpt lat="47.225263025611639" lon="6.989538967609406">
        <ele>966.74000000000001</ele>
        <time>2016-07-26T16:11:14Z</time>
      </trkpt>
      <trkpt lat="47.225164035335183" lon="6.989725967869163">
        <ele>968.17999999999995</ele>
        <time>2016-07-26T16:11:15Z</time>
      </trkpt>
      <trkpt lat="47.225079964846373" lon="6.989929983392358">
        <ele>969.14999999999998</ele>
        <time>2016-07-26T16:11:16Z</time>
      </trkpt>
      <trkpt lat="47.225012993440032" lon="6.99014900252223">
        <ele>970.59000000000003</ele>
        <time>2016-07-26T16:11:17Z</time>
      </trkpt>
      <trkpt lat="47.22496697679162" lon="6.990379001945257">
        <ele>971.54999999999995</ele>
        <time>2016-07-26T16:11:18Z</time>
      </trkpt>
      <trkpt lat="47.224938981235027" lon="6.990612018853426">
        <ele>972.50999999999999</ele>
        <time>2016-07-26T16:11:19Z</time>
      </trkpt>
      <trkpt lat="47.224930012598634" lon="6.990849981084466">
        <ele>973.95000000000005</ele>
        <time>2016-07-26T16:11:20Z</time>
      </trkpt>
      <trkpt lat="47.224929006770253" lon="6.991087021306157">
        <ele>975.38999999999999</ele>
        <time>2016-07-26T16:11:21Z</time>
      </trkpt>
      <trkpt lat="47.224935963749886" lon="6.991553977131844">
        <ele>978.27999999999997</ele>
        <time>2016-07-26T16:11:23Z</time>
      </trkpt>
      <trkpt lat="47.224921965971589" lon="6.991779031231999">
        <ele>980.20000000000005</ele>
        <time>2016-07-26T16:11:24Z</time>
      </trkpt>
      <trkpt lat="47.224877960979939" lon="6.991993021219969">
        <ele>980.67999999999995</ele>
        <time>2016-07-26T16:11:25Z</time>
      </trkpt>
      <trkpt lat="47.224804032593966" lon="6.992188990116119">
        <ele>981.63999999999999</ele>
        <time>2016-07-26T16:11:26Z</time>
      </trkpt>
      <trkpt lat="47.224704958498478" lon="6.992365010082722">
        <ele>982.60000000000002</ele>
        <time>2016-07-26T16:11:27Z</time>
      </trkpt>
      <trkpt lat="47.224589958786964" lon="6.992528960108757">
        <ele>983.09000000000003</ele>
        <time>2016-07-26T16:11:28Z</time>
      </trkpt>
      <trkpt lat="47.224463978782296" lon="6.992687964811921">
        <ele>983.57000000000005</ele>
        <time>2016-07-26T16:11:29Z</time>
      </trkpt>
      <trkpt lat="47.223499976098537" lon="6.993909040465951">
        <ele>989.80999999999995</ele>
        <time>2016-07-26T16:11:36Z</time>
      </trkpt>
      <trkpt lat="47.22339897416532" lon="6.994115989655256">
        <ele>991.25999999999999</ele>
        <time>2016-07-26T16:11:37Z</time>
      </trkpt>
      <trkpt lat="47.223323034122586" lon="6.994352024048567">
        <ele>992.70000000000005</ele>
        <time>2016-07-26T16:11:38Z</time>
      </trkpt>
      <trkpt lat="47.223281962797046" lon="6.994611024856567">
        <ele>994.13999999999999</ele>
        <time>2016-07-26T16:11:39Z</time>
      </trkpt>
      <trkpt lat="47.223266959190369" lon="6.994883017614484">
        <ele>995.10000000000002</ele>
        <time>2016-07-26T16:11:40Z</time>
      </trkpt>
      <trkpt lat="47.223262013867497" lon="6.995161967352033">
        <ele>996.05999999999995</ele>
        <time>2016-07-26T16:11:41Z</time>
      </trkpt>
      <trkpt lat="47.223313981667161" lon="6.998238964006305">
        <ele>1010.48</ele>
        <time>2016-07-26T16:11:52Z</time>
      </trkpt>
      <trkpt lat="47.223551021888852" lon="7.000649012625217">
        <ele>1023.9400000000001</ele>
        <time>2016-07-26T16:12:01Z</time>
      </trkpt>
      <trkpt lat="47.223497964441776" lon="7.003088984638453">
        <ele>1036.9200000000001</ele>
        <time>2016-07-26T16:12:11Z</time>
      </trkpt>
      <trkpt lat="47.223428981378675" lon="7.005013972520828">
        <ele>1046.05</ele>
        <time>2016-07-26T16:12:21Z</time>
      </trkpt>
      <trkpt lat="47.223390005528927" lon="7.005192004144192">
        <ele>1046.53</ele>
        <time>2016-07-26T16:12:22Z</time>
      </trkpt>
      <trkpt lat="47.223325967788696" lon="7.00536098331213">
        <ele>1046.53</ele>
        <time>2016-07-26T16:12:23Z</time>
      </trkpt>
      <trkpt lat="47.223239969462156" lon="7.005516970530152">
        <ele>1047.49</ele>
        <time>2016-07-26T16:12:24Z</time>
      </trkpt>
      <trkpt lat="47.223128993064165" lon="7.005656026303768">
        <ele>1047.01</ele>
        <time>2016-07-26T16:12:25Z</time>
      </trkpt>
      <trkpt lat="47.223001001402736" lon="7.005773959681392">
        <ele>1047.97</ele>
        <time>2016-07-26T16:12:26Z</time>
      </trkpt>
      <trkpt lat="47.222855994477868" lon="7.005866998806596">
        <ele>1048.45</ele>
        <time>2016-07-26T16:12:27Z</time>
      </trkpt>
      <trkpt lat="47.222697995603085" lon="7.005921984091401">
        <ele>1048.9400000000001</ele>
        <time>2016-07-26T16:12:28Z</time>
      </trkpt>
      <trkpt lat="47.22253899089992" lon="7.005937993526459">
        <ele>1049.9000000000001</ele>
        <time>2016-07-26T16:12:29Z</time>
      </trkpt>
      <trkpt lat="47.222378980368376" lon="7.005930030718446">
        <ele>1051.3399999999999</ele>
        <time>2016-07-26T16:12:30Z</time>
      </trkpt>
      <trkpt lat="47.222218969836831" lon="7.005904968827963">
        <ele>1051.3399999999999</ele>
        <time>2016-07-26T16:12:31Z</time>
      </trkpt>
      <trkpt lat="47.222052002325654" lon="7.005863981321454">
        <ele>1052.3</ele>
        <time>2016-07-26T16:12:32Z</time>
      </trkpt>
      <trkpt lat="47.221884028986096" lon="7.005798015743494">
        <ele>1053.26</ele>
        <time>2016-07-26T16:12:33Z</time>
      </trkpt>
      <trkpt lat="47.221715971827507" lon="7.005702964961529">
        <ele>1053.74</ele>
        <time>2016-07-26T16:12:34Z</time>
      </trkpt>
      <trkpt lat="47.221560990437865" lon="7.005574973300099">
        <ele>1054.22</ele>
        <time>2016-07-26T16:12:35Z</time>
      </trkpt>
      <trkpt lat="47.221430987119675" lon="7.005415968596935">
        <ele>1054.7</ele>
        <time>2016-07-26T16:12:36Z</time>
      </trkpt>
      <trkpt lat="47.221321016550064" lon="7.005221005529165">
        <ele>1055.1800000000001</ele>
        <time>2016-07-26T16:12:38Z</time>
      </trkpt>
      <trkpt lat="47.220930000767112" lon="7.004496976733208">
        <ele>1057.5899999999999</ele>
        <time>2016-07-26T16:12:41Z</time>
      </trkpt>
      <trkpt lat="47.22081801854074" lon="7.004382982850075">
        <ele>1058.0699999999999</ele>
        <time>2016-07-26T16:12:42Z</time>
      </trkpt>
      <trkpt lat="47.220695978030562" lon="7.004319028928876">
        <ele>1058.55</ele>
        <time>2016-07-26T16:12:43Z</time>
      </trkpt>
      <trkpt lat="47.220564968883991" lon="7.00430603697896">
        <ele>1058.55</ele>
        <time>2016-07-26T16:12:44Z</time>
      </trkpt>
      <trkpt lat="47.220432031899691" lon="7.004349958151579">
        <ele>1059.03</ele>
        <time>2016-07-26T16:12:45Z</time>
      </trkpt>
      <trkpt lat="47.220305968075991" lon="7.004450038075447">
        <ele>1059.99</ele>
        <time>2016-07-26T16:12:46Z</time>
      </trkpt>
      <trkpt lat="47.220190968364477" lon="7.004579035565257">
        <ele>1060.47</ele>
        <time>2016-07-26T16:12:47Z</time>
      </trkpt>
      <trkpt lat="47.220082003623247" lon="7.004726976156235">
        <ele>1061.4300000000001</ele>
        <time>2016-07-26T16:12:48Z</time>
      </trkpt>
      <trkpt lat="47.219651006162167" lon="7.005348997190595">
        <ele>1064.8</ele>
        <time>2016-07-26T16:12:52Z</time>
      </trkpt>
      <trkpt lat="47.21952997148037" lon="7.005457961931825">
        <ele>1065.28</ele>
        <time>2016-07-26T16:12:53Z</time>
      </trkpt>
      <trkpt lat="47.21940097399056" lon="7.005525017157197">
        <ele>1066.24</ele>
        <time>2016-07-26T16:12:54Z</time>
      </trkpt>
      <trkpt lat="47.219263007864356" lon="7.005547983571887">
        <ele>1066.72</ele>
        <time>2016-07-26T16:12:55Z</time>
      </trkpt>
      <trkpt lat="47.219119006767869" lon="7.005526022985578">
        <ele>1066.72</ele>
        <time>2016-07-26T16:12:56Z</time>
      </trkpt>
      <trkpt lat="47.218979028984904" lon="7.005473971366882">
        <ele>1064.8</ele>
        <time>2016-07-26T16:12:57Z</time>
      </trkpt>
      <trkpt lat="47.218843996524811" lon="7.00538101606071">
        <ele>1064.8</ele>
        <time>2016-07-26T16:12:58Z</time>
      </trkpt>
      <trkpt lat="47.218725979328156" lon="7.005261993035674">
        <ele>1062.8699999999999</ele>
        <time>2016-07-26T16:12:59Z</time>
      </trkpt>
      <trkpt lat="47.218617014586926" lon="7.005117991939187">
        <ele>1061.4300000000001</ele>
        <time>2016-07-26T16:13:00Z</time>
      </trkpt>
      <trkpt lat="47.218507966026664" lon="7.004959993064404">
        <ele>1060.95</ele>
        <time>2016-07-26T16:13:01Z</time>
      </trkpt>
      <trkpt lat="47.217490989714861" lon="7.003999007865787">
        <ele>1056.1500000000001</ele>
        <time>2016-07-26T16:13:09Z</time>
      </trkpt>
      <trkpt lat="47.216233033686876" lon="7.003243966028094">
        <ele>1055.1800000000001</ele>
        <time>2016-07-26T16:13:18Z</time>
      </trkpt>
      <trkpt lat="47.21609003841877" lon="7.003220999613404">
        <ele>1055.1800000000001</ele>
        <time>2016-07-26T16:13:19Z</time>
      </trkpt>
      <trkpt lat="47.215949976816773" lon="7.003214964643121">
        <ele>1055.6700000000001</ele>
        <time>2016-07-26T16:13:20Z</time>
      </trkpt>
      <trkpt lat="47.215816034004092" lon="7.003230974078178">
        <ele>1055.6700000000001</ele>
        <time>2016-07-26T16:13:21Z</time>
      </trkpt>
      <trkpt lat="47.215687036514282" lon="7.003265004605055">
        <ele>1055.1800000000001</ele>
        <time>2016-07-26T16:13:22Z</time>
      </trkpt>
      <trkpt lat="47.215563990175724" lon="7.003314038738608">
        <ele>1055.1800000000001</ele>
        <time>2016-07-26T16:13:23Z</time>
      </trkpt>
      <trkpt lat="47.215443961322308" lon="7.003376986831427">
        <ele>1055.1800000000001</ele>
        <time>2016-07-26T16:13:24Z</time>
      </trkpt>
      <trkpt lat="47.215328961610794" lon="7.003455022349954">
        <ele>1054.7</ele>
        <time>2016-07-26T16:13:25Z</time>
      </trkpt>
      <trkpt lat="47.215224020183086" lon="7.003544038161635">
        <ele>1054.22</ele>
        <time>2016-07-26T16:13:26Z</time>
      </trkpt>
      <trkpt lat="47.215123018249869" lon="7.003646967932582">
        <ele>1054.22</ele>
        <time>2016-07-26T16:13:27Z</time>
      </trkpt>
      <trkpt lat="47.214225986972451" lon="7.004422964528203">
        <ele>1051.3399999999999</ele>
        <time>2016-07-26T16:13:36Z</time>
      </trkpt>
      <trkpt lat="47.214109981432557" lon="7.004471998661757">
        <ele>1050.8599999999999</ele>
        <time>2016-07-26T16:13:37Z</time>
      </trkpt>
      <trkpt lat="47.213992970064282" lon="7.004508040845394">
        <ele>1049.9000000000001</ele>
        <time>2016-07-26T16:13:38Z</time>
      </trkpt>
      <trkpt lat="47.213877970352769" lon="7.004532013088465">
        <ele>1048.9400000000001</ele>
        <time>2016-07-26T16:13:39Z</time>
      </trkpt>
      <trkpt lat="47.213762970641255" lon="7.004545005038381">
        <ele>1048.45</ele>
        <time>2016-07-26T16:13:40Z</time>
      </trkpt>
      <trkpt lat="47.212915979325771" lon="7.004238981753588">
        <ele>1043.1700000000001</ele>
        <time>2016-07-26T16:13:48Z</time>
      </trkpt>
      <trkpt lat="47.212454974651337" lon="7.003934970125556">
        <ele>1040.28</ele>
        <time>2016-07-26T16:13:53Z</time>
      </trkpt>
      <trkpt lat="47.212384985759854" lon="7.003903035074472">
        <ele>1038.3599999999999</ele>
        <time>2016-07-26T16:13:54Z</time>
      </trkpt>
      <trkpt lat="47.212305022403598" lon="7.003906974568963">
        <ele>1038.3599999999999</ele>
        <time>2016-07-26T16:13:55Z</time>
      </trkpt>
      <trkpt lat="47.212235033512115" lon="7.003949973732233">
        <ele>1037.4000000000001</ele>
        <time>2016-07-26T16:13:56Z</time>
      </trkpt>
      <trkpt lat="47.212176024913788" lon="7.00402700342238">
        <ele>1036.9200000000001</ele>
        <time>2016-07-26T16:13:57Z</time>
      </trkpt>
      <trkpt lat="47.212109975516796" lon="7.004115013405681">
        <ele>1036.4400000000001</ele>
        <time>2016-07-26T16:13:58Z</time>
      </trkpt>
      <trkpt lat="47.211678978055716" lon="7.005256041884422">
        <ele>1034.04</ele>
        <time>2016-07-26T16:14:07Z</time>
      </trkpt>
      <trkpt lat="47.211609994992614" lon="7.005380010232329">
        <ele>1033.0699999999999</ele>
        <time>2016-07-26T16:14:08Z</time>
      </trkpt>
      <trkpt lat="47.210749005898833" lon="7.006525984033942">
        <ele>1029.23</ele>
        <time>2016-07-26T16:14:20Z</time>
      </trkpt>
      <trkpt lat="47.210708018392324" lon="7.006570994853973">
        <ele>1028.75</ele>
        <time>2016-07-26T16:14:21Z</time>
      </trkpt>
      <trkpt lat="47.210651021450758" lon="7.006664033979178">
        <ele>1025.3800000000001</ele>
        <time>2016-07-26T16:14:23Z</time>
      </trkpt>
      <trkpt lat="47.210623025894165" lon="7.006747014820576">
        <ele>1024.4200000000001</ele>
        <time>2016-07-26T16:14:24Z</time>
      </trkpt>
      <trkpt lat="47.210598969832063" lon="7.00684399344027">
        <ele>1024.4200000000001</ele>
        <time>2016-07-26T16:14:25Z</time>
      </trkpt>
      <trkpt lat="47.210482964292169" lon="7.007171977311373">
        <ele>1022.02</ele>
        <time>2016-07-26T16:14:28Z</time>
      </trkpt>
      <trkpt lat="47.209598002955317" lon="7.008734028786421">
        <ele>1017.6900000000001</ele>
        <time>2016-07-26T16:14:41Z</time>
      </trkpt>
      <trkpt lat="47.209549974650145" lon="7.008869983255863">
        <ele>1017.21</ele>
        <time>2016-07-26T16:14:42Z</time>
      </trkpt>
      <trkpt lat="47.2095160279423" lon="7.009018007665873">
        <ele>1016.73</ele>
        <time>2016-07-26T16:14:43Z</time>
      </trkpt>
      <trkpt lat="47.209498006850481" lon="7.009168965741992">
        <ele>1016.25</ele>
        <time>2016-07-26T16:14:44Z</time>
      </trkpt>
      <trkpt lat="47.209500018507242" lon="7.009323025122285">
        <ele>1015.77</ele>
        <time>2016-07-26T16:14:45Z</time>
      </trkpt>
      <trkpt lat="47.209514016285539" lon="7.009481023997068">
        <ele>1014.8099999999999</ele>
        <time>2016-07-26T16:14:46Z</time>
      </trkpt>
      <trkpt lat="47.209537988528609" lon="7.00963600538671">
        <ele>1014.33</ele>
        <time>2016-07-26T16:14:47Z</time>
      </trkpt>
      <trkpt lat="47.209561038762331" lon="7.00978796929121">
        <ele>1013.85</ele>
        <time>2016-07-26T16:14:48Z</time>
      </trkpt>
      <trkpt lat="47.209561038762331" lon="7.010079994797707">
        <ele>1012.41</ele>
        <time>2016-07-26T16:14:50Z</time>
      </trkpt>
      <trkpt lat="47.20951896160841" lon="7.010213015601039">
        <ele>1011.9299999999999</ele>
        <time>2016-07-26T16:14:51Z</time>
      </trkpt>
      <trkpt lat="47.209461964666843" lon="7.010332038626075">
        <ele>1011.4400000000001</ele>
        <time>2016-07-26T16:14:52Z</time>
      </trkpt>
      <trkpt lat="47.209288040176034" lon="7.010755995288491">
        <ele>1009.04</ele>
        <time>2016-07-26T16:14:55Z</time>
      </trkpt>
      <trkpt lat="47.208898030221462" lon="7.012718031182885">
        <ele>998.47000000000003</ele>
        <time>2016-07-26T16:15:05Z</time>
      </trkpt>
      <trkpt lat="47.208752017468214" lon="7.01466497965157">
        <ele>991.74000000000001</ele>
        <time>2016-07-26T16:15:14Z</time>
      </trkpt>
      <trkpt lat="47.208962989971042" lon="7.017312990501523">
        <ele>988.85000000000002</ele>
        <time>2016-07-26T16:15:24Z</time>
      </trkpt>
      <trkpt lat="47.209226014092565" lon="7.021434037014842">
        <ele>990.77999999999997</ele>
        <time>2016-07-26T16:15:38Z</time>
      </trkpt>
      <trkpt lat="47.208977993577719" lon="7.025901004672051">
        <ele>990.77999999999997</ele>
        <time>2016-07-26T16:15:53Z</time>
      </trkpt>
      <trkpt lat="47.208348009735346" lon="7.029666993767023">
        <ele>996.53999999999996</ele>
        <time>2016-07-26T16:16:06Z</time>
      </trkpt>
      <trkpt lat="47.208246001973748" lon="7.029888024553657">
        <ele>997.99000000000001</ele>
        <time>2016-07-26T16:16:07Z</time>
      </trkpt>
      <trkpt lat="47.208121027797461" lon="7.030082987621427">
        <ele>999.90999999999997</ele>
        <time>2016-07-26T16:16:08Z</time>
      </trkpt>
      <trkpt lat="47.207979960367084" lon="7.030254984274507">
        <ele>1001.35</ele>
        <time>2016-07-26T16:16:09Z</time>
      </trkpt>
      <trkpt lat="47.207834031432867" lon="7.030422035604715">
        <ele>1002.79</ele>
        <time>2016-07-26T16:16:10Z</time>
      </trkpt>
      <trkpt lat="47.207700004801154" lon="7.030608030036092">
        <ele>1004.23</ele>
        <time>2016-07-26T16:16:11Z</time>
      </trkpt>
      <trkpt lat="47.207596991211176" lon="7.030831994488835">
        <ele>1005.2</ele>
        <time>2016-07-26T16:16:12Z</time>
      </trkpt>
      <trkpt lat="47.207511998713017" lon="7.031074985861778">
        <ele>1007.6</ele>
        <time>2016-07-26T16:16:13Z</time>
      </trkpt>
      <trkpt lat="47.206935994327068" lon="7.032911963760853">
        <ele>1017.6900000000001</ele>
        <time>2016-07-26T16:16:20Z</time>
      </trkpt>
      <trkpt lat="47.206882014870644" lon="7.03320600092411">
        <ele>1019.13</ele>
        <time>2016-07-26T16:16:21Z</time>
      </trkpt>
      <trkpt lat="47.206354960799217" lon="7.035235008224845">
        <ele>1025.8599999999999</ele>
        <time>2016-07-26T16:16:28Z</time>
      </trkpt>
      <trkpt lat="47.206062013283372" lon="7.037004008889198">
        <ele>1032.1099999999999</ele>
        <time>2016-07-26T16:16:34Z</time>
      </trkpt>
      <trkpt lat="47.206062013283372" lon="7.037301985546947">
        <ele>1033.0699999999999</ele>
        <time>2016-07-26T16:16:35Z</time>
      </trkpt>
      <trkpt lat="47.206340963020921" lon="7.039933986961842">
        <ele>1039.3199999999999</ele>
        <time>2016-07-26T16:16:43Z</time>
      </trkpt>
      <trkpt lat="47.20657498575747" lon="7.042651986703277">
        <ele>1048.45</ele>
        <time>2016-07-26T16:16:52Z</time>
      </trkpt>
      <trkpt lat="47.206619996577501" lon="7.043672986328602">
        <ele>1053.26</ele>
        <time>2016-07-26T16:16:57Z</time>
      </trkpt>
      <trkpt lat="47.206599963828921" lon="7.043777005746961">
        <ele>1052.78</ele>
        <time>2016-07-26T16:16:58Z</time>
      </trkpt>
      <trkpt lat="47.206554030999541" lon="7.043845988810062">
        <ele>1052.78</ele>
        <time>2016-07-26T16:16:59Z</time>
      </trkpt>
      <trkpt lat="47.206503991037607" lon="7.043898040428758">
        <ele>1053.74</ele>
        <time>2016-07-26T16:17:00Z</time>
      </trkpt>
      <trkpt lat="47.206446994096041" lon="7.043921006843448">
        <ele>1055.1800000000001</ele>
        <time>2016-07-26T16:17:01Z</time>
      </trkpt>
      <trkpt lat="47.206381028518081" lon="7.043937016278505">
        <ele>1056.1500000000001</ele>
        <time>2016-07-26T16:17:02Z</time>
      </trkpt>
      <trkpt lat="47.206305004656315" lon="7.043945984914899">
        <ele>1056.6300000000001</ele>
        <time>2016-07-26T16:17:03Z</time>
      </trkpt>
      <trkpt lat="47.206126973032951" lon="7.043951014056802">
        <ele>1059.51</ele>
        <time>2016-07-26T16:17:05Z</time>
      </trkpt>
      <trkpt lat="47.20601599663496" lon="7.043939027935267">
        <ele>1059.99</ele>
        <time>2016-07-26T16:17:06Z</time>
      </trkpt>
      <trkpt lat="47.205903008580208" lon="7.043906003236771">
        <ele>1060.95</ele>
        <time>2016-07-26T16:17:07Z</time>
      </trkpt>
      <trkpt lat="47.20577702857554" lon="7.043855963274837">
        <ele>1061.9100000000001</ele>
        <time>2016-07-26T16:17:08Z</time>
      </trkpt>
      <trkpt lat="47.205645013600588" lon="7.043808018788695">
        <ele>1062.3900000000001</ele>
        <time>2016-07-26T16:17:09Z</time>
      </trkpt>
      <trkpt lat="47.20487697981298" lon="7.043748004361987">
        <ele>1067.6800000000001</ele>
        <time>2016-07-26T16:17:14Z</time>
      </trkpt>
      <trkpt lat="47.204731972888112" lon="7.043803995475173">
        <ele>1068.6400000000001</ele>
        <time>2016-07-26T16:17:15Z</time>
      </trkpt>
      <trkpt lat="47.204585960134864" lon="7.043880019336939">
        <ele>1069.5999999999999</ele>
        <time>2016-07-26T16:17:16Z</time>
      </trkpt>
      <trkpt lat="47.204455034807324" lon="7.043986972421408">
        <ele>1071.05</ele>
        <time>2016-07-26T16:17:17Z</time>
      </trkpt>
      <trkpt lat="47.20431799069047" lon="7.044107001274824">
        <ele>1071.53</ele>
        <time>2016-07-26T16:17:18Z</time>
      </trkpt>
      <trkpt lat="47.203942984342575" lon="7.044439008459449">
        <ele>1073.45</ele>
        <time>2016-07-26T16:17:21Z</time>
      </trkpt>
      <trkpt lat="47.203827984631062" lon="7.0444639865309">
        <ele>1074.4100000000001</ele>
        <time>2016-07-26T16:17:22Z</time>
      </trkpt>
      <trkpt lat="47.20369697548449" lon="7.044438002631068">
        <ele>1075.3699999999999</ele>
        <time>2016-07-26T16:17:23Z</time>
      </trkpt>
      <trkpt lat="47.203576024621725" lon="7.044362984597683">
        <ele>1075.8499999999999</ele>
        <time>2016-07-26T16:17:24Z</time>
      </trkpt>
      <trkpt lat="47.203472005203366" lon="7.044237004593015">
        <ele>1077.29</ele>
        <time>2016-07-26T16:17:25Z</time>
      </trkpt>
      <trkpt lat="47.203354993835092" lon="7.044079005718231">
        <ele>1078.26</ele>
        <time>2016-07-26T16:17:26Z</time>
      </trkpt>
      <trkpt lat="47.202413035556674" lon="7.042430033907294">
        <ele>1091.71</ele>
        <time>2016-07-26T16:17:34Z</time>
      </trkpt>
      <trkpt lat="47.201421959325671" lon="7.040177984163165">
        <ele>1105.1700000000001</ele>
        <time>2016-07-26T16:17:43Z</time>
      </trkpt>
      <trkpt lat="47.19980601221323" lon="7.037421008571982">
        <ele>1127.28</ele>
        <time>2016-07-26T16:17:55Z</time>
      </trkpt>
      <trkpt lat="47.199663016945124" lon="7.037255968898535">
        <ele>1128.73</ele>
        <time>2016-07-26T16:17:56Z</time>
      </trkpt>
      <trkpt lat="47.199503006413579" lon="7.03713501803577">
        <ele>1130.1700000000001</ele>
        <time>2016-07-26T16:17:57Z</time>
      </trkpt>
      <trkpt lat="47.199322041124105" lon="7.037046002224088">
        <ele>1132.0899999999999</ele>
        <time>2016-07-26T16:17:58Z</time>
      </trkpt>
      <trkpt lat="47.198775038123131" lon="7.036765962839127">
        <ele>1137.3800000000001</ele>
        <time>2016-07-26T16:18:01Z</time>
      </trkpt>
      <trkpt lat="47.19860496930778" lon="7.03662296757102">
        <ele>1139.3</ele>
        <time>2016-07-26T16:18:02Z</time>
      </trkpt>
      <trkpt lat="47.198443030938506" lon="7.036452982574701">
        <ele>1141.7</ele>
        <time>2016-07-26T16:18:03Z</time>
      </trkpt>
      <trkpt lat="47.198292994871736" lon="7.036249972879887">
        <ele>1143.6300000000001</ele>
        <time>2016-07-26T16:18:04Z</time>
      </trkpt>
      <trkpt lat="47.198161985725164" lon="7.03601703979075">
        <ele>1146.03</ele>
        <time>2016-07-26T16:18:05Z</time>
      </trkpt>
      <trkpt lat="47.198034999892116" lon="7.035767007619143">
        <ele>1147.47</ele>
        <time>2016-07-26T16:18:06Z</time>
      </trkpt>
      <trkpt lat="47.19791597686708" lon="7.035515969619155">
        <ele>1149.3900000000001</ele>
        <time>2016-07-26T16:18:07Z</time>
      </trkpt>
      <trkpt lat="47.197545999661088" lon="7.034851033240557">
        <ele>1155.6400000000001</ele>
        <time>2016-07-26T16:18:10Z</time>
      </trkpt>
      <trkpt lat="47.197395041584969" lon="7.03466696664691">
        <ele>1157.0799999999999</ele>
        <time>2016-07-26T16:18:11Z</time>
      </trkpt>
      <trkpt lat="47.197238970547915" lon="7.034511985257268">
        <ele>1158.53</ele>
        <time>2016-07-26T16:18:12Z</time>
      </trkpt>
      <trkpt lat="47.196804033592343" lon="7.034175032749772">
        <ele>1163.3299999999999</ele>
        <time>2016-07-26T16:18:15Z</time>
      </trkpt>
      <trkpt lat="47.196653997525573" lon="7.034124992787838">
        <ele>1164.29</ele>
        <time>2016-07-26T16:18:16Z</time>
      </trkpt>
      <trkpt lat="47.196495998650789" lon="7.03412901610136">
        <ele>1166.22</ele>
        <time>2016-07-26T16:18:17Z</time>
      </trkpt>
      <trkpt lat="47.196329031139612" lon="7.034175032749772">
        <ele>1168.1400000000001</ele>
        <time>2016-07-26T16:18:18Z</time>
      </trkpt>
      <trkpt lat="47.196164997294545" lon="7.034254996106029">
        <ele>1169.5799999999999</ele>
        <time>2016-07-26T16:18:19Z</time>
      </trkpt>
      <trkpt lat="47.195305014029145" lon="7.034679036587477">
        <ele>1175.8299999999999</ele>
        <time>2016-07-26T16:18:24Z</time>
      </trkpt>
      <trkpt lat="47.195148020982742" lon="7.034810967743397">
        <ele>1177.27</ele>
        <time>2016-07-26T16:18:25Z</time>
      </trkpt>
      <trkpt lat="47.194996979087591" lon="7.034967038780451">
        <ele>1179.1900000000001</ele>
        <time>2016-07-26T16:18:26Z</time>
      </trkpt>
      <trkpt lat="47.194846021011472" lon="7.035106010735035">
        <ele>1180.1600000000001</ele>
        <time>2016-07-26T16:18:27Z</time>
      </trkpt>
      <trkpt lat="47.194690033793449" lon="7.035209024325013">
        <ele>1181.1199999999999</ele>
        <time>2016-07-26T16:18:28Z</time>
      </trkpt>
      <trkpt lat="47.194522982463241" lon="7.035245988518">
        <ele>1182.5599999999999</ele>
        <time>2016-07-26T16:18:29Z</time>
      </trkpt>
      <trkpt lat="47.194358026608825" lon="7.035226039588451">
        <ele>1184.48</ele>
        <time>2016-07-26T16:18:30Z</time>
      </trkpt>
      <trkpt lat="47.194179994985461" lon="7.035212041810155">
        <ele>1185.9200000000001</ele>
        <time>2016-07-26T16:18:31Z</time>
      </trkpt>
      <trkpt lat="47.193999029695988" lon="7.035227967426181">
        <ele>1186.8800000000001</ele>
        <time>2016-07-26T16:18:32Z</time>
      </trkpt>
      <trkpt lat="47.193827033042908" lon="7.035287981852889">
        <ele>1188.3299999999999</ele>
        <time>2016-07-26T16:18:33Z</time>
      </trkpt>
      <trkpt lat="47.193654030561447" lon="7.035393007099628">
        <ele>1190.25</ele>
        <time>2016-07-26T16:18:34Z</time>
      </trkpt>
      <trkpt lat="47.19348999671638" lon="7.035528961569071">
        <ele>1192.1700000000001</ele>
        <time>2016-07-26T16:18:35Z</time>
      </trkpt>
      <trkpt lat="47.193353958427906" lon="7.035712022334337">
        <ele>1195.0599999999999</ele>
        <time>2016-07-26T16:18:36Z</time>
      </trkpt>
      <trkpt lat="47.193224960938096" lon="7.03591100871563">
        <ele>1196.02</ele>
        <time>2016-07-26T16:18:37Z</time>
      </trkpt>
      <trkpt lat="47.193113984540105" lon="7.036133967339993">
        <ele>1197.46</ele>
        <time>2016-07-26T16:18:38Z</time>
      </trkpt>
      <trkpt lat="47.193019017577171" lon="7.036386011168361">
        <ele>1198.9000000000001</ele>
        <time>2016-07-26T16:18:39Z</time>
      </trkpt>
      <trkpt lat="47.192934025079012" lon="7.036652974784374">
        <ele>1199.8599999999999</ele>
        <time>2016-07-26T16:18:40Z</time>
      </trkpt>
      <trkpt lat="47.192111006006598" lon="7.039138041436672">
        <ele>1210.4400000000001</ele>
        <time>2016-07-26T16:18:49Z</time>
      </trkpt>
      <trkpt lat="47.191974967718124" lon="7.039366029202938">
        <ele>1210.9200000000001</ele>
        <time>2016-07-26T16:18:50Z</time>
      </trkpt>
      <trkpt lat="47.191816968843341" lon="7.039567027240992">
        <ele>1211.8800000000001</ele>
        <time>2016-07-26T16:18:51Z</time>
      </trkpt>
      <trkpt lat="47.191648995503783" lon="7.039727037772536">
        <ele>1213.3199999999999</ele>
        <time>2016-07-26T16:18:52Z</time>
      </trkpt>
      <trkpt lat="47.19146803021431" lon="7.039857041090727">
        <ele>1214.76</ele>
        <time>2016-07-26T16:18:53Z</time>
      </trkpt>
      <trkpt lat="47.191279018297791" lon="7.039941027760506">
        <ele>1216.6900000000001</ele>
        <time>2016-07-26T16:18:54Z</time>
      </trkpt>
      <trkpt lat="47.191086988896132" lon="7.039990983903408">
        <ele>1218.1300000000001</ele>
        <time>2016-07-26T16:18:55Z</time>
      </trkpt>
      <trkpt lat="47.190905017778277" lon="7.040005987510085">
        <ele>1219.0899999999999</ele>
        <time>2016-07-26T16:18:56Z</time>
      </trkpt>
      <trkpt lat="47.190736038610339" lon="7.039963994175196">
        <ele>1220.53</ele>
        <time>2016-07-26T16:18:57Z</time>
      </trkpt>
      <trkpt lat="47.190572004765272" lon="7.039890987798572">
        <ele>1221.01</ele>
        <time>2016-07-26T16:18:58Z</time>
      </trkpt>
      <trkpt lat="47.190405959263444" lon="7.039790991693735">
        <ele>1221.49</ele>
        <time>2016-07-26T16:18:59Z</time>
      </trkpt>
      <trkpt lat="47.189199971035123" lon="7.039045002311468">
        <ele>1218.1300000000001</ele>
        <time>2016-07-26T16:19:07Z</time>
      </trkpt>
      <trkpt lat="47.188752964138985" lon="7.038793964311481">
        <ele>1214.76</ele>
        <time>2016-07-26T16:19:10Z</time>
      </trkpt>
      <trkpt lat="47.188622038811445" lon="7.038671001791954">
        <ele>1212.8399999999999</ele>
        <time>2016-07-26T16:19:11Z</time>
      </trkpt>
      <trkpt lat="47.188498992472887" lon="7.038518032059073">
        <ele>1211.4000000000001</ele>
        <time>2016-07-26T16:19:12Z</time>
      </trkpt>
      <trkpt lat="47.188116023316979" lon="7.038055015727878">
        <ele>1207.55</ele>
        <time>2016-07-26T16:19:15Z</time>
      </trkpt>
      <trkpt lat="47.187977973371744" lon="7.037935992702842">
        <ele>1206.1099999999999</ele>
        <time>2016-07-26T16:19:16Z</time>
      </trkpt>
      <trkpt lat="47.187828021124005" lon="7.037844965234399">
        <ele>1204.1900000000001</ele>
        <time>2016-07-26T16:19:17Z</time>
      </trkpt>
      <trkpt lat="47.187673039734364" lon="7.037771958857775">
        <ele>1203.23</ele>
        <time>2016-07-26T16:19:18Z</time>
      </trkpt>
      <trkpt lat="47.18751797452569" lon="7.037712028250098">
        <ele>1201.79</ele>
        <time>2016-07-26T16:19:19Z</time>
      </trkpt>
      <trkpt lat="47.187206000089645" lon="7.037574984133244">
        <ele>1199.3800000000001</ele>
        <time>2016-07-26T16:19:21Z</time>
      </trkpt>
      <trkpt lat="47.187061998993158" lon="7.037475993856788">
        <ele>1197.9400000000001</ele>
        <time>2016-07-26T16:19:22Z</time>
      </trkpt>
      <trkpt lat="47.186931995674968" lon="7.037339033558965">
        <ele>1196.5</ele>
        <time>2016-07-26T16:19:23Z</time>
      </trkpt>
      <trkpt lat="47.186235040426254" lon="7.036704020574689">
        <ele>1187.8499999999999</ele>
        <time>2016-07-26T16:19:28Z</time>
      </trkpt>
      <trkpt lat="47.186086010187864" lon="7.036636965349317">
        <ele>1185.9200000000001</ele>
        <time>2016-07-26T16:19:29Z</time>
      </trkpt>
      <trkpt lat="47.184946993365884" lon="7.036290960386396">
        <ele>1174.3900000000001</ele>
        <time>2016-07-26T16:19:37Z</time>
      </trkpt>
      <trkpt lat="47.184800980612636" lon="7.036279980093241">
        <ele>1173.4300000000001</ele>
        <time>2016-07-26T16:19:38Z</time>
      </trkpt>
      <trkpt lat="47.18465899117291" lon="7.036290038377047">
        <ele>1172.47</ele>
        <time>2016-07-26T16:19:39Z</time>
      </trkpt>
      <trkpt lat="47.182786976918578" lon="7.036553984507918">
        <ele>1163.3299999999999</ele>
        <time>2016-07-26T16:19:51Z</time>
      </trkpt>
      <trkpt lat="47.181828003376722" lon="7.036532023921609">
        <ele>1154.6800000000001</ele>
        <time>2016-07-26T16:19:57Z</time>
      </trkpt>
      <trkpt lat="47.1816720161587" lon="7.03644803725183">
        <ele>1153.24</ele>
        <time>2016-07-26T16:19:58Z</time>
      </trkpt>
      <trkpt lat="47.181518962606788" lon="7.036336977034807">
        <ele>1152.28</ele>
        <time>2016-07-26T16:19:59Z</time>
      </trkpt>
      <trkpt lat="47.181382002308965" lon="7.036193981766701">
        <ele>1151.3199999999999</ele>
        <time>2016-07-26T16:20:00Z</time>
      </trkpt>
      <trkpt lat="47.181251998990774" lon="7.036028020083904">
        <ele>1150.3499999999999</ele>
        <time>2016-07-26T16:20:01Z</time>
      </trkpt>
      <trkpt lat="47.181128030642867" lon="7.035845965147018">
        <ele>1149.3900000000001</ele>
        <time>2016-07-26T16:20:02Z</time>
      </trkpt>
      <trkpt lat="47.181009007617831" lon="7.035652007907629">
        <ele>1148.4300000000001</ele>
        <time>2016-07-26T16:20:03Z</time>
      </trkpt>
      <trkpt lat="47.179645020514727" lon="7.033246988430619">
        <ele>1133.05</ele>
        <time>2016-07-26T16:20:15Z</time>
      </trkpt>
      <trkpt lat="47.179525997489691" lon="7.033065017312765">
        <ele>1130.6500000000001</ele>
        <time>2016-07-26T16:20:16Z</time>
      </trkpt>
      <trkpt lat="47.179393982514739" lon="7.032911963760853">
        <ele>1130.1700000000001</ele>
        <time>2016-07-26T16:20:17Z</time>
      </trkpt>
      <trkpt lat="47.179244030267" lon="7.032810961827636">
        <ele>1130.6500000000001</ele>
        <time>2016-07-26T16:20:18Z</time>
      </trkpt>
      <trkpt lat="47.179073039442301" lon="7.032749019563198">
        <ele>1130.1700000000001</ele>
        <time>2016-07-26T16:20:19Z</time>
      </trkpt>
      <trkpt lat="47.17889903113246" lon="7.03270903788507">
        <ele>1129.21</ele>
        <time>2016-07-26T16:20:20Z</time>
      </trkpt>
      <trkpt lat="47.178718987852335" lon="7.032685987651348">
        <ele>1127.76</ele>
        <time>2016-07-26T16:20:21Z</time>
      </trkpt>
      <trkpt lat="47.178546991199255" lon="7.032642988488078">
        <ele>1126.3199999999999</ele>
        <time>2016-07-26T16:20:22Z</time>
      </trkpt>
      <trkpt lat="47.178397960960865" lon="7.032528994604945">
        <ele>1124.8800000000001</ele>
        <time>2016-07-26T16:20:23Z</time>
      </trkpt>
      <trkpt lat="47.178258989006281" lon="7.032383987680078">
        <ele>1123.4400000000001</ele>
        <time>2016-07-26T16:20:24Z</time>
      </trkpt>
      <trkpt lat="47.17810501344502" lon="7.032245015725493">
        <ele>1122</ele>
        <time>2016-07-26T16:20:25Z</time>
      </trkpt>
      <trkpt lat="47.177943997085094" lon="7.032123981043696">
        <ele>1121.03</ele>
        <time>2016-07-26T16:20:26Z</time>
      </trkpt>
      <trkpt lat="47.177158026024699" lon="7.031312026083469">
        <ele>1112.3800000000001</ele>
        <time>2016-07-26T16:20:31Z</time>
      </trkpt>
      <trkpt lat="47.177025005221367" lon="7.03110096976161">
        <ele>1111.4200000000001</ele>
        <time>2016-07-26T16:20:32Z</time>
      </trkpt>
      <trkpt lat="47.175981039181352" lon="7.029315959662199">
        <ele>1095.0799999999999</ele>
        <time>2016-07-26T16:20:40Z</time>
      </trkpt>
      <trkpt lat="47.175670992583036" lon="7.028941037133336">
        <ele>1092.2</ele>
        <time>2016-07-26T16:20:42Z</time>
      </trkpt>
      <trkpt lat="47.175403023138642" lon="7.028497969731689">
        <ele>1089.3099999999999</ele>
        <time>2016-07-26T16:20:44Z</time>
      </trkpt>
      <trkpt lat="47.174167027696967" lon="7.026278022676706">
        <ele>1076.3299999999999</ele>
        <time>2016-07-26T16:20:54Z</time>
      </trkpt>
      <trkpt lat="47.173323975875974" lon="7.024785038083792">
        <ele>1066.24</ele>
        <time>2016-07-26T16:21:01Z</time>
      </trkpt>
      <trkpt lat="47.173166982829571" lon="7.024590997025371">
        <ele>1063.8399999999999</ele>
        <time>2016-07-26T16:21:02Z</time>
      </trkpt>
      <trkpt lat="47.172410013154149" lon="7.023653984069824">
        <ele>1054.7</ele>
        <time>2016-07-26T16:21:07Z</time>
      </trkpt>
      <trkpt lat="47.172300964593887" lon="7.023431025445461">
        <ele>1052.78</ele>
        <time>2016-07-26T16:21:08Z</time>
      </trkpt>
      <trkpt lat="47.172095021232963" lon="7.022945964708924">
        <ele>1047.49</ele>
        <time>2016-07-26T16:21:10Z</time>
      </trkpt>
      <trkpt lat="47.170983999967575" lon="7.02138701453805">
        <ele>1033.0699999999999</ele>
        <time>2016-07-26T16:21:18Z</time>
      </trkpt>
      <trkpt lat="47.16974901035428" lon="7.019375022500753">
        <ele>1007.6</ele>
        <time>2016-07-26T16:21:27Z</time>
      </trkpt>
      <trkpt lat="47.169636022299528" lon="7.019138988107443">
        <ele>1006.16</ele>
        <time>2016-07-26T16:21:28Z</time>
      </trkpt>
      <trkpt lat="47.16953300870955" lon="7.018893985077739">
        <ele>1004.23</ele>
        <time>2016-07-26T16:21:29Z</time>
      </trkpt>
      <trkpt lat="47.169135035946965" lon="7.017998965457082">
        <ele>999.90999999999997</ele>
        <time>2016-07-26T16:21:33Z</time>
      </trkpt>
      <trkpt lat="47.168972007930279" lon="7.017874997109175">
        <ele>997.50999999999999</ele>
        <time>2016-07-26T16:21:34Z</time>
      </trkpt>
      <trkpt lat="47.168808979913592" lon="7.017749017104507">
        <ele>995.58000000000004</ele>
        <time>2016-07-26T16:21:35Z</time>
      </trkpt>
      <trkpt lat="47.168647041544318" lon="7.017601998522878">
        <ele>994.13999999999999</ele>
        <time>2016-07-26T16:21:36Z</time>
      </trkpt>
      <trkpt lat="47.168487031012774" lon="7.017425978556275">
        <ele>992.22000000000003</ele>
        <time>2016-07-26T16:21:37Z</time>
      </trkpt>
      <trkpt lat="47.16710401698947" lon="7.01556796208024">
        <ele>974.90999999999997</ele>
        <time>2016-07-26T16:21:46Z</time>
      </trkpt>
      <trkpt lat="47.165900962427258" lon="7.013515988364816">
        <ele>951.36000000000001</ele>
        <time>2016-07-26T16:21:55Z</time>
      </trkpt>
      <trkpt lat="47.16528195887804" lon="7.012393986806274">
        <ele>941.26999999999998</ele>
        <time>2016-07-26T16:22:00Z</time>
      </trkpt>
      <trkpt lat="47.165185986086726" lon="7.012161975726485">
        <ele>939.83000000000004</ele>
        <time>2016-07-26T16:22:01Z</time>
      </trkpt>
      <trkpt lat="47.16510996222496" lon="7.011918984353542">
        <ele>939.35000000000002</ele>
        <time>2016-07-26T16:22:02Z</time>
      </trkpt>
      <trkpt lat="47.16495799832046" lon="7.011449011042714">
        <ele>934.53999999999996</ele>
        <time>2016-07-26T16:22:04Z</time>
      </trkpt>
      <trkpt lat="47.164863031357527" lon="7.011279026046395">
        <ele>934.53999999999996</ele>
        <time>2016-07-26T16:22:05Z</time>
      </trkpt>
      <trkpt lat="47.16472296975553" lon="7.011165032163262">
        <ele>934.53999999999996</ele>
        <time>2016-07-26T16:22:06Z</time>
      </trkpt>
      <trkpt lat="47.164433961734176" lon="7.010948024690151">
        <ele>932.13999999999999</ele>
        <time>2016-07-26T16:22:08Z</time>
      </trkpt>
      <trkpt lat="47.164303036406636" lon="7.010794971138239">
        <ele>930.69000000000005</ele>
        <time>2016-07-26T16:22:09Z</time>
      </trkpt>
      <trkpt lat="47.164171021431684" lon="7.010610988363624">
        <ele>929.25</ele>
        <time>2016-07-26T16:22:10Z</time>
      </trkpt>
      <trkpt lat="47.163441963493824" lon="7.00969903729856">
        <ele>920.60000000000002</ele>
        <time>2016-07-26T16:22:15Z</time>
      </trkpt>
      <trkpt lat="47.163055976852775" lon="7.009460991248488">
        <ele>916.26999999999998</ele>
        <time>2016-07-26T16:22:18Z</time>
      </trkpt>
      <trkpt lat="47.16295899823308" lon="7.009453028440476">
        <ele>914.83000000000004</ele>
        <time>2016-07-26T16:22:19Z</time>
      </trkpt>
      <trkpt lat="47.162837963551283" lon="7.009496027603746">
        <ele>913.87</ele>
        <time>2016-07-26T16:22:20Z</time>
      </trkpt>
      <trkpt lat="47.162719024345279" lon="7.009580014273524">
        <ele>912.90999999999997</ele>
        <time>2016-07-26T16:22:21Z</time>
      </trkpt>
      <trkpt lat="47.162592960521579" lon="7.009713035076857">
        <ele>912.90999999999997</ele>
        <time>2016-07-26T16:22:22Z</time>
      </trkpt>
      <trkpt lat="47.162459017708898" lon="7.00985100120306">
        <ele>912.90999999999997</ele>
        <time>2016-07-26T16:22:23Z</time>
      </trkpt>
      <trkpt lat="47.161573972553015" lon="7.010815003886819">
        <ele>905.70000000000005</ele>
        <time>2016-07-26T16:22:30Z</time>
      </trkpt>
      <trkpt lat="47.161442963406444" lon="7.010876024141908">
        <ele>904.74000000000001</ele>
        <time>2016-07-26T16:22:31Z</time>
      </trkpt>
      <trkpt lat="47.161300973966718" lon="7.010897984728217">
        <ele>903.77999999999997</ele>
        <time>2016-07-26T16:22:32Z</time>
      </trkpt>
      <trkpt lat="47.161166025325656" lon="7.010879041627049">
        <ele>902.82000000000005</ele>
        <time>2016-07-26T16:22:33Z</time>
      </trkpt>
      <trkpt lat="47.161037027835846" lon="7.010836964473128">
        <ele>901.37</ele>
        <time>2016-07-26T16:22:34Z</time>
      </trkpt>
      <trkpt lat="47.160920016467571" lon="7.010769993066788">
        <ele>900.40999999999997</ele>
        <time>2016-07-26T16:22:35Z</time>
      </trkpt>
      <trkpt lat="47.160803005099297" lon="7.01068701222539">
        <ele>899.92999999999995</ele>
        <time>2016-07-26T16:22:36Z</time>
      </trkpt>
      <trkpt lat="47.159660970792174" lon="7.01017496176064">
        <ele>886.95000000000005</ele>
        <time>2016-07-26T16:22:44Z</time>
      </trkpt>
      <trkpt lat="47.158476021140814" lon="7.00959300622344">
        <ele>874.94000000000005</ele>
        <time>2016-07-26T16:22:53Z</time>
      </trkpt>
      <trkpt lat="47.158239986747503" lon="7.009359989315271">
        <ele>871.57000000000005</ele>
        <time>2016-07-26T16:22:55Z</time>
      </trkpt>
      <trkpt lat="47.157285958528519" lon="7.008049981668592">
        <ele>850.89999999999998</ele>
        <time>2016-07-26T16:23:06Z</time>
      </trkpt>
      <trkpt lat="47.1566859818995" lon="7.006880035623908">
        <ele>838.88999999999999</ele>
        <time>2016-07-26T16:23:18Z</time>
      </trkpt>
      <trkpt lat="47.155879978090525" lon="7.005743030458689">
        <ele>830.24000000000001</ele>
        <time>2016-07-26T16:23:32Z</time>
      </trkpt>
      <trkpt lat="47.155307997018099" lon="7.004534024745226">
        <ele>823.99000000000001</ele>
        <time>2016-07-26T16:23:43Z</time>
      </trkpt>
      <trkpt lat="47.154968027025461" lon="7.003884008154273">
        <ele>821.10000000000002</ele>
        <time>2016-07-26T16:23:49Z</time>
      </trkpt>
      <trkpt lat="47.154894014820457" lon="7.00379298068583">
        <ele>820.62</ele>
        <time>2016-07-26T16:23:50Z</time>
      </trkpt>
      <trkpt lat="47.154821008443832" lon="7.003716034814715">
        <ele>820.13999999999999</ele>
        <time>2016-07-26T16:23:51Z</time>
      </trkpt>
      <trkpt lat="47.1541060321033" lon="7.002934003248811">
        <ele>819.17999999999995</ele>
        <time>2016-07-26T16:24:03Z</time>
      </trkpt>
      <trkpt lat="47.154078036546707" lon="7.00286996550858">
        <ele>819.65999999999997</ele>
        <time>2016-07-26T16:24:04Z</time>
      </trkpt>
      <trkpt lat="47.153925988823175" lon="7.002517003566027">
        <ele>822.05999999999995</ele>
        <time>2016-07-26T16:24:08Z</time>
      </trkpt>
      <trkpt lat="47.153676962479949" lon="7.002037977799773">
        <ele>819.65999999999997</ele>
        <time>2016-07-26T16:24:14Z</time>
      </trkpt>
      <trkpt lat="47.153644021600485" lon="7.001991039142013">
        <ele>820.13999999999999</ele>
        <time>2016-07-26T16:24:15Z</time>
      </trkpt>
      <trkpt lat="47.153590964153409" lon="7.001971006393433">
        <ele>819.65999999999997</ele>
        <time>2016-07-26T16:24:16Z</time>
      </trkpt>
      <trkpt lat="47.153531033545732" lon="7.001989027485251">
        <ele>819.65999999999997</ele>
        <time>2016-07-26T16:24:17Z</time>
      </trkpt>
      <trkpt lat="47.153450986370444" lon="7.002035966143012">
        <ele>820.13999999999999</ele>
        <time>2016-07-26T16:24:18Z</time>
      </trkpt>
      <trkpt lat="47.152802981436253" lon="7.002662010490894">
        <ele>813.88999999999999</ele>
        <time>2016-07-26T16:24:28Z</time>
      </trkpt>
      <trkpt lat="47.152764005586505" lon="7.002685982733965">
        <ele>813.88999999999999</ele>
        <time>2016-07-26T16:24:29Z</time>
      </trkpt>
      <trkpt lat="47.152730980888009" lon="7.002670979127288">
        <ele>813.40999999999997</ele>
        <time>2016-07-26T16:24:30Z</time>
      </trkpt>
      <trkpt lat="47.152684964239597" lon="7.002625968307257">
        <ele>812.45000000000005</ele>
        <time>2016-07-26T16:24:31Z</time>
      </trkpt>
      <trkpt lat="47.152352035045624" lon="7.001833962276578">
        <ele>807.15999999999997</ele>
        <time>2016-07-26T16:24:38Z</time>
      </trkpt>
      <trkpt lat="47.151941992342472" lon="7.000859985128045">
        <ele>800.44000000000005</ele>
        <time>2016-07-26T16:24:47Z</time>
      </trkpt>
      <trkpt lat="47.151889018714428" lon="7.000798964872956">
        <ele>800.44000000000005</ele>
        <time>2016-07-26T16:24:48Z</time>
      </trkpt>
      <trkpt lat="47.151820035651326" lon="7.000735010951757">
        <ele>799.95000000000005</ele>
        <time>2016-07-26T16:24:49Z</time>
      </trkpt>
      <trkpt lat="47.151762032881379" lon="7.000683965161443">
        <ele>799.47000000000003</ele>
        <time>2016-07-26T16:24:50Z</time>
      </trkpt>
      <trkpt lat="47.151718027889729" lon="7.000602995976806">
        <ele>799.47000000000003</ele>
        <time>2016-07-26T16:24:51Z</time>
      </trkpt>
      <trkpt lat="47.151691960170865" lon="7.000486990436912">
        <ele>799.95000000000005</ele>
        <time>2016-07-26T16:24:52Z</time>
      </trkpt>
      <trkpt lat="47.151669999584556" lon="7.000360004603863">
        <ele>799.47000000000003</ele>
        <time>2016-07-26T16:24:53Z</time>
      </trkpt>
      <trkpt lat="47.151654995977879" lon="7.000224972143769">
        <ele>799.47000000000003</ele>
        <time>2016-07-26T16:24:54Z</time>
      </trkpt>
      <trkpt lat="47.151524992659688" lon="6.999089978635311">
        <ele>796.11000000000001</ele>
        <time>2016-07-26T16:25:04Z</time>
      </trkpt>
      <trkpt lat="47.151512000709772" lon="6.999045973643661">
        <ele>796.11000000000001</ele>
        <time>2016-07-26T16:25:06Z</time>
      </trkpt>
      <trkpt lat="47.151482999324799" lon="6.99902200140059">
        <ele>795.63</ele>
        <time>2016-07-26T16:25:07Z</time>
      </trkpt>
      <trkpt lat="47.151437988504767" lon="6.999031975865364">
        <ele>795.14999999999998</ele>
        <time>2016-07-26T16:25:08Z</time>
      </trkpt>
      <trkpt lat="47.151397000998259" lon="6.999053014442325">
        <ele>794.19000000000005</ele>
        <time>2016-07-26T16:25:09Z</time>
      </trkpt>
      <trkpt lat="47.151350984349847" lon="6.999086961150169">
        <ele>793.71000000000004</ele>
        <time>2016-07-26T16:25:10Z</time>
      </trkpt>
      <trkpt lat="47.151289964094758" lon="6.999120991677046">
        <ele>793.22000000000003</ele>
        <time>2016-07-26T16:25:11Z</time>
      </trkpt>
      <trkpt lat="47.151132971048355" lon="6.999192992225289">
        <ele>792.25999999999999</ele>
        <time>2016-07-26T16:25:13Z</time>
      </trkpt>
      <trkpt lat="47.150875981897116" lon="6.9994290266186">
        <ele>790.34000000000003</ele>
        <time>2016-07-26T16:25:18Z</time>
      </trkpt>
      <trkpt lat="47.150280028581619" lon="6.999789029359818">
        <ele>780.25</ele>
        <time>2016-07-26T16:25:28Z</time>
      </trkpt>
      <trkpt lat="47.150017004460096" lon="6.999947028234601">
        <ele>777.84000000000003</ele>
        <time>2016-07-26T16:25:38Z</time>
      </trkpt>
      <trkpt lat="47.149882977828383" lon="7.000050041824579">
        <ele>776.88</ele>
        <time>2016-07-26T16:25:40Z</time>
      </trkpt>
      <trkpt lat="47.149807037785649" lon="7.000099997967482">
        <ele>775.91999999999996</ele>
        <time>2016-07-26T16:25:41Z</time>
      </trkpt>
      <trkpt lat="47.148964991793036" lon="7.000595033168793">
        <ele>772.55999999999995</ele>
        <time>2016-07-26T16:25:48Z</time>
      </trkpt>
      <trkpt lat="47.148439027369022" lon="7.000881023705006">
        <ele>775.44000000000005</ele>
        <time>2016-07-26T16:25:52Z</time>
      </trkpt>
      <trkpt lat="47.148309024050832" lon="7.000884963199496">
        <ele>777.36000000000001</ele>
        <time>2016-07-26T16:25:53Z</time>
      </trkpt>
      <trkpt lat="47.148180026561022" lon="7.000838024541736">
        <ele>778.32000000000005</ele>
        <time>2016-07-26T16:25:54Z</time>
      </trkpt>
      <trkpt lat="47.148072989657521" lon="7.000731993466616">
        <ele>779.28999999999996</ele>
        <time>2016-07-26T16:25:55Z</time>
      </trkpt>
      <trkpt lat="47.147966958582401" lon="7.000588998198509">
        <ele>780.25</ele>
        <time>2016-07-26T16:25:56Z</time>
      </trkpt>
      <trkpt lat="47.147866040468216" lon="7.000435022637248">
        <ele>781.69000000000005</ele>
        <time>2016-07-26T16:25:57Z</time>
      </trkpt>
      <trkpt lat="47.147118039429188" lon="6.999415028840303">
        <ele>789.38</ele>
        <time>2016-07-26T16:26:03Z</time>
      </trkpt>
      <trkpt lat="47.146978983655572" lon="6.999320983886719">
        <ele>790.82000000000005</ele>
        <time>2016-07-26T16:26:04Z</time>
      </trkpt>
      <trkpt lat="47.146831965073943" lon="6.999265998601914">
        <ele>791.77999999999997</ele>
        <time>2016-07-26T16:26:05Z</time>
      </trkpt>
      <trkpt lat="47.146364003419876" lon="6.999139012768865">
        <ele>796.59000000000003</ele>
        <time>2016-07-26T16:26:08Z</time>
      </trkpt>
      <trkpt lat="47.146231988444924" lon="6.99904496781528">
        <ele>798.02999999999997</ele>
        <time>2016-07-26T16:26:09Z</time>
      </trkpt>
      <trkpt lat="47.146145990118384" lon="6.998886968940496">
        <ele>798.99000000000001</ele>
        <time>2016-07-26T16:26:10Z</time>
      </trkpt>
      <trkpt lat="47.145751034840941" lon="6.998007036745548">
        <ele>804.27999999999997</ele>
        <time>2016-07-26T16:26:15Z</time>
      </trkpt>
      <trkpt lat="47.145675010979176" lon="6.997890025377274">
        <ele>805.72000000000003</ele>
        <time>2016-07-26T16:26:16Z</time>
      </trkpt>
      <trkpt lat="47.145592030137777" lon="6.997815007343888">
        <ele>806.67999999999995</ele>
        <time>2016-07-26T16:26:17Z</time>
      </trkpt>
      <trkpt lat="47.145489016547799" lon="6.997760022059083">
        <ele>807.15999999999997</ele>
        <time>2016-07-26T16:26:18Z</time>
      </trkpt>
      <trkpt lat="47.145379967987537" lon="6.997738983482122">
        <ele>808.13</ele>
        <time>2016-07-26T16:26:19Z</time>
      </trkpt>
      <trkpt lat="47.145268991589546" lon="6.99771199375391">
        <ele>809.09000000000003</ele>
        <time>2016-07-26T16:26:20Z</time>
      </trkpt>
      <trkpt lat="47.144780997186899" lon="6.997553994879127">
        <ele>813.40999999999997</ele>
        <time>2016-07-26T16:26:24Z</time>
      </trkpt>
      <trkpt lat="47.144660968333483" lon="6.99745399877429">
        <ele>814.37</ele>
        <time>2016-07-26T16:26:25Z</time>
      </trkpt>
      <trkpt lat="47.14454798027873" lon="6.997328018769622">
        <ele>815.82000000000005</ele>
        <time>2016-07-26T16:26:26Z</time>
      </trkpt>
      <trkpt lat="47.143648015335202" lon="6.996005019173026">
        <ele>823.99000000000001</ele>
        <time>2016-07-26T16:26:34Z</time>
      </trkpt>
      <trkpt lat="47.142568007111549" lon="6.99399302713573">
        <ele>837.45000000000005</ele>
        <time>2016-07-26T16:26:43Z</time>
      </trkpt>
      <trkpt lat="47.142277993261814" lon="6.993247037753463">
        <ele>841.28999999999996</ele>
        <time>2016-07-26T16:26:46Z</time>
      </trkpt>
      <trkpt lat="47.142155030742288" lon="6.993021983653307">
        <ele>842.73000000000002</ele>
        <time>2016-07-26T16:26:47Z</time>
      </trkpt>
      <trkpt lat="47.142015974968672" lon="6.992808999493718">
        <ele>844.65999999999997</ele>
        <time>2016-07-26T16:26:48Z</time>
      </trkpt>
      <trkpt lat="47.141609033569694" lon="6.992112966254354">
        <ele>850.41999999999996</ele>
        <time>2016-07-26T16:26:51Z</time>
      </trkpt>
      <trkpt lat="47.141509959474206" lon="6.991861006245017">
        <ele>851.87</ele>
        <time>2016-07-26T16:26:52Z</time>
      </trkpt>
      <trkpt lat="47.14141096919775" lon="6.991620026528835">
        <ele>853.78999999999996</ele>
        <time>2016-07-26T16:26:53Z</time>
      </trkpt>
      <trkpt lat="47.140971003100276" lon="6.990601038560271">
        <ele>863.39999999999998</ele>
        <time>2016-07-26T16:26:58Z</time>
      </trkpt>
      <trkpt lat="47.140862038359046" lon="6.990483021363616">
        <ele>866.28999999999996</ele>
        <time>2016-07-26T16:26:59Z</time>
      </trkpt>
      <trkpt lat="47.140478985384107" lon="6.990123018622398">
        <ele>871.09000000000003</ele>
        <time>2016-07-26T16:27:02Z</time>
      </trkpt>
      <trkpt lat="47.140374965965748" lon="6.98995596729219">
        <ele>872.52999999999997</ele>
        <time>2016-07-26T16:27:03Z</time>
      </trkpt>
      <trkpt lat="47.139682034030557" lon="6.988817034289241">
        <ele>881.19000000000005</ele>
        <time>2016-07-26T16:27:10Z</time>
      </trkpt>
      <trkpt lat="47.139467038214207" lon="6.988339014351368">
        <ele>884.07000000000005</ele>
        <time>2016-07-26T16:27:13Z</time>
      </trkpt>
      <trkpt lat="47.13941004127264" lon="6.988191995769739">
        <ele>885.50999999999999</ele>
        <time>2016-07-26T16:27:14Z</time>
      </trkpt>
      <trkpt lat="47.139387996867299" lon="6.988047994673252">
        <ele>885.99000000000001</ele>
        <time>2016-07-26T16:27:15Z</time>
      </trkpt>
      <trkpt lat="47.139367964118719" lon="6.987922014668584">
        <ele>886.47000000000003</ele>
        <time>2016-07-26T16:27:16Z</time>
      </trkpt>
      <trkpt lat="47.139361007139087" lon="6.987813971936703">
        <ele>887.42999999999995</ele>
        <time>2016-07-26T16:27:17Z</time>
      </trkpt>
      <trkpt lat="47.139336029067636" lon="6.987707018852234">
        <ele>892.24000000000001</ele>
        <time>2016-07-26T16:27:18Z</time>
      </trkpt>
      <trkpt lat="47.139291018247604" lon="6.987627977505326">
        <ele>893.67999999999995</ele>
        <time>2016-07-26T16:27:19Z</time>
      </trkpt>
      <trkpt lat="47.139231003820896" lon="6.98761397972703">
        <ele>895.61000000000001</ele>
        <time>2016-07-26T16:27:20Z</time>
      </trkpt>
      <trkpt lat="47.139180041849613" lon="6.987649016082287">
        <ele>897.52999999999997</ele>
        <time>2016-07-26T16:27:21Z</time>
      </trkpt>
      <trkpt lat="47.139135031029582" lon="6.987770972773433">
        <ele>899.45000000000005</ele>
        <time>2016-07-26T16:27:22Z</time>
      </trkpt>
      <trkpt lat="47.139125978574157" lon="6.987889995798469">
        <ele>900.88999999999999</ele>
        <time>2016-07-26T16:27:23Z</time>
      </trkpt>
      <trkpt lat="47.139147017151117" lon="6.98804397135973">
        <ele>901.37</ele>
        <time>2016-07-26T16:27:24Z</time>
      </trkpt>
      <trkpt lat="47.139166966080666" lon="6.988199958577752">
        <ele>902.33000000000004</ele>
        <time>2016-07-26T16:27:25Z</time>
      </trkpt>
      <trkpt lat="47.139403000473976" lon="6.98952698148787">
        <ele>909.53999999999996</ele>
        <time>2016-07-26T16:27:32Z</time>
      </trkpt>
      <trkpt lat="47.139773983508348" lon="6.991192968562245">
        <ele>918.67999999999995</ele>
        <time>2016-07-26T16:27:40Z</time>
      </trkpt>
      <trkpt lat="47.140090987086296" lon="6.992919975891709">
        <ele>927.33000000000004</ele>
        <time>2016-07-26T16:27:47Z</time>
      </trkpt>
      <trkpt lat="47.140713008120656" lon="6.995250983163714">
        <ele>944.63</ele>
        <time>2016-07-26T16:27:57Z</time>
      </trkpt>
      <trkpt lat="47.140986006706953" lon="6.996234012767673">
        <ele>955.21000000000004</ele>
        <time>2016-07-26T16:28:02Z</time>
      </trkpt>
      <trkpt lat="47.141003021970391" lon="6.996440039947629">
        <ele>957.61000000000001</ele>
        <time>2016-07-26T16:28:03Z</time>
      </trkpt>
      <trkpt lat="47.140982989221811" lon="6.996641959995031">
        <ele>959.04999999999995</ele>
        <time>2016-07-26T16:28:04Z</time>
      </trkpt>
      <trkpt lat="47.140953987836838" lon="6.996845975518227">
        <ele>961.94000000000005</ele>
        <time>2016-07-26T16:28:05Z</time>
      </trkpt>
      <trkpt lat="47.14091400615871" lon="6.997033981606364">
        <ele>963.86000000000001</ele>
        <time>2016-07-26T16:28:06Z</time>
      </trkpt>
      <trkpt lat="47.140888022258878" lon="6.997242020443082">
        <ele>965.77999999999997</ele>
        <time>2016-07-26T16:28:07Z</time>
      </trkpt>
      <trkpt lat="47.140790037810802" lon="6.998856961727142">
        <ele>975.38999999999999</ele>
        <time>2016-07-26T16:28:15Z</time>
      </trkpt>
      <trkpt lat="47.140967985615134" lon="7.000149032101035">
        <ele>981.63999999999999</ele>
        <time>2016-07-26T16:28:23Z</time>
      </trkpt>
      <trkpt lat="47.141016013920307" lon="7.000363022089005">
        <ele>983.57000000000005</ele>
        <time>2016-07-26T16:28:25Z</time>
      </trkpt>
      <trkpt lat="47.141009978950024" lon="7.000465029850602">
        <ele>985.00999999999999</ele>
        <time>2016-07-26T16:28:26Z</time>
      </trkpt>
      <trkpt lat="47.140966979786754" lon="7.000538958236575">
        <ele>985.00999999999999</ele>
        <time>2016-07-26T16:28:27Z</time>
      </trkpt>
      <trkpt lat="47.140916017815471" lon="7.000510040670633">
        <ele>985.49000000000001</ele>
        <time>2016-07-26T16:28:28Z</time>
      </trkpt>
      <trkpt lat="47.140846028923988" lon="7.000476010143757">
        <ele>985.97000000000003</ele>
        <time>2016-07-26T16:28:29Z</time>
      </trkpt>
      <trkpt lat="47.140773022547364" lon="7.000442985445261">
        <ele>986.45000000000005</ele>
        <time>2016-07-26T16:28:30Z</time>
      </trkpt>
      <trkpt lat="47.140720970928669" lon="7.000348018482328">
        <ele>986.92999999999995</ele>
        <time>2016-07-26T16:28:31Z</time>
      </trkpt>
      <trkpt lat="47.140674032270908" lon="7.000230001285672">
        <ele>986.92999999999995</ele>
        <time>2016-07-26T16:28:32Z</time>
      </trkpt>
      <trkpt lat="47.140059974044561" lon="6.998957041651011">
        <ele>995.58000000000004</ele>
        <time>2016-07-26T16:28:43Z</time>
      </trkpt>
      <trkpt lat="47.139870962128043" lon="6.998572982847691">
        <ele>997.50999999999999</ele>
        <time>2016-07-26T16:28:46Z</time>
      </trkpt>
      <trkpt lat="47.139225974678993" lon="6.99747302569449">
        <ele>1004.23</ele>
        <time>2016-07-26T16:28:53Z</time>
      </trkpt>
      <trkpt lat="47.138248980045319" lon="6.995719028636813">
        <ele>1015.29</ele>
        <time>2016-07-26T16:29:02Z</time>
      </trkpt>
      <trkpt lat="47.137321019545197" lon="6.993841985240579">
        <ele>1032.5899999999999</ele>
        <time>2016-07-26T16:29:10Z</time>
      </trkpt>
      <trkpt lat="47.136792959645391" lon="6.992660975083709">
        <ele>1045.0899999999999</ele>
        <time>2016-07-26T16:29:17Z</time>
      </trkpt>
      <trkpt lat="47.136719031259418" lon="6.992434998974204">
        <ele>1047.01</ele>
        <time>2016-07-26T16:29:19Z</time>
      </trkpt>
      <trkpt lat="47.136672008782625" lon="6.992360986769199">
        <ele>1048.45</ele>
        <time>2016-07-26T16:29:20Z</time>
      </trkpt>
      <trkpt lat="47.136609982699156" lon="6.992344977334142">
        <ele>1050.8599999999999</ele>
        <time>2016-07-26T16:29:21Z</time>
      </trkpt>
      <trkpt lat="47.136559020727873" lon="6.99238202534616">
        <ele>1052.78</ele>
        <time>2016-07-26T16:29:22Z</time>
      </trkpt>
      <trkpt lat="47.136517027392983" lon="6.992471041157842">
        <ele>1054.7</ele>
        <time>2016-07-26T16:29:23Z</time>
      </trkpt>
      <trkpt lat="47.136504035443068" lon="6.992587968707085">
        <ele>1055.6700000000001</ele>
        <time>2016-07-26T16:29:24Z</time>
      </trkpt>
      <trkpt lat="47.136525996029377" lon="6.99272601865232">
        <ele>1057.1099999999999</ele>
        <time>2016-07-26T16:29:25Z</time>
      </trkpt>
      <trkpt lat="47.136603025719523" lon="6.993358014151454">
        <ele>1064.3199999999999</ele>
        <time>2016-07-26T16:29:29Z</time>
      </trkpt>
      <trkpt lat="47.136591039597988" lon="6.993519030511379">
        <ele>1065.28</ele>
        <time>2016-07-26T16:29:30Z</time>
      </trkpt>
      <trkpt lat="47.136558014899492" lon="6.993705024942756">
        <ele>1064.8</ele>
        <time>2016-07-26T16:29:31Z</time>
      </trkpt>
      <trkpt lat="47.136494982987642" lon="6.993868974968791">
        <ele>1065.76</ele>
        <time>2016-07-26T16:29:32Z</time>
      </trkpt>
      <trkpt lat="47.136412002146244" lon="6.99399403296411">
        <ele>1066.72</ele>
        <time>2016-07-26T16:29:33Z</time>
      </trkpt>
      <trkpt lat="47.136299014091492" lon="6.994071984663606">
        <ele>1068.1600000000001</ele>
        <time>2016-07-26T16:29:34Z</time>
      </trkpt>
      <trkpt lat="47.136165993288159" lon="6.994095034897327">
        <ele>1070.0799999999999</ele>
        <time>2016-07-26T16:29:35Z</time>
      </trkpt>
      <trkpt lat="47.136039007455111" lon="6.994094029068947">
        <ele>1072.01</ele>
        <time>2016-07-26T16:29:36Z</time>
      </trkpt>
      <trkpt lat="47.135905986651778" lon="6.994097968563438">
        <ele>1073.45</ele>
        <time>2016-07-26T16:29:37Z</time>
      </trkpt>
      <trkpt lat="47.135775983333588" lon="6.994139039888978">
        <ele>1075.3699999999999</ele>
        <time>2016-07-26T16:29:38Z</time>
      </trkpt>
      <trkpt lat="47.135646985843778" lon="6.994225038215518">
        <ele>1075.8499999999999</ele>
        <time>2016-07-26T16:29:39Z</time>
      </trkpt>
      <trkpt lat="47.135527962818742" lon="6.99434095993638">
        <ele>1077.29</ele>
        <time>2016-07-26T16:29:40Z</time>
      </trkpt>
      <trkpt lat="47.135412963107228" lon="6.994469035416842">
        <ele>1077.78</ele>
        <time>2016-07-26T16:29:41Z</time>
      </trkpt>
      <trkpt lat="47.134098010137677" lon="6.995724979788065">
        <ele>1083.0599999999999</ele>
        <time>2016-07-26T16:29:51Z</time>
      </trkpt>
      <trkpt lat="47.132347030565143" lon="6.996812028810382">
        <ele>1099.4000000000001</ele>
        <time>2016-07-26T16:30:02Z</time>
      </trkpt>
      <trkpt lat="47.13154898956418" lon="6.997373029589653">
        <ele>1107.5799999999999</ele>
        <time>2016-07-26T16:30:09Z</time>
      </trkpt>
      <trkpt lat="47.13062203489244" lon="6.998454965651035">
        <ele>1103.25</ele>
        <time>2016-07-26T16:30:16Z</time>
      </trkpt>
      <trkpt lat="47.128961998969316" lon="7.000539964064956">
        <ele>1099.8900000000001</ele>
        <time>2016-07-26T16:30:27Z</time>
      </trkpt>
      <trkpt lat="47.128828978165984" lon="7.000683965161443">
        <ele>1101.3299999999999</ele>
        <time>2016-07-26T16:30:28Z</time>
      </trkpt>
      <trkpt lat="47.128691012039781" lon="7.000787984579802">
        <ele>1102.29</ele>
        <time>2016-07-26T16:30:29Z</time>
      </trkpt>
      <trkpt lat="47.128552040085196" lon="7.000840958207846">
        <ele>1103.73</ele>
        <time>2016-07-26T16:30:30Z</time>
      </trkpt>
      <trkpt lat="47.128423964604735" lon="7.000831989571452">
        <ele>1104.6900000000001</ele>
        <time>2016-07-26T16:30:31Z</time>
      </trkpt>
      <trkpt lat="47.128313994035125" lon="7.00078203342855">
        <ele>1105.1700000000001</ele>
        <time>2016-07-26T16:30:32Z</time>
      </trkpt>
      <trkpt lat="47.128209974616766" lon="7.000708021223545">
        <ele>1107.0999999999999</ele>
        <time>2016-07-26T16:30:33Z</time>
      </trkpt>
      <trkpt lat="47.128116013482213" lon="7.000642977654934">
        <ele>1107.5799999999999</ele>
        <time>2016-07-26T16:30:34Z</time>
      </trkpt>
      <trkpt lat="47.127924989908934" lon="7.000533007085323">
        <ele>1109.02</ele>
        <time>2016-07-26T16:30:36Z</time>
      </trkpt>
      <trkpt lat="47.12782901711762" lon="7.000495959073305">
        <ele>1109.5</ele>
        <time>2016-07-26T16:30:37Z</time>
      </trkpt>
      <trkpt lat="47.12772399187088" lon="7.000490007922053">
        <ele>1110.46</ele>
        <time>2016-07-26T16:30:38Z</time>
      </trkpt>
      <trkpt lat="47.127626007422805" lon="7.000502999871969">
        <ele>1110.9400000000001</ele>
        <time>2016-07-26T16:30:39Z</time>
      </trkpt>
      <trkpt lat="47.127537997439504" lon="7.000536024570465">
        <ele>1111.9000000000001</ele>
        <time>2016-07-26T16:30:40Z</time>
      </trkpt>
      <trkpt lat="47.127457028254867" lon="7.000586986541748">
        <ele>1112.3800000000001</ele>
        <time>2016-07-26T16:30:41Z</time>
      </trkpt>
      <trkpt lat="47.127390978857875" lon="7.00065697543323">
        <ele>1112.8599999999999</ele>
        <time>2016-07-26T16:30:42Z</time>
      </trkpt>
      <trkpt lat="47.12733699940145" lon="7.000749008730054">
        <ele>1113.3399999999999</ele>
        <time>2016-07-26T16:30:43Z</time>
      </trkpt>
      <trkpt lat="47.127301041036844" lon="7.000858979299665">
        <ele>1113.3399999999999</ele>
        <time>2016-07-26T16:30:44Z</time>
      </trkpt>
      <trkpt lat="47.127260975539684" lon="7.000979008153081">
        <ele>1113.3399999999999</ele>
        <time>2016-07-26T16:30:45Z</time>
      </trkpt>
      <trkpt lat="47.127237003296614" lon="7.001119991764426">
        <ele>1113.8199999999999</ele>
        <time>2016-07-26T16:30:46Z</time>
      </trkpt>
      <trkpt lat="47.126879012212157" lon="7.002642983570695">
        <ele>1110.9400000000001</ele>
        <time>2016-07-26T16:30:55Z</time>
      </trkpt>
      <trkpt lat="47.126816986128688" lon="7.002791007980704">
        <ele>1110.46</ele>
        <time>2016-07-26T16:30:56Z</time>
      </trkpt>
      <trkpt lat="47.126740962266922" lon="7.002916987985373">
        <ele>1109.98</ele>
        <time>2016-07-26T16:30:57Z</time>
      </trkpt>
      <trkpt lat="47.126657981425524" lon="7.003023019060493">
        <ele>1110.46</ele>
        <time>2016-07-26T16:30:58Z</time>
      </trkpt>
      <trkpt lat="47.126586986705661" lon="7.003123015165329">
        <ele>1109.98</ele>
        <time>2016-07-26T16:30:59Z</time>
      </trkpt>
      <trkpt lat="47.126535018905997" lon="7.003239020705223">
        <ele>1109.5</ele>
        <time>2016-07-26T16:31:00Z</time>
      </trkpt>
      <trkpt lat="47.126514986157417" lon="7.003372963517904">
        <ele>1109.02</ele>
        <time>2016-07-26T16:31:01Z</time>
      </trkpt>
      <trkpt lat="47.126508029177785" lon="7.003517970442772">
        <ele>1108.54</ele>
        <time>2016-07-26T16:31:02Z</time>
      </trkpt>
      <trkpt lat="47.126700980588794" lon="7.004965022206307">
        <ele>1113.3399999999999</ele>
        <time>2016-07-26T16:31:10Z</time>
      </trkpt>
      <trkpt lat="47.127396007999778" lon="7.007210031151772">
        <ele>1122.96</ele>
        <time>2016-07-26T16:31:23Z</time>
      </trkpt>
      <trkpt lat="47.128379959613085" lon="7.009588982909918">
        <ele>1134.49</ele>
        <time>2016-07-26T16:31:37Z</time>
      </trkpt>
      <trkpt lat="47.12897096760571" lon="7.011579014360905">
        <ele>1143.1400000000001</ele>
        <time>2016-07-26T16:31:48Z</time>
      </trkpt>
      <trkpt lat="47.129165008664131" lon="7.01326796784997">
        <ele>1149.8699999999999</ele>
        <time>2016-07-26T16:31:56Z</time>
      </trkpt>
      <trkpt lat="47.129512019455433" lon="7.015440976247191">
        <ele>1159.49</ele>
        <time>2016-07-26T16:32:05Z</time>
      </trkpt>
      <trkpt lat="47.12980798445642" lon="7.016298025846481">
        <ele>1164.77</ele>
        <time>2016-07-26T16:32:09Z</time>
      </trkpt>
      <trkpt lat="47.129909992218018" lon="7.016485026106238">
        <ele>1165.74</ele>
        <time>2016-07-26T16:32:10Z</time>
      </trkpt>
      <trkpt lat="47.130953958258033" lon="7.017963007092476">
        <ele>1174.8699999999999</ele>
        <time>2016-07-26T16:32:19Z</time>
      </trkpt>
      <trkpt lat="47.131064012646675" lon="7.018130980432034">
        <ele>1175.8299999999999</ele>
        <time>2016-07-26T16:32:20Z</time>
      </trkpt>
      <trkpt lat="47.131167026236653" lon="7.018311023712158">
        <ele>1177.75</ele>
        <time>2016-07-26T16:32:21Z</time>
      </trkpt>
      <trkpt lat="47.131810002028942" lon="7.019919008016586">
        <ele>1190.73</ele>
        <time>2016-07-26T16:32:29Z</time>
      </trkpt>
      <trkpt lat="47.131835985928774" lon="7.020134003832936">
        <ele>1192.6500000000001</ele>
        <time>2016-07-26T16:32:30Z</time>
      </trkpt>
      <trkpt lat="47.131808996200562" lon="7.020354028791189">
        <ele>1197.46</ele>
        <time>2016-07-26T16:32:31Z</time>
      </trkpt>
      <trkpt lat="47.131802039220929" lon="7.021007984876633">
        <ele>1201.3</ele>
        <time>2016-07-26T16:32:34Z</time>
      </trkpt>
      <trkpt lat="47.131819976493716" lon="7.021205965429544">
        <ele>1201.79</ele>
        <time>2016-07-26T16:32:35Z</time>
      </trkpt>
      <trkpt lat="47.131855012848973" lon="7.021576026454568">
        <ele>1204.1900000000001</ele>
        <time>2016-07-26T16:32:37Z</time>
      </trkpt>
      <trkpt lat="47.13189197704196" lon="7.02175498008728">
        <ele>1205.6300000000001</ele>
        <time>2016-07-26T16:32:38Z</time>
      </trkpt>
      <trkpt lat="47.132073026150465" lon="7.02252603136003">
        <ele>1210.4400000000001</ele>
        <time>2016-07-26T16:32:43Z</time>
      </trkpt>
      <trkpt lat="47.132044024765491" lon="7.022675983607769">
        <ele>1211.8800000000001</ele>
        <time>2016-07-26T16:32:44Z</time>
      </trkpt>
      <trkpt lat="47.131975963711739" lon="7.02278696000576">
        <ele>1212.3599999999999</ele>
        <time>2016-07-26T16:32:45Z</time>
      </trkpt>
      <trkpt lat="47.131855012848973" lon="7.022860972210765">
        <ele>1213.8</ele>
        <time>2016-07-26T16:32:46Z</time>
      </trkpt>
      <trkpt lat="47.131725009530783" lon="7.022884022444487">
        <ele>1215.24</ele>
        <time>2016-07-26T16:32:47Z</time>
      </trkpt>
      <trkpt lat="47.131586037576199" lon="7.022884022444487">
        <ele>1216.21</ele>
        <time>2016-07-26T16:32:48Z</time>
      </trkpt>
      <trkpt lat="47.13143901899457" lon="7.022878993302584">
        <ele>1216.6900000000001</ele>
        <time>2016-07-26T16:32:49Z</time>
      </trkpt>
      <trkpt lat="47.13002298027277" lon="7.022513039410114">
        <ele>1227.74</ele>
        <time>2016-07-26T16:32:57Z</time>
      </trkpt>
      <trkpt lat="47.128476016223431" lon="7.021827986463904">
        <ele>1236.8699999999999</ele>
        <time>2016-07-26T16:33:06Z</time>
      </trkpt>
      <trkpt lat="47.127543026581407" lon="7.021402018144727">
        <ele>1242.6400000000001</ele>
        <time>2016-07-26T16:33:12Z</time>
      </trkpt>
      <trkpt lat="47.12611198425293" lon="7.020995998755097">
        <ele>1257.0599999999999</ele>
        <time>2016-07-26T16:33:20Z</time>
      </trkpt>
      <trkpt lat="47.124568959698081" lon="7.020316980779171">
        <ele>1270.04</ele>
        <time>2016-07-26T16:33:29Z</time>
      </trkpt>
      <trkpt lat="47.124188002198935" lon="7.020060997456312">
        <ele>1278.21</ele>
        <time>2016-07-26T16:33:33Z</time>
      </trkpt>
      <trkpt lat="47.124122958630323" lon="7.020065020769835">
        <ele>1281.5699999999999</ele>
        <time>2016-07-26T16:33:34Z</time>
      </trkpt>
      <trkpt lat="47.124083982780576" lon="7.020131992176175">
        <ele>1282.54</ele>
        <time>2016-07-26T16:33:35Z</time>
      </trkpt>
      <trkpt lat="47.12413502857089" lon="7.020243974402547">
        <ele>1285.4200000000001</ele>
        <time>2016-07-26T16:33:36Z</time>
      </trkpt>
      <trkpt lat="47.124192025512457" lon="7.020327039062977">
        <ele>1286.8599999999999</ele>
        <time>2016-07-26T16:33:37Z</time>
      </trkpt>
      <trkpt lat="47.124269977211952" lon="7.020384036004543">
        <ele>1287.8199999999999</ele>
        <time>2016-07-26T16:33:38Z</time>
      </trkpt>
      <trkpt lat="47.12437299080193" lon="7.020428040996194">
        <ele>1289.27</ele>
        <time>2016-07-26T16:33:39Z</time>
      </trkpt>
      <trkpt lat="47.12447902187705" lon="7.020483026280999">
        <ele>1290.71</ele>
        <time>2016-07-26T16:33:40Z</time>
      </trkpt>
      <trkpt lat="47.124605001881719" lon="7.020577993243933">
        <ele>1292.6300000000001</ele>
        <time>2016-07-26T16:33:41Z</time>
      </trkpt>
      <trkpt lat="47.124714972451329" lon="7.020684024319053">
        <ele>1294.0699999999999</ele>
        <time>2016-07-26T16:33:42Z</time>
      </trkpt>
      <trkpt lat="47.124819997698069" lon="7.02080899849534">
        <ele>1295.51</ele>
        <time>2016-07-26T16:33:43Z</time>
      </trkpt>
      <trkpt lat="47.125799003988504" lon="7.02205597423017">
        <ele>1309.45</ele>
        <time>2016-07-26T16:33:51Z</time>
      </trkpt>
      <trkpt lat="47.126438040286303" lon="7.022951999679208">
        <ele>1319.0699999999999</ele>
        <time>2016-07-26T16:33:56Z</time>
      </trkpt>
      <trkpt lat="47.127429032698274" lon="7.024269970133901">
        <ele>1333.97</ele>
        <time>2016-07-26T16:34:04Z</time>
      </trkpt>
      <trkpt lat="47.127649979665875" lon="7.024584040045738">
        <ele>1341.1800000000001</ele>
        <time>2016-07-26T16:34:09Z</time>
      </trkpt>
      <trkpt lat="47.127835974097252" lon="7.024788977578282">
        <ele>1347.9100000000001</ele>
        <time>2016-07-26T16:34:14Z</time>
      </trkpt>
      <trkpt lat="47.128519015386701" lon="7.025788016617298">
        <ele>1356.5599999999999</ele>
        <time>2016-07-26T16:34:24Z</time>
      </trkpt>
      <trkpt lat="47.128581963479519" lon="7.025875020772219">
        <ele>1358.96</ele>
        <time>2016-07-26T16:34:25Z</time>
      </trkpt>
      <trkpt lat="47.129233991727233" lon="7.026898032054305">
        <ele>1370.98</ele>
        <time>2016-07-26T16:34:35Z</time>
      </trkpt>
      <trkpt lat="47.129325019195676" lon="7.027142029255629">
        <ele>1374.3399999999999</ele>
        <time>2016-07-26T16:34:42Z</time>
      </trkpt>
      <trkpt lat="47.12950699031353" lon="7.02744897454977">
        <ele>1377.23</ele>
        <time>2016-07-26T16:34:51Z</time>
      </trkpt>
      <trkpt lat="47.130222972482443" lon="7.028903989121318">
        <ele>1390.2</ele>
        <time>2016-07-26T16:35:02Z</time>
      </trkpt>
      <trkpt lat="47.13088296353817" lon="7.030373001471162">
        <ele>1403.1800000000001</ele>
        <time>2016-07-26T16:35:11Z</time>
      </trkpt>
      <trkpt lat="47.131163002923131" lon="7.031089989468455">
        <ele>1409.9100000000001</ele>
        <time>2016-07-26T16:35:15Z</time>
      </trkpt>
      <trkpt lat="47.131259981542826" lon="7.031242959201336">
        <ele>1410.8699999999999</ele>
        <time>2016-07-26T16:35:16Z</time>
      </trkpt>
      <trkpt lat="47.131367018446326" lon="7.031385032460094">
        <ele>1412.3099999999999</ele>
        <time>2016-07-26T16:35:17Z</time>
      </trkpt>
      <trkpt lat="47.131571033969522" lon="7.031663982197642">
        <ele>1415.6800000000001</ele>
        <time>2016-07-26T16:35:19Z</time>
      </trkpt>
      <trkpt lat="47.131647979840636" lon="7.03180898912251">
        <ele>1417.1199999999999</ele>
        <time>2016-07-26T16:35:20Z</time>
      </trkpt>
      <trkpt lat="47.131705982610583" lon="7.031952990218997">
        <ele>1418.5599999999999</ele>
        <time>2016-07-26T16:35:21Z</time>
      </trkpt>
      <trkpt lat="47.131887031719089" lon="7.032891009002924">
        <ele>1421.9300000000001</ele>
        <time>2016-07-26T16:35:29Z</time>
      </trkpt>
      <trkpt lat="47.131877979263663" lon="7.032985975965858">
        <ele>1421.9300000000001</ele>
        <time>2016-07-26T16:35:30Z</time>
      </trkpt>
      <trkpt lat="47.131864987313747" lon="7.033068034797907">
        <ele>1421.45</ele>
        <time>2016-07-26T16:35:31Z</time>
      </trkpt>
      <trkpt lat="47.131837997585535" lon="7.033144980669022">
        <ele>1420.97</ele>
        <time>2016-07-26T16:35:32Z</time>
      </trkpt>
      <trkpt lat="47.131800027564168" lon="7.033222010359168">
        <ele>1420.49</ele>
        <time>2016-07-26T16:35:33Z</time>
      </trkpt>
      <trkpt lat="47.131748981773853" lon="7.033299962058663">
        <ele>1420</ele>
        <time>2016-07-26T16:35:34Z</time>
      </trkpt>
      <trkpt lat="47.131690979003906" lon="7.03337699174881">
        <ele>1419.52</ele>
        <time>2016-07-26T16:35:35Z</time>
      </trkpt>
      <trkpt lat="47.131312033161521" lon="7.03380798920989">
        <ele>1415.2</ele>
        <time>2016-07-26T16:35:40Z</time>
      </trkpt>
      <trkpt lat="47.131235003471375" lon="7.033928018063307">
        <ele>1414.24</ele>
        <time>2016-07-26T16:35:41Z</time>
      </trkpt>
      <trkpt lat="47.130832001566887" lon="7.034716000780463">
        <ele>1409.4300000000001</ele>
        <time>2016-07-26T16:35:47Z</time>
      </trkpt>
      <trkpt lat="47.130520027130842" lon="7.03516099601984">
        <ele>1406.0699999999999</ele>
        <time>2016-07-26T16:35:51Z</time>
      </trkpt>
      <trkpt lat="47.130418019369245" lon="7.035234002396464">
        <ele>1405.0999999999999</ele>
        <time>2016-07-26T16:35:52Z</time>
      </trkpt>
      <trkpt lat="47.130313999950886" lon="7.035284964367747">
        <ele>1404.1400000000001</ele>
        <time>2016-07-26T16:35:53Z</time>
      </trkpt>
      <trkpt lat="47.130217021331191" lon="7.035313965752721">
        <ele>1404.1400000000001</ele>
        <time>2016-07-26T16:35:54Z</time>
      </trkpt>
      <trkpt lat="47.130131023004651" lon="7.035313965752721">
        <ele>1403.6600000000001</ele>
        <time>2016-07-26T16:35:55Z</time>
      </trkpt>
      <trkpt lat="47.130034966394305" lon="7.035283958539367">
        <ele>1403.1800000000001</ele>
        <time>2016-07-26T16:35:56Z</time>
      </trkpt>
      <trkpt lat="47.129934970289469" lon="7.035248000174761">
        <ele>1402.22</ele>
        <time>2016-07-26T16:35:57Z</time>
      </trkpt>
      <trkpt lat="47.128885975107551" lon="7.034619022160769">
        <ele>1394.53</ele>
        <time>2016-07-26T16:36:07Z</time>
      </trkpt>
      <trkpt lat="47.128495965152979" lon="7.034319033846259">
        <ele>1391.6500000000001</ele>
        <time>2016-07-26T16:36:11Z</time>
      </trkpt>
      <trkpt lat="47.128399992361665" lon="7.034271005541086">
        <ele>1391.1700000000001</ele>
        <time>2016-07-26T16:36:12Z</time>
      </trkpt>
      <trkpt lat="47.127334987744689" lon="7.033908991143107">
        <ele>1386.3599999999999</ele>
        <time>2016-07-26T16:36:21Z</time>
      </trkpt>
      <trkpt lat="47.127114040777087" lon="7.033864986151457">
        <ele>1386.3599999999999</ele>
        <time>2016-07-26T16:36:23Z</time>
      </trkpt>
      <trkpt lat="47.1270149666816" lon="7.033903039991856">
        <ele>1385.8800000000001</ele>
        <time>2016-07-26T16:36:24Z</time>
      </trkpt>
      <trkpt lat="47.126940032467246" lon="7.033995995298028">
        <ele>1386.8399999999999</ele>
        <time>2016-07-26T16:36:25Z</time>
      </trkpt>
      <trkpt lat="47.126892004162073" lon="7.034136978909373">
        <ele>1387.8</ele>
        <time>2016-07-26T16:36:26Z</time>
      </trkpt>
      <trkpt lat="47.126865014433861" lon="7.034304030239582">
        <ele>1388.76</ele>
        <time>2016-07-26T16:36:27Z</time>
      </trkpt>
      <trkpt lat="47.126845987513661" lon="7.034490024670959">
        <ele>1389.72</ele>
        <time>2016-07-26T16:36:28Z</time>
      </trkpt>
      <trkpt lat="47.126805000007153" lon="7.03565301373601">
        <ele>1398.3699999999999</ele>
        <time>2016-07-26T16:36:33Z</time>
      </trkpt>
      <trkpt lat="47.126816986128688" lon="7.037056982517242">
        <ele>1408.95</ele>
        <time>2016-07-26T16:36:38Z</time>
      </trkpt>
      <trkpt lat="47.126866020262241" lon="7.037352025508881">
        <ele>1410.8699999999999</ele>
        <time>2016-07-26T16:36:39Z</time>
      </trkpt>
      <trkpt lat="47.126930980011821" lon="7.037646984681487">
        <ele>1413.28</ele>
        <time>2016-07-26T16:36:40Z</time>
      </trkpt>
      <trkpt lat="47.127005998045206" lon="7.037931969389319">
        <ele>1415.2</ele>
        <time>2016-07-26T16:36:41Z</time>
      </trkpt>
      <trkpt lat="47.12710197083652" lon="7.038215026259422">
        <ele>1417.1199999999999</ele>
        <time>2016-07-26T16:36:42Z</time>
      </trkpt>
      <trkpt lat="47.127202972769737" lon="7.038490036502481">
        <ele>1418.5599999999999</ele>
        <time>2016-07-26T16:36:43Z</time>
      </trkpt>
      <trkpt lat="47.127288971096277" lon="7.038751970976591">
        <ele>1420</ele>
        <time>2016-07-26T16:36:44Z</time>
      </trkpt>
      <trkpt lat="47.127353008836508" lon="7.039006026461721">
        <ele>1421.9300000000001</ele>
        <time>2016-07-26T16:36:45Z</time>
      </trkpt>
      <trkpt lat="47.12750799022615" lon="7.039646990597248">
        <ele>1425.77</ele>
        <time>2016-07-26T16:36:48Z</time>
      </trkpt>
      <trkpt lat="47.127571022138" lon="7.039820998907089">
        <ele>1427.21</ele>
        <time>2016-07-26T16:36:49Z</time>
      </trkpt>
      <trkpt lat="47.127705970779061" lon="7.040225006639957">
        <ele>1430.0999999999999</ele>
        <time>2016-07-26T16:36:52Z</time>
      </trkpt>
      <trkpt lat="47.127713011577725" lon="7.040327014401555">
        <ele>1430.5799999999999</ele>
        <time>2016-07-26T16:36:53Z</time>
      </trkpt>
      <trkpt lat="47.127690967172384" lon="7.040415024384856">
        <ele>1431.54</ele>
        <time>2016-07-26T16:36:54Z</time>
      </trkpt>
      <trkpt lat="47.12763799354434" lon="7.040441008284688">
        <ele>1430.5799999999999</ele>
        <time>2016-07-26T16:36:55Z</time>
      </trkpt>
      <trkpt lat="47.127565992996097" lon="7.04042499884963">
        <ele>1431.0599999999999</ele>
        <time>2016-07-26T16:36:56Z</time>
      </trkpt>
      <trkpt lat="47.127476977184415" lon="7.040362972766161">
        <ele>1432.02</ele>
        <time>2016-07-26T16:36:57Z</time>
      </trkpt>
      <trkpt lat="47.127388967201114" lon="7.040283009409905">
        <ele>1432.98</ele>
        <time>2016-07-26T16:36:58Z</time>
      </trkpt>
      <trkpt lat="47.127286959439516" lon="7.04018896445632">
        <ele>1433.46</ele>
        <time>2016-07-26T16:36:59Z</time>
      </trkpt>
      <trkpt lat="47.126545999199152" lon="7.039370974525809">
        <ele>1439.71</ele>
        <time>2016-07-26T16:37:05Z</time>
      </trkpt>
      <trkpt lat="47.125458028167486" lon="7.037771036848426">
        <ele>1447.8800000000001</ele>
        <time>2016-07-26T16:37:14Z</time>
      </trkpt>
      <trkpt lat="47.124348012730479" lon="7.036258019506931">
        <ele>1460.8599999999999</ele>
        <time>2016-07-26T16:37:23Z</time>
      </trkpt>
      <trkpt lat="47.12340597063303" lon="7.035168036818504">
        <ele>1468.0699999999999</ele>
        <time>2016-07-26T16:37:31Z</time>
      </trkpt>
      <trkpt lat="47.122704992070794" lon="7.034337976947427">
        <ele>1475.28</ele>
        <time>2016-07-26T16:37:37Z</time>
      </trkpt>
      <trkpt lat="47.121443012729287" lon="7.033367017284036">
        <ele>1483.45</ele>
        <time>2016-07-26T16:37:47Z</time>
      </trkpt>
      <trkpt lat="47.120942026376724" lon="7.03292403370142">
        <ele>1489.7</ele>
        <time>2016-07-26T16:37:54Z</time>
      </trkpt>
      <trkpt lat="47.120404997840524" lon="7.032667966559529">
        <ele>1494.99</ele>
        <time>2016-07-26T16:38:01Z</time>
      </trkpt>
      <trkpt lat="47.119637969881296" lon="7.032123981043696">
        <ele>1500.76</ele>
        <time>2016-07-26T16:38:12Z</time>
      </trkpt>
      <trkpt lat="47.119576027616858" lon="7.032121969386935">
        <ele>1501.24</ele>
        <time>2016-07-26T16:38:13Z</time>
      </trkpt>
      <trkpt lat="47.119519030675292" lon="7.032142002135515">
        <ele>1501.24</ele>
        <time>2016-07-26T16:38:14Z</time>
      </trkpt>
      <trkpt lat="47.119471002370119" lon="7.032189024612308">
        <ele>1501.72</ele>
        <time>2016-07-26T16:38:15Z</time>
      </trkpt>
      <trkpt lat="47.119434038177133" lon="7.032251972705126">
        <ele>1501.72</ele>
        <time>2016-07-26T16:38:16Z</time>
      </trkpt>
      <trkpt lat="47.119407970458269" lon="7.032321039587259">
        <ele>1502.2</ele>
        <time>2016-07-26T16:38:17Z</time>
      </trkpt>
      <trkpt lat="47.119391961023211" lon="7.032381976023316">
        <ele>1502.6800000000001</ele>
        <time>2016-07-26T16:38:18Z</time>
      </trkpt>
      <trkpt lat="47.11919498629868" lon="7.032759999856353">
        <ele>1503.1600000000001</ele>
        <time>2016-07-26T16:38:30Z</time>
      </trkpt>
      <trkpt lat="47.119165984913707" lon="7.032870976254344">
        <ele>1503.6400000000001</ele>
        <time>2016-07-26T16:38:41Z</time>
      </trkpt>
      <trkpt lat="47.119091972708702" lon="7.033040039241314">
        <ele>1503.6400000000001</ele>
        <time>2016-07-26T16:38:58Z</time>
      </trkpt>
      <trkpt lat="47.119063977152109" lon="7.033107010647655">
        <ele>1503.6400000000001</ele>
        <time>2016-07-26T16:38:59Z</time>
      </trkpt>
      <trkpt lat="47.11904302239418" lon="7.033178005367518">
        <ele>1504.1199999999999</ele>
        <time>2016-07-26T16:39:00Z</time>
      </trkpt>
      <trkpt lat="47.119027012959123" lon="7.033261992037296">
        <ele>1504.1199999999999</ele>
        <time>2016-07-26T16:39:01Z</time>
      </trkpt>
      <trkpt lat="47.119027012959123" lon="7.033358970656991">
        <ele>1504.5999999999999</ele>
        <time>2016-07-26T16:39:02Z</time>
      </trkpt>
      <trkpt lat="47.119046039879322" lon="7.033465001732111">
        <ele>1505.0799999999999</ele>
        <time>2016-07-26T16:39:03Z</time>
      </trkpt>
      <trkpt lat="47.119077974930406" lon="7.03357296064496">
        <ele>1505.0799999999999</ele>
        <time>2016-07-26T16:39:04Z</time>
      </trkpt>
      <trkpt lat="47.119120974093676" lon="7.033685026690364">
        <ele>1505.5599999999999</ele>
        <time>2016-07-26T16:39:05Z</time>
      </trkpt>
      <trkpt lat="47.119170008227229" lon="7.03380798920989">
        <ele>1505.5599999999999</ele>
        <time>2016-07-26T16:39:06Z</time>
      </trkpt>
      <trkpt lat="47.119842991232872" lon="7.035024035722017">
        <ele>1508.9300000000001</ele>
        <time>2016-07-26T16:39:15Z</time>
      </trkpt>
      <trkpt lat="47.119941981509328" lon="7.035115985199809">
        <ele>1508.9300000000001</ele>
        <time>2016-07-26T16:39:16Z</time>
      </trkpt>
      <trkpt lat="47.12033299729228" lon="7.03548202291131">
        <ele>1510.8499999999999</ele>
        <time>2016-07-26T16:39:22Z</time>
      </trkpt>
      <trkpt lat="47.120844963937998" lon="7.036078982055187">
        <ele>1513.73</ele>
        <time>2016-07-26T16:39:29Z</time>
      </trkpt>
      <trkpt lat="47.121678963303566" lon="7.037276001647115">
        <ele>1518.54</ele>
        <time>2016-07-26T16:39:38Z</time>
      </trkpt>
      <trkpt lat="47.122488990426064" lon="7.038106983527541">
        <ele>1522.8699999999999</ele>
        <time>2016-07-26T16:39:45Z</time>
      </trkpt>
      <trkpt lat="47.122633997350931" lon="7.038173032924533">
        <ele>1523.3499999999999</ele>
        <time>2016-07-26T16:39:46Z</time>
      </trkpt>
      <trkpt lat="47.122909007593989" lon="7.038289960473776">
        <ele>1524.79</ele>
        <time>2016-07-26T16:39:48Z</time>
      </trkpt>
      <trkpt lat="47.123035993427038" lon="7.038378976285458">
        <ele>1525.27</ele>
        <time>2016-07-26T16:39:49Z</time>
      </trkpt>
      <trkpt lat="47.123141018673778" lon="7.038490958511829">
        <ele>1526.23</ele>
        <time>2016-07-26T16:39:50Z</time>
      </trkpt>
      <trkpt lat="47.123222993686795" lon="7.038604030385613">
        <ele>1526.71</ele>
        <time>2016-07-26T16:39:51Z</time>
      </trkpt>
      <trkpt lat="47.123293988406658" lon="7.038702014833689">
        <ele>1527.1900000000001</ele>
        <time>2016-07-26T16:39:52Z</time>
      </trkpt>
      <trkpt lat="47.123498003929853" lon="7.039007032290101">
        <ele>1528.6300000000001</ele>
        <time>2016-07-26T16:39:56Z</time>
      </trkpt>
      <trkpt lat="47.123563969507813" lon="7.03909101895988">
        <ele>1529.1099999999999</ele>
        <time>2016-07-26T16:39:57Z</time>
      </trkpt>
      <trkpt lat="47.12381400167942" lon="7.039373992010951">
        <ele>1530.5599999999999</ele>
        <time>2016-07-26T16:40:00Z</time>
      </trkpt>
      <trkpt lat="47.123893965035677" lon="7.039511958137155">
        <ele>1531.52</ele>
        <time>2016-07-26T16:40:01Z</time>
      </trkpt>
      <trkpt lat="47.124206023290753" lon="7.040131967514753">
        <ele>1532.96</ele>
        <time>2016-07-26T16:40:05Z</time>
      </trkpt>
      <trkpt lat="47.124304007738829" lon="7.040269011631608">
        <ele>1533.4400000000001</ele>
        <time>2016-07-26T16:40:06Z</time>
      </trkpt>
      <trkpt lat="47.124513974413276" lon="7.040532035753131">
        <ele>1534.4000000000001</ele>
        <time>2016-07-26T16:40:08Z</time>
      </trkpt>
      <trkpt lat="47.124602990224957" lon="7.04068299382925">
        <ele>1535.3599999999999</ele>
        <time>2016-07-26T16:40:09Z</time>
      </trkpt>
      <trkpt lat="47.124680019915104" lon="7.040850967168808">
        <ele>1535.8399999999999</ele>
        <time>2016-07-26T16:40:10Z</time>
      </trkpt>
      <trkpt lat="47.1254469640553" lon="7.042648969218135">
        <ele>1541.1300000000001</ele>
        <time>2016-07-26T16:40:21Z</time>
      </trkpt>
      <trkpt lat="47.125899000093341" lon="7.043504007160664">
        <ele>1544.01</ele>
        <time>2016-07-26T16:40:29Z</time>
      </trkpt>
      <trkpt lat="47.12634701281786" lon="7.044169027358294">
        <ele>1546.4200000000001</ele>
        <time>2016-07-26T16:40:35Z</time>
      </trkpt>
      <trkpt lat="47.126423958688974" lon="7.044240022078157">
        <ele>1546.4200000000001</ele>
        <time>2016-07-26T16:40:36Z</time>
      </trkpt>
      <trkpt lat="47.126510040834546" lon="7.044298024848104">
        <ele>1546.9000000000001</ele>
        <time>2016-07-26T16:40:37Z</time>
      </trkpt>
      <trkpt lat="47.126764012500644" lon="7.044502962380648">
        <ele>1547.8599999999999</ele>
        <time>2016-07-26T16:40:40Z</time>
      </trkpt>
      <trkpt lat="47.126826960593462" lon="7.044607987627387">
        <ele>1547.8599999999999</ele>
        <time>2016-07-26T16:40:41Z</time>
      </trkpt>
      <trkpt lat="47.126878006383777" lon="7.044722987338901">
        <ele>1548.3399999999999</ele>
        <time>2016-07-26T16:40:42Z</time>
      </trkpt>
      <trkpt lat="47.126913964748383" lon="7.044842010363936">
        <ele>1548.3399999999999</ele>
        <time>2016-07-26T16:40:43Z</time>
      </trkpt>
      <trkpt lat="47.126941038295627" lon="7.044959021732211">
        <ele>1548.3399999999999</ele>
        <time>2016-07-26T16:40:44Z</time>
      </trkpt>
      <trkpt lat="47.126966016367078" lon="7.045073015615344">
        <ele>1548.3399999999999</ele>
        <time>2016-07-26T16:40:45Z</time>
      </trkpt>
      <trkpt lat="47.127183023840189" lon="7.04592302441597">
        <ele>1547.8599999999999</ele>
        <time>2016-07-26T16:40:55Z</time>
      </trkpt>
      <trkpt lat="47.127201966941357" lon="7.045968035236001">
        <ele>1547.8599999999999</ele>
        <time>2016-07-26T16:40:56Z</time>
      </trkpt>
      <trkpt lat="47.127224011346698" lon="7.045993013307452">
        <ele>1547.8599999999999</ele>
        <time>2016-07-26T16:40:57Z</time>
      </trkpt>
      <trkpt lat="47.127244966104627" lon="7.04598999582231">
        <ele>1547.8599999999999</ele>
        <time>2016-07-26T16:40:58Z</time>
      </trkpt>
      <trkpt lat="47.127262987196445" lon="7.045955965295434">
        <ele>1547.8599999999999</ele>
        <time>2016-07-26T16:41:09Z</time>
      </trkpt>
      <trkpt lat="47.127277990803123" lon="7.045954959467053">
        <ele>1543.05</ele>
        <time>2016-07-26T17:13:43Z</time>
      </trkpt>
      <trkpt lat="47.127281008288264" lon="7.045940039679408">
        <ele>1552.6700000000001</ele>
        <time>2016-07-26T17:15:07Z</time>
      </trkpt>
      <trkpt lat="47.127283019945025" lon="7.045940961688757">
        <ele>1552.6700000000001</ele>
        <time>2016-07-26T17:16:06Z</time>
      </trkpt>
      <trkpt lat="47.127282014116645" lon="7.045940039679408">
        <ele>1552.6700000000001</ele>
        <time>2016-07-26T17:17:13Z</time>
      </trkpt>
      <trkpt lat="47.12725100107491" lon="7.04583995975554">
        <ele>1552.6700000000001</ele>
        <time>2016-07-26T17:17:16Z</time>
      </trkpt>
      <trkpt lat="47.126927962526679" lon="7.044839998707175">
        <ele>1552.1900000000001</ele>
        <time>2016-07-26T17:17:29Z</time>
      </trkpt>
      <trkpt lat="47.12688596919179" lon="7.044660961255431">
        <ele>1552.1900000000001</ele>
        <time>2016-07-26T17:17:31Z</time>
      </trkpt>
      <trkpt lat="47.126850010827184" lon="7.044573035091162">
        <ele>1551.71</ele>
        <time>2016-07-26T17:17:32Z</time>
      </trkpt>
      <trkpt lat="47.126810029149055" lon="7.044488964602351">
        <ele>1551.22</ele>
        <time>2016-07-26T17:17:33Z</time>
      </trkpt>
      <trkpt lat="47.126758983358741" lon="7.044417969882488">
        <ele>1550.74</ele>
        <time>2016-07-26T17:17:34Z</time>
      </trkpt>
      <trkpt lat="47.126697041094303" lon="7.044358961284161">
        <ele>1550.26</ele>
        <time>2016-07-26T17:17:35Z</time>
      </trkpt>
      <trkpt lat="47.126626968383789" lon="7.044307999312878">
        <ele>1549.78</ele>
        <time>2016-07-26T17:17:36Z</time>
      </trkpt>
      <trkpt lat="47.126555973663926" lon="7.044270029291511">
        <ele>1549.3</ele>
        <time>2016-07-26T17:17:37Z</time>
      </trkpt>
      <trkpt lat="47.126437034457922" lon="7.044192999601364">
        <ele>1549.3</ele>
        <time>2016-07-26T17:17:39Z</time>
      </trkpt>
      <trkpt lat="47.126383977010846" lon="7.044144971296191">
        <ele>1549.3</ele>
        <time>2016-07-26T17:17:40Z</time>
      </trkpt>
      <trkpt lat="47.126333015039563" lon="7.044088980183005">
        <ele>1549.3</ele>
        <time>2016-07-26T17:17:41Z</time>
      </trkpt>
      <trkpt lat="47.126278029754758" lon="7.044024020433426">
        <ele>1548.8199999999999</ele>
        <time>2016-07-26T17:17:42Z</time>
      </trkpt>
      <trkpt lat="47.126222038641572" lon="7.04394799657166">
        <ele>1548.8199999999999</ele>
        <time>2016-07-26T17:17:43Z</time>
      </trkpt>
      <trkpt lat="47.125523993745446" lon="7.042730022221804">
        <ele>1544.5</ele>
        <time>2016-07-26T17:17:55Z</time>
      </trkpt>
      <trkpt lat="47.124790996313095" lon="7.041106028482318">
        <ele>1538.73</ele>
        <time>2016-07-26T17:18:09Z</time>
      </trkpt>
      <trkpt lat="47.124527972191572" lon="7.040521977469325">
        <ele>1536.8</ele>
        <time>2016-07-26T17:18:14Z</time>
      </trkpt>
      <trkpt lat="47.124467035755515" lon="7.040433967486024">
        <ele>1536.3199999999999</ele>
        <time>2016-07-26T17:18:15Z</time>
      </trkpt>
      <trkpt lat="47.124401992186904" lon="7.040356015786529">
        <ele>1535.8399999999999</ele>
        <time>2016-07-26T17:18:16Z</time>
      </trkpt>
      <trkpt lat="47.12415799498558" lon="7.040029037743807">
        <ele>1534.8800000000001</ele>
        <time>2016-07-26T17:18:20Z</time>
      </trkpt>
      <trkpt lat="47.12370403110981" lon="7.039203001186252">
        <ele>1529.5899999999999</ele>
        <time>2016-07-26T17:18:31Z</time>
      </trkpt>
      <trkpt lat="47.123404964804649" lon="7.038882980123162">
        <ele>1529.1099999999999</ele>
        <time>2016-07-26T17:18:45Z</time>
      </trkpt>
      <trkpt lat="47.1230189781636" lon="7.038344023749232">
        <ele>1526.23</ele>
        <time>2016-07-26T17:19:04Z</time>
      </trkpt>
      <trkpt lat="47.122978996485472" lon="7.038303036242724">
        <ele>1525.75</ele>
        <time>2016-07-26T17:19:05Z</time>
      </trkpt>
      <trkpt lat="47.122934991493821" lon="7.038265988230705">
        <ele>1525.75</ele>
        <time>2016-07-26T17:19:06Z</time>
      </trkpt>
      <trkpt lat="47.122886041179299" lon="7.038238998502493">
        <ele>1525.75</ele>
        <time>2016-07-26T17:19:07Z</time>
      </trkpt>
      <trkpt lat="47.122838012874126" lon="7.038214020431042">
        <ele>1525.27</ele>
        <time>2016-07-26T17:19:08Z</time>
      </trkpt>
      <trkpt lat="47.122154971584678" lon="7.037827027961612">
        <ele>1522.8699999999999</ele>
        <time>2016-07-26T17:19:20Z</time>
      </trkpt>
      <trkpt lat="47.121355002745986" lon="7.036797981709242">
        <ele>1519.5</ele>
        <time>2016-07-26T17:19:33Z</time>
      </trkpt>
      <trkpt lat="47.120615970343351" lon="7.035801038146019">
        <ele>1515.1800000000001</ele>
        <time>2016-07-26T17:19:45Z</time>
      </trkpt>
      <trkpt lat="47.119976012036204" lon="7.035096036270261">
        <ele>1511.8099999999999</ele>
        <time>2016-07-26T17:19:57Z</time>
      </trkpt>
      <trkpt lat="47.119506038725376" lon="7.034486001357436">
        <ele>1509.8900000000001</ele>
        <time>2016-07-26T17:20:05Z</time>
      </trkpt>
      <trkpt lat="47.11906498298049" lon="7.033471036702395">
        <ele>1507.48</ele>
        <time>2016-07-26T17:20:14Z</time>
      </trkpt>
      <trkpt lat="47.119044028222561" lon="7.033367017284036">
        <ele>1507.48</ele>
        <time>2016-07-26T17:20:15Z</time>
      </trkpt>
      <trkpt lat="47.119040004909039" lon="7.033262997865677">
        <ele>1506.52</ele>
        <time>2016-07-26T17:20:16Z</time>
      </trkpt>
      <trkpt lat="47.119056014344096" lon="7.033157972618938">
        <ele>1506.04</ele>
        <time>2016-07-26T17:20:17Z</time>
      </trkpt>
      <trkpt lat="47.119089039042592" lon="7.03305403701961">
        <ele>1505.5599999999999</ele>
        <time>2016-07-26T17:20:18Z</time>
      </trkpt>
      <trkpt lat="47.119133966043591" lon="7.032944988459349">
        <ele>1505.5599999999999</ele>
        <time>2016-07-26T17:20:19Z</time>
      </trkpt>
      <trkpt lat="47.119183000177145" lon="7.032839963212609">
        <ele>1505.0799999999999</ele>
        <time>2016-07-26T17:20:20Z</time>
      </trkpt>
      <trkpt lat="47.11923697963357" lon="7.032747007906437">
        <ele>1504.5999999999999</ele>
        <time>2016-07-26T17:20:21Z</time>
      </trkpt>
      <trkpt lat="47.119295988231897" lon="7.032665032893419">
        <ele>1504.5999999999999</ele>
        <time>2016-07-26T17:20:22Z</time>
      </trkpt>
      <trkpt lat="47.119417022913694" lon="7.032373007386923">
        <ele>1504.1199999999999</ele>
        <time>2016-07-26T17:20:25Z</time>
      </trkpt>
      <trkpt lat="47.119399001821876" lon="7.032265970483422">
        <ele>1503.6400000000001</ele>
        <time>2016-07-26T17:20:26Z</time>
      </trkpt>
      <trkpt lat="47.119348039850593" lon="7.032180977985263">
        <ele>1503.1600000000001</ele>
        <time>2016-07-26T17:20:27Z</time>
      </trkpt>
      <trkpt lat="47.119278972968459" lon="7.032134039327502">
        <ele>1503.1600000000001</ele>
        <time>2016-07-26T17:20:28Z</time>
      </trkpt>
      <trkpt lat="47.119201021268964" lon="7.032147031277418">
        <ele>1503.6400000000001</ele>
        <time>2016-07-26T17:20:29Z</time>
      </trkpt>
      <trkpt lat="47.119126003235579" lon="7.03221601434052">
        <ele>1503.1600000000001</ele>
        <time>2016-07-26T17:20:30Z</time>
      </trkpt>
      <trkpt lat="47.11908501572907" lon="7.032338976860046">
        <ele>1502.2</ele>
        <time>2016-07-26T17:20:31Z</time>
      </trkpt>
      <trkpt lat="47.119057020172477" lon="7.032484989613295">
        <ele>1502.2</ele>
        <time>2016-07-26T17:20:32Z</time>
      </trkpt>
      <trkpt lat="47.119023995473981" lon="7.032636031508446">
        <ele>1501.72</ele>
        <time>2016-07-26T17:20:33Z</time>
      </trkpt>
      <trkpt lat="47.118912013247609" lon="7.032897965982556">
        <ele>1500.76</ele>
        <time>2016-07-26T17:20:35Z</time>
      </trkpt>
      <trkpt lat="47.118838001042604" lon="7.033006008714438">
        <ele>1499.79</ele>
        <time>2016-07-26T17:20:36Z</time>
      </trkpt>
      <trkpt lat="47.118761977180839" lon="7.033113967627287">
        <ele>1498.8299999999999</ele>
        <time>2016-07-26T17:20:37Z</time>
      </trkpt>
      <trkpt lat="47.11867799051106" lon="7.033352013677359">
        <ele>1496.9100000000001</ele>
        <time>2016-07-26T17:20:39Z</time>
      </trkpt>
      <trkpt lat="47.118673967197537" lon="7.033489979803562">
        <ele>1496.4300000000001</ele>
        <time>2016-07-26T17:20:40Z</time>
      </trkpt>
      <trkpt lat="47.118749991059303" lon="7.034461023285985">
        <ele>1492.5799999999999</ele>
        <time>2016-07-26T17:20:46Z</time>
      </trkpt>
      <trkpt lat="47.11878402158618" lon="7.034608041867614">
        <ele>1492.0999999999999</ele>
        <time>2016-07-26T17:20:47Z</time>
      </trkpt>
      <trkpt lat="47.118831966072321" lon="7.03475003130734">
        <ele>1491.6199999999999</ele>
        <time>2016-07-26T17:20:48Z</time>
      </trkpt>
      <trkpt lat="47.119567980989814" lon="7.036243015900254">
        <ele>1480.0899999999999</ele>
        <time>2016-07-26T17:20:59Z</time>
      </trkpt>
      <trkpt lat="47.119627995416522" lon="7.03638500533998">
        <ele>1479.1300000000001</ele>
        <time>2016-07-26T17:21:00Z</time>
      </trkpt>
      <trkpt lat="47.120221015065908" lon="7.037854017689824">
        <ele>1468.55</ele>
        <time>2016-07-26T17:21:12Z</time>
      </trkpt>
      <trkpt lat="47.120552016422153" lon="7.038501016795635">
        <ele>1464.23</ele>
        <time>2016-07-26T17:21:20Z</time>
      </trkpt>
      <trkpt lat="47.120711021125317" lon="7.038916004821658">
        <ele>1461.3399999999999</ele>
        <time>2016-07-26T17:21:23Z</time>
      </trkpt>
      <trkpt lat="47.120751002803445" lon="7.039067968726158">
        <ele>1460.3800000000001</ele>
        <time>2016-07-26T17:21:24Z</time>
      </trkpt>
      <trkpt lat="47.120780004188418" lon="7.039224039763212">
        <ele>1459.9000000000001</ele>
        <time>2016-07-26T17:21:25Z</time>
      </trkpt>
      <trkpt lat="47.120845969766378" lon="7.039520004764199">
        <ele>1457.98</ele>
        <time>2016-07-26T17:21:27Z</time>
      </trkpt>
      <trkpt lat="47.120899027213454" lon="7.039654031395912">
        <ele>1456.53</ele>
        <time>2016-07-26T17:21:28Z</time>
      </trkpt>
      <trkpt lat="47.121071023866534" lon="7.040176978334785">
        <ele>1453.1700000000001</ele>
        <time>2016-07-26T17:21:32Z</time>
      </trkpt>
      <trkpt lat="47.121065994724631" lon="7.040313016623259">
        <ele>1452.6900000000001</ele>
        <time>2016-07-26T17:21:33Z</time>
      </trkpt>
      <trkpt lat="47.121100025251508" lon="7.040751976892352">
        <ele>1450.77</ele>
        <time>2016-07-26T17:21:36Z</time>
      </trkpt>
      <trkpt lat="47.121560024097562" lon="7.042555008083582">
        <ele>1438.27</ele>
        <time>2016-07-26T17:21:46Z</time>
      </trkpt>
      <trkpt lat="47.121860012412071" lon="7.043618001043797">
        <ele>1431.54</ele>
        <time>2016-07-26T17:21:53Z</time>
      </trkpt>
      <trkpt lat="47.121914997696877" lon="7.043750016018748">
        <ele>1430.0999999999999</ele>
        <time>2016-07-26T17:21:54Z</time>
      </trkpt>
      <trkpt lat="47.122023962438107" lon="7.044018991291523">
        <ele>1428.6600000000001</ele>
        <time>2016-07-26T17:21:56Z</time>
      </trkpt>
      <trkpt lat="47.122066039592028" lon="7.044157963246107">
        <ele>1427.7</ele>
        <time>2016-07-26T17:21:57Z</time>
      </trkpt>
      <trkpt lat="47.122171986848116" lon="7.044574040919542">
        <ele>1424.8099999999999</ele>
        <time>2016-07-26T17:22:00Z</time>
      </trkpt>
      <trkpt lat="47.122221020981669" lon="7.044689962640405">
        <ele>1423.8499999999999</ele>
        <time>2016-07-26T17:22:01Z</time>
      </trkpt>
      <trkpt lat="47.122276006266475" lon="7.044788030907512">
        <ele>1422.8900000000001</ele>
        <time>2016-07-26T17:22:02Z</time>
      </trkpt>
      <trkpt lat="47.122371979057789" lon="7.045075027272105">
        <ele>1421.45</ele>
        <time>2016-07-26T17:22:05Z</time>
      </trkpt>
      <trkpt lat="47.122345995157957" lon="7.045155996456742">
        <ele>1420.97</ele>
        <time>2016-07-26T17:22:06Z</time>
      </trkpt>
      <trkpt lat="47.122283969074488" lon="7.045192960649729">
        <ele>1420</ele>
        <time>2016-07-26T17:22:07Z</time>
      </trkpt>
      <trkpt lat="47.122216997668147" lon="7.0451720058918">
        <ele>1419.52</ele>
        <time>2016-07-26T17:22:08Z</time>
      </trkpt>
      <trkpt lat="47.122152959927917" lon="7.04510897397995">
        <ele>1418.5599999999999</ele>
        <time>2016-07-26T17:22:09Z</time>
      </trkpt>
      <trkpt lat="47.122084982693195" lon="7.045021969825029">
        <ele>1418.0799999999999</ele>
        <time>2016-07-26T17:22:10Z</time>
      </trkpt>
      <trkpt lat="47.121291970834136" lon="7.044036006554961">
        <ele>1408.47</ele>
        <time>2016-07-26T17:22:20Z</time>
      </trkpt>
      <trkpt lat="47.120922999456525" lon="7.043662006035447">
        <ele>1403.6600000000001</ele>
        <time>2016-07-26T17:22:25Z</time>
      </trkpt>
      <trkpt lat="47.120110038667917" lon="7.042665984481573">
        <ele>1395.49</ele>
        <time>2016-07-26T17:22:35Z</time>
      </trkpt>
      <trkpt lat="47.119134971871972" lon="7.04145597293973">
        <ele>1382.99</ele>
        <time>2016-07-26T17:22:46Z</time>
      </trkpt>
      <trkpt lat="47.117911968380213" lon="7.040062984451652">
        <ele>1370.02</ele>
        <time>2016-07-26T17:22:59Z</time>
      </trkpt>
      <trkpt lat="47.11700102314353" lon="7.039205012843013">
        <ele>1360.8800000000001</ele>
        <time>2016-07-26T17:23:08Z</time>
      </trkpt>
      <trkpt lat="47.115974994376302" lon="7.038410995155573">
        <ele>1352.71</ele>
        <time>2016-07-26T17:23:18Z</time>
      </trkpt>
      <trkpt lat="47.115572998300195" lon="7.038043029606342">
        <ele>1349.3499999999999</ele>
        <time>2016-07-26T17:23:22Z</time>
      </trkpt>
      <trkpt lat="47.1154760196805" lon="7.037933981046081">
        <ele>1348.3900000000001</ele>
        <time>2016-07-26T17:23:23Z</time>
      </trkpt>
      <trkpt lat="47.115295976400375" lon="7.03771797940135">
        <ele>1346.46</ele>
        <time>2016-07-26T17:23:25Z</time>
      </trkpt>
      <trkpt lat="47.114792978391051" lon="7.03724498860538">
        <ele>1341.1800000000001</ele>
        <time>2016-07-26T17:23:30Z</time>
      </trkpt>
      <trkpt lat="47.114255027845502" lon="7.036582985892892">
        <ele>1333.49</ele>
        <time>2016-07-26T17:23:35Z</time>
      </trkpt>
      <trkpt lat="47.113326983526349" lon="7.035490991547704">
        <ele>1319.55</ele>
        <time>2016-07-26T17:23:45Z</time>
      </trkpt>
      <trkpt lat="47.11324199102819" lon="7.035357970744371">
        <ele>1318.0999999999999</ele>
        <time>2016-07-26T17:23:46Z</time>
      </trkpt>
      <trkpt lat="47.11317602545023" lon="7.035212963819504">
        <ele>1316.6600000000001</ele>
        <time>2016-07-26T17:23:47Z</time>
      </trkpt>
      <trkpt lat="47.112203976139426" lon="7.033730037510395">
        <ele>1297.4400000000001</ele>
        <time>2016-07-26T17:23:58Z</time>
      </trkpt>
      <trkpt lat="47.111323038116097" lon="7.032292038202286">
        <ele>1279.1700000000001</ele>
        <time>2016-07-26T17:24:09Z</time>
      </trkpt>
      <trkpt lat="47.111256988719106" lon="7.032162034884095">
        <ele>1278.21</ele>
        <time>2016-07-26T17:24:10Z</time>
      </trkpt>
      <trkpt lat="47.111203009262681" lon="7.032037982717156">
        <ele>1277.25</ele>
        <time>2016-07-26T17:24:11Z</time>
      </trkpt>
      <trkpt lat="47.111025983467698" lon="7.031631963327527">
        <ele>1273.4000000000001</ele>
        <time>2016-07-26T17:24:15Z</time>
      </trkpt>
      <trkpt lat="47.110954988747835" lon="7.03161402605474">
        <ele>1272.4400000000001</ele>
        <time>2016-07-26T17:24:16Z</time>
      </trkpt>
      <trkpt lat="47.110886005684733" lon="7.031655013561249">
        <ele>1271</ele>
        <time>2016-07-26T17:24:17Z</time>
      </trkpt>
      <trkpt lat="47.110832026228309" lon="7.031719973310828">
        <ele>1270.04</ele>
        <time>2016-07-26T17:24:18Z</time>
      </trkpt>
      <trkpt lat="47.110834959894419" lon="7.031815024092794">
        <ele>1269.0799999999999</ele>
        <time>2016-07-26T17:24:19Z</time>
      </trkpt>
      <trkpt lat="47.110859015956521" lon="7.031916026026011">
        <ele>1267.6400000000001</ele>
        <time>2016-07-26T17:24:20Z</time>
      </trkpt>
      <trkpt lat="47.11090100929141" lon="7.032029014080763">
        <ele>1267.1600000000001</ele>
        <time>2016-07-26T17:24:21Z</time>
      </trkpt>
      <trkpt lat="47.11094400845468" lon="7.032142002135515">
        <ele>1266.1900000000001</ele>
        <time>2016-07-26T17:24:22Z</time>
      </trkpt>
      <trkpt lat="47.111300993710756" lon="7.033515963703394">
        <ele>1257.54</ele>
        <time>2016-07-26T17:24:31Z</time>
      </trkpt>
      <trkpt lat="47.111559994518757" lon="7.035435000434518">
        <ele>1244.5599999999999</ele>
        <time>2016-07-26T17:24:42Z</time>
      </trkpt>
      <trkpt lat="47.111558988690376" lon="7.035797014832497">
        <ele>1242.1600000000001</ele>
        <time>2016-07-26T17:24:44Z</time>
      </trkpt>
      <trkpt lat="47.111568041145802" lon="7.035985020920634">
        <ele>1240.72</ele>
        <time>2016-07-26T17:24:45Z</time>
      </trkpt>
      <trkpt lat="47.111927960067987" lon="7.037708004936576">
        <ele>1223.4200000000001</ele>
        <time>2016-07-26T17:24:55Z</time>
      </trkpt>
      <trkpt lat="47.112473035231233" lon="7.03935001976788">
        <ele>1206.5899999999999</ele>
        <time>2016-07-26T17:25:05Z</time>
      </trkpt>
      <trkpt lat="47.11272700689733" lon="7.04014403745532">
        <ele>1197.9400000000001</ele>
        <time>2016-07-26T17:25:10Z</time>
      </trkpt>
      <trkpt lat="47.112738993018866" lon="7.04031896777451">
        <ele>1196.98</ele>
        <time>2016-07-26T17:25:11Z</time>
      </trkpt>
      <trkpt lat="47.113041998818517" lon="7.041878001764417">
        <ele>1183.04</ele>
        <time>2016-07-26T17:25:20Z</time>
      </trkpt>
      <trkpt lat="47.113062031567097" lon="7.042054021731019">
        <ele>1181.5999999999999</ele>
        <time>2016-07-26T17:25:21Z</time>
      </trkpt>
      <trkpt lat="47.113067982718349" lon="7.042235992848873">
        <ele>1180.6400000000001</ele>
        <time>2016-07-26T17:25:22Z</time>
      </trkpt>
      <trkpt lat="47.113063959404826" lon="7.042423998937011">
        <ele>1178.71</ele>
        <time>2016-07-26T17:25:23Z</time>
      </trkpt>
      <trkpt lat="47.113060019910336" lon="7.042607981711626">
        <ele>1176.79</ele>
        <time>2016-07-26T17:25:24Z</time>
      </trkpt>
      <trkpt lat="47.113072006031871" lon="7.042781990021467">
        <ele>1174.8699999999999</ele>
        <time>2016-07-26T17:25:25Z</time>
      </trkpt>
      <trkpt lat="47.11309103295207" lon="7.042968990281224">
        <ele>1174.8699999999999</ele>
        <time>2016-07-26T17:25:26Z</time>
      </trkpt>
      <trkpt lat="47.113135037943721" lon="7.043136041611433">
        <ele>1173.4300000000001</ele>
        <time>2016-07-26T17:25:27Z</time>
      </trkpt>
      <trkpt lat="47.113196980208158" lon="7.043300997465849">
        <ele>1171.5</ele>
        <time>2016-07-26T17:25:28Z</time>
      </trkpt>
      <trkpt lat="47.113250037655234" lon="7.043464025482535">
        <ele>1171.02</ele>
        <time>2016-07-26T17:25:29Z</time>
      </trkpt>
      <trkpt lat="47.11330502294004" lon="7.043628981336951">
        <ele>1170.0599999999999</ele>
        <time>2016-07-26T17:25:30Z</time>
      </trkpt>
      <trkpt lat="47.113356990739703" lon="7.043811036273837">
        <ele>1168.6199999999999</ele>
        <time>2016-07-26T17:25:31Z</time>
      </trkpt>
      <trkpt lat="47.113389009609818" lon="7.043984038755298">
        <ele>1167.1800000000001</ele>
        <time>2016-07-26T17:25:32Z</time>
      </trkpt>
      <trkpt lat="47.113729985430837" lon="7.045810958370566">
        <ele>1147.47</ele>
        <time>2016-07-26T17:25:42Z</time>
      </trkpt>
      <trkpt lat="47.114011030644178" lon="7.04755799844861">
        <ele>1134.01</ele>
        <time>2016-07-26T17:25:52Z</time>
      </trkpt>
      <trkpt lat="47.114131981506944" lon="7.048648986965418">
        <ele>1125.3599999999999</ele>
        <time>2016-07-26T17:26:00Z</time>
      </trkpt>
      <trkpt lat="47.114196019247174" lon="7.048788964748383">
        <ele>1125.3599999999999</ele>
        <time>2016-07-26T17:26:01Z</time>
      </trkpt>
      <trkpt lat="47.114246981218457" lon="7.04893103800714">
        <ele>1124.4000000000001</ele>
        <time>2016-07-26T17:26:02Z</time>
      </trkpt>
      <trkpt lat="47.11489599198103" lon="7.050309022888541">
        <ele>1127.28</ele>
        <time>2016-07-26T17:26:11Z</time>
      </trkpt>
      <trkpt lat="47.11582001298666" lon="7.052009962499142">
        <ele>1126.3199999999999</ele>
        <time>2016-07-26T17:26:22Z</time>
      </trkpt>
      <trkpt lat="47.116300966590643" lon="7.053432036191225">
        <ele>1123.9200000000001</ele>
        <time>2016-07-26T17:26:30Z</time>
      </trkpt>
      <trkpt lat="47.116513028740883" lon="7.054363014176488">
        <ele>1121.03</ele>
        <time>2016-07-26T17:26:35Z</time>
      </trkpt>
      <trkpt lat="47.116671027615666" lon="7.054857965558767">
        <ele>1118.6300000000001</ele>
        <time>2016-07-26T17:26:38Z</time>
      </trkpt>
      <trkpt lat="47.116711009293795" lon="7.05503398552537">
        <ele>1117.6700000000001</ele>
        <time>2016-07-26T17:26:39Z</time>
      </trkpt>
      <trkpt lat="47.116734981536865" lon="7.055212017148733">
        <ele>1117.1900000000001</ele>
        <time>2016-07-26T17:26:40Z</time>
      </trkpt>
      <trkpt lat="47.116852998733521" lon="7.055926993489265">
        <ele>1114.79</ele>
        <time>2016-07-26T17:26:44Z</time>
      </trkpt>
      <trkpt lat="47.116901027038693" lon="7.056104019284248">
        <ele>1114.3099999999999</ele>
        <time>2016-07-26T17:26:45Z</time>
      </trkpt>
      <trkpt lat="47.117519024759531" lon="7.057852987200022">
        <ele>1107.0999999999999</ele>
        <time>2016-07-26T17:26:55Z</time>
      </trkpt>
      <trkpt lat="47.118395017459989" lon="7.059689965099096">
        <ele>1102.77</ele>
        <time>2016-07-26T17:27:06Z</time>
      </trkpt>
      <trkpt lat="47.11891402490437" lon="7.06120097078383">
        <ele>1098.9200000000001</ele>
        <time>2016-07-26T17:27:15Z</time>
      </trkpt>
      <trkpt lat="47.119060959666967" lon="7.061775969341397">
        <ele>1095.0799999999999</ele>
        <time>2016-07-26T17:27:18Z</time>
      </trkpt>
      <trkpt lat="47.119524981826544" lon="7.064006980508566">
        <ele>1081.1400000000001</ele>
        <time>2016-07-26T17:27:29Z</time>
      </trkpt>
      <trkpt lat="47.119622966274619" lon="7.064578961580992">
        <ele>1077.78</ele>
        <time>2016-07-26T17:27:32Z</time>
      </trkpt>
      <trkpt lat="47.119737965986133" lon="7.065533995628357">
        <ele>1074.4100000000001</ele>
        <time>2016-07-26T17:27:37Z</time>
      </trkpt>
      <trkpt lat="47.119832010939717" lon="7.065899027511478">
        <ele>1072.49</ele>
        <time>2016-07-26T17:27:39Z</time>
      </trkpt>
      <trkpt lat="47.12015999481082" lon="7.066942993551493">
        <ele>1064.8</ele>
        <time>2016-07-26T17:27:45Z</time>
      </trkpt>
      <trkpt lat="47.120171980932355" lon="7.067120019346476">
        <ele>1063.3599999999999</ele>
        <time>2016-07-26T17:27:46Z</time>
      </trkpt>
      <trkpt lat="47.120172986760736" lon="7.067296039313078">
        <ele>1062.3900000000001</ele>
        <time>2016-07-26T17:27:47Z</time>
      </trkpt>
      <trkpt lat="47.120185978710651" lon="7.068900000303984">
        <ele>1053.74</ele>
        <time>2016-07-26T17:27:55Z</time>
      </trkpt>
      <trkpt lat="47.120173992589116" lon="7.06970801576972">
        <ele>1047.49</ele>
        <time>2016-07-26T17:27:59Z</time>
      </trkpt>
      <trkpt lat="47.1201610006392" lon="7.069888981059194">
        <ele>1046.05</ele>
        <time>2016-07-26T17:28:00Z</time>
      </trkpt>
      <trkpt lat="47.120131999254227" lon="7.07007204182446">
        <ele>1044.6099999999999</ele>
        <time>2016-07-26T17:28:01Z</time>
      </trkpt>
      <trkpt lat="47.12009796872735" lon="7.070247977972031">
        <ele>1043.6500000000001</ele>
        <time>2016-07-26T17:28:02Z</time>
      </trkpt>
      <trkpt lat="47.120056981220841" lon="7.070431960746646">
        <ele>1042.6900000000001</ele>
        <time>2016-07-26T17:28:03Z</time>
      </trkpt>
      <trkpt lat="47.119846008718014" lon="7.07155697979033">
        <ele>1035</ele>
        <time>2016-07-26T17:28:09Z</time>
      </trkpt>
      <trkpt lat="47.11973000317812" lon="7.073783967643976">
        <ele>1023.9400000000001</ele>
        <time>2016-07-26T17:28:20Z</time>
      </trkpt>
      <trkpt lat="47.11966697126627" lon="7.075523966923356">
        <ele>1018.65</ele>
        <time>2016-07-26T17:28:29Z</time>
      </trkpt>
      <trkpt lat="47.119904011487961" lon="7.076911004260182">
        <ele>1010.96</ele>
        <time>2016-07-26T17:28:37Z</time>
      </trkpt>
      <trkpt lat="47.119983974844217" lon="7.078347997739911">
        <ele>1006.16</ele>
        <time>2016-07-26T17:28:47Z</time>
      </trkpt>
      <trkpt lat="47.11994499899447" lon="7.080383040010929">
        <ele>996.53999999999996</ele>
        <time>2016-07-26T17:29:00Z</time>
      </trkpt>
      <trkpt lat="47.119948016479611" lon="7.08053701557219">
        <ele>996.05999999999995</ele>
        <time>2016-07-26T17:29:01Z</time>
      </trkpt>
      <trkpt lat="47.120130993425846" lon="7.082555964589119">
        <ele>986.45000000000005</ele>
        <time>2016-07-26T17:29:14Z</time>
      </trkpt>
      <trkpt lat="47.120272982865572" lon="7.083747033029795">
        <ele>981.63999999999999</ele>
        <time>2016-07-26T17:29:21Z</time>
      </trkpt>
      <trkpt lat="47.120315982028842" lon="7.083869995549321">
        <ele>980.67999999999995</ele>
        <time>2016-07-26T17:29:22Z</time>
      </trkpt>
      <trkpt lat="47.120363004505634" lon="7.083978038281202">
        <ele>980.20000000000005</ele>
        <time>2016-07-26T17:29:23Z</time>
      </trkpt>
      <trkpt lat="47.12041899561882" lon="7.084283977746964">
        <ele>975.38999999999999</ele>
        <time>2016-07-26T17:29:26Z</time>
      </trkpt>
      <trkpt lat="47.120378008112311" lon="7.084367964416742">
        <ele>974.42999999999995</ele>
        <time>2016-07-26T17:29:27Z</time>
      </trkpt>
      <trkpt lat="47.120314976200461" lon="7.08440400660038">
        <ele>972.50999999999999</ele>
        <time>2016-07-26T17:29:28Z</time>
      </trkpt>
      <trkpt lat="47.120242975652218" lon="7.084390008822084">
        <ele>972.99000000000001</ele>
        <time>2016-07-26T17:29:29Z</time>
      </trkpt>
      <trkpt lat="47.120182039216161" lon="7.084332006052136">
        <ele>972.50999999999999</ele>
        <time>2016-07-26T17:29:30Z</time>
      </trkpt>
      <trkpt lat="47.120125964283943" lon="7.084241984412074">
        <ele>971.54999999999995</ele>
        <time>2016-07-26T17:29:31Z</time>
      </trkpt>
      <trkpt lat="47.120064022019506" lon="7.084145005792379">
        <ele>971.07000000000005</ele>
        <time>2016-07-26T17:29:32Z</time>
      </trkpt>
      <trkpt lat="47.119400007650256" lon="7.083193995058537">
        <ele>962.89999999999998</ele>
        <time>2016-07-26T17:29:41Z</time>
      </trkpt>
      <trkpt lat="47.118557961657643" lon="7.081731017678976">
        <ele>954.25</ele>
        <time>2016-07-26T17:29:52Z</time>
      </trkpt>
      <trkpt lat="47.1179040055722" lon="7.080960972234607">
        <ele>946.55999999999995</ele>
        <time>2016-07-26T17:30:02Z</time>
      </trkpt>
      <trkpt lat="47.117846002802253" lon="7.080871034413576">
        <ele>946.07000000000005</ele>
        <time>2016-07-26T17:30:03Z</time>
      </trkpt>
      <trkpt lat="47.11779797449708" lon="7.080769026651979">
        <ele>944.63</ele>
        <time>2016-07-26T17:30:04Z</time>
      </trkpt>
      <trkpt lat="47.117753969505429" lon="7.080666013062">
        <ele>943.66999999999996</ele>
        <time>2016-07-26T17:30:05Z</time>
      </trkpt>
      <trkpt lat="47.117714993655682" lon="7.0805589761585">
        <ele>943.19000000000005</ele>
        <time>2016-07-26T17:30:06Z</time>
      </trkpt>
      <trkpt lat="47.117683980613947" lon="7.08045101724565">
        <ele>942.23000000000002</ele>
        <time>2016-07-26T17:30:07Z</time>
      </trkpt>
      <trkpt lat="47.117655985057354" lon="7.08034498617053">
        <ele>941.75</ele>
        <time>2016-07-26T17:30:08Z</time>
      </trkpt>
      <trkpt lat="47.11758398450911" lon="7.080135019496083">
        <ele>939.83000000000004</ele>
        <time>2016-07-26T17:30:10Z</time>
      </trkpt>
      <trkpt lat="47.117538973689079" lon="7.080040974542499">
        <ele>938.86000000000001</ele>
        <time>2016-07-26T17:30:11Z</time>
      </trkpt>
      <trkpt lat="47.117486000061035" lon="7.079955982044339">
        <ele>938.38</ele>
        <time>2016-07-26T17:30:12Z</time>
      </trkpt>
      <trkpt lat="47.117421962320805" lon="7.079883981496096">
        <ele>937.41999999999996</ele>
        <time>2016-07-26T17:30:13Z</time>
      </trkpt>
      <trkpt lat="47.117350967600942" lon="7.079824972897768">
        <ele>936.46000000000004</ele>
        <time>2016-07-26T17:30:14Z</time>
      </trkpt>
      <trkpt lat="47.117272010073066" lon="7.079780967906117">
        <ele>936.94000000000005</ele>
        <time>2016-07-26T17:30:15Z</time>
      </trkpt>
      <trkpt lat="47.117188023403287" lon="7.079740986227989">
        <ele>935.98000000000002</ele>
        <time>2016-07-26T17:30:16Z</time>
      </trkpt>
      <trkpt lat="47.117106970399618" lon="7.079707961529493">
        <ele>935.01999999999998</ele>
        <time>2016-07-26T17:30:17Z</time>
      </trkpt>
      <trkpt lat="47.116115977987647" lon="7.079649036750197">
        <ele>926.37</ele>
        <time>2016-07-26T17:30:29Z</time>
      </trkpt>
      <trkpt lat="47.11513496004045" lon="7.080062013119459">
        <ele>916.26999999999998</ele>
        <time>2016-07-26T17:30:41Z</time>
      </trkpt>
      <trkpt lat="47.114729024469852" lon="7.080231998115778">
        <ele>911.95000000000005</ele>
        <time>2016-07-26T17:30:46Z</time>
      </trkpt>
      <trkpt lat="47.114567002281547" lon="7.08027801476419">
        <ele>910.99000000000001</ele>
        <time>2016-07-26T17:30:48Z</time>
      </trkpt>
      <trkpt lat="47.113799974322319" lon="7.080729966983199">
        <ele>902.33000000000004</ele>
        <time>2016-07-26T17:30:58Z</time>
      </trkpt>
      <trkpt lat="47.113612974062562" lon="7.080822000280023">
        <ele>899.92999999999995</ele>
        <time>2016-07-26T17:31:01Z</time>
      </trkpt>
      <trkpt lat="47.113550025969744" lon="7.080864999443293">
        <ele>899.45000000000005</ele>
        <time>2016-07-26T17:31:02Z</time>
      </trkpt>
      <trkpt lat="47.113485988229513" lon="7.080921996384859">
        <ele>898.97000000000003</ele>
        <time>2016-07-26T17:31:03Z</time>
      </trkpt>
      <trkpt lat="47.113121962174773" lon="7.08122500218451">
        <ele>894.63999999999999</ele>
        <time>2016-07-26T17:31:12Z</time>
      </trkpt>
      <trkpt lat="47.113044010475278" lon="7.081254003569484">
        <ele>894.15999999999997</ele>
        <time>2016-07-26T17:31:19Z</time>
      </trkpt>
      <trkpt lat="47.113032024353743" lon="7.081219973042607">
        <ele>893.20000000000005</ele>
        <time>2016-07-26T17:31:20Z</time>
      </trkpt>
      <trkpt lat="47.113014003261924" lon="7.081163981929421">
        <ele>892.72000000000003</ele>
        <time>2016-07-26T17:31:21Z</time>
      </trkpt>
      <trkpt lat="47.11289900355041" lon="7.08092300221324">
        <ele>893.20000000000005</ele>
        <time>2016-07-26T17:31:24Z</time>
      </trkpt>
      <trkpt lat="47.112839994952083" lon="7.080835998058319">
        <ele>893.67999999999995</ele>
        <time>2016-07-26T17:31:25Z</time>
      </trkpt>
      <trkpt lat="47.112298021093011" lon="7.080008033663034">
        <ele>895.12</ele>
        <time>2016-07-26T17:31:34Z</time>
      </trkpt>
      <trkpt lat="47.11176099255681" lon="7.078718980774283">
        <ele>886.95000000000005</ele>
        <time>2016-07-26T17:31:44Z</time>
      </trkpt>
      <trkpt lat="47.110938979312778" lon="7.076555024832487">
        <ele>872.52999999999997</ele>
        <time>2016-07-26T17:31:57Z</time>
      </trkpt>
      <trkpt lat="47.110905032604933" lon="7.07634698599577">
        <ele>872.04999999999995</ele>
        <time>2016-07-26T17:31:58Z</time>
      </trkpt>
      <trkpt lat="47.11087997071445" lon="7.076126961037517">
        <ele>870.61000000000001</ele>
        <time>2016-07-26T17:31:59Z</time>
      </trkpt>
      <trkpt lat="47.110873013734818" lon="7.075913976877928">
        <ele>871.09000000000003</ele>
        <time>2016-07-26T17:32:00Z</time>
      </trkpt>
      <trkpt lat="47.110863961279392" lon="7.075697975233197">
        <ele>870.13</ele>
        <time>2016-07-26T17:32:01Z</time>
      </trkpt>
      <trkpt lat="47.110843006521463" lon="7.075493959710002">
        <ele>868.69000000000005</ele>
        <time>2016-07-26T17:32:02Z</time>
      </trkpt>
      <trkpt lat="47.110806964337826" lon="7.0752920396626">
        <ele>868.21000000000004</ele>
        <time>2016-07-26T17:32:03Z</time>
      </trkpt>
      <trkpt lat="47.110740998759866" lon="7.075090035796166">
        <ele>867.25</ele>
        <time>2016-07-26T17:32:04Z</time>
      </trkpt>
      <trkpt lat="47.110639996826649" lon="7.074899012222886">
        <ele>867.25</ele>
        <time>2016-07-26T17:32:05Z</time>
      </trkpt>
      <trkpt lat="47.1105130109936" lon="7.074733972549439">
        <ele>867.25</ele>
        <time>2016-07-26T17:32:06Z</time>
      </trkpt>
      <trkpt lat="47.110377978533506" lon="7.074578991159797">
        <ele>867.73000000000002</ele>
        <time>2016-07-26T17:32:07Z</time>
      </trkpt>
      <trkpt lat="47.109833993017673" lon="7.073932997882366">
        <ele>866.76999999999998</ele>
        <time>2016-07-26T17:32:11Z</time>
      </trkpt>
      <trkpt lat="47.109715975821018" lon="7.073736023157835">
        <ele>866.76999999999998</ele>
        <time>2016-07-26T17:32:12Z</time>
      </trkpt>
      <trkpt lat="47.109602987766266" lon="7.073514992371202">
        <ele>866.28999999999996</ele>
        <time>2016-07-26T17:32:13Z</time>
      </trkpt>
      <trkpt lat="47.109500980004668" lon="7.073283987119794">
        <ele>866.28999999999996</ele>
        <time>2016-07-26T17:32:14Z</time>
      </trkpt>
      <trkpt lat="47.109406013041735" lon="7.073050970211625">
        <ele>866.76999999999998</ele>
        <time>2016-07-26T17:32:15Z</time>
      </trkpt>
      <trkpt lat="47.108370009809732" lon="7.070449981838465">
        <ele>861.48000000000002</ele>
        <time>2016-07-26T17:32:26Z</time>
      </trkpt>
      <trkpt lat="47.107124039903283" lon="7.069045007228851">
        <ele>856.66999999999996</ele>
        <time>2016-07-26T17:32:34Z</time>
      </trkpt>
      <trkpt lat="47.10507701151073" lon="7.0669149979949">
        <ele>841.76999999999998</ele>
        <time>2016-07-26T17:32:45Z</time>
      </trkpt>
      <trkpt lat="47.103430973365903" lon="7.065153038129211">
        <ele>829.75999999999999</ele>
        <time>2016-07-26T17:32:55Z</time>
      </trkpt>
      <trkpt lat="47.101391991600394" lon="7.063255039975047">
        <ele>823.50999999999999</ele>
        <time>2016-07-26T17:33:07Z</time>
      </trkpt>
      <trkpt lat="47.098524961620569" lon="7.061677984893322">
        <ele>821.10000000000002</ele>
        <time>2016-07-26T17:33:21Z</time>
      </trkpt>
      <trkpt lat="47.096919994801283" lon="7.061749985441566">
        <ele>819.17999999999995</ele>
        <time>2016-07-26T17:33:28Z</time>
      </trkpt>
      <trkpt lat="47.095078993588686" lon="7.062646010890603">
        <ele>815.82000000000005</ele>
        <time>2016-07-26T17:33:36Z</time>
      </trkpt>
      <trkpt lat="47.092885030433536" lon="7.063865996897221">
        <ele>813.88999999999999</ele>
        <time>2016-07-26T17:33:47Z</time>
      </trkpt>
      <trkpt lat="47.091368995606899" lon="7.064703013747931">
        <ele>806.20000000000005</ele>
        <time>2016-07-26T17:33:57Z</time>
      </trkpt>
      <trkpt lat="47.090208018198609" lon="7.065336015075445">
        <ele>802.84000000000003</ele>
        <time>2016-07-26T17:34:05Z</time>
      </trkpt>
      <trkpt lat="47.088094018399715" lon="7.066663959994912">
        <ele>796.59000000000003</ele>
        <time>2016-07-26T17:34:17Z</time>
      </trkpt>
      <trkpt lat="47.085447013378143" lon="7.068713000044227">
        <ele>793.71000000000004</ele>
        <time>2016-07-26T17:34:32Z</time>
      </trkpt>
      <trkpt lat="47.083968026563525" lon="7.069866014644504">
        <ele>796.11000000000001</ele>
        <time>2016-07-26T17:34:41Z</time>
      </trkpt>
      <trkpt lat="47.082778969779611" lon="7.070337999612093">
        <ele>801.39999999999998</ele>
        <time>2016-07-26T17:34:48Z</time>
      </trkpt>
      <trkpt lat="47.082600016146898" lon="7.070314027369022">
        <ele>801.39999999999998</ele>
        <time>2016-07-26T17:34:49Z</time>
      </trkpt>
      <trkpt lat="47.082421984523535" lon="7.070272034034133">
        <ele>801.39999999999998</ele>
        <time>2016-07-26T17:34:50Z</time>
      </trkpt>
      <trkpt lat="47.082253005355597" lon="7.070216964930296">
        <ele>801.39999999999998</ele>
        <time>2016-07-26T17:34:51Z</time>
      </trkpt>
      <trkpt lat="47.082090983167291" lon="7.070149993523955">
        <ele>800.91999999999996</ele>
        <time>2016-07-26T17:34:52Z</time>
      </trkpt>
      <trkpt lat="47.08193801343441" lon="7.070071035996079">
        <ele>800.91999999999996</ele>
        <time>2016-07-26T17:34:53Z</time>
      </trkpt>
      <trkpt lat="47.081793006509542" lon="7.06998503766954">
        <ele>800.44000000000005</ele>
        <time>2016-07-26T17:34:54Z</time>
      </trkpt>
      <trkpt lat="47.081667026504874" lon="7.069884035736322">
        <ele>800.44000000000005</ele>
        <time>2016-07-26T17:34:55Z</time>
      </trkpt>
      <trkpt lat="47.081556972116232" lon="7.069784039631486">
        <ele>800.44000000000005</ele>
        <time>2016-07-26T17:34:56Z</time>
      </trkpt>
      <trkpt lat="47.081459993496537" lon="7.06968798302114">
        <ele>800.44000000000005</ele>
        <time>2016-07-26T17:34:57Z</time>
      </trkpt>
      <trkpt lat="47.081304006278515" lon="7.069544987753034">
        <ele>800.44000000000005</ele>
        <time>2016-07-26T17:34:59Z</time>
      </trkpt>
      <trkpt lat="47.081238040700555" lon="7.069534007459879">
        <ele>800.44000000000005</ele>
        <time>2016-07-26T17:35:00Z</time>
      </trkpt>
      <trkpt lat="47.081170985475183" lon="7.069562003016472">
        <ele>800.44000000000005</ele>
        <time>2016-07-26T17:35:01Z</time>
      </trkpt>
      <trkpt lat="47.081102002412081" lon="7.069614976644516">
        <ele>800.44000000000005</ele>
        <time>2016-07-26T17:35:02Z</time>
      </trkpt>
      <trkpt lat="47.081033019348979" lon="7.069682031869888">
        <ele>800.44000000000005</ele>
        <time>2016-07-26T17:35:03Z</time>
      </trkpt>
      <trkpt lat="47.080380991101265" lon="7.070628013461828">
        <ele>795.14999999999998</ele>
        <time>2016-07-26T17:35:11Z</time>
      </trkpt>
      <trkpt lat="47.079856032505631" lon="7.072128960862756">
        <ele>786.98000000000002</ele>
        <time>2016-07-26T17:35:18Z</time>
      </trkpt>
      <trkpt lat="47.079541962593794" lon="7.072766991332173">
        <ele>785.52999999999997</ele>
        <time>2016-07-26T17:35:21Z</time>
      </trkpt>
      <trkpt lat="47.079406008124352" lon="7.072958014905453">
        <ele>785.04999999999995</ele>
        <time>2016-07-26T17:35:22Z</time>
      </trkpt>
      <trkpt lat="47.078107986599207" lon="7.074942011386156">
        <ele>786.01999999999998</ele>
        <time>2016-07-26T17:35:32Z</time>
      </trkpt>
      <trkpt lat="47.077077012509108" lon="7.076903963461518">
        <ele>787.46000000000004</ele>
        <time>2016-07-26T17:35:41Z</time>
      </trkpt>
      <trkpt lat="47.076062969863415" lon="7.078384039923549">
        <ele>778.32000000000005</ele>
        <time>2016-07-26T17:35:49Z</time>
      </trkpt>
      <trkpt lat="47.074829991906881" lon="7.079627998173237">
        <ele>764.38999999999999</ele>
        <time>2016-07-26T17:35:57Z</time>
      </trkpt>
      <trkpt lat="47.074699988588691" lon="7.079819021746516">
        <ele>763.41999999999996</ele>
        <time>2016-07-26T17:35:58Z</time>
      </trkpt>
      <trkpt lat="47.074574008584023" lon="7.080029994249344">
        <ele>762.46000000000004</ele>
        <time>2016-07-26T17:35:59Z</time>
      </trkpt>
      <trkpt lat="47.07347203977406" lon="7.082133013755083">
        <ele>753.33000000000004</ele>
        <time>2016-07-26T17:36:09Z</time>
      </trkpt>
      <trkpt lat="47.073353016749024" lon="7.082290006801486">
        <ele>751.40999999999997</ele>
        <time>2016-07-26T17:36:10Z</time>
      </trkpt>
      <trkpt lat="47.073226030915976" lon="7.08242503926158">
        <ele>749.97000000000003</ele>
        <time>2016-07-26T17:36:11Z</time>
      </trkpt>
      <trkpt lat="47.073069037869573" lon="7.0825569704175">
        <ele>748.03999999999996</ele>
        <time>2016-07-26T17:36:12Z</time>
      </trkpt>
      <trkpt lat="47.0717120077461" lon="7.08367302082479">
        <ele>729.77999999999997</ele>
        <time>2016-07-26T17:36:21Z</time>
      </trkpt>
      <trkpt lat="47.071588961407542" lon="7.083829008042812">
        <ele>729.29999999999995</ele>
        <time>2016-07-26T17:36:22Z</time>
      </trkpt>
      <trkpt lat="47.071481002494693" lon="7.083986001089215">
        <ele>728.34000000000003</ele>
        <time>2016-07-26T17:36:23Z</time>
      </trkpt>
      <trkpt lat="47.071405984461308" lon="7.084163026884198">
        <ele>727.86000000000001</ele>
        <time>2016-07-26T17:36:24Z</time>
      </trkpt>
      <trkpt lat="47.071366002783179" lon="7.084363019093871">
        <ele>727.37</ele>
        <time>2016-07-26T17:36:25Z</time>
      </trkpt>
      <trkpt lat="47.071374971419573" lon="7.084578014910221">
        <ele>725.45000000000005</ele>
        <time>2016-07-26T17:36:26Z</time>
      </trkpt>
      <trkpt lat="47.071416964754462" lon="7.084766020998359">
        <ele>724.00999999999999</ele>
        <time>2016-07-26T17:36:27Z</time>
      </trkpt>
      <trkpt lat="47.071491982787848" lon="7.084932988509536">
        <ele>721.61000000000001</ele>
        <time>2016-07-26T17:36:28Z</time>
      </trkpt>
      <trkpt lat="47.071575969457626" lon="7.085094004869461">
        <ele>722.09000000000003</ele>
        <time>2016-07-26T17:36:29Z</time>
      </trkpt>
      <trkpt lat="47.071628021076322" lon="7.085277987644076">
        <ele>721.61000000000001</ele>
        <time>2016-07-26T17:36:30Z</time>
      </trkpt>
      <trkpt lat="47.071637995541096" lon="7.085477979853749">
        <ele>721.13</ele>
        <time>2016-07-26T17:36:31Z</time>
      </trkpt>
      <trkpt lat="47.071609999984503" lon="7.085662968456745">
        <ele>720.15999999999997</ele>
        <time>2016-07-26T17:36:32Z</time>
      </trkpt>
      <trkpt lat="47.071511009708047" lon="7.085848040878773">
        <ele>718.72000000000003</ele>
        <time>2016-07-26T17:36:33Z</time>
      </trkpt>
      <trkpt lat="47.071420988067985" lon="7.086021965369582">
        <ele>716.79999999999995</ele>
        <time>2016-07-26T17:36:34Z</time>
      </trkpt>
      <trkpt lat="47.070702994242311" lon="7.087982995435596">
        <ele>701.41999999999996</ele>
        <time>2016-07-26T17:36:43Z</time>
      </trkpt>
      <trkpt lat="47.070620013400912" lon="7.088436959311366">
        <ele>698.04999999999995</ele>
        <time>2016-07-26T17:36:45Z</time>
      </trkpt>
      <trkpt lat="47.070602998137474" lon="7.08867902867496">
        <ele>696.13</ele>
        <time>2016-07-26T17:36:46Z</time>
      </trkpt>
      <trkpt lat="47.070607021450996" lon="7.088926965370774">
        <ele>695.64999999999998</ele>
        <time>2016-07-26T17:36:47Z</time>
      </trkpt>
      <trkpt lat="47.070683967322111" lon="7.089920975267887">
        <ele>688.91999999999996</ele>
        <time>2016-07-26T17:36:51Z</time>
      </trkpt>
      <trkpt lat="47.070736018940806" lon="7.090162038803101">
        <ele>687.96000000000004</ele>
        <time>2016-07-26T17:36:52Z</time>
      </trkpt>
      <trkpt lat="47.070763008669019" lon="7.090407041832805">
        <ele>686.51999999999998</ele>
        <time>2016-07-26T17:36:53Z</time>
      </trkpt>
      <trkpt lat="47.07078798674047" lon="7.090657996013761">
        <ele>686.03999999999996</ele>
        <time>2016-07-26T17:36:54Z</time>
      </trkpt>
      <trkpt lat="47.070794021710753" lon="7.090896964073181">
        <ele>684.60000000000002</ele>
        <time>2016-07-26T17:36:55Z</time>
      </trkpt>
      <trkpt lat="47.070805002003908" lon="7.091140961274505">
        <ele>683.14999999999998</ele>
        <time>2016-07-26T17:36:56Z</time>
      </trkpt>
      <trkpt lat="47.070964006707072" lon="7.092771995812655">
        <ele>673.53999999999996</ele>
        <time>2016-07-26T17:37:03Z</time>
      </trkpt>
      <trkpt lat="47.070960989221931" lon="7.092979028820992">
        <ele>670.65999999999997</ele>
        <time>2016-07-26T17:37:04Z</time>
      </trkpt>
      <trkpt lat="47.070850012823939" lon="7.093697022646666">
        <ele>665.37</ele>
        <time>2016-07-26T17:37:08Z</time>
      </trkpt>
      <trkpt lat="47.070806007832289" lon="7.093806993216276">
        <ele>663.92999999999995</ele>
        <time>2016-07-26T17:37:09Z</time>
      </trkpt>
      <trkpt lat="47.070754040032625" lon="7.093864995986223">
        <ele>662.97000000000003</ele>
        <time>2016-07-26T17:37:10Z</time>
      </trkpt>
      <trkpt lat="47.070733001455665" lon="7.093892991542816">
        <ele>661.51999999999998</ele>
        <time>2016-07-26T17:37:11Z</time>
      </trkpt>
      <trkpt lat="47.070709029212594" lon="7.093907995149493">
        <ele>660.08000000000004</ele>
        <time>2016-07-26T17:37:12Z</time>
      </trkpt>
      <trkpt lat="47.070677010342479" lon="7.093919981271029">
        <ele>659.60000000000002</ele>
        <time>2016-07-26T17:37:13Z</time>
      </trkpt>
      <trkpt lat="47.070622025057673" lon="7.093973038718104">
        <ele>659.60000000000002</ele>
        <time>2016-07-26T17:37:15Z</time>
      </trkpt>
      <trkpt lat="47.070626970380545" lon="7.09400899708271">
        <ele>660.08000000000004</ele>
        <time>2016-07-26T17:37:16Z</time>
      </trkpt>
      <trkpt lat="47.070649014785886" lon="7.094044033437967">
        <ele>660.08000000000004</ele>
        <time>2016-07-26T17:37:17Z</time>
      </trkpt>
      <trkpt lat="47.070768037810922" lon="7.094192979857326">
        <ele>661.03999999999996</ele>
        <time>2016-07-26T17:37:21Z</time>
      </trkpt>
      <trkpt lat="47.070805002003908" lon="7.094236984848976">
        <ele>661.03999999999996</ele>
        <time>2016-07-26T17:37:22Z</time>
      </trkpt>
      <trkpt lat="47.071416964754462" lon="7.094971993938088">
        <ele>662.97000000000003</ele>
        <time>2016-07-26T17:37:31Z</time>
      </trkpt>
      <trkpt lat="47.071695998311043" lon="7.095172991976142">
        <ele>665.37</ele>
        <time>2016-07-26T17:37:33Z</time>
      </trkpt>
      <trkpt lat="47.071832036599517" lon="7.09529796615243">
        <ele>666.80999999999995</ele>
        <time>2016-07-26T17:37:34Z</time>
      </trkpt>
      <trkpt lat="47.071950975805521" lon="7.095442973077297">
        <ele>667.76999999999998</ele>
        <time>2016-07-26T17:37:35Z</time>
      </trkpt>
      <trkpt lat="47.072059018537402" lon="7.095614969730377">
        <ele>668.25</ele>
        <time>2016-07-26T17:37:36Z</time>
      </trkpt>
      <trkpt lat="47.072172006592155" lon="7.095830971375108">
        <ele>669.22000000000003</ele>
        <time>2016-07-26T17:37:37Z</time>
      </trkpt>
      <trkpt lat="47.073314962908626" lon="7.098201038315892">
        <ele>689.39999999999998</ele>
        <time>2016-07-26T17:37:47Z</time>
      </trkpt>
      <trkpt lat="47.073716036975384" lon="7.099004024639726">
        <ele>696.61000000000001</ele>
        <time>2016-07-26T17:37:51Z</time>
      </trkpt>
      <trkpt lat="47.07383799366653" lon="7.099136039614677">
        <ele>698.04999999999995</ele>
        <time>2016-07-26T17:37:52Z</time>
      </trkpt>
      <trkpt lat="47.073983000591397" lon="7.099222959950566">
        <ele>699.98000000000002</ele>
        <time>2016-07-26T17:37:53Z</time>
      </trkpt>
      <trkpt lat="47.074272008612752" lon="7.099383976310492">
        <ele>704.77999999999997</ele>
        <time>2016-07-26T17:37:55Z</time>
      </trkpt>
      <trkpt lat="47.07439798861742" lon="7.099516997113824">
        <ele>705.75</ele>
        <time>2016-07-26T17:37:56Z</time>
      </trkpt>
      <trkpt lat="47.07450301386416" lon="7.09968002513051">
        <ele>707.19000000000005</ele>
        <time>2016-07-26T17:37:57Z</time>
      </trkpt>
      <trkpt lat="47.074594041332603" lon="7.0998739823699">
        <ele>708.63</ele>
        <time>2016-07-26T17:37:58Z</time>
      </trkpt>
      <trkpt lat="47.074680961668491" lon="7.100076992064714">
        <ele>710.07000000000005</ele>
        <time>2016-07-26T17:37:59Z</time>
      </trkpt>
      <trkpt lat="47.074821023270488" lon="7.10051896981895">
        <ele>713.44000000000005</ele>
        <time>2016-07-26T17:38:01Z</time>
      </trkpt>
      <trkpt lat="47.074852036312222" lon="7.100758021697402">
        <ele>714.88</ele>
        <time>2016-07-26T17:38:02Z</time>
      </trkpt>
      <trkpt lat="47.074943985790014" lon="7.101395968347788">
        <ele>718.72000000000003</ele>
        <time>2016-07-26T17:38:05Z</time>
      </trkpt>
      <trkpt lat="47.075017997995019" lon="7.101583974435926">
        <ele>720.64999999999998</ele>
        <time>2016-07-26T17:38:06Z</time>
      </trkpt>
      <trkpt lat="47.075107013806701" lon="7.101771980524063">
        <ele>722.57000000000005</ele>
        <time>2016-07-26T17:38:07Z</time>
      </trkpt>
      <trkpt lat="47.076142011210322" lon="7.103781038895249">
        <ele>735.54999999999995</ele>
        <time>2016-07-26T17:38:17Z</time>
      </trkpt>
      <trkpt lat="47.07620101980865" lon="7.104010032489896">
        <ele>736.50999999999999</ele>
        <time>2016-07-26T17:38:18Z</time>
      </trkpt>
      <trkpt lat="47.076239995658398" lon="7.104262998327613">
        <ele>737.95000000000005</ele>
        <time>2016-07-26T17:38:19Z</time>
      </trkpt>
      <trkpt lat="47.076348038390279" lon="7.105032037943602">
        <ele>744.20000000000005</ele>
        <time>2016-07-26T17:38:22Z</time>
      </trkpt>
      <trkpt lat="47.076410986483097" lon="7.105270000174642">
        <ele>746.12</ele>
        <time>2016-07-26T17:38:23Z</time>
      </trkpt>
      <trkpt lat="47.076492961496115" lon="7.105497987940908">
        <ele>748.03999999999996</ele>
        <time>2016-07-26T17:38:24Z</time>
      </trkpt>
      <trkpt lat="47.07658801227808" lon="7.105726981535554">
        <ele>749.97000000000003</ele>
        <time>2016-07-26T17:38:25Z</time>
      </trkpt>
      <trkpt lat="47.076692031696439" lon="7.105947006493807">
        <ele>751.88999999999999</ele>
        <time>2016-07-26T17:38:26Z</time>
      </trkpt>
      <trkpt lat="47.077137026935816" lon="7.106752004474402">
        <ele>758.62</ele>
        <time>2016-07-26T17:38:30Z</time>
      </trkpt>
      <trkpt lat="47.077268958091736" lon="7.106928024441004">
        <ele>760.05999999999995</ele>
        <time>2016-07-26T17:38:31Z</time>
      </trkpt>
      <trkpt lat="47.077418994158506" lon="7.107086023315787">
        <ele>761.5</ele>
        <time>2016-07-26T17:38:32Z</time>
      </trkpt>
      <trkpt lat="47.078538984060287" lon="7.108132001012564">
        <ele>773.51999999999998</ele>
        <time>2016-07-26T17:38:40Z</time>
      </trkpt>
      <trkpt lat="47.079694010317326" lon="7.109531024470925">
        <ele>782.16999999999996</ele>
        <time>2016-07-26T17:38:49Z</time>
      </trkpt>
      <trkpt lat="47.080168006941676" lon="7.110142987221479">
        <ele>787.46000000000004</ele>
        <time>2016-07-26T17:38:53Z</time>
      </trkpt>
      <trkpt lat="47.080294992774725" lon="7.110246000811458">
        <ele>789.86000000000001</ele>
        <time>2016-07-26T17:38:54Z</time>
      </trkpt>
      <trkpt lat="47.08043597638607" lon="7.110307021066546">
        <ele>790.82000000000005</ele>
        <time>2016-07-26T17:38:55Z</time>
      </trkpt>
      <trkpt lat="47.080591041594744" lon="7.110339961946011">
        <ele>791.77999999999997</ele>
        <time>2016-07-26T17:38:56Z</time>
      </trkpt>
      <trkpt lat="47.080748034641147" lon="7.110368041321635">
        <ele>792.74000000000001</ele>
        <time>2016-07-26T17:38:57Z</time>
      </trkpt>
      <trkpt lat="47.081038970500231" lon="7.110457979142666">
        <ele>794.19000000000005</ele>
        <time>2016-07-26T17:38:59Z</time>
      </trkpt>
      <trkpt lat="47.082123002037406" lon="7.111207991838455">
        <ele>799.95000000000005</ele>
        <time>2016-07-26T17:39:06Z</time>
      </trkpt>
      <trkpt lat="47.083774991333485" lon="7.112459996715188">
        <ele>806.20000000000005</ele>
        <time>2016-07-26T17:39:15Z</time>
      </trkpt>
      <trkpt lat="47.085020039230585" lon="7.113393992185593">
        <ele>811.97000000000003</ele>
        <time>2016-07-26T17:39:22Z</time>
      </trkpt>
      <trkpt lat="47.085149036720395" lon="7.113592978566885">
        <ele>811.97000000000003</ele>
        <time>2016-07-26T17:39:23Z</time>
      </trkpt>
      <trkpt lat="47.085275016725063" lon="7.11381702683866">
        <ele>812.45000000000005</ele>
        <time>2016-07-26T17:39:24Z</time>
      </trkpt>
      <trkpt lat="47.086214041337371" lon="7.115603964775801">
        <ele>817.25999999999999</ele>
        <time>2016-07-26T17:39:33Z</time>
      </trkpt>
      <trkpt lat="47.087465962395072" lon="7.117515038698912">
        <ele>816.29999999999995</ele>
        <time>2016-07-26T17:39:44Z</time>
      </trkpt>
      <trkpt lat="47.088758032768965" lon="7.119371965527535">
        <ele>818.70000000000005</ele>
        <time>2016-07-26T17:39:53Z</time>
      </trkpt>
      <trkpt lat="47.088983003050089" lon="7.119818972423673">
        <ele>817.74000000000001</ele>
        <time>2016-07-26T17:39:55Z</time>
      </trkpt>
      <trkpt lat="47.089062966406345" lon="7.120067998766899">
        <ele>817.74000000000001</ele>
        <time>2016-07-26T17:39:56Z</time>
      </trkpt>
      <trkpt lat="47.089119963347912" lon="7.120323982089758">
        <ele>817.25999999999999</ele>
        <time>2016-07-26T17:39:57Z</time>
      </trkpt>
      <trkpt lat="47.089333031326532" lon="7.121538016945124">
        <ele>817.25999999999999</ele>
        <time>2016-07-26T17:40:03Z</time>
      </trkpt>
      <trkpt lat="47.089766962453723" lon="7.123886961489916">
        <ele>817.25999999999999</ele>
        <time>2016-07-26T17:40:18Z</time>
      </trkpt>
      <trkpt lat="47.090583024546504" lon="7.125813961029053">
        <ele>817.74000000000001</ele>
        <time>2016-07-26T17:40:31Z</time>
      </trkpt>
      <trkpt lat="47.091405037790537" lon="7.127860989421606">
        <ele>818.70000000000005</ele>
        <time>2016-07-26T17:40:45Z</time>
      </trkpt>
      <trkpt lat="47.092125965282321" lon="7.129873987287283">
        <ele>819.65999999999997</ele>
        <time>2016-07-26T17:40:59Z</time>
      </trkpt>
      <trkpt lat="47.092193020507693" lon="7.129954034462571">
        <ele>819.65999999999997</ele>
        <time>2016-07-26T17:41:00Z</time>
      </trkpt>
      <trkpt lat="47.092346996068954" lon="7.130132988095284">
        <ele>819.17999999999995</ele>
        <time>2016-07-26T17:41:03Z</time>
      </trkpt>
      <trkpt lat="47.092369962483644" lon="7.130175987258554">
        <ele>819.17999999999995</ele>
        <time>2016-07-26T17:41:04Z</time>
      </trkpt>
      <trkpt lat="47.092424025759101" lon="7.130243964493275">
        <ele>818.70000000000005</ele>
        <time>2016-07-26T17:41:13Z</time>
      </trkpt>
      <trkpt lat="47.092424025759101" lon="7.130237007513642">
        <ele>819.17999999999995</ele>
        <time>2016-07-26T17:43:03Z</time>
      </trkpt>
      <trkpt lat="47.092424025759101" lon="7.130233990028501">
        <ele>819.65999999999997</ele>
        <time>2016-07-26T17:44:45Z</time>
      </trkpt>
      <trkpt lat="47.092425031587481" lon="7.13023298420012">
        <ele>820.13999999999999</ele>
        <time>2016-07-26T17:45:20Z</time>
      </trkpt>
      <trkpt lat="47.09244598634541" lon="7.130242958664894">
        <ele>820.62</ele>
        <time>2016-07-26T17:45:21Z</time>
      </trkpt>
      <trkpt lat="47.092622006312013" lon="7.130386037752032">
        <ele>821.58000000000004</ele>
        <time>2016-07-26T17:45:25Z</time>
      </trkpt>
      <trkpt lat="47.093100026249886" lon="7.130878977477551">
        <ele>823.02999999999997</ele>
        <time>2016-07-26T17:45:32Z</time>
      </trkpt>
      <trkpt lat="47.093186024576426" lon="7.130935974419117">
        <ele>822.54999999999995</ele>
        <time>2016-07-26T17:45:33Z</time>
      </trkpt>
      <trkpt lat="47.09328300319612" lon="7.130976039916277">
        <ele>822.54999999999995</ele>
        <time>2016-07-26T17:45:34Z</time>
      </trkpt>
      <trkpt lat="47.093384005129337" lon="7.130996994674206">
        <ele>822.54999999999995</ele>
        <time>2016-07-26T17:45:35Z</time>
      </trkpt>
      <trkpt lat="47.093486012890935" lon="7.131000012159348">
        <ele>822.54999999999995</ele>
        <time>2016-07-26T17:45:36Z</time>
      </trkpt>
      <trkpt lat="47.093588020652533" lon="7.130989031866193">
        <ele>822.54999999999995</ele>
        <time>2016-07-26T17:45:37Z</time>
      </trkpt>
      <trkpt lat="47.09369002841413" lon="7.130959024652839">
        <ele>822.54999999999995</ele>
        <time>2016-07-26T17:45:38Z</time>
      </trkpt>
      <trkpt lat="47.09379798732698" lon="7.130904039368033">
        <ele>822.54999999999995</ele>
        <time>2016-07-26T17:45:39Z</time>
      </trkpt>
      <trkpt lat="47.093910975381732" lon="7.130833966657519">
        <ele>823.50999999999999</ele>
        <time>2016-07-26T17:45:40Z</time>
      </trkpt>
      <trkpt lat="47.0950230024755" lon="7.130495002493262">
        <ele>824.95000000000005</ele>
        <time>2016-07-26T17:45:49Z</time>
      </trkpt>
      <trkpt lat="47.09562499076128" lon="7.130302973091602">
        <ele>825.90999999999997</ele>
        <time>2016-07-26T17:45:54Z</time>
      </trkpt>
      <trkpt lat="47.096351031213999" lon="7.129906006157398">
        <ele>827.83000000000004</ele>
        <time>2016-07-26T17:46:00Z</time>
      </trkpt>
      <trkpt lat="47.096476005390286" lon="7.129879016429186">
        <ele>828.78999999999996</ele>
        <time>2016-07-26T17:46:01Z</time>
      </trkpt>
      <trkpt lat="47.096602991223335" lon="7.129872981458902">
        <ele>828.78999999999996</ele>
        <time>2016-07-26T17:46:02Z</time>
      </trkpt>
      <trkpt lat="47.096732994541526" lon="7.129880022257567">
        <ele>828.30999999999995</ele>
        <time>2016-07-26T17:46:03Z</time>
      </trkpt>
      <trkpt lat="47.096865009516478" lon="7.129898965358734">
        <ele>828.78999999999996</ele>
        <time>2016-07-26T17:46:04Z</time>
      </trkpt>
      <trkpt lat="47.098511969670653" lon="7.130332980304956">
        <ele>829.75999999999999</ele>
        <time>2016-07-26T17:46:17Z</time>
      </trkpt>
      <trkpt lat="47.09882796742022" lon="7.130443034693599">
        <ele>829.75999999999999</ele>
        <time>2016-07-26T17:46:20Z</time>
      </trkpt>
      <trkpt lat="47.098923018202186" lon="7.130444040521979">
        <ele>830.72000000000003</ele>
        <time>2016-07-26T17:46:21Z</time>
      </trkpt>
      <trkpt lat="47.099012034013867" lon="7.130421996116638">
        <ele>831.20000000000005</ele>
        <time>2016-07-26T17:46:22Z</time>
      </trkpt>
      <trkpt lat="47.099201967939734" lon="7.130387965589762">
        <ele>831.67999999999995</ele>
        <time>2016-07-26T17:46:24Z</time>
      </trkpt>
      <trkpt lat="47.099300036206841" lon="7.130402969196439">
        <ele>831.20000000000005</ele>
        <time>2016-07-26T17:46:25Z</time>
      </trkpt>
      <trkpt lat="47.099398020654917" lon="7.130443034693599">
        <ele>831.67999999999995</ele>
        <time>2016-07-26T17:46:26Z</time>
      </trkpt>
      <trkpt lat="47.099489970132709" lon="7.130513023585081">
        <ele>831.20000000000005</ele>
        <time>2016-07-26T17:46:27Z</time>
      </trkpt>
      <trkpt lat="47.099573034793139" lon="7.130608996376395">
        <ele>831.67999999999995</ele>
        <time>2016-07-26T17:46:28Z</time>
      </trkpt>
      <trkpt lat="47.099649980664253" lon="7.130720978602767">
        <ele>831.67999999999995</ele>
        <time>2016-07-26T17:46:29Z</time>
      </trkpt>
      <trkpt lat="47.100064968690276" lon="7.131303017958999">
        <ele>833.60000000000002</ele>
        <time>2016-07-26T17:46:34Z</time>
      </trkpt>
      <trkpt lat="47.100164964795113" lon="7.131401002407074">
        <ele>833.12</ele>
        <time>2016-07-26T17:46:35Z</time>
      </trkpt>
      <trkpt lat="47.100264960899949" lon="7.131469985470176">
        <ele>833.12</ele>
        <time>2016-07-26T17:46:36Z</time>
      </trkpt>
      <trkpt lat="47.10037199780345" lon="7.131524970754981">
        <ele>833.12</ele>
        <time>2016-07-26T17:46:37Z</time>
      </trkpt>
      <trkpt lat="47.10048196837306" lon="7.131570987403393">
        <ele>832.63999999999999</ele>
        <time>2016-07-26T17:46:38Z</time>
      </trkpt>
      <trkpt lat="47.100809030234814" lon="7.131784977391362">
        <ele>829.75999999999999</ele>
        <time>2016-07-26T17:46:41Z</time>
      </trkpt>
      <trkpt lat="47.102110991254449" lon="7.132887030020356">
        <ele>831.20000000000005</ele>
        <time>2016-07-26T17:46:53Z</time>
      </trkpt>
      <trkpt lat="47.102795038372278" lon="7.133288020268083">
        <ele>827.83000000000004</ele>
        <time>2016-07-26T17:46:58Z</time>
      </trkpt>
      <trkpt lat="47.102940967306495" lon="7.133421963080764">
        <ele>826.38999999999999</ele>
        <time>2016-07-26T17:46:59Z</time>
      </trkpt>
      <trkpt lat="47.104440992698073" lon="7.13491503149271">
        <ele>816.77999999999997</ele>
        <time>2016-07-26T17:47:08Z</time>
      </trkpt>
      <trkpt lat="47.105916040018201" lon="7.13605597615242">
        <ele>815.82000000000005</ele>
        <time>2016-07-26T17:47:17Z</time>
      </trkpt>
      <trkpt lat="47.106664963066578" lon="7.136517986655235">
        <ele>816.29999999999995</ele>
        <time>2016-07-26T17:47:22Z</time>
      </trkpt>
      <trkpt lat="47.106820028275251" lon="7.136557968333364">
        <ele>815.82000000000005</ele>
        <time>2016-07-26T17:47:23Z</time>
      </trkpt>
      <trkpt lat="47.106980038806796" lon="7.136564003303647">
        <ele>814.85000000000002</ele>
        <time>2016-07-26T17:47:24Z</time>
      </trkpt>
      <trkpt lat="47.107138959690928" lon="7.136541958898306">
        <ele>814.37</ele>
        <time>2016-07-26T17:47:25Z</time>
      </trkpt>
      <trkpt lat="47.107306011021137" lon="7.136503988876939">
        <ele>813.40999999999997</ele>
        <time>2016-07-26T17:47:26Z</time>
      </trkpt>
      <trkpt lat="47.107799034565687" lon="7.136305002495647">
        <ele>811.00999999999999</ele>
        <time>2016-07-26T17:47:29Z</time>
      </trkpt>
      <trkpt lat="47.107949992641807" lon="7.136196959763765">
        <ele>810.04999999999995</ele>
        <time>2016-07-26T17:47:30Z</time>
      </trkpt>
      <trkpt lat="47.108090976253152" lon="7.136056981980801">
        <ele>809.09000000000003</ele>
        <time>2016-07-26T17:47:31Z</time>
      </trkpt>
      <trkpt lat="47.108228020370007" lon="7.13590300641954">
        <ele>808.13</ele>
        <time>2016-07-26T17:47:32Z</time>
      </trkpt>
      <trkpt lat="47.108361041173339" lon="7.135736960917711">
        <ele>807.15999999999997</ele>
        <time>2016-07-26T17:47:33Z</time>
      </trkpt>
      <trkpt lat="47.109649004414678" lon="7.13463599793613">
        <ele>801.88</ele>
        <time>2016-07-26T17:47:42Z</time>
      </trkpt>
      <trkpt lat="47.110867984592915" lon="7.134079020470381">
        <ele>794.66999999999996</ele>
        <time>2016-07-26T17:47:51Z</time>
      </trkpt>
      <trkpt lat="47.1119100227952" lon="7.13427197188139">
        <ele>787.46000000000004</ele>
        <time>2016-07-26T17:47:59Z</time>
      </trkpt>
      <trkpt lat="47.112001972272992" lon="7.134347995743156">
        <ele>787.46000000000004</ele>
        <time>2016-07-26T17:48:00Z</time>
      </trkpt>
      <trkpt lat="47.112080007791519" lon="7.134427037090063">
        <ele>786.98000000000002</ele>
        <time>2016-07-26T17:48:01Z</time>
      </trkpt>
      <trkpt lat="47.112130969762802" lon="7.134537007659674">
        <ele>787.46000000000004</ele>
        <time>2016-07-26T17:48:02Z</time>
      </trkpt>
      <trkpt lat="47.112155025824904" lon="7.134666005149484">
        <ele>787.46000000000004</ele>
        <time>2016-07-26T17:48:03Z</time>
      </trkpt>
      <trkpt lat="47.112165000289679" lon="7.134805982932448">
        <ele>787.46000000000004</ele>
        <time>2016-07-26T17:48:04Z</time>
      </trkpt>
      <trkpt lat="47.112161982804537" lon="7.13495995849371">
        <ele>787.94000000000005</ele>
        <time>2016-07-26T17:48:05Z</time>
      </trkpt>
      <trkpt lat="47.112134993076324" lon="7.136588981375098">
        <ele>784.09000000000003</ele>
        <time>2016-07-26T17:48:13Z</time>
      </trkpt>
      <trkpt lat="47.111814972013235" lon="7.137995967641473">
        <ele>778.32000000000005</ele>
        <time>2016-07-26T17:48:20Z</time>
      </trkpt>
      <trkpt lat="47.111541973426938" lon="7.138784034177661">
        <ele>774.48000000000002</ele>
        <time>2016-07-26T17:48:24Z</time>
      </trkpt>
      <trkpt lat="47.111450023949146" lon="7.138948990032077">
        <ele>773.51999999999998</ele>
        <time>2016-07-26T17:48:25Z</time>
      </trkpt>
      <trkpt lat="47.111337035894394" lon="7.139096008613706">
        <ele>772.08000000000004</ele>
        <time>2016-07-26T17:48:26Z</time>
      </trkpt>
      <trkpt lat="47.111211977899075" lon="7.139215031638742">
        <ele>772.55999999999995</ele>
        <time>2016-07-26T17:48:27Z</time>
      </trkpt>
      <trkpt lat="47.111077029258013" lon="7.139331037178636">
        <ele>772.55999999999995</ele>
        <time>2016-07-26T17:48:28Z</time>
      </trkpt>
      <trkpt lat="47.109270980581641" lon="7.140876995399594">
        <ele>766.30999999999995</ele>
        <time>2016-07-26T17:48:41Z</time>
      </trkpt>
      <trkpt lat="47.108878958970308" lon="7.141184024512768">
        <ele>764.38999999999999</ele>
        <time>2016-07-26T17:48:44Z</time>
      </trkpt>
      <trkpt lat="47.108739987015724" lon="7.141235992312431">
        <ele>763.89999999999998</ele>
        <time>2016-07-26T17:48:45Z</time>
      </trkpt>
      <trkpt lat="47.108600009232759" lon="7.141255019232631">
        <ele>762.94000000000005</ele>
        <time>2016-07-26T17:48:46Z</time>
      </trkpt>
      <trkpt lat="47.108459025621414" lon="7.141228029504418">
        <ele>761.98000000000002</ele>
        <time>2016-07-26T17:48:47Z</time>
      </trkpt>
      <trkpt lat="47.108317958191037" lon="7.14116700924933">
        <ele>761.5</ele>
        <time>2016-07-26T17:48:48Z</time>
      </trkpt>
      <trkpt lat="47.108172029256821" lon="7.141090985387564">
        <ele>760.53999999999996</ele>
        <time>2016-07-26T17:48:49Z</time>
      </trkpt>
      <trkpt lat="47.106154002249241" lon="7.140177022665739">
        <ele>752.85000000000002</ele>
        <time>2016-07-26T17:49:02Z</time>
      </trkpt>
      <trkpt lat="47.105182036757469" lon="7.14000997133553">
        <ele>749.97000000000003</ele>
        <time>2016-07-26T17:49:09Z</time>
      </trkpt>
      <trkpt lat="47.105044992640615" lon="7.140024974942207">
        <ele>749.49000000000001</ele>
        <time>2016-07-26T17:49:10Z</time>
      </trkpt>
      <trkpt lat="47.104901997372508" lon="7.140080966055393">
        <ele>748.51999999999998</ele>
        <time>2016-07-26T17:49:11Z</time>
      </trkpt>
      <trkpt lat="47.104748021811247" lon="7.140168976038694">
        <ele>747.55999999999995</ele>
        <time>2016-07-26T17:49:12Z</time>
      </trkpt>
      <trkpt lat="47.104606032371521" lon="7.140261009335518">
        <ele>746.60000000000002</ele>
        <time>2016-07-26T17:49:13Z</time>
      </trkpt>
      <trkpt lat="47.103772033005953" lon="7.140627969056368">
        <ele>742.75999999999999</ele>
        <time>2016-07-26T17:49:19Z</time>
      </trkpt>
      <trkpt lat="47.102397987619042" lon="7.140679014846683">
        <ele>735.54999999999995</ele>
        <time>2016-07-26T17:49:28Z</time>
      </trkpt>
      <trkpt lat="47.101873029023409" lon="7.141074975952506">
        <ele>731.22000000000003</ele>
        <time>2016-07-26T17:49:32Z</time>
      </trkpt>
      <trkpt lat="47.101685022935271" lon="7.141332970932126">
        <ele>729.29999999999995</ele>
        <time>2016-07-26T17:49:34Z</time>
      </trkpt>
      <trkpt lat="47.101630037650466" lon="7.141500022262335">
        <ele>727.86000000000001</ele>
        <time>2016-07-26T17:49:35Z</time>
      </trkpt>
      <trkpt lat="47.101593995466828" lon="7.141712000593543">
        <ele>726.88999999999999</ele>
        <time>2016-07-26T17:49:36Z</time>
      </trkpt>
      <trkpt lat="47.101042969152331" lon="7.143171960487962">
        <ele>713.44000000000005</ele>
        <time>2016-07-26T17:49:44Z</time>
      </trkpt>
      <trkpt lat="47.10093199275434" lon="7.143315961584449">
        <ele>711.50999999999999</ele>
        <time>2016-07-26T17:49:45Z</time>
      </trkpt>
      <trkpt lat="47.100815987214446" lon="7.143443031236529">
        <ele>710.07000000000005</ele>
        <time>2016-07-26T17:49:46Z</time>
      </trkpt>
      <trkpt lat="47.100534019991755" lon="7.143821977078915">
        <ele>704.29999999999995</ele>
        <time>2016-07-26T17:49:49Z</time>
      </trkpt>
      <trkpt lat="47.100483980029821" lon="7.144001014530659">
        <ele>702.38</ele>
        <time>2016-07-26T17:49:50Z</time>
      </trkpt>
      <trkpt lat="47.10045900195837" lon="7.144198995083571">
        <ele>701.41999999999996</ele>
        <time>2016-07-26T17:49:51Z</time>
      </trkpt>
      <trkpt lat="47.10043796338141" lon="7.144392030313611">
        <ele>700.46000000000004</ele>
        <time>2016-07-26T17:49:52Z</time>
      </trkpt>
      <trkpt lat="47.100418014451861" lon="7.144592022523284">
        <ele>699.01999999999998</ele>
        <time>2016-07-26T17:49:53Z</time>
      </trkpt>
      <trkpt lat="47.100363029167056" lon="7.145031988620758">
        <ele>693.73000000000002</ele>
        <time>2016-07-26T17:49:55Z</time>
      </trkpt>
      <trkpt lat="47.10030997171998" lon="7.14522804133594">
        <ele>691.33000000000004</ele>
        <time>2016-07-26T17:49:56Z</time>
      </trkpt>
      <trkpt lat="47.100256998091936" lon="7.145415963605046">
        <ele>689.88</ele>
        <time>2016-07-26T17:49:57Z</time>
      </trkpt>
      <trkpt lat="47.100191032513976" lon="7.145596006885171">
        <ele>687.96000000000004</ele>
        <time>2016-07-26T17:49:58Z</time>
      </trkpt>
      <trkpt lat="47.100105034187436" lon="7.145757023245096">
        <ele>687</ele>
        <time>2016-07-26T17:49:59Z</time>
      </trkpt>
      <trkpt lat="47.100013000890613" lon="7.145898006856442">
        <ele>685.55999999999995</ele>
        <time>2016-07-26T17:50:00Z</time>
      </trkpt>
      <trkpt lat="47.09992197342217" lon="7.146030021831393">
        <ele>684.60000000000002</ele>
        <time>2016-07-26T17:50:01Z</time>
      </trkpt>
      <trkpt lat="47.099731033667922" lon="7.146298997104168">
        <ele>682.19000000000005</ele>
        <time>2016-07-26T17:50:03Z</time>
      </trkpt>
      <trkpt lat="47.099631037563086" lon="7.146397987380624">
        <ele>679.30999999999995</ele>
        <time>2016-07-26T17:50:04Z</time>
      </trkpt>
      <trkpt lat="47.099510002881289" lon="7.146507035940886">
        <ele>678.83000000000004</ele>
        <time>2016-07-26T17:50:05Z</time>
      </trkpt>
      <trkpt lat="47.099410006776452" lon="7.146620023995638">
        <ele>676.90999999999997</ele>
        <time>2016-07-26T17:50:06Z</time>
      </trkpt>
      <trkpt lat="47.099339012056589" lon="7.146761007606983">
        <ele>675.46000000000004</ele>
        <time>2016-07-26T17:50:07Z</time>
      </trkpt>
      <trkpt lat="47.099280003458261" lon="7.146936021745205">
        <ele>674.01999999999998</ele>
        <time>2016-07-26T17:50:08Z</time>
      </trkpt>
      <trkpt lat="47.099232980981469" lon="7.147165015339851">
        <ele>671.13999999999999</ele>
        <time>2016-07-26T17:50:09Z</time>
      </trkpt>
      <trkpt lat="47.09908596239984" lon="7.1474629919976">
        <ele>668.73000000000002</ele>
        <time>2016-07-26T17:50:11Z</time>
      </trkpt>
      <trkpt lat="47.09897599183023" lon="7.147547984495759">
        <ele>668.25</ele>
        <time>2016-07-26T17:50:12Z</time>
      </trkpt>
      <trkpt lat="47.098869038745761" lon="7.147620990872383">
        <ele>667.28999999999996</ele>
        <time>2016-07-26T17:50:13Z</time>
      </trkpt>
      <trkpt lat="47.098621018230915" lon="7.147727021947503">
        <ele>663.92999999999995</ele>
        <time>2016-07-26T17:50:15Z</time>
      </trkpt>
      <trkpt lat="47.098507024347782" lon="7.147808996960521">
        <ele>662.97000000000003</ele>
        <time>2016-07-26T17:50:16Z</time>
      </trkpt>
      <trkpt lat="47.098406022414565" lon="7.147911004722118">
        <ele>660.08000000000004</ele>
        <time>2016-07-26T17:50:17Z</time>
      </trkpt>
      <trkpt lat="47.098319018259645" lon="7.148035978898406">
        <ele>658.63999999999999</ele>
        <time>2016-07-26T17:50:18Z</time>
      </trkpt>
      <trkpt lat="47.098251963034272" lon="7.148190038278699">
        <ele>657.20000000000005</ele>
        <time>2016-07-26T17:50:19Z</time>
      </trkpt>
      <trkpt lat="47.098188009113073" lon="7.148342002183199">
        <ele>655.75999999999999</ele>
        <time>2016-07-26T17:50:20Z</time>
      </trkpt>
      <trkpt lat="47.098119026049972" lon="7.148488014936447">
        <ele>654.30999999999995</ele>
        <time>2016-07-26T17:50:21Z</time>
      </trkpt>
      <trkpt lat="47.098033027723432" lon="7.148607037961483">
        <ele>652.87</ele>
        <time>2016-07-26T17:50:22Z</time>
      </trkpt>
      <trkpt lat="47.097917022183537" lon="7.148685995489359">
        <ele>651.42999999999995</ele>
        <time>2016-07-26T17:50:23Z</time>
      </trkpt>
      <trkpt lat="47.097578980028629" lon="7.148955976590514">
        <ele>646.13999999999999</ele>
        <time>2016-07-26T17:50:26Z</time>
      </trkpt>
      <trkpt lat="47.097488036379218" lon="7.149091009050608">
        <ele>645.17999999999995</ele>
        <time>2016-07-26T17:50:27Z</time>
      </trkpt>
      <trkpt lat="47.097421986982226" lon="7.149258982390165">
        <ele>643.74000000000001</ele>
        <time>2016-07-26T17:50:28Z</time>
      </trkpt>
      <trkpt lat="47.097360966727138" lon="7.1494419593364">
        <ele>642.77999999999997</ele>
        <time>2016-07-26T17:50:29Z</time>
      </trkpt>
      <trkpt lat="47.097304975613952" lon="7.149631977081299">
        <ele>641.34000000000003</ele>
        <time>2016-07-26T17:50:30Z</time>
      </trkpt>
      <trkpt lat="47.097255019471049" lon="7.149845967069268">
        <ele>639.88999999999999</ele>
        <time>2016-07-26T17:50:31Z</time>
      </trkpt>
      <trkpt lat="47.097128033638" lon="7.150234971195459">
        <ele>637.49000000000001</ele>
        <time>2016-07-26T17:50:33Z</time>
      </trkpt>
      <trkpt lat="47.097045974805951" lon="7.150400010868907">
        <ele>636.04999999999995</ele>
        <time>2016-07-26T17:50:34Z</time>
      </trkpt>
      <trkpt lat="47.096946984529495" lon="7.150550968945026">
        <ele>634.13</ele>
        <time>2016-07-26T17:50:35Z</time>
      </trkpt>
      <trkpt lat="47.096833996474743" lon="7.150684995576739">
        <ele>632.67999999999995</ele>
        <time>2016-07-26T17:50:36Z</time>
      </trkpt>
      <trkpt lat="47.096728971228004" lon="7.150819022208452">
        <ele>630.27999999999997</ele>
        <time>2016-07-26T17:50:37Z</time>
      </trkpt>
      <trkpt lat="47.096635010093451" lon="7.150966040790081">
        <ele>628.84000000000003</ele>
        <time>2016-07-26T17:50:38Z</time>
      </trkpt>
      <trkpt lat="47.096552029252052" lon="7.151118004694581">
        <ele>627.39999999999998</ele>
        <time>2016-07-26T17:50:39Z</time>
      </trkpt>
      <trkpt lat="47.096482962369919" lon="7.151277009397745">
        <ele>627.39999999999998</ele>
        <time>2016-07-26T17:50:40Z</time>
      </trkpt>
      <trkpt lat="47.096439963206649" lon="7.151454035192728">
        <ele>626.44000000000005</ele>
        <time>2016-07-26T17:50:41Z</time>
      </trkpt>
      <trkpt lat="47.096437029540539" lon="7.151659978553653">
        <ele>625.47000000000003</ele>
        <time>2016-07-26T17:50:42Z</time>
      </trkpt>
      <trkpt lat="47.096440969035029" lon="7.151861982420087">
        <ele>624.99000000000001</ele>
        <time>2016-07-26T17:50:43Z</time>
      </trkpt>
      <trkpt lat="47.096461001783609" lon="7.152079995721579">
        <ele>624.02999999999997</ele>
        <time>2016-07-26T17:50:44Z</time>
      </trkpt>
      <trkpt lat="47.096644984558225" lon="7.153824018314481">
        <ele>606.25</ele>
        <time>2016-07-26T17:50:52Z</time>
      </trkpt>
      <trkpt lat="47.096696030348539" lon="7.154029039666057">
        <ele>605.28999999999996</ele>
        <time>2016-07-26T17:50:53Z</time>
      </trkpt>
      <trkpt lat="47.097072964534163" lon="7.155179958790541">
        <ele>597.12</ele>
        <time>2016-07-26T17:50:59Z</time>
      </trkpt>
      <trkpt lat="47.097172038629651" lon="7.155334018170834">
        <ele>595.66999999999996</ele>
        <time>2016-07-26T17:51:00Z</time>
      </trkpt>
      <trkpt lat="47.097362978383899" lon="7.155645992606878">
        <ele>593.26999999999998</ele>
        <time>2016-07-26T17:51:02Z</time>
      </trkpt>
      <trkpt lat="47.097444031387568" lon="7.155818995088339">
        <ele>591.83000000000004</ele>
        <time>2016-07-26T17:51:03Z</time>
      </trkpt>
      <trkpt lat="47.098153978586197" lon="7.157584978267551">
        <ele>578.37</ele>
        <time>2016-07-26T17:51:13Z</time>
      </trkpt>
      <trkpt lat="47.098350031301379" lon="7.157940035685897">
        <ele>573.08000000000004</ele>
        <time>2016-07-26T17:51:16Z</time>
      </trkpt>
      <trkpt lat="47.098372997716069" lon="7.158101974055171">
        <ele>571.63999999999999</ele>
        <time>2016-07-26T17:51:17Z</time>
      </trkpt>
      <trkpt lat="47.098380960524082" lon="7.158265002071858">
        <ele>568.75999999999999</ele>
        <time>2016-07-26T17:51:18Z</time>
      </trkpt>
      <trkpt lat="47.098419014364481" lon="7.158924993127585">
        <ele>561.54999999999995</ele>
        <time>2016-07-26T17:51:22Z</time>
      </trkpt>
      <trkpt lat="47.098458996042609" lon="7.159077040851116">
        <ele>560.11000000000001</ele>
        <time>2016-07-26T17:51:23Z</time>
      </trkpt>
      <trkpt lat="47.098516998812556" lon="7.159218024462462">
        <ele>558.65999999999997</ele>
        <time>2016-07-26T17:51:24Z</time>
      </trkpt>
      <trkpt lat="47.0985889993608" lon="7.159350961446762">
        <ele>557.22000000000003</ele>
        <time>2016-07-26T17:51:25Z</time>
      </trkpt>
      <trkpt lat="47.098667034879327" lon="7.159479958936572">
        <ele>555.77999999999997</ele>
        <time>2016-07-26T17:51:26Z</time>
      </trkpt>
      <trkpt lat="47.099109012633562" lon="7.160088988021016">
        <ele>549.04999999999995</ele>
        <time>2016-07-26T17:51:32Z</time>
      </trkpt>
      <trkpt lat="47.099139019846916" lon="7.160170041024685">
        <ele>548.57000000000005</ele>
        <time>2016-07-26T17:51:33Z</time>
      </trkpt>
      <trkpt lat="47.099130973219872" lon="7.16024799272418">
        <ele>547.61000000000001</ele>
        <time>2016-07-26T17:51:34Z</time>
      </trkpt>
      <trkpt lat="47.099097026512027" lon="7.160299960523844">
        <ele>546.64999999999998</ele>
        <time>2016-07-26T17:51:35Z</time>
      </trkpt>
      <trkpt lat="47.09903902374208" lon="7.160302978008986">
        <ele>546.16999999999996</ele>
        <time>2016-07-26T17:51:36Z</time>
      </trkpt>
      <trkpt lat="47.098979009315372" lon="7.16027095913887">
        <ele>545.20000000000005</ele>
        <time>2016-07-26T17:51:37Z</time>
      </trkpt>
      <trkpt lat="47.098921006545424" lon="7.160213040187955">
        <ele>544.24000000000001</ele>
        <time>2016-07-26T17:51:38Z</time>
      </trkpt>
      <trkpt lat="47.098858980461955" lon="7.160141039639711">
        <ele>543.27999999999997</ele>
        <time>2016-07-26T17:51:39Z</time>
      </trkpt>
      <trkpt lat="47.098791003227234" lon="7.160048000514507">
        <ele>541.84000000000003</ele>
        <time>2016-07-26T17:51:40Z</time>
      </trkpt>
      <trkpt lat="47.098025986924767" lon="7.158728018403053">
        <ele>532.71000000000004</ele>
        <time>2016-07-26T17:51:52Z</time>
      </trkpt>
      <trkpt lat="47.097069025039673" lon="7.157135959714651">
        <ele>520.69000000000005</ele>
        <time>2016-07-26T17:52:07Z</time>
      </trkpt>
      <trkpt lat="47.096445998176932" lon="7.156329033896327">
        <ele>511.07999999999998</ele>
        <time>2016-07-26T17:52:15Z</time>
      </trkpt>
      <trkpt lat="47.096373997628689" lon="7.156205987557769">
        <ele>509.63999999999999</ele>
        <time>2016-07-26T17:52:16Z</time>
      </trkpt>
      <trkpt lat="47.096310965716839" lon="7.156077995896339">
        <ele>508.67000000000002</ele>
        <time>2016-07-26T17:52:17Z</time>
      </trkpt>
      <trkpt lat="47.096252962946892" lon="7.155936006456614">
        <ele>508.67000000000002</ele>
        <time>2016-07-26T17:52:18Z</time>
      </trkpt>
      <trkpt lat="47.096196971833706" lon="7.155790999531746">
        <ele>508.67000000000002</ele>
        <time>2016-07-26T17:52:19Z</time>
      </trkpt>
      <trkpt lat="47.095374036580324" lon="7.154397005215287">
        <ele>494.25999999999999</ele>
        <time>2016-07-26T17:52:29Z</time>
      </trkpt>
      <trkpt lat="47.094269972294569" lon="7.153338035568595">
        <ele>487.05000000000001</ele>
        <time>2016-07-26T17:52:40Z</time>
      </trkpt>
      <trkpt lat="47.093941988423467" lon="7.153010973706842">
        <ele>483.19999999999999</ele>
        <time>2016-07-26T17:52:44Z</time>
      </trkpt>
      <trkpt lat="47.093770997598767" lon="7.15281399898231">
        <ele>480.80000000000001</ele>
        <time>2016-07-26T17:52:47Z</time>
      </trkpt>
      <trkpt lat="47.09371198900044" lon="7.15281399898231">
        <ele>479.83999999999997</ele>
        <time>2016-07-26T17:52:48Z</time>
      </trkpt>
      <trkpt lat="47.093657003715634" lon="7.152836965397">
        <ele>478.38999999999999</ele>
        <time>2016-07-26T17:52:49Z</time>
      </trkpt>
      <trkpt lat="47.093619033694267" lon="7.152911983430386">
        <ele>477.43000000000001</ele>
        <time>2016-07-26T17:52:50Z</time>
      </trkpt>
      <trkpt lat="47.093615010380745" lon="7.153017008677125">
        <ele>476.94999999999999</ele>
        <time>2016-07-26T17:52:51Z</time>
      </trkpt>
      <trkpt lat="47.093658009544015" lon="7.153123961761594">
        <ele>475.99000000000001</ele>
        <time>2016-07-26T17:52:52Z</time>
      </trkpt>
      <trkpt lat="47.09371299482882" lon="7.153226975351572">
        <ele>475.02999999999997</ele>
        <time>2016-07-26T17:52:53Z</time>
      </trkpt>
      <trkpt lat="47.093777032569051" lon="7.153325965628028">
        <ele>473.58999999999997</ele>
        <time>2016-07-26T17:52:54Z</time>
      </trkpt>
      <trkpt lat="47.09450701251626" lon="7.15466002933681">
        <ele>458.20999999999998</ele>
        <time>2016-07-26T17:53:04Z</time>
      </trkpt>
      <trkpt lat="47.09491303190589" lon="7.1560990344733">
        <ele>443.79000000000002</ele>
        <time>2016-07-26T17:53:14Z</time>
      </trkpt>
      <trkpt lat="47.094998024404049" lon="7.156433975324035">
        <ele>439.94</ele>
        <time>2016-07-26T17:53:17Z</time>
      </trkpt>
      <trkpt lat="47.094994001090527" lon="7.156526008620858">
        <ele>438.5</ele>
        <time>2016-07-26T17:53:18Z</time>
      </trkpt>
      <trkpt lat="47.094968017190695" lon="7.156589040532708">
        <ele>438.01999999999998</ele>
        <time>2016-07-26T17:53:19Z</time>
      </trkpt>
      <trkpt lat="47.094917977228761" lon="7.156591974198818">
        <ele>437.54000000000002</ele>
        <time>2016-07-26T17:53:20Z</time>
      </trkpt>
      <trkpt lat="47.094867015257478" lon="7.156557021662593">
        <ele>436.57999999999998</ele>
        <time>2016-07-26T17:53:21Z</time>
      </trkpt>
      <trkpt lat="47.09482803940773" lon="7.156497007235885">
        <ele>436.57999999999998</ele>
        <time>2016-07-26T17:53:22Z</time>
      </trkpt>
      <trkpt lat="47.094791997224092" lon="7.156432969495654">
        <ele>436.10000000000002</ele>
        <time>2016-07-26T17:53:23Z</time>
      </trkpt>
      <trkpt lat="47.094666017219424" lon="7.156277988106012">
        <ele>436.10000000000002</ele>
        <time>2016-07-26T17:53:26Z</time>
      </trkpt>
      <trkpt lat="47.094610026106238" lon="7.156272036954761">
        <ele>436.10000000000002</ele>
        <time>2016-07-26T17:53:27Z</time>
      </trkpt>
      <trkpt lat="47.094548000022769" lon="7.156287040561438">
        <ele>436.10000000000002</ele>
        <time>2016-07-26T17:53:28Z</time>
      </trkpt>
      <trkpt lat="47.094323029741645" lon="7.156288968399167">
        <ele>437.54000000000002</ele>
        <time>2016-07-26T17:53:31Z</time>
      </trkpt>
      <trkpt lat="47.093937965109944" lon="7.156247980892658">
        <ele>439.45999999999998</ele>
        <time>2016-07-26T17:53:36Z</time>
      </trkpt>
      <trkpt lat="47.093897983431816" lon="7.156260972842574">
        <ele>439.94</ele>
        <time>2016-07-26T17:53:37Z</time>
      </trkpt>
      <trkpt lat="47.093870993703604" lon="7.156284023076296">
        <ele>439.94</ele>
        <time>2016-07-26T17:53:38Z</time>
      </trkpt>
      <trkpt lat="47.093852972611785" lon="7.15631696395576">
        <ele>439.94</ele>
        <time>2016-07-26T17:53:39Z</time>
      </trkpt>
      <trkpt lat="47.093856995925307" lon="7.156367003917694">
        <ele>439.45999999999998</ele>
        <time>2016-07-26T17:53:40Z</time>
      </trkpt>
      <trkpt lat="47.093876022845507" lon="7.156418971717358">
        <ele>439.45999999999998</ele>
        <time>2016-07-26T17:53:41Z</time>
      </trkpt>
      <trkpt lat="47.0939040184021" lon="7.15648602694273">
        <ele>439.45999999999998</ele>
        <time>2016-07-26T17:53:42Z</time>
      </trkpt>
      <trkpt lat="47.093946011736989" lon="7.156564984470606">
        <ele>439.45999999999998</ele>
        <time>2016-07-26T17:53:43Z</time>
      </trkpt>
      <trkpt lat="47.094411039724946" lon="7.157860994338989">
        <ele>440.89999999999998</ele>
        <time>2016-07-26T17:53:54Z</time>
      </trkpt>
      <trkpt lat="47.094775987789035" lon="7.159203020855784">
        <ele>440.42000000000002</ele>
        <time>2016-07-26T17:54:02Z</time>
      </trkpt>
      <trkpt lat="47.095218971371651" lon="7.161188023164868">
        <ele>436.57999999999998</ele>
        <time>2016-07-26T17:54:12Z</time>
      </trkpt>
      <trkpt lat="47.096151961013675" lon="7.164166029542685">
        <ele>436.57999999999998</ele>
        <time>2016-07-26T17:54:26Z</time>
      </trkpt>
      <trkpt lat="47.097682999446988" lon="7.167792040854693">
        <ele>438.98000000000002</ele>
        <time>2016-07-26T17:54:41Z</time>
      </trkpt>
      <trkpt lat="47.099812002852559" lon="7.1722780354321">
        <ele>440.42000000000002</ele>
        <time>2016-07-26T17:55:00Z</time>
      </trkpt>
      <trkpt lat="47.101585026830435" lon="7.175527028739452">
        <ele>443.31</ele>
        <time>2016-07-26T17:55:15Z</time>
      </trkpt>
      <trkpt lat="47.102910038083792" lon="7.176900990307331">
        <ele>443.31</ele>
        <time>2016-07-26T17:55:26Z</time>
      </trkpt>
      <trkpt lat="47.104778029024601" lon="7.178605031222105">
        <ele>441.38</ele>
        <time>2016-07-26T17:55:40Z</time>
      </trkpt>
      <trkpt lat="47.106467988342047" lon="7.180546028539538">
        <ele>443.79000000000002</ele>
        <time>2016-07-26T17:55:52Z</time>
      </trkpt>
      <trkpt lat="47.108649965375662" lon="7.183424960821867">
        <ele>446.19</ele>
        <time>2016-07-26T17:56:08Z</time>
      </trkpt>
      <trkpt lat="47.109657973051071" lon="7.18568698503077">
        <ele>445.23000000000002</ele>
        <time>2016-07-26T17:56:18Z</time>
      </trkpt>
      <trkpt lat="47.110630022361875" lon="7.188460975885391">
        <ele>443.31</ele>
        <time>2016-07-26T17:56:30Z</time>
      </trkpt>
      <trkpt lat="47.111836010590196" lon="7.191244019195437">
        <ele>447.14999999999998</ele>
        <time>2016-07-26T17:56:46Z</time>
      </trkpt>
      <trkpt lat="47.113068988546729" lon="7.194066038355231">
        <ele>445.23000000000002</ele>
        <time>2016-07-26T17:57:03Z</time>
      </trkpt>
      <trkpt lat="47.114355023950338" lon="7.196103008463979">
        <ele>447.63</ele>
        <time>2016-07-26T17:57:17Z</time>
      </trkpt>
      <trkpt lat="47.115795034915209" lon="7.198153976351023">
        <ele>451.48000000000002</ele>
        <time>2016-07-26T17:57:32Z</time>
      </trkpt>
      <trkpt lat="47.116891974583268" lon="7.199948038905859">
        <ele>453.88</ele>
        <time>2016-07-26T17:57:45Z</time>
      </trkpt>
      <trkpt lat="47.118170969188213" lon="7.202126998454332">
        <ele>454.83999999999997</ele>
        <time>2016-07-26T17:58:00Z</time>
      </trkpt>
      <trkpt lat="47.118881000205874" lon="7.203420996665955">
        <ele>455.80000000000001</ele>
        <time>2016-07-26T17:58:10Z</time>
      </trkpt>
      <trkpt lat="47.11975397542119" lon="7.205197038128972">
        <ele>456.27999999999997</ele>
        <time>2016-07-26T17:58:21Z</time>
      </trkpt>
      <trkpt lat="47.120910007506609" lon="7.206685999408364">
        <ele>456.27999999999997</ele>
        <time>2016-07-26T17:58:30Z</time>
      </trkpt>
      <trkpt lat="47.122687976807356" lon="7.208505040034652">
        <ele>453.88</ele>
        <time>2016-07-26T17:58:42Z</time>
      </trkpt>
      <trkpt lat="47.124862996861339" lon="7.211347008123994">
        <ele>451.95999999999998</ele>
        <time>2016-07-26T17:58:58Z</time>
      </trkpt>
      <trkpt lat="47.126598972827196" lon="7.213644990697503">
        <ele>450.51999999999998</ele>
        <time>2016-07-26T17:59:12Z</time>
      </trkpt>
      <trkpt lat="47.127675041556358" lon="7.215517004951835">
        <ele>450.02999999999997</ele>
        <time>2016-07-26T17:59:23Z</time>
      </trkpt>
      <trkpt lat="47.128998041152954" lon="7.217319030314684">
        <ele>450.51999999999998</ele>
        <time>2016-07-26T17:59:36Z</time>
      </trkpt>
      <trkpt lat="47.130332021042705" lon="7.218980994075537">
        <ele>458.20999999999998</ele>
        <time>2016-07-26T17:59:49Z</time>
      </trkpt>
      <trkpt lat="47.131232991814613" lon="7.220652010291815">
        <ele>460.61000000000001</ele>
        <time>2016-07-26T18:00:00Z</time>
      </trkpt>
      <trkpt lat="47.132272012531757" lon="7.223239000886679">
        <ele>453.39999999999998</ele>
        <time>2016-07-26T18:00:16Z</time>
      </trkpt>
      <trkpt lat="47.133077010512352" lon="7.225363980978727">
        <ele>449.06999999999999</ele>
        <time>2016-07-26T18:00:29Z</time>
      </trkpt>
      <trkpt lat="47.134001031517982" lon="7.227694988250732">
        <ele>445.70999999999998</ele>
        <time>2016-07-26T18:00:44Z</time>
      </trkpt>
      <trkpt lat="47.134747020900249" lon="7.2298379894346">
        <ele>443.31</ele>
        <time>2016-07-26T18:00:57Z</time>
      </trkpt>
      <trkpt lat="47.134790020063519" lon="7.23001099191606">
        <ele>443.31</ele>
        <time>2016-07-26T18:00:58Z</time>
      </trkpt>
      <trkpt lat="47.135087996721268" lon="7.231993982568383">
        <ele>437.06</ele>
        <time>2016-07-26T18:01:09Z</time>
      </trkpt>
      <trkpt lat="47.13511498644948" lon="7.232332024723291">
        <ele>436.57999999999998</ele>
        <time>2016-07-26T18:01:11Z</time>
      </trkpt>
      <trkpt lat="47.135111968964338" lon="7.232499998062849">
        <ele>436.10000000000002</ele>
        <time>2016-07-26T18:01:12Z</time>
      </trkpt>
      <trkpt lat="47.135097971186042" lon="7.232647016644478">
        <ele>435.13</ele>
        <time>2016-07-26T18:01:13Z</time>
      </trkpt>
      <trkpt lat="47.135081961750984" lon="7.23278196528554">
        <ele>434.64999999999998</ele>
        <time>2016-07-26T18:01:14Z</time>
      </trkpt>
      <trkpt lat="47.135065030306578" lon="7.232916997745633">
        <ele>434.64999999999998</ele>
        <time>2016-07-26T18:01:15Z</time>
      </trkpt>
      <trkpt lat="47.140355687588453" lon="7.244686363264918">
        <ele>434.17000000000002</ele>
        <time>2016-07-26T18:01:23Z</time>
      </trkpt>
    </trkseg>
  </trk>

</gpx>